<?xml version="1.0" encoding="UTF-8" standalone="no" ?>
<gpx xmlns="http://www.topografix.com/GPX/1/1" xmlns:xsi="http://www.w3.org/2001/XMLSchema-instance" xsi:schemaLocation="http://www.topografix.com/GPX/1/1 http://www.topografix.com/GPX/1/1/gpx.xsd" version="1.1" creator="VisuGPX - https://www.visugpx.com">
  <metadata>
    <name>VTT-2022-08-05-03</name>
  </metadata>
  <trk>
    <name><![CDATA[VTT-2022-08-05-03]]></name>
    <extensions>
      <line xmlns="http://www.topografix.com/GPX/gpx_style/0/2">
        <width>4</width>
      </line>
    </extensions>
    <trkseg>
      <trkpt lat="42.91878" lon="1.83646">
        <ele>571.6</ele>
        <time>2022-08-05T07:44:15.000Z</time>
      </trkpt>
      <trkpt lat="42.9188" lon="1.83643">
        <ele>571.6</ele>
        <time>2022-08-05T07:44:16.000Z</time>
      </trkpt>
      <trkpt lat="42.91884" lon="1.83636">
        <ele>571.7</ele>
        <time>2022-08-05T07:44:18.000Z</time>
      </trkpt>
      <trkpt lat="42.91888" lon="1.83628">
        <ele>571.8</ele>
        <time>2022-08-05T07:44:20.000Z</time>
      </trkpt>
      <trkpt lat="42.91892" lon="1.83622">
        <ele>571.8</ele>
        <time>2022-08-05T07:44:22.000Z</time>
      </trkpt>
      <trkpt lat="42.91899" lon="1.83618">
        <ele>571.9</ele>
        <time>2022-08-05T07:44:24.000Z</time>
      </trkpt>
      <trkpt lat="42.91905" lon="1.83615">
        <ele>572</ele>
        <time>2022-08-05T07:44:26.000Z</time>
      </trkpt>
      <trkpt lat="42.91911" lon="1.8361">
        <ele>572</ele>
        <time>2022-08-05T07:44:28.000Z</time>
      </trkpt>
      <trkpt lat="42.91914" lon="1.83603">
        <ele>572</ele>
        <time>2022-08-05T07:44:30.000Z</time>
      </trkpt>
      <trkpt lat="42.91918" lon="1.83596">
        <ele>572.1</ele>
        <time>2022-08-05T07:44:32.000Z</time>
      </trkpt>
      <trkpt lat="42.91917" lon="1.8359">
        <ele>572.3</ele>
        <time>2022-08-05T07:44:53.000Z</time>
      </trkpt>
      <trkpt lat="42.91922" lon="1.83584">
        <ele>572.3</ele>
        <time>2022-08-05T07:44:55.000Z</time>
      </trkpt>
      <trkpt lat="42.91929" lon="1.83583">
        <ele>572.3</ele>
        <time>2022-08-05T07:44:57.000Z</time>
      </trkpt>
      <trkpt lat="42.91934" lon="1.83585">
        <ele>572.3</ele>
        <time>2022-08-05T07:44:59.000Z</time>
      </trkpt>
      <trkpt lat="42.91939" lon="1.8359">
        <ele>572.3</ele>
        <time>2022-08-05T07:45:01.000Z</time>
      </trkpt>
      <trkpt lat="42.91944" lon="1.83595">
        <ele>572.3</ele>
        <time>2022-08-05T07:45:03.000Z</time>
      </trkpt>
      <trkpt lat="42.91948" lon="1.836">
        <ele>572.3</ele>
        <time>2022-08-05T07:45:05.000Z</time>
      </trkpt>
      <trkpt lat="42.91952" lon="1.83605">
        <ele>572.3</ele>
        <time>2022-08-05T07:45:07.000Z</time>
      </trkpt>
      <trkpt lat="42.91956" lon="1.8361">
        <ele>572.3</ele>
        <time>2022-08-05T07:45:09.000Z</time>
      </trkpt>
      <trkpt lat="42.91961" lon="1.83614">
        <ele>572.3</ele>
        <time>2022-08-05T07:45:11.000Z</time>
      </trkpt>
      <trkpt lat="42.91967" lon="1.83619">
        <ele>572.3</ele>
        <time>2022-08-05T07:45:13.000Z</time>
      </trkpt>
      <trkpt lat="42.91973" lon="1.83625">
        <ele>572.3</ele>
        <time>2022-08-05T07:45:15.000Z</time>
      </trkpt>
      <trkpt lat="42.9198" lon="1.83631">
        <ele>572.2</ele>
        <time>2022-08-05T07:45:17.000Z</time>
      </trkpt>
      <trkpt lat="42.91987" lon="1.83638">
        <ele>572.2</ele>
        <time>2022-08-05T07:45:19.000Z</time>
      </trkpt>
      <trkpt lat="42.91995" lon="1.83646">
        <ele>572.1</ele>
        <time>2022-08-05T07:45:21.000Z</time>
      </trkpt>
      <trkpt lat="42.91999" lon="1.8365">
        <ele>572.1</ele>
        <time>2022-08-05T07:45:22.000Z</time>
      </trkpt>
      <trkpt lat="42.92003" lon="1.83653">
        <ele>572</ele>
        <time>2022-08-05T07:45:23.000Z</time>
      </trkpt>
      <trkpt lat="42.92007" lon="1.83658">
        <ele>572</ele>
        <time>2022-08-05T07:45:24.000Z</time>
      </trkpt>
      <trkpt lat="42.92011" lon="1.83663">
        <ele>571.9</ele>
        <time>2022-08-05T07:45:25.000Z</time>
      </trkpt>
      <trkpt lat="42.92015" lon="1.83667">
        <ele>571.9</ele>
        <time>2022-08-05T07:45:26.000Z</time>
      </trkpt>
      <trkpt lat="42.92019" lon="1.83671">
        <ele>571.7</ele>
        <time>2022-08-05T07:45:27.000Z</time>
      </trkpt>
      <trkpt lat="42.92024" lon="1.83675">
        <ele>571.6</ele>
        <time>2022-08-05T07:45:28.000Z</time>
      </trkpt>
      <trkpt lat="42.92028" lon="1.83679">
        <ele>571.4</ele>
        <time>2022-08-05T07:45:29.000Z</time>
      </trkpt>
      <trkpt lat="42.92033" lon="1.83683">
        <ele>571.3</ele>
        <time>2022-08-05T07:45:30.000Z</time>
      </trkpt>
      <trkpt lat="42.92037" lon="1.83688">
        <ele>571.2</ele>
        <time>2022-08-05T07:45:31.000Z</time>
      </trkpt>
      <trkpt lat="42.92041" lon="1.83693">
        <ele>571.1</ele>
        <time>2022-08-05T07:45:32.000Z</time>
      </trkpt>
      <trkpt lat="42.92045" lon="1.83698">
        <ele>571</ele>
        <time>2022-08-05T07:45:33.000Z</time>
      </trkpt>
      <trkpt lat="42.92049" lon="1.83703">
        <ele>570.9</ele>
        <time>2022-08-05T07:45:34.000Z</time>
      </trkpt>
      <trkpt lat="42.92053" lon="1.83708">
        <ele>570.8</ele>
        <time>2022-08-05T07:45:35.000Z</time>
      </trkpt>
      <trkpt lat="42.92057" lon="1.83713">
        <ele>570.7</ele>
        <time>2022-08-05T07:45:36.000Z</time>
      </trkpt>
      <trkpt lat="42.92061" lon="1.83718">
        <ele>570.6</ele>
        <time>2022-08-05T07:45:37.000Z</time>
      </trkpt>
      <trkpt lat="42.92066" lon="1.83722">
        <ele>570.5</ele>
        <time>2022-08-05T07:45:38.000Z</time>
      </trkpt>
      <trkpt lat="42.92071" lon="1.83727">
        <ele>570.4</ele>
        <time>2022-08-05T07:45:39.000Z</time>
      </trkpt>
      <trkpt lat="42.92075" lon="1.83732">
        <ele>570.2</ele>
        <time>2022-08-05T07:45:40.000Z</time>
      </trkpt>
      <trkpt lat="42.9208" lon="1.83737">
        <ele>570.1</ele>
        <time>2022-08-05T07:45:41.000Z</time>
      </trkpt>
      <trkpt lat="42.92084" lon="1.83741">
        <ele>570</ele>
        <time>2022-08-05T07:45:42.000Z</time>
      </trkpt>
      <trkpt lat="42.92089" lon="1.83745">
        <ele>569.9</ele>
        <time>2022-08-05T07:45:43.000Z</time>
      </trkpt>
      <trkpt lat="42.92094" lon="1.83749">
        <ele>569.8</ele>
        <time>2022-08-05T07:45:44.000Z</time>
      </trkpt>
      <trkpt lat="42.921" lon="1.83753">
        <ele>569.7</ele>
        <time>2022-08-05T07:45:45.000Z</time>
      </trkpt>
      <trkpt lat="42.92105" lon="1.83757">
        <ele>569.6</ele>
        <time>2022-08-05T07:45:46.000Z</time>
      </trkpt>
      <trkpt lat="42.92111" lon="1.8376">
        <ele>569.5</ele>
        <time>2022-08-05T07:45:47.000Z</time>
      </trkpt>
      <trkpt lat="42.92116" lon="1.83764">
        <ele>569.4</ele>
        <time>2022-08-05T07:45:48.000Z</time>
      </trkpt>
      <trkpt lat="42.92122" lon="1.83767">
        <ele>569.3</ele>
        <time>2022-08-05T07:45:49.000Z</time>
      </trkpt>
      <trkpt lat="42.92128" lon="1.83771">
        <ele>569.1</ele>
        <time>2022-08-05T07:45:50.000Z</time>
      </trkpt>
      <trkpt lat="42.92134" lon="1.83775">
        <ele>569</ele>
        <time>2022-08-05T07:45:51.000Z</time>
      </trkpt>
      <trkpt lat="42.9214" lon="1.83779">
        <ele>568.9</ele>
        <time>2022-08-05T07:45:52.000Z</time>
      </trkpt>
      <trkpt lat="42.92145" lon="1.83783">
        <ele>568.8</ele>
        <time>2022-08-05T07:45:53.000Z</time>
      </trkpt>
      <trkpt lat="42.92151" lon="1.83787">
        <ele>568.7</ele>
        <time>2022-08-05T07:45:54.000Z</time>
      </trkpt>
      <trkpt lat="42.92156" lon="1.83791">
        <ele>568.6</ele>
        <time>2022-08-05T07:45:55.000Z</time>
      </trkpt>
      <trkpt lat="42.92161" lon="1.83795">
        <ele>568.4</ele>
        <time>2022-08-05T07:45:56.000Z</time>
      </trkpt>
      <trkpt lat="42.92167" lon="1.83799">
        <ele>568.3</ele>
        <time>2022-08-05T07:45:57.000Z</time>
      </trkpt>
      <trkpt lat="42.92172" lon="1.83802">
        <ele>568.2</ele>
        <time>2022-08-05T07:45:58.000Z</time>
      </trkpt>
      <trkpt lat="42.92178" lon="1.83806">
        <ele>568.1</ele>
        <time>2022-08-05T07:45:59.000Z</time>
      </trkpt>
      <trkpt lat="42.92183" lon="1.83809">
        <ele>567.9</ele>
        <time>2022-08-05T07:46:00.000Z</time>
      </trkpt>
      <trkpt lat="42.92188" lon="1.83812">
        <ele>567.8</ele>
        <time>2022-08-05T07:46:01.000Z</time>
      </trkpt>
      <trkpt lat="42.92194" lon="1.83815">
        <ele>567.7</ele>
        <time>2022-08-05T07:46:02.000Z</time>
      </trkpt>
      <trkpt lat="42.92199" lon="1.83819">
        <ele>567.6</ele>
        <time>2022-08-05T07:46:03.000Z</time>
      </trkpt>
      <trkpt lat="42.92205" lon="1.83822">
        <ele>567.4</ele>
        <time>2022-08-05T07:46:04.000Z</time>
      </trkpt>
      <trkpt lat="42.9221" lon="1.83825">
        <ele>567.3</ele>
        <time>2022-08-05T07:46:05.000Z</time>
      </trkpt>
      <trkpt lat="42.92216" lon="1.83828">
        <ele>567.1</ele>
        <time>2022-08-05T07:46:06.000Z</time>
      </trkpt>
      <trkpt lat="42.92222" lon="1.8383">
        <ele>567</ele>
        <time>2022-08-05T07:46:07.000Z</time>
      </trkpt>
      <trkpt lat="42.92227" lon="1.83832">
        <ele>566.8</ele>
        <time>2022-08-05T07:46:08.000Z</time>
      </trkpt>
      <trkpt lat="42.9223" lon="1.83839">
        <ele>566.6</ele>
        <time>2022-08-05T07:46:10.000Z</time>
      </trkpt>
      <trkpt lat="42.92227" lon="1.83848">
        <ele>566.3</ele>
        <time>2022-08-05T07:46:12.000Z</time>
      </trkpt>
      <trkpt lat="42.92225" lon="1.83857">
        <ele>566.1</ele>
        <time>2022-08-05T07:46:14.000Z</time>
      </trkpt>
      <trkpt lat="42.92222" lon="1.83867">
        <ele>565.9</ele>
        <time>2022-08-05T07:46:16.000Z</time>
      </trkpt>
      <trkpt lat="42.9222" lon="1.83878">
        <ele>565.7</ele>
        <time>2022-08-05T07:46:18.000Z</time>
      </trkpt>
      <trkpt lat="42.92219" lon="1.83885">
        <ele>565.5</ele>
        <time>2022-08-05T07:46:19.000Z</time>
      </trkpt>
      <trkpt lat="42.92218" lon="1.83891">
        <ele>565.4</ele>
        <time>2022-08-05T07:46:20.000Z</time>
      </trkpt>
      <trkpt lat="42.92216" lon="1.83898">
        <ele>565.2</ele>
        <time>2022-08-05T07:46:21.000Z</time>
      </trkpt>
      <trkpt lat="42.92215" lon="1.83905">
        <ele>565</ele>
        <time>2022-08-05T07:46:22.000Z</time>
      </trkpt>
      <trkpt lat="42.92214" lon="1.83914">
        <ele>564.8</ele>
        <time>2022-08-05T07:46:23.000Z</time>
      </trkpt>
      <trkpt lat="42.92212" lon="1.83922">
        <ele>564.6</ele>
        <time>2022-08-05T07:46:24.000Z</time>
      </trkpt>
      <trkpt lat="42.92209" lon="1.8393">
        <ele>564.3</ele>
        <time>2022-08-05T07:46:25.000Z</time>
      </trkpt>
      <trkpt lat="42.92206" lon="1.83938">
        <ele>564</ele>
        <time>2022-08-05T07:46:26.000Z</time>
      </trkpt>
      <trkpt lat="42.92203" lon="1.83947">
        <ele>563.6</ele>
        <time>2022-08-05T07:46:27.000Z</time>
      </trkpt>
      <trkpt lat="42.92201" lon="1.83955">
        <ele>562.9</ele>
        <time>2022-08-05T07:46:29.000Z</time>
      </trkpt>
      <trkpt lat="42.92203" lon="1.83965">
        <ele>561.9</ele>
        <time>2022-08-05T07:46:32.000Z</time>
      </trkpt>
      <trkpt lat="42.9221" lon="1.83972">
        <ele>561.2</ele>
        <time>2022-08-05T07:46:34.000Z</time>
      </trkpt>
      <trkpt lat="42.92217" lon="1.83981">
        <ele>560.6</ele>
        <time>2022-08-05T07:46:36.000Z</time>
      </trkpt>
      <trkpt lat="42.92221" lon="1.83985">
        <ele>560.3</ele>
        <time>2022-08-05T07:46:37.000Z</time>
      </trkpt>
      <trkpt lat="42.92225" lon="1.83991">
        <ele>560</ele>
        <time>2022-08-05T07:46:38.000Z</time>
      </trkpt>
      <trkpt lat="42.92228" lon="1.83997">
        <ele>559.7</ele>
        <time>2022-08-05T07:46:39.000Z</time>
      </trkpt>
      <trkpt lat="42.92232" lon="1.84003">
        <ele>559.4</ele>
        <time>2022-08-05T07:46:40.000Z</time>
      </trkpt>
      <trkpt lat="42.92235" lon="1.8401">
        <ele>559.1</ele>
        <time>2022-08-05T07:46:41.000Z</time>
      </trkpt>
      <trkpt lat="42.9224" lon="1.84015">
        <ele>558.8</ele>
        <time>2022-08-05T07:46:42.000Z</time>
      </trkpt>
      <trkpt lat="42.92245" lon="1.84021">
        <ele>558.5</ele>
        <time>2022-08-05T07:46:43.000Z</time>
      </trkpt>
      <trkpt lat="42.9225" lon="1.84026">
        <ele>558.2</ele>
        <time>2022-08-05T07:46:44.000Z</time>
      </trkpt>
      <trkpt lat="42.92256" lon="1.84032">
        <ele>558</ele>
        <time>2022-08-05T07:46:45.000Z</time>
      </trkpt>
      <trkpt lat="42.92261" lon="1.84037">
        <ele>557.7</ele>
        <time>2022-08-05T07:46:46.000Z</time>
      </trkpt>
      <trkpt lat="42.92266" lon="1.84043">
        <ele>557.5</ele>
        <time>2022-08-05T07:46:47.000Z</time>
      </trkpt>
      <trkpt lat="42.92272" lon="1.84048">
        <ele>557.2</ele>
        <time>2022-08-05T07:46:48.000Z</time>
      </trkpt>
      <trkpt lat="42.92276" lon="1.84053">
        <ele>557</ele>
        <time>2022-08-05T07:46:49.000Z</time>
      </trkpt>
      <trkpt lat="42.92281" lon="1.84059">
        <ele>556.8</ele>
        <time>2022-08-05T07:46:50.000Z</time>
      </trkpt>
      <trkpt lat="42.92285" lon="1.84064">
        <ele>556.6</ele>
        <time>2022-08-05T07:46:51.000Z</time>
      </trkpt>
      <trkpt lat="42.9229" lon="1.84069">
        <ele>556.4</ele>
        <time>2022-08-05T07:46:52.000Z</time>
      </trkpt>
      <trkpt lat="42.92294" lon="1.84074">
        <ele>556.2</ele>
        <time>2022-08-05T07:46:53.000Z</time>
      </trkpt>
      <trkpt lat="42.92298" lon="1.8408">
        <ele>556</ele>
        <time>2022-08-05T07:46:54.000Z</time>
      </trkpt>
      <trkpt lat="42.92303" lon="1.84085">
        <ele>555.8</ele>
        <time>2022-08-05T07:46:55.000Z</time>
      </trkpt>
      <trkpt lat="42.92308" lon="1.84091">
        <ele>555.6</ele>
        <time>2022-08-05T07:46:56.000Z</time>
      </trkpt>
      <trkpt lat="42.92313" lon="1.84096">
        <ele>555.4</ele>
        <time>2022-08-05T07:46:57.000Z</time>
      </trkpt>
      <trkpt lat="42.92319" lon="1.84103">
        <ele>555.3</ele>
        <time>2022-08-05T07:46:58.000Z</time>
      </trkpt>
      <trkpt lat="42.92323" lon="1.84108">
        <ele>555</ele>
        <time>2022-08-05T07:46:59.000Z</time>
      </trkpt>
      <trkpt lat="42.9233" lon="1.84114">
        <ele>554.9</ele>
        <time>2022-08-05T07:47:00.000Z</time>
      </trkpt>
      <trkpt lat="42.92336" lon="1.84121">
        <ele>554.7</ele>
        <time>2022-08-05T07:47:01.000Z</time>
      </trkpt>
      <trkpt lat="42.92341" lon="1.84128">
        <ele>554.5</ele>
        <time>2022-08-05T07:47:02.000Z</time>
      </trkpt>
      <trkpt lat="42.92341" lon="1.84137">
        <ele>554.3</ele>
        <time>2022-08-05T07:47:03.000Z</time>
      </trkpt>
      <trkpt lat="42.92338" lon="1.84146">
        <ele>554.2</ele>
        <time>2022-08-05T07:47:04.000Z</time>
      </trkpt>
      <trkpt lat="42.92334" lon="1.84154">
        <ele>554</ele>
        <time>2022-08-05T07:47:05.000Z</time>
      </trkpt>
      <trkpt lat="42.9233" lon="1.84161">
        <ele>553.9</ele>
        <time>2022-08-05T07:47:06.000Z</time>
      </trkpt>
      <trkpt lat="42.92327" lon="1.84169">
        <ele>553.7</ele>
        <time>2022-08-05T07:47:07.000Z</time>
      </trkpt>
      <trkpt lat="42.92323" lon="1.84176">
        <ele>553.6</ele>
        <time>2022-08-05T07:47:08.000Z</time>
      </trkpt>
      <trkpt lat="42.92321" lon="1.84184">
        <ele>553.5</ele>
        <time>2022-08-05T07:47:09.000Z</time>
      </trkpt>
      <trkpt lat="42.92321" lon="1.84191">
        <ele>553.3</ele>
        <time>2022-08-05T07:47:10.000Z</time>
      </trkpt>
      <trkpt lat="42.92323" lon="1.842">
        <ele>553.2</ele>
        <time>2022-08-05T07:47:11.000Z</time>
      </trkpt>
      <trkpt lat="42.92328" lon="1.84206">
        <ele>553</ele>
        <time>2022-08-05T07:47:12.000Z</time>
      </trkpt>
      <trkpt lat="42.92335" lon="1.84211">
        <ele>552.8</ele>
        <time>2022-08-05T07:47:13.000Z</time>
      </trkpt>
      <trkpt lat="42.92342" lon="1.84215">
        <ele>552.6</ele>
        <time>2022-08-05T07:47:14.000Z</time>
      </trkpt>
      <trkpt lat="42.92349" lon="1.8422">
        <ele>552.5</ele>
        <time>2022-08-05T07:47:15.000Z</time>
      </trkpt>
      <trkpt lat="42.92356" lon="1.84223">
        <ele>552.3</ele>
        <time>2022-08-05T07:47:16.000Z</time>
      </trkpt>
      <trkpt lat="42.92363" lon="1.84228">
        <ele>552.1</ele>
        <time>2022-08-05T07:47:17.000Z</time>
      </trkpt>
      <trkpt lat="42.92369" lon="1.84231">
        <ele>551.9</ele>
        <time>2022-08-05T07:47:18.000Z</time>
      </trkpt>
      <trkpt lat="42.92376" lon="1.84235">
        <ele>551.8</ele>
        <time>2022-08-05T07:47:19.000Z</time>
      </trkpt>
      <trkpt lat="42.92383" lon="1.84239">
        <ele>551.6</ele>
        <time>2022-08-05T07:47:20.000Z</time>
      </trkpt>
      <trkpt lat="42.92389" lon="1.84244">
        <ele>551.4</ele>
        <time>2022-08-05T07:47:21.000Z</time>
      </trkpt>
      <trkpt lat="42.92395" lon="1.8425">
        <ele>551.2</ele>
        <time>2022-08-05T07:47:22.000Z</time>
      </trkpt>
      <trkpt lat="42.924" lon="1.84256">
        <ele>550.9</ele>
        <time>2022-08-05T07:47:23.000Z</time>
      </trkpt>
      <trkpt lat="42.92405" lon="1.84264">
        <ele>550.7</ele>
        <time>2022-08-05T07:47:24.000Z</time>
      </trkpt>
      <trkpt lat="42.9241" lon="1.84273">
        <ele>550.4</ele>
        <time>2022-08-05T07:47:25.000Z</time>
      </trkpt>
      <trkpt lat="42.92413" lon="1.84282">
        <ele>550.2</ele>
        <time>2022-08-05T07:47:26.000Z</time>
      </trkpt>
      <trkpt lat="42.92416" lon="1.84292">
        <ele>550</ele>
        <time>2022-08-05T07:47:27.000Z</time>
      </trkpt>
      <trkpt lat="42.92419" lon="1.84301">
        <ele>550.6</ele>
        <time>2022-08-05T07:47:28.000Z</time>
      </trkpt>
      <trkpt lat="42.9242" lon="1.8431">
        <ele>550.4</ele>
        <time>2022-08-05T07:47:29.000Z</time>
      </trkpt>
      <trkpt lat="42.92421" lon="1.84318">
        <ele>550.2</ele>
        <time>2022-08-05T07:47:30.000Z</time>
      </trkpt>
      <trkpt lat="42.92422" lon="1.84326">
        <ele>550</ele>
        <time>2022-08-05T07:47:31.000Z</time>
      </trkpt>
      <trkpt lat="42.92423" lon="1.84333">
        <ele>551</ele>
        <time>2022-08-05T07:47:32.000Z</time>
      </trkpt>
      <trkpt lat="42.92425" lon="1.84341">
        <ele>550.8</ele>
        <time>2022-08-05T07:47:33.000Z</time>
      </trkpt>
      <trkpt lat="42.92426" lon="1.84349">
        <ele>550.5</ele>
        <time>2022-08-05T07:47:34.000Z</time>
      </trkpt>
      <trkpt lat="42.92426" lon="1.84357">
        <ele>550.2</ele>
        <time>2022-08-05T07:47:35.000Z</time>
      </trkpt>
      <trkpt lat="42.92426" lon="1.84365">
        <ele>549.8</ele>
        <time>2022-08-05T07:47:36.000Z</time>
      </trkpt>
      <trkpt lat="42.92427" lon="1.84373">
        <ele>549.4</ele>
        <time>2022-08-05T07:47:37.000Z</time>
      </trkpt>
      <trkpt lat="42.92427" lon="1.84381">
        <ele>549.1</ele>
        <time>2022-08-05T07:47:38.000Z</time>
      </trkpt>
      <trkpt lat="42.92426" lon="1.8439">
        <ele>549.2</ele>
        <time>2022-08-05T07:47:39.000Z</time>
      </trkpt>
      <trkpt lat="42.92427" lon="1.84397">
        <ele>549</ele>
        <time>2022-08-05T07:47:40.000Z</time>
      </trkpt>
      <trkpt lat="42.92427" lon="1.84405">
        <ele>548.7</ele>
        <time>2022-08-05T07:47:41.000Z</time>
      </trkpt>
      <trkpt lat="42.92429" lon="1.84411">
        <ele>548.5</ele>
        <time>2022-08-05T07:47:42.000Z</time>
      </trkpt>
      <trkpt lat="42.92432" lon="1.84417">
        <ele>548.3</ele>
        <time>2022-08-05T07:47:43.000Z</time>
      </trkpt>
      <trkpt lat="42.92435" lon="1.84421">
        <ele>548.1</ele>
        <time>2022-08-05T07:47:44.000Z</time>
      </trkpt>
      <trkpt lat="42.92439" lon="1.84426">
        <ele>547.9</ele>
        <time>2022-08-05T07:47:45.000Z</time>
      </trkpt>
      <trkpt lat="42.92443" lon="1.84429">
        <ele>547.8</ele>
        <time>2022-08-05T07:47:46.000Z</time>
      </trkpt>
      <trkpt lat="42.92449" lon="1.84433">
        <ele>548.3</ele>
        <time>2022-08-05T07:47:48.000Z</time>
      </trkpt>
      <trkpt lat="42.92453" lon="1.84437">
        <ele>548</ele>
        <time>2022-08-05T07:47:50.000Z</time>
      </trkpt>
      <trkpt lat="42.92457" lon="1.84443">
        <ele>547.8</ele>
        <time>2022-08-05T07:47:52.000Z</time>
      </trkpt>
      <trkpt lat="42.92457" lon="1.84451">
        <ele>547.6</ele>
        <time>2022-08-05T07:47:54.000Z</time>
      </trkpt>
      <trkpt lat="42.92457" lon="1.84459">
        <ele>547.5</ele>
        <time>2022-08-05T07:47:56.000Z</time>
      </trkpt>
      <trkpt lat="42.92456" lon="1.84468">
        <ele>547.3</ele>
        <time>2022-08-05T07:47:59.000Z</time>
      </trkpt>
      <trkpt lat="42.92455" lon="1.84474">
        <ele>547.5</ele>
        <time>2022-08-05T07:48:01.000Z</time>
      </trkpt>
      <trkpt lat="42.92455" lon="1.84482">
        <ele>547.4</ele>
        <time>2022-08-05T07:48:03.000Z</time>
      </trkpt>
      <trkpt lat="42.92456" lon="1.84489">
        <ele>547.3</ele>
        <time>2022-08-05T07:48:05.000Z</time>
      </trkpt>
      <trkpt lat="42.92456" lon="1.84497">
        <ele>547.2</ele>
        <time>2022-08-05T07:48:08.000Z</time>
      </trkpt>
      <trkpt lat="42.92456" lon="1.84506">
        <ele>547</ele>
        <time>2022-08-05T07:48:11.000Z</time>
      </trkpt>
      <trkpt lat="42.92455" lon="1.84513">
        <ele>546.9</ele>
        <time>2022-08-05T07:48:13.000Z</time>
      </trkpt>
      <trkpt lat="42.92453" lon="1.84521">
        <ele>546.9</ele>
        <time>2022-08-05T07:48:15.000Z</time>
      </trkpt>
      <trkpt lat="42.92449" lon="1.84533">
        <ele>546.8</ele>
        <time>2022-08-05T07:48:17.000Z</time>
      </trkpt>
      <trkpt lat="42.92447" lon="1.84545">
        <ele>546.7</ele>
        <time>2022-08-05T07:48:19.000Z</time>
      </trkpt>
      <trkpt lat="42.92445" lon="1.84551">
        <ele>546.7</ele>
        <time>2022-08-05T07:48:20.000Z</time>
      </trkpt>
      <trkpt lat="42.92444" lon="1.84558">
        <ele>546.7</ele>
        <time>2022-08-05T07:48:21.000Z</time>
      </trkpt>
      <trkpt lat="42.92443" lon="1.84564">
        <ele>546.7</ele>
        <time>2022-08-05T07:48:22.000Z</time>
      </trkpt>
      <trkpt lat="42.92441" lon="1.84575">
        <ele>546.8</ele>
        <time>2022-08-05T07:48:24.000Z</time>
      </trkpt>
      <trkpt lat="42.92439" lon="1.84585">
        <ele>546.8</ele>
        <time>2022-08-05T07:48:26.000Z</time>
      </trkpt>
      <trkpt lat="42.92438" lon="1.84594">
        <ele>546.9</ele>
        <time>2022-08-05T07:48:28.000Z</time>
      </trkpt>
      <trkpt lat="42.92437" lon="1.84601">
        <ele>547</ele>
        <time>2022-08-05T07:48:30.000Z</time>
      </trkpt>
      <trkpt lat="42.92438" lon="1.84626">
        <ele>548</ele>
        <time>2022-08-05T07:49:41.000Z</time>
      </trkpt>
      <trkpt lat="42.92454" lon="1.84633">
        <ele>548.3</ele>
        <time>2022-08-05T07:49:46.000Z</time>
      </trkpt>
      <trkpt lat="42.92462" lon="1.84637">
        <ele>548.4</ele>
        <time>2022-08-05T07:49:48.000Z</time>
      </trkpt>
      <trkpt lat="42.92468" lon="1.84639">
        <ele>548.4</ele>
        <time>2022-08-05T07:49:50.000Z</time>
      </trkpt>
      <trkpt lat="42.92475" lon="1.84641">
        <ele>548.5</ele>
        <time>2022-08-05T07:49:52.000Z</time>
      </trkpt>
      <trkpt lat="42.92482" lon="1.84643">
        <ele>548.6</ele>
        <time>2022-08-05T07:49:54.000Z</time>
      </trkpt>
      <trkpt lat="42.92489" lon="1.84645">
        <ele>548.7</ele>
        <time>2022-08-05T07:49:56.000Z</time>
      </trkpt>
      <trkpt lat="42.92497" lon="1.84647">
        <ele>548.9</ele>
        <time>2022-08-05T07:49:58.000Z</time>
      </trkpt>
      <trkpt lat="42.92505" lon="1.84649">
        <ele>549.2</ele>
        <time>2022-08-05T07:50:00.000Z</time>
      </trkpt>
      <trkpt lat="42.92512" lon="1.84651">
        <ele>549.4</ele>
        <time>2022-08-05T07:50:02.000Z</time>
      </trkpt>
      <trkpt lat="42.92521" lon="1.84653">
        <ele>549.5</ele>
        <time>2022-08-05T07:50:04.000Z</time>
      </trkpt>
      <trkpt lat="42.92526" lon="1.84653">
        <ele>549.6</ele>
        <time>2022-08-05T07:50:05.000Z</time>
      </trkpt>
      <trkpt lat="42.9253" lon="1.84654">
        <ele>549.6</ele>
        <time>2022-08-05T07:50:06.000Z</time>
      </trkpt>
      <trkpt lat="42.92535" lon="1.84654">
        <ele>549.6</ele>
        <time>2022-08-05T07:50:07.000Z</time>
      </trkpt>
      <trkpt lat="42.92541" lon="1.84654">
        <ele>549.6</ele>
        <time>2022-08-05T07:50:08.000Z</time>
      </trkpt>
      <trkpt lat="42.92548" lon="1.84655">
        <ele>549.4</ele>
        <time>2022-08-05T07:50:09.000Z</time>
      </trkpt>
      <trkpt lat="42.92555" lon="1.84655">
        <ele>549.3</ele>
        <time>2022-08-05T07:50:10.000Z</time>
      </trkpt>
      <trkpt lat="42.92562" lon="1.84657">
        <ele>549.2</ele>
        <time>2022-08-05T07:50:11.000Z</time>
      </trkpt>
      <trkpt lat="42.9257" lon="1.84658">
        <ele>549.1</ele>
        <time>2022-08-05T07:50:12.000Z</time>
      </trkpt>
      <trkpt lat="42.92578" lon="1.84659">
        <ele>549</ele>
        <time>2022-08-05T07:50:13.000Z</time>
      </trkpt>
      <trkpt lat="42.92584" lon="1.84659">
        <ele>548.9</ele>
        <time>2022-08-05T07:50:14.000Z</time>
      </trkpt>
      <trkpt lat="42.92591" lon="1.84659">
        <ele>548.9</ele>
        <time>2022-08-05T07:50:15.000Z</time>
      </trkpt>
      <trkpt lat="42.92597" lon="1.84659">
        <ele>548.8</ele>
        <time>2022-08-05T07:50:16.000Z</time>
      </trkpt>
      <trkpt lat="42.92602" lon="1.84659">
        <ele>548.7</ele>
        <time>2022-08-05T07:50:17.000Z</time>
      </trkpt>
      <trkpt lat="42.92608" lon="1.84659">
        <ele>548.7</ele>
        <time>2022-08-05T07:50:18.000Z</time>
      </trkpt>
      <trkpt lat="42.92613" lon="1.84658">
        <ele>548.7</ele>
        <time>2022-08-05T07:50:19.000Z</time>
      </trkpt>
      <trkpt lat="42.92618" lon="1.84657">
        <ele>548.6</ele>
        <time>2022-08-05T07:50:20.000Z</time>
      </trkpt>
      <trkpt lat="42.92623" lon="1.84656">
        <ele>548.6</ele>
        <time>2022-08-05T07:50:21.000Z</time>
      </trkpt>
      <trkpt lat="42.92629" lon="1.84655">
        <ele>548.6</ele>
        <time>2022-08-05T07:50:22.000Z</time>
      </trkpt>
      <trkpt lat="42.92635" lon="1.84653">
        <ele>548.5</ele>
        <time>2022-08-05T07:50:23.000Z</time>
      </trkpt>
      <trkpt lat="42.92641" lon="1.84651">
        <ele>548.4</ele>
        <time>2022-08-05T07:50:24.000Z</time>
      </trkpt>
      <trkpt lat="42.92646" lon="1.8465">
        <ele>548.3</ele>
        <time>2022-08-05T07:50:25.000Z</time>
      </trkpt>
      <trkpt lat="42.92652" lon="1.84649">
        <ele>548.2</ele>
        <time>2022-08-05T07:50:26.000Z</time>
      </trkpt>
      <trkpt lat="42.92658" lon="1.84646">
        <ele>548.2</ele>
        <time>2022-08-05T07:50:27.000Z</time>
      </trkpt>
      <trkpt lat="42.92664" lon="1.84644">
        <ele>548</ele>
        <time>2022-08-05T07:50:28.000Z</time>
      </trkpt>
      <trkpt lat="42.92671" lon="1.84641">
        <ele>547.9</ele>
        <time>2022-08-05T07:50:29.000Z</time>
      </trkpt>
      <trkpt lat="42.92678" lon="1.84637">
        <ele>547.8</ele>
        <time>2022-08-05T07:50:30.000Z</time>
      </trkpt>
      <trkpt lat="42.92685" lon="1.84633">
        <ele>547.6</ele>
        <time>2022-08-05T07:50:31.000Z</time>
      </trkpt>
      <trkpt lat="42.92693" lon="1.84629">
        <ele>547.3</ele>
        <time>2022-08-05T07:50:32.000Z</time>
      </trkpt>
      <trkpt lat="42.92701" lon="1.84625">
        <ele>547</ele>
        <time>2022-08-05T07:50:33.000Z</time>
      </trkpt>
      <trkpt lat="42.92709" lon="1.84623">
        <ele>546.7</ele>
        <time>2022-08-05T07:50:34.000Z</time>
      </trkpt>
      <trkpt lat="42.92718" lon="1.84621">
        <ele>546.3</ele>
        <time>2022-08-05T07:50:35.000Z</time>
      </trkpt>
      <trkpt lat="42.92728" lon="1.84622">
        <ele>546</ele>
        <time>2022-08-05T07:50:36.000Z</time>
      </trkpt>
      <trkpt lat="42.92737" lon="1.84624">
        <ele>545.6</ele>
        <time>2022-08-05T07:50:37.000Z</time>
      </trkpt>
      <trkpt lat="42.92746" lon="1.84626">
        <ele>545.2</ele>
        <time>2022-08-05T07:50:38.000Z</time>
      </trkpt>
      <trkpt lat="42.92755" lon="1.8463">
        <ele>544.9</ele>
        <time>2022-08-05T07:50:39.000Z</time>
      </trkpt>
      <trkpt lat="42.92765" lon="1.84633">
        <ele>544.5</ele>
        <time>2022-08-05T07:50:40.000Z</time>
      </trkpt>
      <trkpt lat="42.92775" lon="1.84638">
        <ele>544.1</ele>
        <time>2022-08-05T07:50:41.000Z</time>
      </trkpt>
      <trkpt lat="42.92784" lon="1.84642">
        <ele>543.7</ele>
        <time>2022-08-05T07:50:42.000Z</time>
      </trkpt>
      <trkpt lat="42.92793" lon="1.84647">
        <ele>543.3</ele>
        <time>2022-08-05T07:50:43.000Z</time>
      </trkpt>
      <trkpt lat="42.92801" lon="1.84653">
        <ele>542.9</ele>
        <time>2022-08-05T07:50:44.000Z</time>
      </trkpt>
      <trkpt lat="42.92809" lon="1.84657">
        <ele>542.4</ele>
        <time>2022-08-05T07:50:45.000Z</time>
      </trkpt>
      <trkpt lat="42.92818" lon="1.84661">
        <ele>541.9</ele>
        <time>2022-08-05T07:50:46.000Z</time>
      </trkpt>
      <trkpt lat="42.92826" lon="1.84665">
        <ele>541.5</ele>
        <time>2022-08-05T07:50:47.000Z</time>
      </trkpt>
      <trkpt lat="42.92833" lon="1.84668">
        <ele>541</ele>
        <time>2022-08-05T07:50:48.000Z</time>
      </trkpt>
      <trkpt lat="42.92839" lon="1.84672">
        <ele>540.6</ele>
        <time>2022-08-05T07:50:49.000Z</time>
      </trkpt>
      <trkpt lat="42.92844" lon="1.84675">
        <ele>540.2</ele>
        <time>2022-08-05T07:50:50.000Z</time>
      </trkpt>
      <trkpt lat="42.92848" lon="1.8468">
        <ele>539.8</ele>
        <time>2022-08-05T07:50:51.000Z</time>
      </trkpt>
      <trkpt lat="42.92851" lon="1.84685">
        <ele>539.5</ele>
        <time>2022-08-05T07:50:52.000Z</time>
      </trkpt>
      <trkpt lat="42.92856" lon="1.84689">
        <ele>539.2</ele>
        <time>2022-08-05T07:50:53.000Z</time>
      </trkpt>
      <trkpt lat="42.92861" lon="1.84691">
        <ele>538.9</ele>
        <time>2022-08-05T07:50:54.000Z</time>
      </trkpt>
      <trkpt lat="42.92867" lon="1.84693">
        <ele>538.6</ele>
        <time>2022-08-05T07:50:55.000Z</time>
      </trkpt>
      <trkpt lat="42.92872" lon="1.84696">
        <ele>538.3</ele>
        <time>2022-08-05T07:50:56.000Z</time>
      </trkpt>
      <trkpt lat="42.92877" lon="1.84698">
        <ele>538</ele>
        <time>2022-08-05T07:50:57.000Z</time>
      </trkpt>
      <trkpt lat="42.92881" lon="1.84701">
        <ele>537.8</ele>
        <time>2022-08-05T07:50:58.000Z</time>
      </trkpt>
      <trkpt lat="42.92886" lon="1.84703">
        <ele>537.5</ele>
        <time>2022-08-05T07:50:59.000Z</time>
      </trkpt>
      <trkpt lat="42.92894" lon="1.84708">
        <ele>537.1</ele>
        <time>2022-08-05T07:51:01.000Z</time>
      </trkpt>
      <trkpt lat="42.92902" lon="1.84713">
        <ele>536.6</ele>
        <time>2022-08-05T07:51:03.000Z</time>
      </trkpt>
      <trkpt lat="42.92909" lon="1.84719">
        <ele>536.2</ele>
        <time>2022-08-05T07:51:05.000Z</time>
      </trkpt>
      <trkpt lat="42.92915" lon="1.84724">
        <ele>535.9</ele>
        <time>2022-08-05T07:51:07.000Z</time>
      </trkpt>
      <trkpt lat="42.92922" lon="1.84729">
        <ele>535.6</ele>
        <time>2022-08-05T07:51:09.000Z</time>
      </trkpt>
      <trkpt lat="42.92928" lon="1.84734">
        <ele>535.3</ele>
        <time>2022-08-05T07:51:11.000Z</time>
      </trkpt>
      <trkpt lat="42.92935" lon="1.84738">
        <ele>535.4</ele>
        <time>2022-08-05T07:51:13.000Z</time>
      </trkpt>
      <trkpt lat="42.92942" lon="1.84744">
        <ele>535.3</ele>
        <time>2022-08-05T07:51:15.000Z</time>
      </trkpt>
      <trkpt lat="42.92949" lon="1.8475">
        <ele>535.4</ele>
        <time>2022-08-05T07:51:17.000Z</time>
      </trkpt>
      <trkpt lat="42.92953" lon="1.84753">
        <ele>535.3</ele>
        <time>2022-08-05T07:51:18.000Z</time>
      </trkpt>
      <trkpt lat="42.92961" lon="1.8476">
        <ele>535</ele>
        <time>2022-08-05T07:51:20.000Z</time>
      </trkpt>
      <trkpt lat="42.92965" lon="1.84764">
        <ele>534.9</ele>
        <time>2022-08-05T07:51:21.000Z</time>
      </trkpt>
      <trkpt lat="42.92969" lon="1.84768">
        <ele>534.8</ele>
        <time>2022-08-05T07:51:22.000Z</time>
      </trkpt>
      <trkpt lat="42.92973" lon="1.84772">
        <ele>534.7</ele>
        <time>2022-08-05T07:51:23.000Z</time>
      </trkpt>
      <trkpt lat="42.92978" lon="1.84775">
        <ele>534.5</ele>
        <time>2022-08-05T07:51:24.000Z</time>
      </trkpt>
      <trkpt lat="42.92983" lon="1.84778">
        <ele>534.4</ele>
        <time>2022-08-05T07:51:25.000Z</time>
      </trkpt>
      <trkpt lat="42.92987" lon="1.84782">
        <ele>534.3</ele>
        <time>2022-08-05T07:51:26.000Z</time>
      </trkpt>
      <trkpt lat="42.92991" lon="1.84785">
        <ele>534.2</ele>
        <time>2022-08-05T07:51:27.000Z</time>
      </trkpt>
      <trkpt lat="42.92996" lon="1.84789">
        <ele>534.1</ele>
        <time>2022-08-05T07:51:28.000Z</time>
      </trkpt>
      <trkpt lat="42.93" lon="1.84793">
        <ele>534</ele>
        <time>2022-08-05T07:51:29.000Z</time>
      </trkpt>
      <trkpt lat="42.93004" lon="1.84797">
        <ele>533.9</ele>
        <time>2022-08-05T07:51:30.000Z</time>
      </trkpt>
      <trkpt lat="42.93008" lon="1.84801">
        <ele>533.8</ele>
        <time>2022-08-05T07:51:31.000Z</time>
      </trkpt>
      <trkpt lat="42.93012" lon="1.84804">
        <ele>533.7</ele>
        <time>2022-08-05T07:51:32.000Z</time>
      </trkpt>
      <trkpt lat="42.93016" lon="1.84808">
        <ele>533.6</ele>
        <time>2022-08-05T07:51:33.000Z</time>
      </trkpt>
      <trkpt lat="42.9302" lon="1.84811">
        <ele>533.5</ele>
        <time>2022-08-05T07:51:34.000Z</time>
      </trkpt>
      <trkpt lat="42.93024" lon="1.84814">
        <ele>533.4</ele>
        <time>2022-08-05T07:51:35.000Z</time>
      </trkpt>
      <trkpt lat="42.93032" lon="1.8482">
        <ele>533.2</ele>
        <time>2022-08-05T07:51:37.000Z</time>
      </trkpt>
      <trkpt lat="42.93036" lon="1.84822">
        <ele>533.2</ele>
        <time>2022-08-05T07:51:38.000Z</time>
      </trkpt>
      <trkpt lat="42.93041" lon="1.84825">
        <ele>533.1</ele>
        <time>2022-08-05T07:51:39.000Z</time>
      </trkpt>
      <trkpt lat="42.93046" lon="1.84827">
        <ele>533</ele>
        <time>2022-08-05T07:51:40.000Z</time>
      </trkpt>
      <trkpt lat="42.93051" lon="1.84829">
        <ele>532.9</ele>
        <time>2022-08-05T07:51:41.000Z</time>
      </trkpt>
      <trkpt lat="42.93055" lon="1.84831">
        <ele>532.9</ele>
        <time>2022-08-05T07:51:42.000Z</time>
      </trkpt>
      <trkpt lat="42.93064" lon="1.84832">
        <ele>532.8</ele>
        <time>2022-08-05T07:51:44.000Z</time>
      </trkpt>
      <trkpt lat="42.93069" lon="1.84832">
        <ele>532.7</ele>
        <time>2022-08-05T07:51:45.000Z</time>
      </trkpt>
      <trkpt lat="42.93074" lon="1.84832">
        <ele>532.6</ele>
        <time>2022-08-05T07:51:46.000Z</time>
      </trkpt>
      <trkpt lat="42.93078" lon="1.84832">
        <ele>532.6</ele>
        <time>2022-08-05T07:51:47.000Z</time>
      </trkpt>
      <trkpt lat="42.93083" lon="1.8483">
        <ele>532.5</ele>
        <time>2022-08-05T07:51:48.000Z</time>
      </trkpt>
      <trkpt lat="42.93087" lon="1.84829">
        <ele>532.4</ele>
        <time>2022-08-05T07:51:49.000Z</time>
      </trkpt>
      <trkpt lat="42.93092" lon="1.84828">
        <ele>532.4</ele>
        <time>2022-08-05T07:51:50.000Z</time>
      </trkpt>
      <trkpt lat="42.93097" lon="1.84826">
        <ele>532.3</ele>
        <time>2022-08-05T07:51:51.000Z</time>
      </trkpt>
      <trkpt lat="42.93102" lon="1.84825">
        <ele>532.2</ele>
        <time>2022-08-05T07:51:52.000Z</time>
      </trkpt>
      <trkpt lat="42.93107" lon="1.84824">
        <ele>532.1</ele>
        <time>2022-08-05T07:51:53.000Z</time>
      </trkpt>
      <trkpt lat="42.93112" lon="1.84824">
        <ele>532</ele>
        <time>2022-08-05T07:51:54.000Z</time>
      </trkpt>
      <trkpt lat="42.93118" lon="1.84826">
        <ele>531.9</ele>
        <time>2022-08-05T07:51:55.000Z</time>
      </trkpt>
      <trkpt lat="42.93124" lon="1.84827">
        <ele>531.8</ele>
        <time>2022-08-05T07:51:56.000Z</time>
      </trkpt>
      <trkpt lat="42.93131" lon="1.8483">
        <ele>531.6</ele>
        <time>2022-08-05T07:51:57.000Z</time>
      </trkpt>
      <trkpt lat="42.93138" lon="1.84833">
        <ele>531.4</ele>
        <time>2022-08-05T07:51:58.000Z</time>
      </trkpt>
      <trkpt lat="42.93145" lon="1.84833">
        <ele>531.2</ele>
        <time>2022-08-05T07:51:59.000Z</time>
      </trkpt>
      <trkpt lat="42.93151" lon="1.84833">
        <ele>531</ele>
        <time>2022-08-05T07:52:00.000Z</time>
      </trkpt>
      <trkpt lat="42.93158" lon="1.84834">
        <ele>530.7</ele>
        <time>2022-08-05T07:52:01.000Z</time>
      </trkpt>
      <trkpt lat="42.93164" lon="1.84836">
        <ele>530.5</ele>
        <time>2022-08-05T07:52:02.000Z</time>
      </trkpt>
      <trkpt lat="42.9317" lon="1.8484">
        <ele>530.3</ele>
        <time>2022-08-05T07:52:03.000Z</time>
      </trkpt>
      <trkpt lat="42.93176" lon="1.84844">
        <ele>530.1</ele>
        <time>2022-08-05T07:52:04.000Z</time>
      </trkpt>
      <trkpt lat="42.93182" lon="1.84848">
        <ele>530</ele>
        <time>2022-08-05T07:52:05.000Z</time>
      </trkpt>
      <trkpt lat="42.93188" lon="1.84851">
        <ele>529.8</ele>
        <time>2022-08-05T07:52:06.000Z</time>
      </trkpt>
      <trkpt lat="42.93195" lon="1.84852">
        <ele>529.7</ele>
        <time>2022-08-05T07:52:07.000Z</time>
      </trkpt>
      <trkpt lat="42.93201" lon="1.84855">
        <ele>529.5</ele>
        <time>2022-08-05T07:52:08.000Z</time>
      </trkpt>
      <trkpt lat="42.93208" lon="1.8486">
        <ele>529.4</ele>
        <time>2022-08-05T07:52:09.000Z</time>
      </trkpt>
      <trkpt lat="42.9322" lon="1.84862">
        <ele>529.2</ele>
        <time>2022-08-05T07:52:10.000Z</time>
      </trkpt>
      <trkpt lat="42.93226" lon="1.84865">
        <ele>529.1</ele>
        <time>2022-08-05T07:52:11.000Z</time>
      </trkpt>
      <trkpt lat="42.93231" lon="1.84868">
        <ele>529</ele>
        <time>2022-08-05T07:52:12.000Z</time>
      </trkpt>
      <trkpt lat="42.93237" lon="1.84873">
        <ele>528.9</ele>
        <time>2022-08-05T07:52:13.000Z</time>
      </trkpt>
      <trkpt lat="42.9324" lon="1.84877">
        <ele>528.8</ele>
        <time>2022-08-05T07:52:14.000Z</time>
      </trkpt>
      <trkpt lat="42.93246" lon="1.84884">
        <ele>528.6</ele>
        <time>2022-08-05T07:52:16.000Z</time>
      </trkpt>
      <trkpt lat="42.93249" lon="1.84891">
        <ele>528.5</ele>
        <time>2022-08-05T07:52:18.000Z</time>
      </trkpt>
      <trkpt lat="42.93253" lon="1.84896">
        <ele>528.3</ele>
        <time>2022-08-05T07:52:20.000Z</time>
      </trkpt>
      <trkpt lat="42.93257" lon="1.849">
        <ele>528.2</ele>
        <time>2022-08-05T07:52:22.000Z</time>
      </trkpt>
      <trkpt lat="42.93259" lon="1.84906">
        <ele>528</ele>
        <time>2022-08-05T07:52:26.000Z</time>
      </trkpt>
      <trkpt lat="42.93264" lon="1.84913">
        <ele>527.6</ele>
        <time>2022-08-05T07:52:39.000Z</time>
      </trkpt>
      <trkpt lat="42.93268" lon="1.84919">
        <ele>527.4</ele>
        <time>2022-08-05T07:52:42.000Z</time>
      </trkpt>
      <trkpt lat="42.93275" lon="1.84925">
        <ele>527.2</ele>
        <time>2022-08-05T07:52:44.000Z</time>
      </trkpt>
      <trkpt lat="42.93279" lon="1.84929">
        <ele>527.1</ele>
        <time>2022-08-05T07:52:45.000Z</time>
      </trkpt>
      <trkpt lat="42.93284" lon="1.84934">
        <ele>526.9</ele>
        <time>2022-08-05T07:52:46.000Z</time>
      </trkpt>
      <trkpt lat="42.9329" lon="1.84937">
        <ele>526.7</ele>
        <time>2022-08-05T07:52:47.000Z</time>
      </trkpt>
      <trkpt lat="42.93295" lon="1.84939">
        <ele>526.5</ele>
        <time>2022-08-05T07:52:48.000Z</time>
      </trkpt>
      <trkpt lat="42.93302" lon="1.84945">
        <ele>526.1</ele>
        <time>2022-08-05T07:52:50.000Z</time>
      </trkpt>
      <trkpt lat="42.9331" lon="1.8495">
        <ele>525.8</ele>
        <time>2022-08-05T07:52:52.000Z</time>
      </trkpt>
      <trkpt lat="42.93315" lon="1.84952">
        <ele>525.6</ele>
        <time>2022-08-05T07:52:53.000Z</time>
      </trkpt>
      <trkpt lat="42.93321" lon="1.84954">
        <ele>525.4</ele>
        <time>2022-08-05T07:52:54.000Z</time>
      </trkpt>
      <trkpt lat="42.93326" lon="1.84956">
        <ele>525.3</ele>
        <time>2022-08-05T07:52:55.000Z</time>
      </trkpt>
      <trkpt lat="42.93337" lon="1.84965">
        <ele>525.2</ele>
        <time>2022-08-05T07:52:56.000Z</time>
      </trkpt>
      <trkpt lat="42.93345" lon="1.84976">
        <ele>525.1</ele>
        <time>2022-08-05T07:52:57.000Z</time>
      </trkpt>
      <trkpt lat="42.93351" lon="1.84984">
        <ele>524.9</ele>
        <time>2022-08-05T07:52:58.000Z</time>
      </trkpt>
      <trkpt lat="42.93354" lon="1.8499">
        <ele>524.8</ele>
        <time>2022-08-05T07:52:59.000Z</time>
      </trkpt>
      <trkpt lat="42.93355" lon="1.85002">
        <ele>524.7</ele>
        <time>2022-08-05T07:53:01.000Z</time>
      </trkpt>
      <trkpt lat="42.93358" lon="1.85008">
        <ele>524.6</ele>
        <time>2022-08-05T07:53:02.000Z</time>
      </trkpt>
      <trkpt lat="42.93364" lon="1.85016">
        <ele>524.4</ele>
        <time>2022-08-05T07:53:04.000Z</time>
      </trkpt>
      <trkpt lat="42.93368" lon="1.85018">
        <ele>524.3</ele>
        <time>2022-08-05T07:53:05.000Z</time>
      </trkpt>
      <trkpt lat="42.93373" lon="1.8502">
        <ele>524.2</ele>
        <time>2022-08-05T07:53:06.000Z</time>
      </trkpt>
      <trkpt lat="42.93381" lon="1.85022">
        <ele>524.1</ele>
        <time>2022-08-05T07:53:08.000Z</time>
      </trkpt>
      <trkpt lat="42.93389" lon="1.85024">
        <ele>523.9</ele>
        <time>2022-08-05T07:53:10.000Z</time>
      </trkpt>
      <trkpt lat="42.93397" lon="1.85026">
        <ele>523.7</ele>
        <time>2022-08-05T07:53:12.000Z</time>
      </trkpt>
      <trkpt lat="42.93405" lon="1.8503">
        <ele>523.6</ele>
        <time>2022-08-05T07:53:14.000Z</time>
      </trkpt>
      <trkpt lat="42.93414" lon="1.85037">
        <ele>523.4</ele>
        <time>2022-08-05T07:53:16.000Z</time>
      </trkpt>
      <trkpt lat="42.93419" lon="1.85042">
        <ele>523.3</ele>
        <time>2022-08-05T07:53:17.000Z</time>
      </trkpt>
      <trkpt lat="42.93424" lon="1.85046">
        <ele>523.2</ele>
        <time>2022-08-05T07:53:18.000Z</time>
      </trkpt>
      <trkpt lat="42.93429" lon="1.85051">
        <ele>523.1</ele>
        <time>2022-08-05T07:53:19.000Z</time>
      </trkpt>
      <trkpt lat="42.93436" lon="1.85059">
        <ele>523</ele>
        <time>2022-08-05T07:53:20.000Z</time>
      </trkpt>
      <trkpt lat="42.9344" lon="1.85065">
        <ele>522.9</ele>
        <time>2022-08-05T07:53:21.000Z</time>
      </trkpt>
      <trkpt lat="42.93446" lon="1.8507">
        <ele>522.8</ele>
        <time>2022-08-05T07:53:22.000Z</time>
      </trkpt>
      <trkpt lat="42.93452" lon="1.85077">
        <ele>522.7</ele>
        <time>2022-08-05T07:53:23.000Z</time>
      </trkpt>
      <trkpt lat="42.93456" lon="1.85084">
        <ele>522.6</ele>
        <time>2022-08-05T07:53:24.000Z</time>
      </trkpt>
      <trkpt lat="42.93459" lon="1.85092">
        <ele>522.5</ele>
        <time>2022-08-05T07:53:25.000Z</time>
      </trkpt>
      <trkpt lat="42.93462" lon="1.85098">
        <ele>522.4</ele>
        <time>2022-08-05T07:53:26.000Z</time>
      </trkpt>
      <trkpt lat="42.93467" lon="1.85102">
        <ele>522.4</ele>
        <time>2022-08-05T07:53:27.000Z</time>
      </trkpt>
      <trkpt lat="42.93473" lon="1.85107">
        <ele>522.3</ele>
        <time>2022-08-05T07:53:28.000Z</time>
      </trkpt>
      <trkpt lat="42.93478" lon="1.85111">
        <ele>522.2</ele>
        <time>2022-08-05T07:53:29.000Z</time>
      </trkpt>
      <trkpt lat="42.93484" lon="1.85114">
        <ele>522.2</ele>
        <time>2022-08-05T07:53:30.000Z</time>
      </trkpt>
      <trkpt lat="42.93489" lon="1.85115">
        <ele>522.1</ele>
        <time>2022-08-05T07:53:31.000Z</time>
      </trkpt>
      <trkpt lat="42.93494" lon="1.85115">
        <ele>522</ele>
        <time>2022-08-05T07:53:32.000Z</time>
      </trkpt>
      <trkpt lat="42.93501" lon="1.85115">
        <ele>521.9</ele>
        <time>2022-08-05T07:53:33.000Z</time>
      </trkpt>
      <trkpt lat="42.93507" lon="1.85115">
        <ele>521.9</ele>
        <time>2022-08-05T07:53:34.000Z</time>
      </trkpt>
      <trkpt lat="42.93512" lon="1.85115">
        <ele>521.8</ele>
        <time>2022-08-05T07:53:35.000Z</time>
      </trkpt>
      <trkpt lat="42.93517" lon="1.85113">
        <ele>521.7</ele>
        <time>2022-08-05T07:53:36.000Z</time>
      </trkpt>
      <trkpt lat="42.93522" lon="1.85111">
        <ele>521.7</ele>
        <time>2022-08-05T07:53:37.000Z</time>
      </trkpt>
      <trkpt lat="42.93525" lon="1.85102">
        <ele>521.6</ele>
        <time>2022-08-05T07:53:38.000Z</time>
      </trkpt>
      <trkpt lat="42.93529" lon="1.85097">
        <ele>521.5</ele>
        <time>2022-08-05T07:53:39.000Z</time>
      </trkpt>
      <trkpt lat="42.93534" lon="1.85093">
        <ele>521.4</ele>
        <time>2022-08-05T07:53:40.000Z</time>
      </trkpt>
      <trkpt lat="42.93539" lon="1.8509">
        <ele>521.3</ele>
        <time>2022-08-05T07:53:41.000Z</time>
      </trkpt>
      <trkpt lat="42.93544" lon="1.85088">
        <ele>521.2</ele>
        <time>2022-08-05T07:53:42.000Z</time>
      </trkpt>
      <trkpt lat="42.93549" lon="1.85088">
        <ele>521.2</ele>
        <time>2022-08-05T07:53:43.000Z</time>
      </trkpt>
      <trkpt lat="42.93554" lon="1.85091">
        <ele>521.1</ele>
        <time>2022-08-05T07:53:44.000Z</time>
      </trkpt>
      <trkpt lat="42.93558" lon="1.85095">
        <ele>521</ele>
        <time>2022-08-05T07:53:45.000Z</time>
      </trkpt>
      <trkpt lat="42.93565" lon="1.85101">
        <ele>520.8</ele>
        <time>2022-08-05T07:53:47.000Z</time>
      </trkpt>
      <trkpt lat="42.93572" lon="1.85108">
        <ele>520.7</ele>
        <time>2022-08-05T07:53:49.000Z</time>
      </trkpt>
      <trkpt lat="42.93578" lon="1.85111">
        <ele>520.6</ele>
        <time>2022-08-05T07:53:50.000Z</time>
      </trkpt>
      <trkpt lat="42.93582" lon="1.85116">
        <ele>520.5</ele>
        <time>2022-08-05T07:53:51.000Z</time>
      </trkpt>
      <trkpt lat="42.93586" lon="1.8512">
        <ele>520.4</ele>
        <time>2022-08-05T07:53:52.000Z</time>
      </trkpt>
      <trkpt lat="42.93591" lon="1.85125">
        <ele>520.3</ele>
        <time>2022-08-05T07:53:53.000Z</time>
      </trkpt>
      <trkpt lat="42.93596" lon="1.85132">
        <ele>520.2</ele>
        <time>2022-08-05T07:53:54.000Z</time>
      </trkpt>
      <trkpt lat="42.93599" lon="1.85137">
        <ele>520.1</ele>
        <time>2022-08-05T07:53:55.000Z</time>
      </trkpt>
      <trkpt lat="42.93603" lon="1.85145">
        <ele>520</ele>
        <time>2022-08-05T07:53:56.000Z</time>
      </trkpt>
      <trkpt lat="42.93607" lon="1.85153">
        <ele>519.9</ele>
        <time>2022-08-05T07:53:57.000Z</time>
      </trkpt>
      <trkpt lat="42.9361" lon="1.85162">
        <ele>519.8</ele>
        <time>2022-08-05T07:53:58.000Z</time>
      </trkpt>
      <trkpt lat="42.93613" lon="1.8517">
        <ele>519.7</ele>
        <time>2022-08-05T07:53:59.000Z</time>
      </trkpt>
      <trkpt lat="42.93617" lon="1.85178">
        <ele>519.7</ele>
        <time>2022-08-05T07:54:00.000Z</time>
      </trkpt>
      <trkpt lat="42.93621" lon="1.85186">
        <ele>519.6</ele>
        <time>2022-08-05T07:54:01.000Z</time>
      </trkpt>
      <trkpt lat="42.93624" lon="1.85193">
        <ele>519.5</ele>
        <time>2022-08-05T07:54:02.000Z</time>
      </trkpt>
      <trkpt lat="42.93628" lon="1.85199">
        <ele>519.5</ele>
        <time>2022-08-05T07:54:03.000Z</time>
      </trkpt>
      <trkpt lat="42.93632" lon="1.85204">
        <ele>519.4</ele>
        <time>2022-08-05T07:54:04.000Z</time>
      </trkpt>
      <trkpt lat="42.93636" lon="1.85209">
        <ele>519.3</ele>
        <time>2022-08-05T07:54:05.000Z</time>
      </trkpt>
      <trkpt lat="42.93642" lon="1.85213">
        <ele>519.2</ele>
        <time>2022-08-05T07:54:06.000Z</time>
      </trkpt>
      <trkpt lat="42.93647" lon="1.85218">
        <ele>519.2</ele>
        <time>2022-08-05T07:54:07.000Z</time>
      </trkpt>
      <trkpt lat="42.93652" lon="1.85222">
        <ele>519.1</ele>
        <time>2022-08-05T07:54:08.000Z</time>
      </trkpt>
      <trkpt lat="42.93657" lon="1.85226">
        <ele>519.1</ele>
        <time>2022-08-05T07:54:09.000Z</time>
      </trkpt>
      <trkpt lat="42.93663" lon="1.85231">
        <ele>519</ele>
        <time>2022-08-05T07:54:10.000Z</time>
      </trkpt>
      <trkpt lat="42.93667" lon="1.85235">
        <ele>519</ele>
        <time>2022-08-05T07:54:11.000Z</time>
      </trkpt>
      <trkpt lat="42.93672" lon="1.85239">
        <ele>518.9</ele>
        <time>2022-08-05T07:54:12.000Z</time>
      </trkpt>
      <trkpt lat="42.93677" lon="1.85243">
        <ele>518.9</ele>
        <time>2022-08-05T07:54:13.000Z</time>
      </trkpt>
      <trkpt lat="42.93683" lon="1.85246">
        <ele>518.8</ele>
        <time>2022-08-05T07:54:14.000Z</time>
      </trkpt>
      <trkpt lat="42.93688" lon="1.8525">
        <ele>518.8</ele>
        <time>2022-08-05T07:54:15.000Z</time>
      </trkpt>
      <trkpt lat="42.93693" lon="1.85253">
        <ele>518.7</ele>
        <time>2022-08-05T07:54:16.000Z</time>
      </trkpt>
      <trkpt lat="42.93698" lon="1.85257">
        <ele>518.7</ele>
        <time>2022-08-05T07:54:17.000Z</time>
      </trkpt>
      <trkpt lat="42.93703" lon="1.8526">
        <ele>518.7</ele>
        <time>2022-08-05T07:54:18.000Z</time>
      </trkpt>
      <trkpt lat="42.93708" lon="1.85262">
        <ele>518.6</ele>
        <time>2022-08-05T07:54:19.000Z</time>
      </trkpt>
      <trkpt lat="42.93714" lon="1.85265">
        <ele>518.6</ele>
        <time>2022-08-05T07:54:20.000Z</time>
      </trkpt>
      <trkpt lat="42.9372" lon="1.85268">
        <ele>518.6</ele>
        <time>2022-08-05T07:54:21.000Z</time>
      </trkpt>
      <trkpt lat="42.93725" lon="1.85271">
        <ele>518.5</ele>
        <time>2022-08-05T07:54:22.000Z</time>
      </trkpt>
      <trkpt lat="42.93737" lon="1.85283">
        <ele>518.4</ele>
        <time>2022-08-05T07:54:24.000Z</time>
      </trkpt>
      <trkpt lat="42.93747" lon="1.85287">
        <ele>518.3</ele>
        <time>2022-08-05T07:54:25.000Z</time>
      </trkpt>
      <trkpt lat="42.93754" lon="1.8529">
        <ele>518.3</ele>
        <time>2022-08-05T07:54:26.000Z</time>
      </trkpt>
      <trkpt lat="42.9376" lon="1.85293">
        <ele>518.2</ele>
        <time>2022-08-05T07:54:27.000Z</time>
      </trkpt>
      <trkpt lat="42.93766" lon="1.85296">
        <ele>518.1</ele>
        <time>2022-08-05T07:54:28.000Z</time>
      </trkpt>
      <trkpt lat="42.93772" lon="1.853">
        <ele>518.1</ele>
        <time>2022-08-05T07:54:29.000Z</time>
      </trkpt>
      <trkpt lat="42.93778" lon="1.85303">
        <ele>518</ele>
        <time>2022-08-05T07:54:30.000Z</time>
      </trkpt>
      <trkpt lat="42.93783" lon="1.85307">
        <ele>517.9</ele>
        <time>2022-08-05T07:54:31.000Z</time>
      </trkpt>
      <trkpt lat="42.93789" lon="1.8531">
        <ele>517.8</ele>
        <time>2022-08-05T07:54:32.000Z</time>
      </trkpt>
      <trkpt lat="42.93797" lon="1.85315">
        <ele>517.7</ele>
        <time>2022-08-05T07:54:33.000Z</time>
      </trkpt>
      <trkpt lat="42.93804" lon="1.85321">
        <ele>517.6</ele>
        <time>2022-08-05T07:54:34.000Z</time>
      </trkpt>
      <trkpt lat="42.93811" lon="1.85325">
        <ele>517.5</ele>
        <time>2022-08-05T07:54:35.000Z</time>
      </trkpt>
      <trkpt lat="42.93819" lon="1.85328">
        <ele>517.4</ele>
        <time>2022-08-05T07:54:36.000Z</time>
      </trkpt>
      <trkpt lat="42.93826" lon="1.85332">
        <ele>517.3</ele>
        <time>2022-08-05T07:54:37.000Z</time>
      </trkpt>
      <trkpt lat="42.93833" lon="1.85335">
        <ele>517.2</ele>
        <time>2022-08-05T07:54:38.000Z</time>
      </trkpt>
      <trkpt lat="42.9384" lon="1.8534">
        <ele>517</ele>
        <time>2022-08-05T07:54:39.000Z</time>
      </trkpt>
      <trkpt lat="42.93846" lon="1.85344">
        <ele>516.9</ele>
        <time>2022-08-05T07:54:40.000Z</time>
      </trkpt>
      <trkpt lat="42.93853" lon="1.85348">
        <ele>516.8</ele>
        <time>2022-08-05T07:54:41.000Z</time>
      </trkpt>
      <trkpt lat="42.93859" lon="1.85351">
        <ele>516.7</ele>
        <time>2022-08-05T07:54:42.000Z</time>
      </trkpt>
      <trkpt lat="42.93866" lon="1.85354">
        <ele>516.6</ele>
        <time>2022-08-05T07:54:43.000Z</time>
      </trkpt>
      <trkpt lat="42.93873" lon="1.85358">
        <ele>516.5</ele>
        <time>2022-08-05T07:54:44.000Z</time>
      </trkpt>
      <trkpt lat="42.93879" lon="1.85361">
        <ele>516.3</ele>
        <time>2022-08-05T07:54:45.000Z</time>
      </trkpt>
      <trkpt lat="42.93886" lon="1.85365">
        <ele>516.2</ele>
        <time>2022-08-05T07:54:46.000Z</time>
      </trkpt>
      <trkpt lat="42.93892" lon="1.85369">
        <ele>516</ele>
        <time>2022-08-05T07:54:47.000Z</time>
      </trkpt>
      <trkpt lat="42.93899" lon="1.85372">
        <ele>515.9</ele>
        <time>2022-08-05T07:54:48.000Z</time>
      </trkpt>
      <trkpt lat="42.93905" lon="1.85376">
        <ele>515.7</ele>
        <time>2022-08-05T07:54:49.000Z</time>
      </trkpt>
      <trkpt lat="42.93911" lon="1.8538">
        <ele>515.6</ele>
        <time>2022-08-05T07:54:50.000Z</time>
      </trkpt>
      <trkpt lat="42.93917" lon="1.85384">
        <ele>515.5</ele>
        <time>2022-08-05T07:54:51.000Z</time>
      </trkpt>
      <trkpt lat="42.93923" lon="1.85387">
        <ele>515.4</ele>
        <time>2022-08-05T07:54:52.000Z</time>
      </trkpt>
      <trkpt lat="42.93929" lon="1.85391">
        <ele>515.3</ele>
        <time>2022-08-05T07:54:53.000Z</time>
      </trkpt>
      <trkpt lat="42.93935" lon="1.85395">
        <ele>515.2</ele>
        <time>2022-08-05T07:54:54.000Z</time>
      </trkpt>
      <trkpt lat="42.93946" lon="1.85397">
        <ele>515.1</ele>
        <time>2022-08-05T07:54:55.000Z</time>
      </trkpt>
      <trkpt lat="42.93953" lon="1.85401">
        <ele>515</ele>
        <time>2022-08-05T07:54:56.000Z</time>
      </trkpt>
      <trkpt lat="42.93961" lon="1.85413">
        <ele>514.7</ele>
        <time>2022-08-05T07:54:58.000Z</time>
      </trkpt>
      <trkpt lat="42.93966" lon="1.85416">
        <ele>514.6</ele>
        <time>2022-08-05T07:54:59.000Z</time>
      </trkpt>
      <trkpt lat="42.93971" lon="1.85416">
        <ele>514.5</ele>
        <time>2022-08-05T07:55:00.000Z</time>
      </trkpt>
      <trkpt lat="42.93976" lon="1.85417">
        <ele>514.4</ele>
        <time>2022-08-05T07:55:01.000Z</time>
      </trkpt>
      <trkpt lat="42.93983" lon="1.85422">
        <ele>514.1</ele>
        <time>2022-08-05T07:55:03.000Z</time>
      </trkpt>
      <trkpt lat="42.93987" lon="1.85426">
        <ele>513.9</ele>
        <time>2022-08-05T07:55:04.000Z</time>
      </trkpt>
      <trkpt lat="42.93992" lon="1.85429">
        <ele>513.8</ele>
        <time>2022-08-05T07:55:05.000Z</time>
      </trkpt>
      <trkpt lat="42.93996" lon="1.85433">
        <ele>513.7</ele>
        <time>2022-08-05T07:55:06.000Z</time>
      </trkpt>
      <trkpt lat="42.94" lon="1.85437">
        <ele>513.5</ele>
        <time>2022-08-05T07:55:07.000Z</time>
      </trkpt>
      <trkpt lat="42.94005" lon="1.8544">
        <ele>513.4</ele>
        <time>2022-08-05T07:55:08.000Z</time>
      </trkpt>
      <trkpt lat="42.94009" lon="1.85444">
        <ele>513.2</ele>
        <time>2022-08-05T07:55:09.000Z</time>
      </trkpt>
      <trkpt lat="42.94013" lon="1.85448">
        <ele>513.1</ele>
        <time>2022-08-05T07:55:10.000Z</time>
      </trkpt>
      <trkpt lat="42.94018" lon="1.85452">
        <ele>513</ele>
        <time>2022-08-05T07:55:11.000Z</time>
      </trkpt>
      <trkpt lat="42.94022" lon="1.85456">
        <ele>512.8</ele>
        <time>2022-08-05T07:55:12.000Z</time>
      </trkpt>
      <trkpt lat="42.94027" lon="1.8546">
        <ele>512.6</ele>
        <time>2022-08-05T07:55:13.000Z</time>
      </trkpt>
      <trkpt lat="42.9403" lon="1.85466">
        <ele>512.5</ele>
        <time>2022-08-05T07:55:14.000Z</time>
      </trkpt>
      <trkpt lat="42.94033" lon="1.85472">
        <ele>512.3</ele>
        <time>2022-08-05T07:55:15.000Z</time>
      </trkpt>
      <trkpt lat="42.94035" lon="1.85478">
        <ele>512.2</ele>
        <time>2022-08-05T07:55:16.000Z</time>
      </trkpt>
      <trkpt lat="42.94037" lon="1.85485">
        <ele>512.1</ele>
        <time>2022-08-05T07:55:17.000Z</time>
      </trkpt>
      <trkpt lat="42.94039" lon="1.85493">
        <ele>512</ele>
        <time>2022-08-05T07:55:18.000Z</time>
      </trkpt>
      <trkpt lat="42.94042" lon="1.855">
        <ele>511.9</ele>
        <time>2022-08-05T07:55:19.000Z</time>
      </trkpt>
      <trkpt lat="42.94045" lon="1.85506">
        <ele>511.8</ele>
        <time>2022-08-05T07:55:20.000Z</time>
      </trkpt>
      <trkpt lat="42.94049" lon="1.8551">
        <ele>511.7</ele>
        <time>2022-08-05T07:55:21.000Z</time>
      </trkpt>
      <trkpt lat="42.94053" lon="1.85513">
        <ele>511.6</ele>
        <time>2022-08-05T07:55:22.000Z</time>
      </trkpt>
      <trkpt lat="42.94058" lon="1.85516">
        <ele>511.5</ele>
        <time>2022-08-05T07:55:23.000Z</time>
      </trkpt>
      <trkpt lat="42.94062" lon="1.85518">
        <ele>511.5</ele>
        <time>2022-08-05T07:55:24.000Z</time>
      </trkpt>
      <trkpt lat="42.94066" lon="1.85521">
        <ele>511.4</ele>
        <time>2022-08-05T07:55:25.000Z</time>
      </trkpt>
      <trkpt lat="42.94074" lon="1.85528">
        <ele>511.3</ele>
        <time>2022-08-05T07:55:27.000Z</time>
      </trkpt>
      <trkpt lat="42.94078" lon="1.85532">
        <ele>511.2</ele>
        <time>2022-08-05T07:55:28.000Z</time>
      </trkpt>
      <trkpt lat="42.94083" lon="1.85535">
        <ele>511.2</ele>
        <time>2022-08-05T07:55:29.000Z</time>
      </trkpt>
      <trkpt lat="42.94087" lon="1.85537">
        <ele>511.2</ele>
        <time>2022-08-05T07:55:30.000Z</time>
      </trkpt>
      <trkpt lat="42.94094" lon="1.85542">
        <ele>511.1</ele>
        <time>2022-08-05T07:55:32.000Z</time>
      </trkpt>
      <trkpt lat="42.94101" lon="1.85547">
        <ele>511.1</ele>
        <time>2022-08-05T07:55:34.000Z</time>
      </trkpt>
      <trkpt lat="42.94107" lon="1.85552">
        <ele>510.5</ele>
        <time>2022-08-05T07:55:36.000Z</time>
      </trkpt>
      <trkpt lat="42.94115" lon="1.85556">
        <ele>510.4</ele>
        <time>2022-08-05T07:55:38.000Z</time>
      </trkpt>
      <trkpt lat="42.9412" lon="1.85562">
        <ele>510.5</ele>
        <time>2022-08-05T07:55:40.000Z</time>
      </trkpt>
      <trkpt lat="42.94126" lon="1.85567">
        <ele>510.6</ele>
        <time>2022-08-05T07:55:42.000Z</time>
      </trkpt>
      <trkpt lat="42.94132" lon="1.85573">
        <ele>510.6</ele>
        <time>2022-08-05T07:55:44.000Z</time>
      </trkpt>
      <trkpt lat="42.94135" lon="1.85577">
        <ele>510.4</ele>
        <time>2022-08-05T07:55:45.000Z</time>
      </trkpt>
      <trkpt lat="42.94139" lon="1.85581">
        <ele>510.3</ele>
        <time>2022-08-05T07:55:46.000Z</time>
      </trkpt>
      <trkpt lat="42.94143" lon="1.85584">
        <ele>510.3</ele>
        <time>2022-08-05T07:55:47.000Z</time>
      </trkpt>
      <trkpt lat="42.94147" lon="1.85588">
        <ele>510.3</ele>
        <time>2022-08-05T07:55:48.000Z</time>
      </trkpt>
      <trkpt lat="42.94153" lon="1.85596">
        <ele>510.2</ele>
        <time>2022-08-05T07:55:50.000Z</time>
      </trkpt>
      <trkpt lat="42.94154" lon="1.85602">
        <ele>510.2</ele>
        <time>2022-08-05T07:55:51.000Z</time>
      </trkpt>
      <trkpt lat="42.94155" lon="1.85608">
        <ele>510.1</ele>
        <time>2022-08-05T07:55:52.000Z</time>
      </trkpt>
      <trkpt lat="42.94157" lon="1.8562">
        <ele>510.1</ele>
        <time>2022-08-05T07:55:54.000Z</time>
      </trkpt>
      <trkpt lat="42.94159" lon="1.85626">
        <ele>510.3</ele>
        <time>2022-08-05T07:55:55.000Z</time>
      </trkpt>
      <trkpt lat="42.94162" lon="1.85632">
        <ele>510.4</ele>
        <time>2022-08-05T07:55:56.000Z</time>
      </trkpt>
      <trkpt lat="42.94165" lon="1.85638">
        <ele>510.4</ele>
        <time>2022-08-05T07:55:57.000Z</time>
      </trkpt>
      <trkpt lat="42.94167" lon="1.85643">
        <ele>510.5</ele>
        <time>2022-08-05T07:55:58.000Z</time>
      </trkpt>
      <trkpt lat="42.94171" lon="1.85647">
        <ele>510.6</ele>
        <time>2022-08-05T07:55:59.000Z</time>
      </trkpt>
      <trkpt lat="42.94176" lon="1.85657">
        <ele>510.7</ele>
        <time>2022-08-05T07:56:01.000Z</time>
      </trkpt>
      <trkpt lat="42.9418" lon="1.85662">
        <ele>510.7</ele>
        <time>2022-08-05T07:56:02.000Z</time>
      </trkpt>
      <trkpt lat="42.94183" lon="1.85666">
        <ele>510.8</ele>
        <time>2022-08-05T07:56:03.000Z</time>
      </trkpt>
      <trkpt lat="42.94187" lon="1.85671">
        <ele>510.8</ele>
        <time>2022-08-05T07:56:04.000Z</time>
      </trkpt>
      <trkpt lat="42.9419" lon="1.85677">
        <ele>510.8</ele>
        <time>2022-08-05T07:56:05.000Z</time>
      </trkpt>
      <trkpt lat="42.94193" lon="1.85682">
        <ele>510.8</ele>
        <time>2022-08-05T07:56:06.000Z</time>
      </trkpt>
      <trkpt lat="42.94197" lon="1.85688">
        <ele>510.8</ele>
        <time>2022-08-05T07:56:07.000Z</time>
      </trkpt>
      <trkpt lat="42.942" lon="1.85693">
        <ele>510.8</ele>
        <time>2022-08-05T07:56:08.000Z</time>
      </trkpt>
      <trkpt lat="42.94202" lon="1.85699">
        <ele>510.8</ele>
        <time>2022-08-05T07:56:09.000Z</time>
      </trkpt>
      <trkpt lat="42.94205" lon="1.85705">
        <ele>510.8</ele>
        <time>2022-08-05T07:56:10.000Z</time>
      </trkpt>
      <trkpt lat="42.94208" lon="1.8571">
        <ele>510.8</ele>
        <time>2022-08-05T07:56:11.000Z</time>
      </trkpt>
      <trkpt lat="42.94211" lon="1.85714">
        <ele>510.7</ele>
        <time>2022-08-05T07:56:12.000Z</time>
      </trkpt>
      <trkpt lat="42.94215" lon="1.85718">
        <ele>510.7</ele>
        <time>2022-08-05T07:56:13.000Z</time>
      </trkpt>
      <trkpt lat="42.9422" lon="1.85721">
        <ele>510.7</ele>
        <time>2022-08-05T07:56:14.000Z</time>
      </trkpt>
      <trkpt lat="42.94224" lon="1.85723">
        <ele>510</ele>
        <time>2022-08-05T07:56:15.000Z</time>
      </trkpt>
      <trkpt lat="42.94228" lon="1.85726">
        <ele>510</ele>
        <time>2022-08-05T07:56:16.000Z</time>
      </trkpt>
      <trkpt lat="42.94235" lon="1.85731">
        <ele>509.9</ele>
        <time>2022-08-05T07:56:18.000Z</time>
      </trkpt>
      <trkpt lat="42.94243" lon="1.85736">
        <ele>509.8</ele>
        <time>2022-08-05T07:56:20.000Z</time>
      </trkpt>
      <trkpt lat="42.9425" lon="1.85742">
        <ele>510.6</ele>
        <time>2022-08-05T07:56:22.000Z</time>
      </trkpt>
      <trkpt lat="42.94257" lon="1.85748">
        <ele>510.2</ele>
        <time>2022-08-05T07:56:24.000Z</time>
      </trkpt>
      <trkpt lat="42.94264" lon="1.85753">
        <ele>510.2</ele>
        <time>2022-08-05T07:56:26.000Z</time>
      </trkpt>
      <trkpt lat="42.9427" lon="1.85757">
        <ele>508.5</ele>
        <time>2022-08-05T07:56:28.000Z</time>
      </trkpt>
      <trkpt lat="42.94277" lon="1.85761">
        <ele>508.7</ele>
        <time>2022-08-05T07:56:30.000Z</time>
      </trkpt>
      <trkpt lat="42.94297" lon="1.85779">
        <ele>503.3</ele>
      </trkpt>
      <trkpt lat="42.94277" lon="1.85761">
        <ele>508.7</ele>
        <time>2022-08-05T07:56:30.000Z</time>
      </trkpt>
      <trkpt lat="42.94336" lon="1.85811">
        <ele>500.7</ele>
        <time>2022-08-05T07:56:42.663Z</time>
      </trkpt>
      <trkpt lat="42.94455" lon="1.85931">
        <ele>496.5</ele>
        <time>2022-08-05T07:57:09.379Z</time>
      </trkpt>
      <trkpt lat="42.94561" lon="1.86079">
        <ele>496.4</ele>
        <time>2022-08-05T07:57:36.639Z</time>
      </trkpt>
      <trkpt lat="42.94674" lon="1.86249">
        <ele>491.8</ele>
        <time>2022-08-05T07:58:07.066Z</time>
      </trkpt>
      <trkpt lat="42.94719" lon="1.86318">
        <ele>493.2</ele>
        <time>2022-08-05T07:58:19.226Z</time>
      </trkpt>
      <trkpt lat="42.94738" lon="1.86344">
        <ele>493.4</ele>
        <time>2022-08-05T07:58:24.103Z</time>
      </trkpt>
      <trkpt lat="42.94745" lon="1.86353">
        <ele>493.2</ele>
        <time>2022-08-05T07:58:25.846Z</time>
      </trkpt>
      <trkpt lat="42.94747" lon="1.86355">
        <ele>493.1</ele>
        <time>2022-08-05T07:58:26.370Z</time>
      </trkpt>
      <trkpt lat="42.94748" lon="1.86356">
        <ele>493.1</ele>
        <time>2022-08-05T07:58:26.510Z</time>
      </trkpt>
      <trkpt lat="42.94748" lon="1.86356">
        <ele>493.1</ele>
        <time>2022-08-05T07:58:26.572Z</time>
      </trkpt>
      <trkpt lat="42.94748" lon="1.86357">
        <ele>508</ele>
        <time>2022-08-05T07:58:29.000Z</time>
      </trkpt>
      <trkpt lat="42.94753" lon="1.86362">
        <ele>508</ele>
        <time>2022-08-05T07:58:30.000Z</time>
      </trkpt>
      <trkpt lat="42.94757" lon="1.86367">
        <ele>508</ele>
        <time>2022-08-05T07:58:31.000Z</time>
      </trkpt>
      <trkpt lat="42.9476" lon="1.86372">
        <ele>508</ele>
        <time>2022-08-05T07:58:32.000Z</time>
      </trkpt>
      <trkpt lat="42.94763" lon="1.86377">
        <ele>508</ele>
        <time>2022-08-05T07:58:33.000Z</time>
      </trkpt>
      <trkpt lat="42.9477" lon="1.86385">
        <ele>507</ele>
        <time>2022-08-05T07:58:35.000Z</time>
      </trkpt>
      <trkpt lat="42.94773" lon="1.8639">
        <ele>507</ele>
        <time>2022-08-05T07:58:36.000Z</time>
      </trkpt>
      <trkpt lat="42.94777" lon="1.86393">
        <ele>507</ele>
        <time>2022-08-05T07:58:37.000Z</time>
      </trkpt>
      <trkpt lat="42.94782" lon="1.86398">
        <ele>507</ele>
        <time>2022-08-05T07:58:38.000Z</time>
      </trkpt>
      <trkpt lat="42.94787" lon="1.86403">
        <ele>507</ele>
        <time>2022-08-05T07:58:39.000Z</time>
      </trkpt>
      <trkpt lat="42.9479" lon="1.86408">
        <ele>507</ele>
        <time>2022-08-05T07:58:40.000Z</time>
      </trkpt>
      <trkpt lat="42.94795" lon="1.86413">
        <ele>507</ele>
        <time>2022-08-05T07:58:41.000Z</time>
      </trkpt>
      <trkpt lat="42.94798" lon="1.86417">
        <ele>507</ele>
        <time>2022-08-05T07:58:42.000Z</time>
      </trkpt>
      <trkpt lat="42.94805" lon="1.86423">
        <ele>507</ele>
        <time>2022-08-05T07:58:44.000Z</time>
      </trkpt>
      <trkpt lat="42.94808" lon="1.86428">
        <ele>507</ele>
        <time>2022-08-05T07:58:45.000Z</time>
      </trkpt>
      <trkpt lat="42.94813" lon="1.86432">
        <ele>507</ele>
        <time>2022-08-05T07:58:46.000Z</time>
      </trkpt>
      <trkpt lat="42.94817" lon="1.86435">
        <ele>507</ele>
        <time>2022-08-05T07:58:47.000Z</time>
      </trkpt>
      <trkpt lat="42.94822" lon="1.8644">
        <ele>507</ele>
        <time>2022-08-05T07:58:48.000Z</time>
      </trkpt>
      <trkpt lat="42.94827" lon="1.86443">
        <ele>507</ele>
        <time>2022-08-05T07:58:49.000Z</time>
      </trkpt>
      <trkpt lat="42.9483" lon="1.86448">
        <ele>506</ele>
        <time>2022-08-05T07:58:50.000Z</time>
      </trkpt>
      <trkpt lat="42.94835" lon="1.86452">
        <ele>506</ele>
        <time>2022-08-05T07:58:51.000Z</time>
      </trkpt>
      <trkpt lat="42.9484" lon="1.86455">
        <ele>506</ele>
        <time>2022-08-05T07:58:52.000Z</time>
      </trkpt>
      <trkpt lat="42.94845" lon="1.8646">
        <ele>506</ele>
        <time>2022-08-05T07:58:53.000Z</time>
      </trkpt>
      <trkpt lat="42.9485" lon="1.86463">
        <ele>506</ele>
        <time>2022-08-05T07:58:54.000Z</time>
      </trkpt>
      <trkpt lat="42.94855" lon="1.86467">
        <ele>506</ele>
        <time>2022-08-05T07:58:55.000Z</time>
      </trkpt>
      <trkpt lat="42.94858" lon="1.8647">
        <ele>506</ele>
        <time>2022-08-05T07:58:56.000Z</time>
      </trkpt>
      <trkpt lat="42.94863" lon="1.86475">
        <ele>506</ele>
        <time>2022-08-05T07:58:57.000Z</time>
      </trkpt>
      <trkpt lat="42.9487" lon="1.86478">
        <ele>506</ele>
        <time>2022-08-05T07:58:58.000Z</time>
      </trkpt>
      <trkpt lat="42.94875" lon="1.86482">
        <ele>506</ele>
        <time>2022-08-05T07:58:59.000Z</time>
      </trkpt>
      <trkpt lat="42.94882" lon="1.86485">
        <ele>506</ele>
        <time>2022-08-05T07:59:00.000Z</time>
      </trkpt>
      <trkpt lat="42.94888" lon="1.86488">
        <ele>506</ele>
        <time>2022-08-05T07:59:01.000Z</time>
      </trkpt>
      <trkpt lat="42.94893" lon="1.86492">
        <ele>505</ele>
        <time>2022-08-05T07:59:02.000Z</time>
      </trkpt>
      <trkpt lat="42.94898" lon="1.86495">
        <ele>505</ele>
        <time>2022-08-05T07:59:03.000Z</time>
      </trkpt>
      <trkpt lat="42.94903" lon="1.86497">
        <ele>505</ele>
        <time>2022-08-05T07:59:04.000Z</time>
      </trkpt>
      <trkpt lat="42.9491" lon="1.86498">
        <ele>505</ele>
        <time>2022-08-05T07:59:05.000Z</time>
      </trkpt>
      <trkpt lat="42.94917" lon="1.86502">
        <ele>505</ele>
        <time>2022-08-05T07:59:06.000Z</time>
      </trkpt>
      <trkpt lat="42.94922" lon="1.86503">
        <ele>505</ele>
        <time>2022-08-05T07:59:07.000Z</time>
      </trkpt>
      <trkpt lat="42.94928" lon="1.86507">
        <ele>505</ele>
        <time>2022-08-05T07:59:08.000Z</time>
      </trkpt>
      <trkpt lat="42.94935" lon="1.8651">
        <ele>505</ele>
        <time>2022-08-05T07:59:09.000Z</time>
      </trkpt>
      <trkpt lat="42.94942" lon="1.86512">
        <ele>505</ele>
        <time>2022-08-05T07:59:10.000Z</time>
      </trkpt>
      <trkpt lat="42.94948" lon="1.86512">
        <ele>504</ele>
        <time>2022-08-05T07:59:11.000Z</time>
      </trkpt>
      <trkpt lat="42.94955" lon="1.86513">
        <ele>504</ele>
        <time>2022-08-05T07:59:12.000Z</time>
      </trkpt>
      <trkpt lat="42.94962" lon="1.86515">
        <ele>504</ele>
        <time>2022-08-05T07:59:13.000Z</time>
      </trkpt>
      <trkpt lat="42.94968" lon="1.86515">
        <ele>504</ele>
        <time>2022-08-05T07:59:14.000Z</time>
      </trkpt>
      <trkpt lat="42.94975" lon="1.86517">
        <ele>504</ele>
        <time>2022-08-05T07:59:15.000Z</time>
      </trkpt>
      <trkpt lat="42.94982" lon="1.86518">
        <ele>504</ele>
        <time>2022-08-05T07:59:16.000Z</time>
      </trkpt>
      <trkpt lat="42.94988" lon="1.86518">
        <ele>504</ele>
        <time>2022-08-05T07:59:17.000Z</time>
      </trkpt>
      <trkpt lat="42.94995" lon="1.86518">
        <ele>504</ele>
        <time>2022-08-05T07:59:18.000Z</time>
      </trkpt>
      <trkpt lat="42.95003" lon="1.86518">
        <ele>504</ele>
        <time>2022-08-05T07:59:19.000Z</time>
      </trkpt>
      <trkpt lat="42.9501" lon="1.86518">
        <ele>503</ele>
        <time>2022-08-05T07:59:20.000Z</time>
      </trkpt>
      <trkpt lat="42.95015" lon="1.86518">
        <ele>503</ele>
        <time>2022-08-05T07:59:21.000Z</time>
      </trkpt>
      <trkpt lat="42.95023" lon="1.86518">
        <ele>503</ele>
        <time>2022-08-05T07:59:22.000Z</time>
      </trkpt>
      <trkpt lat="42.9503" lon="1.86518">
        <ele>503</ele>
        <time>2022-08-05T07:59:23.000Z</time>
      </trkpt>
      <trkpt lat="42.95037" lon="1.86517">
        <ele>503</ele>
        <time>2022-08-05T07:59:24.000Z</time>
      </trkpt>
      <trkpt lat="42.95043" lon="1.86517">
        <ele>503</ele>
        <time>2022-08-05T07:59:25.000Z</time>
      </trkpt>
      <trkpt lat="42.9505" lon="1.86515">
        <ele>503</ele>
        <time>2022-08-05T07:59:26.000Z</time>
      </trkpt>
      <trkpt lat="42.95057" lon="1.86513">
        <ele>503</ele>
        <time>2022-08-05T07:59:27.000Z</time>
      </trkpt>
      <trkpt lat="42.95063" lon="1.86513">
        <ele>503</ele>
        <time>2022-08-05T07:59:28.000Z</time>
      </trkpt>
      <trkpt lat="42.95068" lon="1.8651">
        <ele>502</ele>
        <time>2022-08-05T07:59:29.000Z</time>
      </trkpt>
      <trkpt lat="42.95075" lon="1.86507">
        <ele>502</ele>
        <time>2022-08-05T07:59:30.000Z</time>
      </trkpt>
      <trkpt lat="42.95082" lon="1.86505">
        <ele>502</ele>
        <time>2022-08-05T07:59:31.000Z</time>
      </trkpt>
      <trkpt lat="42.95087" lon="1.86503">
        <ele>502</ele>
        <time>2022-08-05T07:59:32.000Z</time>
      </trkpt>
      <trkpt lat="42.95093" lon="1.865">
        <ele>502</ele>
        <time>2022-08-05T07:59:33.000Z</time>
      </trkpt>
      <trkpt lat="42.95102" lon="1.86497">
        <ele>502</ele>
        <time>2022-08-05T07:59:34.000Z</time>
      </trkpt>
      <trkpt lat="42.95108" lon="1.86495">
        <ele>502</ele>
        <time>2022-08-05T07:59:35.000Z</time>
      </trkpt>
      <trkpt lat="42.95115" lon="1.86492">
        <ele>501</ele>
        <time>2022-08-05T07:59:36.000Z</time>
      </trkpt>
      <trkpt lat="42.95122" lon="1.8649">
        <ele>501</ele>
        <time>2022-08-05T07:59:37.000Z</time>
      </trkpt>
      <trkpt lat="42.95128" lon="1.86485">
        <ele>501</ele>
        <time>2022-08-05T07:59:38.000Z</time>
      </trkpt>
      <trkpt lat="42.95133" lon="1.86482">
        <ele>501</ele>
        <time>2022-08-05T07:59:39.000Z</time>
      </trkpt>
      <trkpt lat="42.9514" lon="1.86478">
        <ele>501</ele>
        <time>2022-08-05T07:59:40.000Z</time>
      </trkpt>
      <trkpt lat="42.95145" lon="1.86475">
        <ele>501</ele>
        <time>2022-08-05T07:59:41.000Z</time>
      </trkpt>
      <trkpt lat="42.95152" lon="1.86472">
        <ele>501</ele>
        <time>2022-08-05T07:59:42.000Z</time>
      </trkpt>
      <trkpt lat="42.95157" lon="1.86468">
        <ele>501</ele>
        <time>2022-08-05T07:59:43.000Z</time>
      </trkpt>
      <trkpt lat="42.95162" lon="1.86465">
        <ele>500</ele>
        <time>2022-08-05T07:59:44.000Z</time>
      </trkpt>
      <trkpt lat="42.95167" lon="1.86463">
        <ele>500</ele>
        <time>2022-08-05T07:59:45.000Z</time>
      </trkpt>
      <trkpt lat="42.95172" lon="1.86463">
        <ele>500</ele>
        <time>2022-08-05T07:59:46.000Z</time>
      </trkpt>
      <trkpt lat="42.95177" lon="1.86463">
        <ele>500</ele>
        <time>2022-08-05T07:59:47.000Z</time>
      </trkpt>
      <trkpt lat="42.95185" lon="1.86465">
        <ele>500</ele>
        <time>2022-08-05T07:59:49.000Z</time>
      </trkpt>
      <trkpt lat="42.9519" lon="1.86465">
        <ele>500</ele>
        <time>2022-08-05T07:59:50.000Z</time>
      </trkpt>
      <trkpt lat="42.95195" lon="1.86463">
        <ele>500</ele>
        <time>2022-08-05T07:59:51.000Z</time>
      </trkpt>
      <trkpt lat="42.952" lon="1.86462">
        <ele>499</ele>
        <time>2022-08-05T07:59:52.000Z</time>
      </trkpt>
      <trkpt lat="42.95203" lon="1.86458">
        <ele>499</ele>
        <time>2022-08-05T07:59:53.000Z</time>
      </trkpt>
      <trkpt lat="42.95208" lon="1.86455">
        <ele>499</ele>
        <time>2022-08-05T07:59:54.000Z</time>
      </trkpt>
      <trkpt lat="42.95213" lon="1.86453">
        <ele>499</ele>
        <time>2022-08-05T07:59:55.000Z</time>
      </trkpt>
      <trkpt lat="42.9522" lon="1.8645">
        <ele>499</ele>
        <time>2022-08-05T07:59:56.000Z</time>
      </trkpt>
      <trkpt lat="42.95225" lon="1.86447">
        <ele>498</ele>
        <time>2022-08-05T07:59:57.000Z</time>
      </trkpt>
      <trkpt lat="42.95232" lon="1.86443">
        <ele>498</ele>
        <time>2022-08-05T07:59:58.000Z</time>
      </trkpt>
      <trkpt lat="42.95237" lon="1.8644">
        <ele>498</ele>
        <time>2022-08-05T07:59:59.000Z</time>
      </trkpt>
      <trkpt lat="42.95242" lon="1.86438">
        <ele>498</ele>
        <time>2022-08-05T08:00:00.000Z</time>
      </trkpt>
      <trkpt lat="42.95248" lon="1.8643">
        <ele>497</ele>
        <time>2022-08-05T08:00:02.000Z</time>
      </trkpt>
      <trkpt lat="42.95248" lon="1.86425">
        <ele>497</ele>
        <time>2022-08-05T08:00:03.000Z</time>
      </trkpt>
      <trkpt lat="42.9525" lon="1.86413">
        <ele>496</ele>
        <time>2022-08-05T08:00:05.000Z</time>
      </trkpt>
      <trkpt lat="42.9525" lon="1.86407">
        <ele>495</ele>
        <time>2022-08-05T08:00:07.000Z</time>
      </trkpt>
      <trkpt lat="42.95257" lon="1.86402">
        <ele>495</ele>
        <time>2022-08-05T08:00:10.000Z</time>
      </trkpt>
      <trkpt lat="42.9526" lon="1.864">
        <ele>494</ele>
        <time>2022-08-05T08:00:12.000Z</time>
      </trkpt>
      <trkpt lat="42.95265" lon="1.86393">
        <ele>494</ele>
        <time>2022-08-05T08:00:14.000Z</time>
      </trkpt>
      <trkpt lat="42.9527" lon="1.8639">
        <ele>494</ele>
        <time>2022-08-05T08:00:16.000Z</time>
      </trkpt>
      <trkpt lat="42.95275" lon="1.86385">
        <ele>493</ele>
        <time>2022-08-05T08:00:18.000Z</time>
      </trkpt>
      <trkpt lat="42.95282" lon="1.86383">
        <ele>493</ele>
        <time>2022-08-05T08:00:20.000Z</time>
      </trkpt>
      <trkpt lat="42.95292" lon="1.86382">
        <ele>493</ele>
        <time>2022-08-05T08:00:22.000Z</time>
      </trkpt>
      <trkpt lat="42.95297" lon="1.86382">
        <ele>493</ele>
        <time>2022-08-05T08:00:23.000Z</time>
      </trkpt>
      <trkpt lat="42.95302" lon="1.86382">
        <ele>493</ele>
        <time>2022-08-05T08:00:24.000Z</time>
      </trkpt>
      <trkpt lat="42.95307" lon="1.8638">
        <ele>493</ele>
        <time>2022-08-05T08:00:25.000Z</time>
      </trkpt>
      <trkpt lat="42.95312" lon="1.8638">
        <ele>493</ele>
        <time>2022-08-05T08:00:26.000Z</time>
      </trkpt>
      <trkpt lat="42.95317" lon="1.8638">
        <ele>493</ele>
        <time>2022-08-05T08:00:27.000Z</time>
      </trkpt>
      <trkpt lat="42.95322" lon="1.86378">
        <ele>493</ele>
        <time>2022-08-05T08:00:28.000Z</time>
      </trkpt>
      <trkpt lat="42.95327" lon="1.86378">
        <ele>493</ele>
        <time>2022-08-05T08:00:29.000Z</time>
      </trkpt>
      <trkpt lat="42.95332" lon="1.86377">
        <ele>492</ele>
        <time>2022-08-05T08:00:30.000Z</time>
      </trkpt>
      <trkpt lat="42.95337" lon="1.86375">
        <ele>492</ele>
        <time>2022-08-05T08:00:31.000Z</time>
      </trkpt>
      <trkpt lat="42.95342" lon="1.86372">
        <ele>492</ele>
        <time>2022-08-05T08:00:32.000Z</time>
      </trkpt>
      <trkpt lat="42.95345" lon="1.8637">
        <ele>492</ele>
        <time>2022-08-05T08:00:33.000Z</time>
      </trkpt>
      <trkpt lat="42.95352" lon="1.86368">
        <ele>492</ele>
        <time>2022-08-05T08:00:34.000Z</time>
      </trkpt>
      <trkpt lat="42.95357" lon="1.86368">
        <ele>492</ele>
        <time>2022-08-05T08:00:35.000Z</time>
      </trkpt>
      <trkpt lat="42.95362" lon="1.86365">
        <ele>492</ele>
        <time>2022-08-05T08:00:36.000Z</time>
      </trkpt>
      <trkpt lat="42.95365" lon="1.86363">
        <ele>492</ele>
        <time>2022-08-05T08:00:37.000Z</time>
      </trkpt>
      <trkpt lat="42.9537" lon="1.8636">
        <ele>492</ele>
        <time>2022-08-05T08:00:38.000Z</time>
      </trkpt>
      <trkpt lat="42.95373" lon="1.86357">
        <ele>492</ele>
        <time>2022-08-05T08:00:39.000Z</time>
      </trkpt>
      <trkpt lat="42.95377" lon="1.86352">
        <ele>492</ele>
        <time>2022-08-05T08:00:40.000Z</time>
      </trkpt>
      <trkpt lat="42.95382" lon="1.86347">
        <ele>492</ele>
        <time>2022-08-05T08:00:41.000Z</time>
      </trkpt>
      <trkpt lat="42.95387" lon="1.86342">
        <ele>491</ele>
        <time>2022-08-05T08:00:42.000Z</time>
      </trkpt>
      <trkpt lat="42.95392" lon="1.86337">
        <ele>491</ele>
        <time>2022-08-05T08:00:43.000Z</time>
      </trkpt>
      <trkpt lat="42.95398" lon="1.86332">
        <ele>491</ele>
        <time>2022-08-05T08:00:44.000Z</time>
      </trkpt>
      <trkpt lat="42.95403" lon="1.86325">
        <ele>491</ele>
        <time>2022-08-05T08:00:45.000Z</time>
      </trkpt>
      <trkpt lat="42.95408" lon="1.8632">
        <ele>491</ele>
        <time>2022-08-05T08:00:46.000Z</time>
      </trkpt>
      <trkpt lat="42.95413" lon="1.86313">
        <ele>490</ele>
        <time>2022-08-05T08:00:47.000Z</time>
      </trkpt>
      <trkpt lat="42.95418" lon="1.86308">
        <ele>490</ele>
        <time>2022-08-05T08:00:48.000Z</time>
      </trkpt>
      <trkpt lat="42.95423" lon="1.86302">
        <ele>490</ele>
        <time>2022-08-05T08:00:49.000Z</time>
      </trkpt>
      <trkpt lat="42.95427" lon="1.86295">
        <ele>490</ele>
        <time>2022-08-05T08:00:50.000Z</time>
      </trkpt>
      <trkpt lat="42.95428" lon="1.86287">
        <ele>490</ele>
        <time>2022-08-05T08:00:51.000Z</time>
      </trkpt>
      <trkpt lat="42.95432" lon="1.8628">
        <ele>490</ele>
        <time>2022-08-05T08:00:52.000Z</time>
      </trkpt>
      <trkpt lat="42.9544" lon="1.86275">
        <ele>489</ele>
        <time>2022-08-05T08:00:53.000Z</time>
      </trkpt>
      <trkpt lat="42.95445" lon="1.86268">
        <ele>489</ele>
        <time>2022-08-05T08:00:54.000Z</time>
      </trkpt>
      <trkpt lat="42.95448" lon="1.86262">
        <ele>489</ele>
        <time>2022-08-05T08:00:55.000Z</time>
      </trkpt>
      <trkpt lat="42.9545" lon="1.86252">
        <ele>489</ele>
        <time>2022-08-05T08:00:56.000Z</time>
      </trkpt>
      <trkpt lat="42.95452" lon="1.86245">
        <ele>489</ele>
        <time>2022-08-05T08:00:57.000Z</time>
      </trkpt>
      <trkpt lat="42.95455" lon="1.86237">
        <ele>489</ele>
        <time>2022-08-05T08:00:58.000Z</time>
      </trkpt>
      <trkpt lat="42.9546" lon="1.86228">
        <ele>488</ele>
        <time>2022-08-05T08:00:59.000Z</time>
      </trkpt>
      <trkpt lat="42.95463" lon="1.86222">
        <ele>488</ele>
        <time>2022-08-05T08:01:00.000Z</time>
      </trkpt>
      <trkpt lat="42.95467" lon="1.86217">
        <ele>488</ele>
        <time>2022-08-05T08:01:01.000Z</time>
      </trkpt>
      <trkpt lat="42.95472" lon="1.8621">
        <ele>488</ele>
        <time>2022-08-05T08:01:02.000Z</time>
      </trkpt>
      <trkpt lat="42.95477" lon="1.86205">
        <ele>488</ele>
        <time>2022-08-05T08:01:03.000Z</time>
      </trkpt>
      <trkpt lat="42.9548" lon="1.862">
        <ele>488</ele>
        <time>2022-08-05T08:01:04.000Z</time>
      </trkpt>
      <trkpt lat="42.95485" lon="1.86195">
        <ele>488</ele>
        <time>2022-08-05T08:01:05.000Z</time>
      </trkpt>
      <trkpt lat="42.9549" lon="1.86188">
        <ele>488</ele>
        <time>2022-08-05T08:01:06.000Z</time>
      </trkpt>
      <trkpt lat="42.95495" lon="1.86183">
        <ele>488</ele>
        <time>2022-08-05T08:01:07.000Z</time>
      </trkpt>
      <trkpt lat="42.95498" lon="1.86178">
        <ele>488</ele>
        <time>2022-08-05T08:01:08.000Z</time>
      </trkpt>
      <trkpt lat="42.95502" lon="1.86173">
        <ele>488</ele>
        <time>2022-08-05T08:01:09.000Z</time>
      </trkpt>
      <trkpt lat="42.95507" lon="1.86168">
        <ele>488</ele>
        <time>2022-08-05T08:01:10.000Z</time>
      </trkpt>
      <trkpt lat="42.9551" lon="1.86163">
        <ele>488</ele>
        <time>2022-08-05T08:01:11.000Z</time>
      </trkpt>
      <trkpt lat="42.95513" lon="1.86158">
        <ele>488</ele>
        <time>2022-08-05T08:01:12.000Z</time>
      </trkpt>
      <trkpt lat="42.95518" lon="1.86155">
        <ele>488</ele>
        <time>2022-08-05T08:01:13.000Z</time>
      </trkpt>
      <trkpt lat="42.95522" lon="1.8615">
        <ele>488</ele>
        <time>2022-08-05T08:01:14.000Z</time>
      </trkpt>
      <trkpt lat="42.95525" lon="1.86145">
        <ele>488</ele>
        <time>2022-08-05T08:01:15.000Z</time>
      </trkpt>
      <trkpt lat="42.9553" lon="1.86142">
        <ele>488</ele>
        <time>2022-08-05T08:01:16.000Z</time>
      </trkpt>
      <trkpt lat="42.95535" lon="1.86138">
        <ele>488</ele>
        <time>2022-08-05T08:01:17.000Z</time>
      </trkpt>
      <trkpt lat="42.95542" lon="1.86138">
        <ele>488</ele>
        <time>2022-08-05T08:01:18.000Z</time>
      </trkpt>
      <trkpt lat="42.95548" lon="1.86138">
        <ele>487</ele>
        <time>2022-08-05T08:01:19.000Z</time>
      </trkpt>
      <trkpt lat="42.95557" lon="1.86142">
        <ele>487</ele>
        <time>2022-08-05T08:01:20.000Z</time>
      </trkpt>
      <trkpt lat="42.95565" lon="1.86147">
        <ele>487</ele>
        <time>2022-08-05T08:01:21.000Z</time>
      </trkpt>
      <trkpt lat="42.95572" lon="1.8615">
        <ele>487</ele>
        <time>2022-08-05T08:01:22.000Z</time>
      </trkpt>
      <trkpt lat="42.95577" lon="1.86155">
        <ele>487</ele>
        <time>2022-08-05T08:01:23.000Z</time>
      </trkpt>
      <trkpt lat="42.95582" lon="1.86158">
        <ele>487</ele>
        <time>2022-08-05T08:01:24.000Z</time>
      </trkpt>
      <trkpt lat="42.95588" lon="1.86165">
        <ele>487</ele>
        <time>2022-08-05T08:01:26.000Z</time>
      </trkpt>
      <trkpt lat="42.95597" lon="1.86167">
        <ele>486</ele>
        <time>2022-08-05T08:01:28.000Z</time>
      </trkpt>
      <trkpt lat="42.95602" lon="1.86165">
        <ele>486</ele>
        <time>2022-08-05T08:01:30.000Z</time>
      </trkpt>
      <trkpt lat="42.95605" lon="1.86168">
        <ele>486</ele>
        <time>2022-08-05T08:01:33.000Z</time>
      </trkpt>
      <trkpt lat="42.95612" lon="1.86167">
        <ele>484</ele>
        <time>2022-08-05T08:02:27.000Z</time>
      </trkpt>
      <trkpt lat="42.95613" lon="1.8616">
        <ele>484</ele>
        <time>2022-08-05T08:02:29.000Z</time>
      </trkpt>
      <trkpt lat="42.95622" lon="1.8616">
        <ele>484</ele>
        <time>2022-08-05T08:02:31.000Z</time>
      </trkpt>
      <trkpt lat="42.95625" lon="1.86163">
        <ele>484</ele>
        <time>2022-08-05T08:02:32.000Z</time>
      </trkpt>
      <trkpt lat="42.95632" lon="1.86168">
        <ele>484</ele>
        <time>2022-08-05T08:02:33.000Z</time>
      </trkpt>
      <trkpt lat="42.95635" lon="1.86172">
        <ele>484</ele>
        <time>2022-08-05T08:02:34.000Z</time>
      </trkpt>
      <trkpt lat="42.9564" lon="1.86177">
        <ele>485</ele>
        <time>2022-08-05T08:02:35.000Z</time>
      </trkpt>
      <trkpt lat="42.95643" lon="1.86182">
        <ele>485</ele>
        <time>2022-08-05T08:02:36.000Z</time>
      </trkpt>
      <trkpt lat="42.95648" lon="1.86185">
        <ele>485</ele>
        <time>2022-08-05T08:02:37.000Z</time>
      </trkpt>
      <trkpt lat="42.95652" lon="1.8619">
        <ele>485</ele>
        <time>2022-08-05T08:02:38.000Z</time>
      </trkpt>
      <trkpt lat="42.95655" lon="1.86195">
        <ele>485</ele>
        <time>2022-08-05T08:02:39.000Z</time>
      </trkpt>
      <trkpt lat="42.95658" lon="1.862">
        <ele>485</ele>
        <time>2022-08-05T08:02:40.000Z</time>
      </trkpt>
      <trkpt lat="42.95663" lon="1.86205">
        <ele>485</ele>
        <time>2022-08-05T08:02:41.000Z</time>
      </trkpt>
      <trkpt lat="42.95667" lon="1.8621">
        <ele>485</ele>
        <time>2022-08-05T08:02:42.000Z</time>
      </trkpt>
      <trkpt lat="42.9567" lon="1.86217">
        <ele>485</ele>
        <time>2022-08-05T08:02:43.000Z</time>
      </trkpt>
      <trkpt lat="42.95675" lon="1.86223">
        <ele>485</ele>
        <time>2022-08-05T08:02:44.000Z</time>
      </trkpt>
      <trkpt lat="42.95678" lon="1.86228">
        <ele>485</ele>
        <time>2022-08-05T08:02:45.000Z</time>
      </trkpt>
      <trkpt lat="42.95683" lon="1.86235">
        <ele>485</ele>
        <time>2022-08-05T08:02:46.000Z</time>
      </trkpt>
      <trkpt lat="42.95687" lon="1.86242">
        <ele>485</ele>
        <time>2022-08-05T08:02:47.000Z</time>
      </trkpt>
      <trkpt lat="42.9569" lon="1.86248">
        <ele>485</ele>
        <time>2022-08-05T08:02:48.000Z</time>
      </trkpt>
      <trkpt lat="42.95695" lon="1.86253">
        <ele>485</ele>
        <time>2022-08-05T08:02:49.000Z</time>
      </trkpt>
      <trkpt lat="42.95698" lon="1.86258">
        <ele>485</ele>
        <time>2022-08-05T08:02:50.000Z</time>
      </trkpt>
      <trkpt lat="42.95703" lon="1.86263">
        <ele>485</ele>
        <time>2022-08-05T08:02:51.000Z</time>
      </trkpt>
      <trkpt lat="42.95707" lon="1.86267">
        <ele>485</ele>
        <time>2022-08-05T08:02:52.000Z</time>
      </trkpt>
      <trkpt lat="42.9571" lon="1.86272">
        <ele>485</ele>
        <time>2022-08-05T08:02:53.000Z</time>
      </trkpt>
      <trkpt lat="42.95717" lon="1.8628">
        <ele>485</ele>
        <time>2022-08-05T08:02:55.000Z</time>
      </trkpt>
      <trkpt lat="42.9572" lon="1.86283">
        <ele>485</ele>
        <time>2022-08-05T08:02:56.000Z</time>
      </trkpt>
      <trkpt lat="42.95725" lon="1.86287">
        <ele>485</ele>
        <time>2022-08-05T08:02:57.000Z</time>
      </trkpt>
      <trkpt lat="42.95728" lon="1.8629">
        <ele>485</ele>
        <time>2022-08-05T08:02:58.000Z</time>
      </trkpt>
      <trkpt lat="42.95737" lon="1.86297">
        <ele>485</ele>
        <time>2022-08-05T08:03:00.000Z</time>
      </trkpt>
      <trkpt lat="42.95742" lon="1.86302">
        <ele>485</ele>
        <time>2022-08-05T08:03:01.000Z</time>
      </trkpt>
      <trkpt lat="42.95745" lon="1.86305">
        <ele>485</ele>
        <time>2022-08-05T08:03:02.000Z</time>
      </trkpt>
      <trkpt lat="42.9575" lon="1.86307">
        <ele>485</ele>
        <time>2022-08-05T08:03:03.000Z</time>
      </trkpt>
      <trkpt lat="42.95758" lon="1.8631">
        <ele>485</ele>
        <time>2022-08-05T08:03:04.000Z</time>
      </trkpt>
      <trkpt lat="42.95765" lon="1.8631">
        <ele>485</ele>
        <time>2022-08-05T08:03:05.000Z</time>
      </trkpt>
      <trkpt lat="42.95772" lon="1.8631">
        <ele>485</ele>
        <time>2022-08-05T08:03:06.000Z</time>
      </trkpt>
      <trkpt lat="42.95777" lon="1.86313">
        <ele>485</ele>
        <time>2022-08-05T08:03:07.000Z</time>
      </trkpt>
      <trkpt lat="42.95783" lon="1.86315">
        <ele>485</ele>
        <time>2022-08-05T08:03:08.000Z</time>
      </trkpt>
      <trkpt lat="42.9579" lon="1.86315">
        <ele>485</ele>
        <time>2022-08-05T08:03:10.000Z</time>
      </trkpt>
      <trkpt lat="42.95795" lon="1.86315">
        <ele>485</ele>
        <time>2022-08-05T08:03:13.000Z</time>
      </trkpt>
      <trkpt lat="42.958" lon="1.86312">
        <ele>485</ele>
        <time>2022-08-05T08:03:16.000Z</time>
      </trkpt>
      <trkpt lat="42.95802" lon="1.86303">
        <ele>485</ele>
        <time>2022-08-05T08:03:19.000Z</time>
      </trkpt>
      <trkpt lat="42.95803" lon="1.86295">
        <ele>485</ele>
        <time>2022-08-05T08:03:21.000Z</time>
      </trkpt>
      <trkpt lat="42.95808" lon="1.86288">
        <ele>485</ele>
        <time>2022-08-05T08:03:23.000Z</time>
      </trkpt>
      <trkpt lat="42.95813" lon="1.86282">
        <ele>484</ele>
        <time>2022-08-05T08:03:25.000Z</time>
      </trkpt>
      <trkpt lat="42.95818" lon="1.86277">
        <ele>484</ele>
        <time>2022-08-05T08:03:27.000Z</time>
      </trkpt>
      <trkpt lat="42.95822" lon="1.86273">
        <ele>484</ele>
        <time>2022-08-05T08:03:29.000Z</time>
      </trkpt>
      <trkpt lat="42.95823" lon="1.86265">
        <ele>484</ele>
        <time>2022-08-05T08:03:32.000Z</time>
      </trkpt>
      <trkpt lat="42.95828" lon="1.8626">
        <ele>484</ele>
        <time>2022-08-05T08:03:35.000Z</time>
      </trkpt>
      <trkpt lat="42.95832" lon="1.86255">
        <ele>484</ele>
        <time>2022-08-05T08:03:38.000Z</time>
      </trkpt>
      <trkpt lat="42.95835" lon="1.86248">
        <ele>484</ele>
        <time>2022-08-05T08:03:42.000Z</time>
      </trkpt>
      <trkpt lat="42.95838" lon="1.86243">
        <ele>485</ele>
        <time>2022-08-05T08:03:45.000Z</time>
      </trkpt>
      <trkpt lat="42.95842" lon="1.86237">
        <ele>485</ele>
        <time>2022-08-05T08:03:48.000Z</time>
      </trkpt>
      <trkpt lat="42.95847" lon="1.8623">
        <ele>485</ele>
        <time>2022-08-05T08:03:51.000Z</time>
      </trkpt>
      <trkpt lat="42.95852" lon="1.86227">
        <ele>485</ele>
        <time>2022-08-05T08:03:53.000Z</time>
      </trkpt>
      <trkpt lat="42.95855" lon="1.86222">
        <ele>485</ele>
        <time>2022-08-05T08:03:55.000Z</time>
      </trkpt>
      <trkpt lat="42.9586" lon="1.86217">
        <ele>486</ele>
        <time>2022-08-05T08:03:57.000Z</time>
      </trkpt>
      <trkpt lat="42.95863" lon="1.86212">
        <ele>486</ele>
        <time>2022-08-05T08:03:59.000Z</time>
      </trkpt>
      <trkpt lat="42.95867" lon="1.86207">
        <ele>486</ele>
        <time>2022-08-05T08:04:01.000Z</time>
      </trkpt>
      <trkpt lat="42.95872" lon="1.862">
        <ele>486</ele>
        <time>2022-08-05T08:04:03.000Z</time>
      </trkpt>
      <trkpt lat="42.95873" lon="1.86195">
        <ele>486</ele>
        <time>2022-08-05T08:04:05.000Z</time>
      </trkpt>
      <trkpt lat="42.95877" lon="1.86187">
        <ele>487</ele>
        <time>2022-08-05T08:04:08.000Z</time>
      </trkpt>
      <trkpt lat="42.9588" lon="1.86182">
        <ele>487</ele>
        <time>2022-08-05T08:04:10.000Z</time>
      </trkpt>
      <trkpt lat="42.95882" lon="1.86177">
        <ele>487</ele>
        <time>2022-08-05T08:04:13.000Z</time>
      </trkpt>
      <trkpt lat="42.95885" lon="1.8617">
        <ele>488</ele>
        <time>2022-08-05T08:04:16.000Z</time>
      </trkpt>
      <trkpt lat="42.95888" lon="1.86162">
        <ele>488</ele>
        <time>2022-08-05T08:04:19.000Z</time>
      </trkpt>
      <trkpt lat="42.95892" lon="1.86155">
        <ele>488</ele>
        <time>2022-08-05T08:04:22.000Z</time>
      </trkpt>
      <trkpt lat="42.95895" lon="1.86147">
        <ele>489</ele>
        <time>2022-08-05T08:04:25.000Z</time>
      </trkpt>
      <trkpt lat="42.95898" lon="1.8614">
        <ele>489</ele>
        <time>2022-08-05T08:04:28.000Z</time>
      </trkpt>
      <trkpt lat="42.95902" lon="1.86132">
        <ele>490</ele>
        <time>2022-08-05T08:04:32.000Z</time>
      </trkpt>
      <trkpt lat="42.95905" lon="1.86125">
        <ele>490</ele>
        <time>2022-08-05T08:04:34.000Z</time>
      </trkpt>
      <trkpt lat="42.95907" lon="1.86115">
        <ele>491</ele>
        <time>2022-08-05T08:04:38.000Z</time>
      </trkpt>
      <trkpt lat="42.95908" lon="1.86108">
        <ele>492</ele>
        <time>2022-08-05T08:04:41.000Z</time>
      </trkpt>
      <trkpt lat="42.95908" lon="1.861">
        <ele>492</ele>
        <time>2022-08-05T08:04:44.000Z</time>
      </trkpt>
      <trkpt lat="42.9591" lon="1.86093">
        <ele>492</ele>
        <time>2022-08-05T08:04:47.000Z</time>
      </trkpt>
      <trkpt lat="42.9591" lon="1.86087">
        <ele>493</ele>
        <time>2022-08-05T08:04:50.000Z</time>
      </trkpt>
      <trkpt lat="42.95913" lon="1.86078">
        <ele>493</ele>
        <time>2022-08-05T08:04:53.000Z</time>
      </trkpt>
      <trkpt lat="42.95913" lon="1.8607">
        <ele>493</ele>
        <time>2022-08-05T08:04:55.000Z</time>
      </trkpt>
      <trkpt lat="42.95915" lon="1.86063">
        <ele>494</ele>
        <time>2022-08-05T08:04:57.000Z</time>
      </trkpt>
      <trkpt lat="42.95915" lon="1.86057">
        <ele>494</ele>
        <time>2022-08-05T08:05:00.000Z</time>
      </trkpt>
      <trkpt lat="42.95917" lon="1.8605">
        <ele>494</ele>
        <time>2022-08-05T08:05:02.000Z</time>
      </trkpt>
      <trkpt lat="42.95917" lon="1.8604">
        <ele>494</ele>
        <time>2022-08-05T08:05:04.000Z</time>
      </trkpt>
      <trkpt lat="42.95917" lon="1.86032">
        <ele>495</ele>
        <time>2022-08-05T08:05:06.000Z</time>
      </trkpt>
      <trkpt lat="42.95917" lon="1.86025">
        <ele>495</ele>
        <time>2022-08-05T08:05:09.000Z</time>
      </trkpt>
      <trkpt lat="42.95918" lon="1.86017">
        <ele>495</ele>
        <time>2022-08-05T08:05:12.000Z</time>
      </trkpt>
      <trkpt lat="42.95918" lon="1.86008">
        <ele>496</ele>
        <time>2022-08-05T08:05:15.000Z</time>
      </trkpt>
      <trkpt lat="42.9592" lon="1.86002">
        <ele>496</ele>
        <time>2022-08-05T08:05:17.000Z</time>
      </trkpt>
      <trkpt lat="42.95922" lon="1.85993">
        <ele>496</ele>
        <time>2022-08-05T08:05:19.000Z</time>
      </trkpt>
      <trkpt lat="42.95923" lon="1.85987">
        <ele>496</ele>
        <time>2022-08-05T08:05:21.000Z</time>
      </trkpt>
      <trkpt lat="42.95925" lon="1.85978">
        <ele>497</ele>
        <time>2022-08-05T08:05:24.000Z</time>
      </trkpt>
      <trkpt lat="42.95927" lon="1.85972">
        <ele>497</ele>
        <time>2022-08-05T08:05:27.000Z</time>
      </trkpt>
      <trkpt lat="42.95928" lon="1.85965">
        <ele>497</ele>
        <time>2022-08-05T08:05:30.000Z</time>
      </trkpt>
      <trkpt lat="42.9593" lon="1.85958">
        <ele>498</ele>
        <time>2022-08-05T08:05:32.000Z</time>
      </trkpt>
      <trkpt lat="42.95932" lon="1.85952">
        <ele>498</ele>
        <time>2022-08-05T08:05:34.000Z</time>
      </trkpt>
      <trkpt lat="42.95933" lon="1.85943">
        <ele>498</ele>
        <time>2022-08-05T08:05:37.000Z</time>
      </trkpt>
      <trkpt lat="42.95935" lon="1.85928">
        <ele>498</ele>
        <time>2022-08-05T08:05:39.000Z</time>
      </trkpt>
      <trkpt lat="42.95938" lon="1.85918">
        <ele>499</ele>
        <time>2022-08-05T08:05:41.000Z</time>
      </trkpt>
      <trkpt lat="42.95938" lon="1.8591">
        <ele>499</ele>
        <time>2022-08-05T08:05:43.000Z</time>
      </trkpt>
      <trkpt lat="42.9594" lon="1.85903">
        <ele>499</ele>
        <time>2022-08-05T08:05:45.000Z</time>
      </trkpt>
      <trkpt lat="42.95942" lon="1.85897">
        <ele>500</ele>
        <time>2022-08-05T08:05:47.000Z</time>
      </trkpt>
      <trkpt lat="42.95943" lon="1.85888">
        <ele>500</ele>
        <time>2022-08-05T08:05:49.000Z</time>
      </trkpt>
      <trkpt lat="42.95943" lon="1.8588">
        <ele>500</ele>
        <time>2022-08-05T08:05:51.000Z</time>
      </trkpt>
      <trkpt lat="42.95947" lon="1.85873">
        <ele>500</ele>
        <time>2022-08-05T08:05:53.000Z</time>
      </trkpt>
      <trkpt lat="42.95947" lon="1.85867">
        <ele>501</ele>
        <time>2022-08-05T08:05:55.000Z</time>
      </trkpt>
      <trkpt lat="42.95948" lon="1.8586">
        <ele>501</ele>
        <time>2022-08-05T08:05:57.000Z</time>
      </trkpt>
      <trkpt lat="42.95952" lon="1.85853">
        <ele>501</ele>
        <time>2022-08-05T08:05:59.000Z</time>
      </trkpt>
      <trkpt lat="42.95953" lon="1.85845">
        <ele>501</ele>
        <time>2022-08-05T08:06:01.000Z</time>
      </trkpt>
      <trkpt lat="42.95953" lon="1.85837">
        <ele>501</ele>
        <time>2022-08-05T08:06:03.000Z</time>
      </trkpt>
      <trkpt lat="42.95955" lon="1.85828">
        <ele>501</ele>
        <time>2022-08-05T08:06:05.000Z</time>
      </trkpt>
      <trkpt lat="42.95958" lon="1.8582">
        <ele>502</ele>
        <time>2022-08-05T08:06:07.000Z</time>
      </trkpt>
      <trkpt lat="42.95958" lon="1.85812">
        <ele>502</ele>
        <time>2022-08-05T08:06:09.000Z</time>
      </trkpt>
      <trkpt lat="42.9596" lon="1.85802">
        <ele>502</ele>
        <time>2022-08-05T08:06:11.000Z</time>
      </trkpt>
      <trkpt lat="42.95963" lon="1.85797">
        <ele>502</ele>
        <time>2022-08-05T08:06:13.000Z</time>
      </trkpt>
      <trkpt lat="42.95965" lon="1.85788">
        <ele>503</ele>
        <time>2022-08-05T08:06:16.000Z</time>
      </trkpt>
      <trkpt lat="42.95967" lon="1.85782">
        <ele>504</ele>
        <time>2022-08-05T08:06:18.000Z</time>
      </trkpt>
      <trkpt lat="42.9597" lon="1.85775">
        <ele>504</ele>
        <time>2022-08-05T08:06:20.000Z</time>
      </trkpt>
      <trkpt lat="42.95972" lon="1.85765">
        <ele>504</ele>
        <time>2022-08-05T08:06:22.000Z</time>
      </trkpt>
      <trkpt lat="42.95973" lon="1.85758">
        <ele>504</ele>
        <time>2022-08-05T08:06:24.000Z</time>
      </trkpt>
      <trkpt lat="42.95975" lon="1.8575">
        <ele>505</ele>
        <time>2022-08-05T08:06:27.000Z</time>
      </trkpt>
      <trkpt lat="42.95978" lon="1.85742">
        <ele>505</ele>
        <time>2022-08-05T08:06:29.000Z</time>
      </trkpt>
      <trkpt lat="42.95978" lon="1.85735">
        <ele>505</ele>
        <time>2022-08-05T08:06:31.000Z</time>
      </trkpt>
      <trkpt lat="42.9598" lon="1.85728">
        <ele>506</ele>
        <time>2022-08-05T08:06:33.000Z</time>
      </trkpt>
      <trkpt lat="42.95982" lon="1.85722">
        <ele>506</ele>
        <time>2022-08-05T08:06:35.000Z</time>
      </trkpt>
      <trkpt lat="42.95985" lon="1.85712">
        <ele>506</ele>
        <time>2022-08-05T08:06:38.000Z</time>
      </trkpt>
      <trkpt lat="42.95988" lon="1.85702">
        <ele>506</ele>
        <time>2022-08-05T08:06:40.000Z</time>
      </trkpt>
      <trkpt lat="42.9599" lon="1.85697">
        <ele>507</ele>
        <time>2022-08-05T08:06:42.000Z</time>
      </trkpt>
      <trkpt lat="42.95992" lon="1.8569">
        <ele>507</ele>
        <time>2022-08-05T08:06:44.000Z</time>
      </trkpt>
      <trkpt lat="42.95993" lon="1.85683">
        <ele>507</ele>
        <time>2022-08-05T08:06:46.000Z</time>
      </trkpt>
      <trkpt lat="42.95997" lon="1.85675">
        <ele>507</ele>
        <time>2022-08-05T08:06:48.000Z</time>
      </trkpt>
      <trkpt lat="42.95998" lon="1.85668">
        <ele>507</ele>
        <time>2022-08-05T08:06:50.000Z</time>
      </trkpt>
      <trkpt lat="42.96002" lon="1.8566">
        <ele>508</ele>
        <time>2022-08-05T08:06:53.000Z</time>
      </trkpt>
      <trkpt lat="42.96002" lon="1.85652">
        <ele>508</ele>
        <time>2022-08-05T08:06:55.000Z</time>
      </trkpt>
      <trkpt lat="42.96003" lon="1.85643">
        <ele>508</ele>
        <time>2022-08-05T08:06:57.000Z</time>
      </trkpt>
      <trkpt lat="42.96003" lon="1.85635">
        <ele>508</ele>
        <time>2022-08-05T08:06:59.000Z</time>
      </trkpt>
      <trkpt lat="42.96003" lon="1.85627">
        <ele>508</ele>
        <time>2022-08-05T08:07:01.000Z</time>
      </trkpt>
      <trkpt lat="42.96005" lon="1.8562">
        <ele>509</ele>
        <time>2022-08-05T08:07:03.000Z</time>
      </trkpt>
      <trkpt lat="42.96005" lon="1.85613">
        <ele>509</ele>
        <time>2022-08-05T08:07:05.000Z</time>
      </trkpt>
      <trkpt lat="42.96005" lon="1.85603">
        <ele>509</ele>
        <time>2022-08-05T08:07:08.000Z</time>
      </trkpt>
      <trkpt lat="42.96007" lon="1.85597">
        <ele>509</ele>
        <time>2022-08-05T08:07:10.000Z</time>
      </trkpt>
      <trkpt lat="42.96008" lon="1.85588">
        <ele>509</ele>
        <time>2022-08-05T08:07:12.000Z</time>
      </trkpt>
      <trkpt lat="42.9601" lon="1.8558">
        <ele>509</ele>
        <time>2022-08-05T08:07:14.000Z</time>
      </trkpt>
      <trkpt lat="42.96012" lon="1.85573">
        <ele>510</ele>
        <time>2022-08-05T08:07:15.000Z</time>
      </trkpt>
      <trkpt lat="42.96013" lon="1.85565">
        <ele>510</ele>
        <time>2022-08-05T08:07:17.000Z</time>
      </trkpt>
      <trkpt lat="42.96015" lon="1.85557">
        <ele>510</ele>
        <time>2022-08-05T08:07:19.000Z</time>
      </trkpt>
      <trkpt lat="42.96017" lon="1.8555">
        <ele>510</ele>
        <time>2022-08-05T08:07:21.000Z</time>
      </trkpt>
      <trkpt lat="42.9602" lon="1.85542">
        <ele>510</ele>
        <time>2022-08-05T08:07:23.000Z</time>
      </trkpt>
      <trkpt lat="42.9602" lon="1.85535">
        <ele>510</ele>
        <time>2022-08-05T08:07:24.000Z</time>
      </trkpt>
      <trkpt lat="42.9602" lon="1.85527">
        <ele>510</ele>
        <time>2022-08-05T08:07:26.000Z</time>
      </trkpt>
      <trkpt lat="42.96023" lon="1.85518">
        <ele>510</ele>
        <time>2022-08-05T08:07:28.000Z</time>
      </trkpt>
      <trkpt lat="42.96025" lon="1.85512">
        <ele>510</ele>
        <time>2022-08-05T08:07:30.000Z</time>
      </trkpt>
      <trkpt lat="42.96027" lon="1.85505">
        <ele>510</ele>
        <time>2022-08-05T08:07:31.000Z</time>
      </trkpt>
      <trkpt lat="42.9603" lon="1.85502">
        <ele>511</ele>
        <time>2022-08-05T08:07:32.000Z</time>
      </trkpt>
      <trkpt lat="42.96033" lon="1.8549">
        <ele>511</ele>
        <time>2022-08-05T08:07:34.000Z</time>
      </trkpt>
      <trkpt lat="42.96035" lon="1.85482">
        <ele>511</ele>
        <time>2022-08-05T08:07:36.000Z</time>
      </trkpt>
      <trkpt lat="42.96035" lon="1.85473">
        <ele>511</ele>
        <time>2022-08-05T08:07:38.000Z</time>
      </trkpt>
      <trkpt lat="42.96035" lon="1.85465">
        <ele>511</ele>
        <time>2022-08-05T08:07:40.000Z</time>
      </trkpt>
      <trkpt lat="42.96035" lon="1.85453">
        <ele>511</ele>
        <time>2022-08-05T08:07:42.000Z</time>
      </trkpt>
      <trkpt lat="42.96037" lon="1.85445">
        <ele>512</ele>
        <time>2022-08-05T08:07:44.000Z</time>
      </trkpt>
      <trkpt lat="42.9604" lon="1.85437">
        <ele>512</ele>
        <time>2022-08-05T08:07:46.000Z</time>
      </trkpt>
      <trkpt lat="42.96042" lon="1.85427">
        <ele>512</ele>
        <time>2022-08-05T08:07:48.000Z</time>
      </trkpt>
      <trkpt lat="42.96043" lon="1.85415">
        <ele>512</ele>
        <time>2022-08-05T08:07:50.000Z</time>
      </trkpt>
      <trkpt lat="42.96045" lon="1.85408">
        <ele>512</ele>
        <time>2022-08-05T08:07:51.000Z</time>
      </trkpt>
      <trkpt lat="42.96048" lon="1.85402">
        <ele>512</ele>
        <time>2022-08-05T08:07:52.000Z</time>
      </trkpt>
      <trkpt lat="42.9605" lon="1.85397">
        <ele>512</ele>
        <time>2022-08-05T08:07:53.000Z</time>
      </trkpt>
      <trkpt lat="42.96053" lon="1.85385">
        <ele>512</ele>
        <time>2022-08-05T08:07:55.000Z</time>
      </trkpt>
      <trkpt lat="42.96057" lon="1.85375">
        <ele>512</ele>
        <time>2022-08-05T08:07:57.000Z</time>
      </trkpt>
      <trkpt lat="42.96058" lon="1.85368">
        <ele>512</ele>
        <time>2022-08-05T08:07:58.000Z</time>
      </trkpt>
      <trkpt lat="42.9606" lon="1.85362">
        <ele>512</ele>
        <time>2022-08-05T08:07:59.000Z</time>
      </trkpt>
      <trkpt lat="42.96062" lon="1.8535">
        <ele>512</ele>
        <time>2022-08-05T08:08:01.000Z</time>
      </trkpt>
      <trkpt lat="42.96063" lon="1.85343">
        <ele>512</ele>
        <time>2022-08-05T08:08:02.000Z</time>
      </trkpt>
      <trkpt lat="42.96065" lon="1.85335">
        <ele>512</ele>
        <time>2022-08-05T08:08:03.000Z</time>
      </trkpt>
      <trkpt lat="42.96067" lon="1.85327">
        <ele>512</ele>
        <time>2022-08-05T08:08:04.000Z</time>
      </trkpt>
      <trkpt lat="42.96068" lon="1.85318">
        <ele>512</ele>
        <time>2022-08-05T08:08:05.000Z</time>
      </trkpt>
      <trkpt lat="42.96068" lon="1.8531">
        <ele>512</ele>
        <time>2022-08-05T08:08:06.000Z</time>
      </trkpt>
      <trkpt lat="42.96072" lon="1.853">
        <ele>512</ele>
        <time>2022-08-05T08:08:07.000Z</time>
      </trkpt>
      <trkpt lat="42.96073" lon="1.8529">
        <ele>511</ele>
        <time>2022-08-05T08:08:08.000Z</time>
      </trkpt>
      <trkpt lat="42.96075" lon="1.85277">
        <ele>511</ele>
        <time>2022-08-05T08:08:09.000Z</time>
      </trkpt>
      <trkpt lat="42.96078" lon="1.85265">
        <ele>511</ele>
        <time>2022-08-05T08:08:10.000Z</time>
      </trkpt>
      <trkpt lat="42.9608" lon="1.85253">
        <ele>511</ele>
        <time>2022-08-05T08:08:11.000Z</time>
      </trkpt>
      <trkpt lat="42.96082" lon="1.85242">
        <ele>510</ele>
        <time>2022-08-05T08:08:12.000Z</time>
      </trkpt>
      <trkpt lat="42.96083" lon="1.85232">
        <ele>510</ele>
        <time>2022-08-05T08:08:13.000Z</time>
      </trkpt>
      <trkpt lat="42.96085" lon="1.8522">
        <ele>510</ele>
        <time>2022-08-05T08:08:14.000Z</time>
      </trkpt>
      <trkpt lat="42.96087" lon="1.85208">
        <ele>509</ele>
        <time>2022-08-05T08:08:15.000Z</time>
      </trkpt>
      <trkpt lat="42.96088" lon="1.85193">
        <ele>509</ele>
        <time>2022-08-05T08:08:16.000Z</time>
      </trkpt>
      <trkpt lat="42.9609" lon="1.85182">
        <ele>509</ele>
        <time>2022-08-05T08:08:17.000Z</time>
      </trkpt>
      <trkpt lat="42.96092" lon="1.85172">
        <ele>509</ele>
        <time>2022-08-05T08:08:18.000Z</time>
      </trkpt>
      <trkpt lat="42.96093" lon="1.85158">
        <ele>508</ele>
        <time>2022-08-05T08:08:19.000Z</time>
      </trkpt>
      <trkpt lat="42.96095" lon="1.85148">
        <ele>508</ele>
        <time>2022-08-05T08:08:20.000Z</time>
      </trkpt>
      <trkpt lat="42.96095" lon="1.85138">
        <ele>508</ele>
        <time>2022-08-05T08:08:21.000Z</time>
      </trkpt>
      <trkpt lat="42.96097" lon="1.8513">
        <ele>508</ele>
        <time>2022-08-05T08:08:22.000Z</time>
      </trkpt>
      <trkpt lat="42.96097" lon="1.85118">
        <ele>508</ele>
        <time>2022-08-05T08:08:23.000Z</time>
      </trkpt>
      <trkpt lat="42.96098" lon="1.85108">
        <ele>508</ele>
        <time>2022-08-05T08:08:24.000Z</time>
      </trkpt>
      <trkpt lat="42.96098" lon="1.851">
        <ele>508</ele>
        <time>2022-08-05T08:08:25.000Z</time>
      </trkpt>
      <trkpt lat="42.96098" lon="1.85088">
        <ele>508</ele>
        <time>2022-08-05T08:08:27.000Z</time>
      </trkpt>
      <trkpt lat="42.96097" lon="1.8508">
        <ele>508</ele>
        <time>2022-08-05T08:08:29.000Z</time>
      </trkpt>
      <trkpt lat="42.96095" lon="1.85072">
        <ele>507</ele>
        <time>2022-08-05T08:08:31.000Z</time>
      </trkpt>
      <trkpt lat="42.96095" lon="1.85063">
        <ele>507</ele>
        <time>2022-08-05T08:08:33.000Z</time>
      </trkpt>
      <trkpt lat="42.96093" lon="1.85057">
        <ele>508</ele>
        <time>2022-08-05T08:08:35.000Z</time>
      </trkpt>
      <trkpt lat="42.96095" lon="1.85048">
        <ele>508</ele>
        <time>2022-08-05T08:08:38.000Z</time>
      </trkpt>
      <trkpt lat="42.96097" lon="1.85042">
        <ele>508</ele>
        <time>2022-08-05T08:08:40.000Z</time>
      </trkpt>
      <trkpt lat="42.96098" lon="1.85032">
        <ele>508</ele>
        <time>2022-08-05T08:08:42.000Z</time>
      </trkpt>
      <trkpt lat="42.96098" lon="1.85023">
        <ele>508</ele>
        <time>2022-08-05T08:08:44.000Z</time>
      </trkpt>
      <trkpt lat="42.96098" lon="1.85017">
        <ele>509</ele>
        <time>2022-08-05T08:08:46.000Z</time>
      </trkpt>
      <trkpt lat="42.96098" lon="1.8501">
        <ele>509</ele>
        <time>2022-08-05T08:08:48.000Z</time>
      </trkpt>
      <trkpt lat="42.96098" lon="1.85002">
        <ele>509</ele>
        <time>2022-08-05T08:08:50.000Z</time>
      </trkpt>
      <trkpt lat="42.96098" lon="1.84993">
        <ele>509</ele>
        <time>2022-08-05T08:08:52.000Z</time>
      </trkpt>
      <trkpt lat="42.96098" lon="1.84987">
        <ele>510</ele>
        <time>2022-08-05T08:08:56.000Z</time>
      </trkpt>
      <trkpt lat="42.961" lon="1.8498">
        <ele>510</ele>
        <time>2022-08-05T08:08:59.000Z</time>
      </trkpt>
      <trkpt lat="42.96103" lon="1.84973">
        <ele>510</ele>
        <time>2022-08-05T08:09:02.000Z</time>
      </trkpt>
      <trkpt lat="42.96107" lon="1.84968">
        <ele>511</ele>
        <time>2022-08-05T08:09:05.000Z</time>
      </trkpt>
      <trkpt lat="42.96108" lon="1.84963">
        <ele>511</ele>
        <time>2022-08-05T08:09:08.000Z</time>
      </trkpt>
      <trkpt lat="42.9611" lon="1.84955">
        <ele>511</ele>
        <time>2022-08-05T08:09:12.000Z</time>
      </trkpt>
      <trkpt lat="42.96113" lon="1.84948">
        <ele>512</ele>
        <time>2022-08-05T08:09:16.000Z</time>
      </trkpt>
      <trkpt lat="42.96113" lon="1.8494">
        <ele>512</ele>
        <time>2022-08-05T08:09:19.000Z</time>
      </trkpt>
      <trkpt lat="42.96115" lon="1.84932">
        <ele>513</ele>
        <time>2022-08-05T08:09:21.000Z</time>
      </trkpt>
      <trkpt lat="42.96115" lon="1.84923">
        <ele>513</ele>
        <time>2022-08-05T08:09:23.000Z</time>
      </trkpt>
      <trkpt lat="42.96117" lon="1.84918">
        <ele>513</ele>
        <time>2022-08-05T08:09:26.000Z</time>
      </trkpt>
      <trkpt lat="42.9612" lon="1.8491">
        <ele>514</ele>
        <time>2022-08-05T08:09:29.000Z</time>
      </trkpt>
      <trkpt lat="42.96123" lon="1.84905">
        <ele>514</ele>
        <time>2022-08-05T08:09:32.000Z</time>
      </trkpt>
      <trkpt lat="42.96123" lon="1.84898">
        <ele>515</ele>
        <time>2022-08-05T08:09:35.000Z</time>
      </trkpt>
      <trkpt lat="42.96127" lon="1.84892">
        <ele>515</ele>
        <time>2022-08-05T08:09:38.000Z</time>
      </trkpt>
      <trkpt lat="42.9613" lon="1.84887">
        <ele>515</ele>
        <time>2022-08-05T08:09:40.000Z</time>
      </trkpt>
      <trkpt lat="42.96132" lon="1.84878">
        <ele>516</ele>
        <time>2022-08-05T08:09:43.000Z</time>
      </trkpt>
      <trkpt lat="42.96135" lon="1.8487">
        <ele>516</ele>
        <time>2022-08-05T08:09:46.000Z</time>
      </trkpt>
      <trkpt lat="42.9614" lon="1.84863">
        <ele>516</ele>
        <time>2022-08-05T08:09:48.000Z</time>
      </trkpt>
      <trkpt lat="42.96143" lon="1.84853">
        <ele>516</ele>
        <time>2022-08-05T08:09:50.000Z</time>
      </trkpt>
      <trkpt lat="42.96147" lon="1.84843">
        <ele>516</ele>
        <time>2022-08-05T08:09:52.000Z</time>
      </trkpt>
      <trkpt lat="42.9615" lon="1.84833">
        <ele>517</ele>
        <time>2022-08-05T08:09:54.000Z</time>
      </trkpt>
      <trkpt lat="42.96153" lon="1.84825">
        <ele>517</ele>
        <time>2022-08-05T08:09:56.000Z</time>
      </trkpt>
      <trkpt lat="42.96153" lon="1.84815">
        <ele>517</ele>
        <time>2022-08-05T08:09:58.000Z</time>
      </trkpt>
      <trkpt lat="42.96155" lon="1.84807">
        <ele>517</ele>
        <time>2022-08-05T08:10:00.000Z</time>
      </trkpt>
      <trkpt lat="42.96157" lon="1.84798">
        <ele>517</ele>
        <time>2022-08-05T08:10:02.000Z</time>
      </trkpt>
      <trkpt lat="42.9616" lon="1.8479">
        <ele>517</ele>
        <time>2022-08-05T08:10:04.000Z</time>
      </trkpt>
      <trkpt lat="42.96165" lon="1.84783">
        <ele>517</ele>
        <time>2022-08-05T08:10:06.000Z</time>
      </trkpt>
      <trkpt lat="42.96168" lon="1.84777">
        <ele>517</ele>
        <time>2022-08-05T08:10:08.000Z</time>
      </trkpt>
      <trkpt lat="42.9617" lon="1.8477">
        <ele>517</ele>
        <time>2022-08-05T08:10:10.000Z</time>
      </trkpt>
      <trkpt lat="42.96173" lon="1.84763">
        <ele>517</ele>
        <time>2022-08-05T08:10:12.000Z</time>
      </trkpt>
      <trkpt lat="42.96175" lon="1.84757">
        <ele>517</ele>
        <time>2022-08-05T08:10:14.000Z</time>
      </trkpt>
      <trkpt lat="42.96175" lon="1.8475">
        <ele>517</ele>
        <time>2022-08-05T08:10:16.000Z</time>
      </trkpt>
      <trkpt lat="42.96175" lon="1.84743">
        <ele>517</ele>
        <time>2022-08-05T08:10:19.000Z</time>
      </trkpt>
      <trkpt lat="42.96177" lon="1.84735">
        <ele>518</ele>
        <time>2022-08-05T08:10:22.000Z</time>
      </trkpt>
      <trkpt lat="42.96178" lon="1.84728">
        <ele>518</ele>
        <time>2022-08-05T08:10:25.000Z</time>
      </trkpt>
      <trkpt lat="42.96182" lon="1.84723">
        <ele>518</ele>
        <time>2022-08-05T08:10:26.000Z</time>
      </trkpt>
      <trkpt lat="42.96183" lon="1.84715">
        <ele>518</ele>
        <time>2022-08-05T08:10:28.000Z</time>
      </trkpt>
      <trkpt lat="42.96185" lon="1.8471">
        <ele>518</ele>
        <time>2022-08-05T08:10:29.000Z</time>
      </trkpt>
      <trkpt lat="42.96187" lon="1.84703">
        <ele>518</ele>
        <time>2022-08-05T08:10:30.000Z</time>
      </trkpt>
      <trkpt lat="42.96187" lon="1.84695">
        <ele>518</ele>
        <time>2022-08-05T08:10:32.000Z</time>
      </trkpt>
      <trkpt lat="42.96187" lon="1.84687">
        <ele>519</ele>
        <time>2022-08-05T08:10:34.000Z</time>
      </trkpt>
      <trkpt lat="42.96187" lon="1.84677">
        <ele>519</ele>
        <time>2022-08-05T08:10:36.000Z</time>
      </trkpt>
      <trkpt lat="42.96187" lon="1.8467">
        <ele>519</ele>
        <time>2022-08-05T08:10:37.000Z</time>
      </trkpt>
      <trkpt lat="42.96187" lon="1.84662">
        <ele>519</ele>
        <time>2022-08-05T08:10:38.000Z</time>
      </trkpt>
      <trkpt lat="42.96187" lon="1.84653">
        <ele>519</ele>
        <time>2022-08-05T08:10:39.000Z</time>
      </trkpt>
      <trkpt lat="42.96187" lon="1.84645">
        <ele>519</ele>
        <time>2022-08-05T08:10:40.000Z</time>
      </trkpt>
      <trkpt lat="42.96187" lon="1.84638">
        <ele>519</ele>
        <time>2022-08-05T08:10:41.000Z</time>
      </trkpt>
      <trkpt lat="42.96188" lon="1.84628">
        <ele>519</ele>
        <time>2022-08-05T08:10:43.000Z</time>
      </trkpt>
      <trkpt lat="42.9619" lon="1.84618">
        <ele>519</ele>
        <time>2022-08-05T08:10:45.000Z</time>
      </trkpt>
      <trkpt lat="42.96192" lon="1.84612">
        <ele>520</ele>
        <time>2022-08-05T08:10:47.000Z</time>
      </trkpt>
      <trkpt lat="42.96192" lon="1.84605">
        <ele>520</ele>
        <time>2022-08-05T08:10:49.000Z</time>
      </trkpt>
      <trkpt lat="42.96193" lon="1.84595">
        <ele>520</ele>
        <time>2022-08-05T08:10:51.000Z</time>
      </trkpt>
      <trkpt lat="42.96195" lon="1.84587">
        <ele>520</ele>
        <time>2022-08-05T08:10:53.000Z</time>
      </trkpt>
      <trkpt lat="42.96195" lon="1.84578">
        <ele>520</ele>
        <time>2022-08-05T08:10:55.000Z</time>
      </trkpt>
      <trkpt lat="42.96198" lon="1.84567">
        <ele>520</ele>
        <time>2022-08-05T08:10:57.000Z</time>
      </trkpt>
      <trkpt lat="42.96202" lon="1.84555">
        <ele>520</ele>
        <time>2022-08-05T08:10:59.000Z</time>
      </trkpt>
      <trkpt lat="42.962" lon="1.84548">
        <ele>520</ele>
        <time>2022-08-05T08:11:00.000Z</time>
      </trkpt>
      <trkpt lat="42.96202" lon="1.84542">
        <ele>520</ele>
        <time>2022-08-05T08:11:01.000Z</time>
      </trkpt>
      <trkpt lat="42.96205" lon="1.84533">
        <ele>520</ele>
        <time>2022-08-05T08:11:02.000Z</time>
      </trkpt>
      <trkpt lat="42.96208" lon="1.84527">
        <ele>520</ele>
        <time>2022-08-05T08:11:03.000Z</time>
      </trkpt>
      <trkpt lat="42.9621" lon="1.84522">
        <ele>520</ele>
        <time>2022-08-05T08:11:04.000Z</time>
      </trkpt>
      <trkpt lat="42.96212" lon="1.84515">
        <ele>520</ele>
        <time>2022-08-05T08:11:05.000Z</time>
      </trkpt>
      <trkpt lat="42.96215" lon="1.84507">
        <ele>520</ele>
        <time>2022-08-05T08:11:06.000Z</time>
      </trkpt>
      <trkpt lat="42.96217" lon="1.84498">
        <ele>520</ele>
        <time>2022-08-05T08:11:07.000Z</time>
      </trkpt>
      <trkpt lat="42.96218" lon="1.84488">
        <ele>520</ele>
        <time>2022-08-05T08:11:08.000Z</time>
      </trkpt>
      <trkpt lat="42.9622" lon="1.8448">
        <ele>520</ele>
        <time>2022-08-05T08:11:09.000Z</time>
      </trkpt>
      <trkpt lat="42.9622" lon="1.84468">
        <ele>520</ele>
        <time>2022-08-05T08:11:10.000Z</time>
      </trkpt>
      <trkpt lat="42.96222" lon="1.8446">
        <ele>520</ele>
        <time>2022-08-05T08:11:11.000Z</time>
      </trkpt>
      <trkpt lat="42.96225" lon="1.84453">
        <ele>520</ele>
        <time>2022-08-05T08:11:12.000Z</time>
      </trkpt>
      <trkpt lat="42.96227" lon="1.84445">
        <ele>520</ele>
        <time>2022-08-05T08:11:13.000Z</time>
      </trkpt>
      <trkpt lat="42.96223" lon="1.84433">
        <ele>520</ele>
        <time>2022-08-05T08:11:14.000Z</time>
      </trkpt>
      <trkpt lat="42.96218" lon="1.84422">
        <ele>520</ele>
        <time>2022-08-05T08:11:15.000Z</time>
      </trkpt>
      <trkpt lat="42.9622" lon="1.84413">
        <ele>520</ele>
        <time>2022-08-05T08:11:16.000Z</time>
      </trkpt>
      <trkpt lat="42.96223" lon="1.84405">
        <ele>520</ele>
        <time>2022-08-05T08:11:17.000Z</time>
      </trkpt>
      <trkpt lat="42.96225" lon="1.84398">
        <ele>520</ele>
        <time>2022-08-05T08:11:18.000Z</time>
      </trkpt>
      <trkpt lat="42.96227" lon="1.84392">
        <ele>520</ele>
        <time>2022-08-05T08:11:19.000Z</time>
      </trkpt>
      <trkpt lat="42.9623" lon="1.84385">
        <ele>520</ele>
        <time>2022-08-05T08:11:20.000Z</time>
      </trkpt>
      <trkpt lat="42.96232" lon="1.84378">
        <ele>520</ele>
        <time>2022-08-05T08:11:21.000Z</time>
      </trkpt>
      <trkpt lat="42.96233" lon="1.84373">
        <ele>520</ele>
        <time>2022-08-05T08:11:22.000Z</time>
      </trkpt>
      <trkpt lat="42.96235" lon="1.84362">
        <ele>520</ele>
        <time>2022-08-05T08:11:24.000Z</time>
      </trkpt>
      <trkpt lat="42.96237" lon="1.84352">
        <ele>520</ele>
        <time>2022-08-05T08:11:26.000Z</time>
      </trkpt>
      <trkpt lat="42.9624" lon="1.84342">
        <ele>520</ele>
        <time>2022-08-05T08:11:28.000Z</time>
      </trkpt>
      <trkpt lat="42.96243" lon="1.8433">
        <ele>520</ele>
        <time>2022-08-05T08:11:30.000Z</time>
      </trkpt>
      <trkpt lat="42.96243" lon="1.84323">
        <ele>520</ele>
        <time>2022-08-05T08:11:32.000Z</time>
      </trkpt>
      <trkpt lat="42.96243" lon="1.84313">
        <ele>520</ele>
        <time>2022-08-05T08:11:35.000Z</time>
      </trkpt>
      <trkpt lat="42.96243" lon="1.84308">
        <ele>520</ele>
        <time>2022-08-05T08:11:37.000Z</time>
      </trkpt>
      <trkpt lat="42.96245" lon="1.843">
        <ele>521</ele>
        <time>2022-08-05T08:11:40.000Z</time>
      </trkpt>
      <trkpt lat="42.96243" lon="1.84292">
        <ele>521</ele>
        <time>2022-08-05T08:11:43.000Z</time>
      </trkpt>
      <trkpt lat="42.96242" lon="1.84285">
        <ele>521</ele>
        <time>2022-08-05T08:11:45.000Z</time>
      </trkpt>
      <trkpt lat="42.96242" lon="1.84278">
        <ele>521</ele>
        <time>2022-08-05T08:11:47.000Z</time>
      </trkpt>
      <trkpt lat="42.96242" lon="1.8427">
        <ele>522</ele>
        <time>2022-08-05T08:11:49.000Z</time>
      </trkpt>
      <trkpt lat="42.9624" lon="1.84263">
        <ele>522</ele>
        <time>2022-08-05T08:11:51.000Z</time>
      </trkpt>
      <trkpt lat="42.96242" lon="1.84257">
        <ele>522</ele>
        <time>2022-08-05T08:11:53.000Z</time>
      </trkpt>
      <trkpt lat="42.96242" lon="1.84248">
        <ele>523</ele>
        <time>2022-08-05T08:11:56.000Z</time>
      </trkpt>
      <trkpt lat="42.96245" lon="1.84242">
        <ele>523</ele>
        <time>2022-08-05T08:11:58.000Z</time>
      </trkpt>
      <trkpt lat="42.96245" lon="1.84235">
        <ele>523</ele>
        <time>2022-08-05T08:12:00.000Z</time>
      </trkpt>
      <trkpt lat="42.96247" lon="1.84225">
        <ele>524</ele>
        <time>2022-08-05T08:12:03.000Z</time>
      </trkpt>
      <trkpt lat="42.96247" lon="1.84217">
        <ele>524</ele>
        <time>2022-08-05T08:12:05.000Z</time>
      </trkpt>
      <trkpt lat="42.96243" lon="1.84207">
        <ele>524</ele>
        <time>2022-08-05T08:12:07.000Z</time>
      </trkpt>
      <trkpt lat="42.96243" lon="1.842">
        <ele>525</ele>
        <time>2022-08-05T08:12:10.000Z</time>
      </trkpt>
      <trkpt lat="42.96245" lon="1.84192">
        <ele>525</ele>
        <time>2022-08-05T08:12:13.000Z</time>
      </trkpt>
      <trkpt lat="42.96245" lon="1.84185">
        <ele>526</ele>
        <time>2022-08-05T08:12:17.000Z</time>
      </trkpt>
      <trkpt lat="42.96248" lon="1.84177">
        <ele>526</ele>
        <time>2022-08-05T08:12:21.000Z</time>
      </trkpt>
      <trkpt lat="42.9625" lon="1.84167">
        <ele>527</ele>
        <time>2022-08-05T08:12:24.000Z</time>
      </trkpt>
      <trkpt lat="42.9625" lon="1.84158">
        <ele>527</ele>
        <time>2022-08-05T08:12:26.000Z</time>
      </trkpt>
      <trkpt lat="42.96247" lon="1.84148">
        <ele>527</ele>
        <time>2022-08-05T08:12:28.000Z</time>
      </trkpt>
      <trkpt lat="42.96247" lon="1.8414">
        <ele>528</ele>
        <time>2022-08-05T08:12:30.000Z</time>
      </trkpt>
      <trkpt lat="42.96247" lon="1.84133">
        <ele>528</ele>
        <time>2022-08-05T08:12:32.000Z</time>
      </trkpt>
      <trkpt lat="42.96248" lon="1.84125">
        <ele>528</ele>
        <time>2022-08-05T08:12:36.000Z</time>
      </trkpt>
      <trkpt lat="42.96248" lon="1.84118">
        <ele>529</ele>
        <time>2022-08-05T08:12:39.000Z</time>
      </trkpt>
      <trkpt lat="42.96248" lon="1.8411">
        <ele>529</ele>
        <time>2022-08-05T08:12:42.000Z</time>
      </trkpt>
      <trkpt lat="42.96247" lon="1.84103">
        <ele>529</ele>
        <time>2022-08-05T08:12:44.000Z</time>
      </trkpt>
      <trkpt lat="42.96243" lon="1.841">
        <ele>529</ele>
        <time>2022-08-05T08:12:45.000Z</time>
      </trkpt>
      <trkpt lat="42.96242" lon="1.84092">
        <ele>530</ele>
        <time>2022-08-05T08:12:47.000Z</time>
      </trkpt>
      <trkpt lat="42.96238" lon="1.84085">
        <ele>530</ele>
        <time>2022-08-05T08:12:49.000Z</time>
      </trkpt>
      <trkpt lat="42.9624" lon="1.8408">
        <ele>530</ele>
        <time>2022-08-05T08:12:51.000Z</time>
      </trkpt>
      <trkpt lat="42.9624" lon="1.8407">
        <ele>530</ele>
        <time>2022-08-05T08:12:54.000Z</time>
      </trkpt>
      <trkpt lat="42.96242" lon="1.84063">
        <ele>531</ele>
        <time>2022-08-05T08:12:57.000Z</time>
      </trkpt>
      <trkpt lat="42.96243" lon="1.84058">
        <ele>531</ele>
        <time>2022-08-05T08:13:00.000Z</time>
      </trkpt>
      <trkpt lat="42.96245" lon="1.84052">
        <ele>531</ele>
        <time>2022-08-05T08:13:02.000Z</time>
      </trkpt>
      <trkpt lat="42.96247" lon="1.84045">
        <ele>531</ele>
        <time>2022-08-05T08:13:04.000Z</time>
      </trkpt>
      <trkpt lat="42.96247" lon="1.84037">
        <ele>531</ele>
        <time>2022-08-05T08:13:06.000Z</time>
      </trkpt>
      <trkpt lat="42.96248" lon="1.8403">
        <ele>531</ele>
        <time>2022-08-05T08:13:08.000Z</time>
      </trkpt>
      <trkpt lat="42.9625" lon="1.84022">
        <ele>531</ele>
        <time>2022-08-05T08:13:10.000Z</time>
      </trkpt>
      <trkpt lat="42.9625" lon="1.84015">
        <ele>532</ele>
        <time>2022-08-05T08:13:12.000Z</time>
      </trkpt>
      <trkpt lat="42.96252" lon="1.84008">
        <ele>532</ele>
        <time>2022-08-05T08:13:14.000Z</time>
      </trkpt>
      <trkpt lat="42.96253" lon="1.84">
        <ele>532</ele>
        <time>2022-08-05T08:13:16.000Z</time>
      </trkpt>
      <trkpt lat="42.96255" lon="1.83992">
        <ele>532</ele>
        <time>2022-08-05T08:13:18.000Z</time>
      </trkpt>
      <trkpt lat="42.96255" lon="1.83983">
        <ele>532</ele>
        <time>2022-08-05T08:13:20.000Z</time>
      </trkpt>
      <trkpt lat="42.96258" lon="1.83972">
        <ele>532</ele>
        <time>2022-08-05T08:13:22.000Z</time>
      </trkpt>
      <trkpt lat="42.9626" lon="1.83962">
        <ele>533</ele>
        <time>2022-08-05T08:13:23.000Z</time>
      </trkpt>
      <trkpt lat="42.96262" lon="1.83955">
        <ele>533</ele>
        <time>2022-08-05T08:13:24.000Z</time>
      </trkpt>
      <trkpt lat="42.96258" lon="1.83947">
        <ele>533</ele>
        <time>2022-08-05T08:13:25.000Z</time>
      </trkpt>
      <trkpt lat="42.96263" lon="1.83937">
        <ele>533</ele>
        <time>2022-08-05T08:13:27.000Z</time>
      </trkpt>
      <trkpt lat="42.96267" lon="1.83928">
        <ele>533</ele>
        <time>2022-08-05T08:13:29.000Z</time>
      </trkpt>
      <trkpt lat="42.96267" lon="1.8392">
        <ele>533</ele>
        <time>2022-08-05T08:13:31.000Z</time>
      </trkpt>
      <trkpt lat="42.9627" lon="1.83917">
        <ele>533</ele>
        <time>2022-08-05T08:13:37.000Z</time>
      </trkpt>
      <trkpt lat="42.96272" lon="1.83925">
        <ele>533</ele>
        <time>2022-08-05T08:14:26.000Z</time>
      </trkpt>
      <trkpt lat="42.96272" lon="1.83933">
        <ele>533</ele>
        <time>2022-08-05T08:14:28.000Z</time>
      </trkpt>
      <trkpt lat="42.9627" lon="1.83943">
        <ele>532</ele>
        <time>2022-08-05T08:14:30.000Z</time>
      </trkpt>
      <trkpt lat="42.9627" lon="1.8395">
        <ele>532</ele>
        <time>2022-08-05T08:14:31.000Z</time>
      </trkpt>
      <trkpt lat="42.96268" lon="1.83957">
        <ele>531</ele>
        <time>2022-08-05T08:14:32.000Z</time>
      </trkpt>
      <trkpt lat="42.96268" lon="1.83965">
        <ele>531</ele>
        <time>2022-08-05T08:14:33.000Z</time>
      </trkpt>
      <trkpt lat="42.96268" lon="1.83972">
        <ele>530</ele>
        <time>2022-08-05T08:14:34.000Z</time>
      </trkpt>
      <trkpt lat="42.9627" lon="1.8398">
        <ele>530</ele>
        <time>2022-08-05T08:14:35.000Z</time>
      </trkpt>
      <trkpt lat="42.96272" lon="1.83987">
        <ele>529</ele>
        <time>2022-08-05T08:14:36.000Z</time>
      </trkpt>
      <trkpt lat="42.96273" lon="1.83993">
        <ele>529</ele>
        <time>2022-08-05T08:14:37.000Z</time>
      </trkpt>
      <trkpt lat="42.96273" lon="1.84">
        <ele>528</ele>
        <time>2022-08-05T08:14:38.000Z</time>
      </trkpt>
      <trkpt lat="42.96275" lon="1.84007">
        <ele>528</ele>
        <time>2022-08-05T08:14:39.000Z</time>
      </trkpt>
      <trkpt lat="42.96277" lon="1.84013">
        <ele>527</ele>
        <time>2022-08-05T08:14:40.000Z</time>
      </trkpt>
      <trkpt lat="42.96277" lon="1.8402">
        <ele>526</ele>
        <time>2022-08-05T08:14:41.000Z</time>
      </trkpt>
      <trkpt lat="42.96277" lon="1.84027">
        <ele>525</ele>
        <time>2022-08-05T08:14:42.000Z</time>
      </trkpt>
      <trkpt lat="42.96278" lon="1.84033">
        <ele>525</ele>
        <time>2022-08-05T08:14:43.000Z</time>
      </trkpt>
      <trkpt lat="42.9628" lon="1.84042">
        <ele>524</ele>
        <time>2022-08-05T08:14:44.000Z</time>
      </trkpt>
      <trkpt lat="42.96278" lon="1.8405">
        <ele>523</ele>
        <time>2022-08-05T08:14:45.000Z</time>
      </trkpt>
      <trkpt lat="42.96278" lon="1.84058">
        <ele>523</ele>
        <time>2022-08-05T08:14:46.000Z</time>
      </trkpt>
      <trkpt lat="42.96277" lon="1.8407">
        <ele>522</ele>
        <time>2022-08-05T08:14:47.000Z</time>
      </trkpt>
      <trkpt lat="42.96275" lon="1.8408">
        <ele>521</ele>
        <time>2022-08-05T08:14:48.000Z</time>
      </trkpt>
      <trkpt lat="42.96273" lon="1.8409">
        <ele>521</ele>
        <time>2022-08-05T08:14:49.000Z</time>
      </trkpt>
      <trkpt lat="42.9627" lon="1.84098">
        <ele>520</ele>
        <time>2022-08-05T08:14:50.000Z</time>
      </trkpt>
      <trkpt lat="42.96268" lon="1.84107">
        <ele>519</ele>
        <time>2022-08-05T08:14:51.000Z</time>
      </trkpt>
      <trkpt lat="42.96265" lon="1.84115">
        <ele>519</ele>
        <time>2022-08-05T08:14:52.000Z</time>
      </trkpt>
      <trkpt lat="42.96263" lon="1.84122">
        <ele>518</ele>
        <time>2022-08-05T08:14:53.000Z</time>
      </trkpt>
      <trkpt lat="42.96262" lon="1.84132">
        <ele>518</ele>
        <time>2022-08-05T08:14:54.000Z</time>
      </trkpt>
      <trkpt lat="42.9626" lon="1.8414">
        <ele>517</ele>
        <time>2022-08-05T08:14:55.000Z</time>
      </trkpt>
      <trkpt lat="42.96258" lon="1.84147">
        <ele>516</ele>
        <time>2022-08-05T08:14:56.000Z</time>
      </trkpt>
      <trkpt lat="42.96257" lon="1.8416">
        <ele>516</ele>
        <time>2022-08-05T08:14:57.000Z</time>
      </trkpt>
      <trkpt lat="42.96257" lon="1.8417">
        <ele>515</ele>
        <time>2022-08-05T08:14:58.000Z</time>
      </trkpt>
      <trkpt lat="42.96258" lon="1.84183">
        <ele>515</ele>
        <time>2022-08-05T08:14:59.000Z</time>
      </trkpt>
      <trkpt lat="42.96258" lon="1.84192">
        <ele>514</ele>
        <time>2022-08-05T08:15:00.000Z</time>
      </trkpt>
      <trkpt lat="42.96258" lon="1.84198">
        <ele>514</ele>
        <time>2022-08-05T08:15:01.000Z</time>
      </trkpt>
      <trkpt lat="42.9626" lon="1.84205">
        <ele>513</ele>
        <time>2022-08-05T08:15:02.000Z</time>
      </trkpt>
      <trkpt lat="42.96262" lon="1.84212">
        <ele>513</ele>
        <time>2022-08-05T08:15:03.000Z</time>
      </trkpt>
      <trkpt lat="42.96263" lon="1.84218">
        <ele>512</ele>
        <time>2022-08-05T08:15:04.000Z</time>
      </trkpt>
      <trkpt lat="42.96267" lon="1.84225">
        <ele>512</ele>
        <time>2022-08-05T08:15:05.000Z</time>
      </trkpt>
      <trkpt lat="42.96268" lon="1.84232">
        <ele>511</ele>
        <time>2022-08-05T08:15:06.000Z</time>
      </trkpt>
      <trkpt lat="42.96272" lon="1.84237">
        <ele>511</ele>
        <time>2022-08-05T08:15:07.000Z</time>
      </trkpt>
      <trkpt lat="42.96275" lon="1.84243">
        <ele>510</ele>
        <time>2022-08-05T08:15:08.000Z</time>
      </trkpt>
      <trkpt lat="42.96277" lon="1.84252">
        <ele>509</ele>
        <time>2022-08-05T08:15:09.000Z</time>
      </trkpt>
      <trkpt lat="42.9628" lon="1.8426">
        <ele>509</ele>
        <time>2022-08-05T08:15:10.000Z</time>
      </trkpt>
      <trkpt lat="42.96282" lon="1.84268">
        <ele>508</ele>
        <time>2022-08-05T08:15:11.000Z</time>
      </trkpt>
      <trkpt lat="42.96285" lon="1.84277">
        <ele>508</ele>
        <time>2022-08-05T08:15:12.000Z</time>
      </trkpt>
      <trkpt lat="42.96288" lon="1.84287">
        <ele>507</ele>
        <time>2022-08-05T08:15:13.000Z</time>
      </trkpt>
      <trkpt lat="42.96292" lon="1.84295">
        <ele>507</ele>
        <time>2022-08-05T08:15:14.000Z</time>
      </trkpt>
      <trkpt lat="42.96293" lon="1.84303">
        <ele>506</ele>
        <time>2022-08-05T08:15:15.000Z</time>
      </trkpt>
      <trkpt lat="42.96297" lon="1.84315">
        <ele>505</ele>
        <time>2022-08-05T08:15:16.000Z</time>
      </trkpt>
      <trkpt lat="42.963" lon="1.84323">
        <ele>505</ele>
        <time>2022-08-05T08:15:17.000Z</time>
      </trkpt>
      <trkpt lat="42.96303" lon="1.84333">
        <ele>504</ele>
        <time>2022-08-05T08:15:18.000Z</time>
      </trkpt>
      <trkpt lat="42.96305" lon="1.84343">
        <ele>504</ele>
        <time>2022-08-05T08:15:19.000Z</time>
      </trkpt>
      <trkpt lat="42.96308" lon="1.84352">
        <ele>503</ele>
        <time>2022-08-05T08:15:20.000Z</time>
      </trkpt>
      <trkpt lat="42.9631" lon="1.8436">
        <ele>503</ele>
        <time>2022-08-05T08:15:21.000Z</time>
      </trkpt>
      <trkpt lat="42.96313" lon="1.84367">
        <ele>502</ele>
        <time>2022-08-05T08:15:22.000Z</time>
      </trkpt>
      <trkpt lat="42.96315" lon="1.84372">
        <ele>502</ele>
        <time>2022-08-05T08:15:23.000Z</time>
      </trkpt>
      <trkpt lat="42.96318" lon="1.8438">
        <ele>501</ele>
        <time>2022-08-05T08:15:25.000Z</time>
      </trkpt>
      <trkpt lat="42.9632" lon="1.84385">
        <ele>495</ele>
        <time>2022-08-05T08:15:51.000Z</time>
      </trkpt>
      <trkpt lat="42.96318" lon="1.84378">
        <ele>494</ele>
        <time>2022-08-05T08:16:14.000Z</time>
      </trkpt>
      <trkpt lat="42.96318" lon="1.8437">
        <ele>494</ele>
        <time>2022-08-05T08:16:16.000Z</time>
      </trkpt>
      <trkpt lat="42.96323" lon="1.8436">
        <ele>494</ele>
        <time>2022-08-05T08:16:18.000Z</time>
      </trkpt>
      <trkpt lat="42.96325" lon="1.84355">
        <ele>494</ele>
        <time>2022-08-05T08:16:19.000Z</time>
      </trkpt>
      <trkpt lat="42.9633" lon="1.84348">
        <ele>493</ele>
        <time>2022-08-05T08:16:20.000Z</time>
      </trkpt>
      <trkpt lat="42.96333" lon="1.84342">
        <ele>493</ele>
        <time>2022-08-05T08:16:21.000Z</time>
      </trkpt>
      <trkpt lat="42.96338" lon="1.84332">
        <ele>493</ele>
        <time>2022-08-05T08:16:22.000Z</time>
      </trkpt>
      <trkpt lat="42.96342" lon="1.84323">
        <ele>493</ele>
        <time>2022-08-05T08:16:23.000Z</time>
      </trkpt>
      <trkpt lat="42.96347" lon="1.84313">
        <ele>492</ele>
        <time>2022-08-05T08:16:24.000Z</time>
      </trkpt>
      <trkpt lat="42.96352" lon="1.84302">
        <ele>492</ele>
        <time>2022-08-05T08:16:25.000Z</time>
      </trkpt>
      <trkpt lat="42.96357" lon="1.84292">
        <ele>492</ele>
        <time>2022-08-05T08:16:26.000Z</time>
      </trkpt>
      <trkpt lat="42.96362" lon="1.8428">
        <ele>491</ele>
        <time>2022-08-05T08:16:27.000Z</time>
      </trkpt>
      <trkpt lat="42.96367" lon="1.84268">
        <ele>491</ele>
        <time>2022-08-05T08:16:28.000Z</time>
      </trkpt>
      <trkpt lat="42.96372" lon="1.84257">
        <ele>490</ele>
        <time>2022-08-05T08:16:29.000Z</time>
      </trkpt>
      <trkpt lat="42.96378" lon="1.84245">
        <ele>490</ele>
        <time>2022-08-05T08:16:30.000Z</time>
      </trkpt>
      <trkpt lat="42.96385" lon="1.84232">
        <ele>489</ele>
        <time>2022-08-05T08:16:31.000Z</time>
      </trkpt>
      <trkpt lat="42.96392" lon="1.84218">
        <ele>489</ele>
        <time>2022-08-05T08:16:32.000Z</time>
      </trkpt>
      <trkpt lat="42.96397" lon="1.84205">
        <ele>488</ele>
        <time>2022-08-05T08:16:33.000Z</time>
      </trkpt>
      <trkpt lat="42.96403" lon="1.8419">
        <ele>488</ele>
        <time>2022-08-05T08:16:34.000Z</time>
      </trkpt>
      <trkpt lat="42.9641" lon="1.84177">
        <ele>487</ele>
        <time>2022-08-05T08:16:35.000Z</time>
      </trkpt>
      <trkpt lat="42.96417" lon="1.84162">
        <ele>487</ele>
        <time>2022-08-05T08:16:36.000Z</time>
      </trkpt>
      <trkpt lat="42.96423" lon="1.84147">
        <ele>486</ele>
        <time>2022-08-05T08:16:37.000Z</time>
      </trkpt>
      <trkpt lat="42.9643" lon="1.84132">
        <ele>486</ele>
        <time>2022-08-05T08:16:38.000Z</time>
      </trkpt>
      <trkpt lat="42.96435" lon="1.84118">
        <ele>485</ele>
        <time>2022-08-05T08:16:39.000Z</time>
      </trkpt>
      <trkpt lat="42.96438" lon="1.84105">
        <ele>485</ele>
        <time>2022-08-05T08:16:40.000Z</time>
      </trkpt>
      <trkpt lat="42.96438" lon="1.84093">
        <ele>485</ele>
        <time>2022-08-05T08:16:41.000Z</time>
      </trkpt>
      <trkpt lat="42.9644" lon="1.84083">
        <ele>484</ele>
        <time>2022-08-05T08:16:42.000Z</time>
      </trkpt>
      <trkpt lat="42.9644" lon="1.84075">
        <ele>484</ele>
        <time>2022-08-05T08:16:43.000Z</time>
      </trkpt>
      <trkpt lat="42.9644" lon="1.84065">
        <ele>484</ele>
        <time>2022-08-05T08:16:45.000Z</time>
      </trkpt>
      <trkpt lat="42.96442" lon="1.8406">
        <ele>484</ele>
        <time>2022-08-05T08:16:47.000Z</time>
      </trkpt>
      <trkpt lat="42.96443" lon="1.84052">
        <ele>485</ele>
        <time>2022-08-05T08:16:50.000Z</time>
      </trkpt>
      <trkpt lat="42.96447" lon="1.84047">
        <ele>485</ele>
        <time>2022-08-05T08:16:53.000Z</time>
      </trkpt>
      <trkpt lat="42.9645" lon="1.8404">
        <ele>486</ele>
        <time>2022-08-05T08:16:56.000Z</time>
      </trkpt>
      <trkpt lat="42.96452" lon="1.84035">
        <ele>486</ele>
        <time>2022-08-05T08:16:59.000Z</time>
      </trkpt>
      <trkpt lat="42.96455" lon="1.84028">
        <ele>486</ele>
        <time>2022-08-05T08:17:02.000Z</time>
      </trkpt>
      <trkpt lat="42.96458" lon="1.84022">
        <ele>487</ele>
        <time>2022-08-05T08:17:05.000Z</time>
      </trkpt>
      <trkpt lat="42.96462" lon="1.84017">
        <ele>488</ele>
        <time>2022-08-05T08:17:08.000Z</time>
      </trkpt>
      <trkpt lat="42.96465" lon="1.8401">
        <ele>489</ele>
        <time>2022-08-05T08:17:12.000Z</time>
      </trkpt>
      <trkpt lat="42.96467" lon="1.84003">
        <ele>489</ele>
        <time>2022-08-05T08:17:16.000Z</time>
      </trkpt>
      <trkpt lat="42.96468" lon="1.83998">
        <ele>490</ele>
        <time>2022-08-05T08:17:19.000Z</time>
      </trkpt>
      <trkpt lat="42.9647" lon="1.8399">
        <ele>491</ele>
        <time>2022-08-05T08:17:23.000Z</time>
      </trkpt>
      <trkpt lat="42.96473" lon="1.83985">
        <ele>491</ele>
        <time>2022-08-05T08:17:26.000Z</time>
      </trkpt>
      <trkpt lat="42.96475" lon="1.83977">
        <ele>492</ele>
        <time>2022-08-05T08:17:30.000Z</time>
      </trkpt>
      <trkpt lat="42.96477" lon="1.83972">
        <ele>493</ele>
        <time>2022-08-05T08:17:33.000Z</time>
      </trkpt>
      <trkpt lat="42.96482" lon="1.83965">
        <ele>494</ele>
        <time>2022-08-05T08:17:37.000Z</time>
      </trkpt>
      <trkpt lat="42.96487" lon="1.83967">
        <ele>494</ele>
        <time>2022-08-05T08:17:40.000Z</time>
      </trkpt>
      <trkpt lat="42.96492" lon="1.83968">
        <ele>495</ele>
        <time>2022-08-05T08:17:43.000Z</time>
      </trkpt>
      <trkpt lat="42.96498" lon="1.83968">
        <ele>495</ele>
        <time>2022-08-05T08:17:46.000Z</time>
      </trkpt>
      <trkpt lat="42.96503" lon="1.83968">
        <ele>495</ele>
        <time>2022-08-05T08:17:49.000Z</time>
      </trkpt>
      <trkpt lat="42.9651" lon="1.8397">
        <ele>495</ele>
        <time>2022-08-05T08:17:51.000Z</time>
      </trkpt>
      <trkpt lat="42.96515" lon="1.83972">
        <ele>496</ele>
        <time>2022-08-05T08:17:53.000Z</time>
      </trkpt>
      <trkpt lat="42.96522" lon="1.83973">
        <ele>496</ele>
        <time>2022-08-05T08:17:56.000Z</time>
      </trkpt>
      <trkpt lat="42.96527" lon="1.83973">
        <ele>496</ele>
        <time>2022-08-05T08:17:58.000Z</time>
      </trkpt>
      <trkpt lat="42.96532" lon="1.83975">
        <ele>496</ele>
        <time>2022-08-05T08:18:00.000Z</time>
      </trkpt>
      <trkpt lat="42.96537" lon="1.83977">
        <ele>496</ele>
        <time>2022-08-05T08:18:02.000Z</time>
      </trkpt>
      <trkpt lat="42.96542" lon="1.8398">
        <ele>497</ele>
        <time>2022-08-05T08:18:04.000Z</time>
      </trkpt>
      <trkpt lat="42.96545" lon="1.83982">
        <ele>497</ele>
        <time>2022-08-05T08:18:06.000Z</time>
      </trkpt>
      <trkpt lat="42.9655" lon="1.83985">
        <ele>497</ele>
        <time>2022-08-05T08:18:08.000Z</time>
      </trkpt>
      <trkpt lat="42.96555" lon="1.83987">
        <ele>497</ele>
        <time>2022-08-05T08:18:10.000Z</time>
      </trkpt>
      <trkpt lat="42.9656" lon="1.83988">
        <ele>497</ele>
        <time>2022-08-05T08:18:12.000Z</time>
      </trkpt>
      <trkpt lat="42.96567" lon="1.8399">
        <ele>497</ele>
        <time>2022-08-05T08:18:14.000Z</time>
      </trkpt>
      <trkpt lat="42.96572" lon="1.83993">
        <ele>497</ele>
        <time>2022-08-05T08:18:16.000Z</time>
      </trkpt>
      <trkpt lat="42.96578" lon="1.83995">
        <ele>498</ele>
        <time>2022-08-05T08:18:18.000Z</time>
      </trkpt>
      <trkpt lat="42.96583" lon="1.83998">
        <ele>498</ele>
        <time>2022-08-05T08:18:20.000Z</time>
      </trkpt>
      <trkpt lat="42.96588" lon="1.84002">
        <ele>498</ele>
        <time>2022-08-05T08:18:22.000Z</time>
      </trkpt>
      <trkpt lat="42.96593" lon="1.84002">
        <ele>498</ele>
        <time>2022-08-05T08:18:24.000Z</time>
      </trkpt>
      <trkpt lat="42.966" lon="1.84002">
        <ele>498</ele>
        <time>2022-08-05T08:18:26.000Z</time>
      </trkpt>
      <trkpt lat="42.96605" lon="1.83995">
        <ele>498</ele>
        <time>2022-08-05T08:18:28.000Z</time>
      </trkpt>
      <trkpt lat="42.96607" lon="1.83988">
        <ele>498</ele>
        <time>2022-08-05T08:18:30.000Z</time>
      </trkpt>
      <trkpt lat="42.96608" lon="1.83982">
        <ele>498</ele>
        <time>2022-08-05T08:18:32.000Z</time>
      </trkpt>
      <trkpt lat="42.9661" lon="1.83973">
        <ele>499</ele>
        <time>2022-08-05T08:18:35.000Z</time>
      </trkpt>
      <trkpt lat="42.96612" lon="1.83965">
        <ele>499</ele>
        <time>2022-08-05T08:18:38.000Z</time>
      </trkpt>
      <trkpt lat="42.96615" lon="1.83958">
        <ele>499</ele>
        <time>2022-08-05T08:18:41.000Z</time>
      </trkpt>
      <trkpt lat="42.96617" lon="1.83952">
        <ele>499</ele>
        <time>2022-08-05T08:18:44.000Z</time>
      </trkpt>
      <trkpt lat="42.96618" lon="1.83945">
        <ele>500</ele>
        <time>2022-08-05T08:18:47.000Z</time>
      </trkpt>
      <trkpt lat="42.96618" lon="1.83937">
        <ele>500</ele>
        <time>2022-08-05T08:18:49.000Z</time>
      </trkpt>
      <trkpt lat="42.9662" lon="1.8393">
        <ele>500</ele>
        <time>2022-08-05T08:18:51.000Z</time>
      </trkpt>
      <trkpt lat="42.96622" lon="1.83923">
        <ele>500</ele>
        <time>2022-08-05T08:18:54.000Z</time>
      </trkpt>
      <trkpt lat="42.96618" lon="1.83918">
        <ele>501</ele>
        <time>2022-08-05T08:19:04.000Z</time>
      </trkpt>
      <trkpt lat="42.96615" lon="1.83915">
        <ele>502</ele>
        <time>2022-08-05T08:19:09.000Z</time>
      </trkpt>
      <trkpt lat="42.96612" lon="1.8391">
        <ele>503</ele>
        <time>2022-08-05T08:19:14.000Z</time>
      </trkpt>
      <trkpt lat="42.96612" lon="1.83902">
        <ele>504</ele>
        <time>2022-08-05T08:19:21.000Z</time>
      </trkpt>
      <trkpt lat="42.96608" lon="1.83897">
        <ele>505</ele>
        <time>2022-08-05T08:19:27.000Z</time>
      </trkpt>
      <trkpt lat="42.96608" lon="1.83888">
        <ele>506</ele>
        <time>2022-08-05T08:19:34.000Z</time>
      </trkpt>
      <trkpt lat="42.96607" lon="1.83882">
        <ele>507</ele>
        <time>2022-08-05T08:19:38.000Z</time>
      </trkpt>
      <trkpt lat="42.96608" lon="1.83875">
        <ele>508</ele>
        <time>2022-08-05T08:19:43.000Z</time>
      </trkpt>
      <trkpt lat="42.96608" lon="1.83867">
        <ele>509</ele>
        <time>2022-08-05T08:19:49.000Z</time>
      </trkpt>
      <trkpt lat="42.96608" lon="1.8386">
        <ele>510</ele>
        <time>2022-08-05T08:19:56.000Z</time>
      </trkpt>
      <trkpt lat="42.96605" lon="1.83853">
        <ele>511</ele>
        <time>2022-08-05T08:20:00.000Z</time>
      </trkpt>
      <trkpt lat="42.96605" lon="1.83847">
        <ele>511</ele>
        <time>2022-08-05T08:20:04.000Z</time>
      </trkpt>
      <trkpt lat="42.96603" lon="1.83838">
        <ele>512</ele>
        <time>2022-08-05T08:20:10.000Z</time>
      </trkpt>
      <trkpt lat="42.96602" lon="1.83832">
        <ele>513</ele>
        <time>2022-08-05T08:20:16.000Z</time>
      </trkpt>
      <trkpt lat="42.966" lon="1.83825">
        <ele>514</ele>
        <time>2022-08-05T08:20:22.000Z</time>
      </trkpt>
      <trkpt lat="42.966" lon="1.83818">
        <ele>515</ele>
        <time>2022-08-05T08:20:27.000Z</time>
      </trkpt>
      <trkpt lat="42.966" lon="1.83812">
        <ele>515</ele>
        <time>2022-08-05T08:20:33.000Z</time>
      </trkpt>
      <trkpt lat="42.96598" lon="1.83807">
        <ele>516</ele>
        <time>2022-08-05T08:20:40.000Z</time>
      </trkpt>
      <trkpt lat="42.96598" lon="1.838">
        <ele>517</ele>
        <time>2022-08-05T08:20:46.000Z</time>
      </trkpt>
      <trkpt lat="42.96597" lon="1.83793">
        <ele>518</ele>
        <time>2022-08-05T08:20:52.000Z</time>
      </trkpt>
      <trkpt lat="42.96595" lon="1.83783">
        <ele>518</ele>
        <time>2022-08-05T08:20:56.000Z</time>
      </trkpt>
      <trkpt lat="42.96597" lon="1.83777">
        <ele>519</ele>
        <time>2022-08-05T08:21:01.000Z</time>
      </trkpt>
      <trkpt lat="42.96597" lon="1.8377">
        <ele>520</ele>
        <time>2022-08-05T08:21:06.000Z</time>
      </trkpt>
      <trkpt lat="42.96598" lon="1.83763">
        <ele>520</ele>
        <time>2022-08-05T08:21:11.000Z</time>
      </trkpt>
      <trkpt lat="42.966" lon="1.83757">
        <ele>521</ele>
        <time>2022-08-05T08:21:15.000Z</time>
      </trkpt>
      <trkpt lat="42.96602" lon="1.83748">
        <ele>521</ele>
        <time>2022-08-05T08:21:19.000Z</time>
      </trkpt>
      <trkpt lat="42.96603" lon="1.83742">
        <ele>521</ele>
        <time>2022-08-05T08:21:21.000Z</time>
      </trkpt>
      <trkpt lat="42.96602" lon="1.83735">
        <ele>521</ele>
        <time>2022-08-05T08:21:24.000Z</time>
      </trkpt>
      <trkpt lat="42.966" lon="1.83727">
        <ele>522</ele>
        <time>2022-08-05T08:21:27.000Z</time>
      </trkpt>
      <trkpt lat="42.966" lon="1.8372">
        <ele>522</ele>
        <time>2022-08-05T08:21:30.000Z</time>
      </trkpt>
      <trkpt lat="42.966" lon="1.83715">
        <ele>522</ele>
        <time>2022-08-05T08:21:34.000Z</time>
      </trkpt>
      <trkpt lat="42.966" lon="1.83708">
        <ele>523</ele>
        <time>2022-08-05T08:21:38.000Z</time>
      </trkpt>
      <trkpt lat="42.96598" lon="1.837">
        <ele>523</ele>
        <time>2022-08-05T08:21:42.000Z</time>
      </trkpt>
      <trkpt lat="42.966" lon="1.83693">
        <ele>523</ele>
        <time>2022-08-05T08:21:45.000Z</time>
      </trkpt>
      <trkpt lat="42.966" lon="1.83687">
        <ele>524</ele>
        <time>2022-08-05T08:21:48.000Z</time>
      </trkpt>
      <trkpt lat="42.966" lon="1.83677">
        <ele>524</ele>
        <time>2022-08-05T08:21:52.000Z</time>
      </trkpt>
      <trkpt lat="42.96603" lon="1.8367">
        <ele>524</ele>
        <time>2022-08-05T08:21:55.000Z</time>
      </trkpt>
      <trkpt lat="42.96603" lon="1.83663">
        <ele>525</ele>
        <time>2022-08-05T08:21:59.000Z</time>
      </trkpt>
      <trkpt lat="42.96603" lon="1.83657">
        <ele>525</ele>
        <time>2022-08-05T08:22:04.000Z</time>
      </trkpt>
      <trkpt lat="42.96603" lon="1.8365">
        <ele>526</ele>
        <time>2022-08-05T08:22:08.000Z</time>
      </trkpt>
      <trkpt lat="42.96603" lon="1.8364">
        <ele>526</ele>
        <time>2022-08-05T08:22:12.000Z</time>
      </trkpt>
      <trkpt lat="42.96602" lon="1.83633">
        <ele>526</ele>
        <time>2022-08-05T08:22:15.000Z</time>
      </trkpt>
      <trkpt lat="42.96602" lon="1.83627">
        <ele>526</ele>
        <time>2022-08-05T08:22:18.000Z</time>
      </trkpt>
      <trkpt lat="42.966" lon="1.8362">
        <ele>527</ele>
        <time>2022-08-05T08:22:22.000Z</time>
      </trkpt>
      <trkpt lat="42.966" lon="1.83613">
        <ele>527</ele>
        <time>2022-08-05T08:22:24.000Z</time>
      </trkpt>
      <trkpt lat="42.96597" lon="1.83608">
        <ele>527</ele>
        <time>2022-08-05T08:22:27.000Z</time>
      </trkpt>
      <trkpt lat="42.96597" lon="1.836">
        <ele>528</ele>
        <time>2022-08-05T08:22:30.000Z</time>
      </trkpt>
      <trkpt lat="42.96597" lon="1.83595">
        <ele>528</ele>
        <time>2022-08-05T08:22:34.000Z</time>
      </trkpt>
      <trkpt lat="42.96595" lon="1.83588">
        <ele>528</ele>
        <time>2022-08-05T08:22:38.000Z</time>
      </trkpt>
      <trkpt lat="42.96595" lon="1.83582">
        <ele>529</ele>
        <time>2022-08-05T08:22:41.000Z</time>
      </trkpt>
      <trkpt lat="42.96595" lon="1.83573">
        <ele>529</ele>
        <time>2022-08-05T08:22:44.000Z</time>
      </trkpt>
      <trkpt lat="42.96595" lon="1.83567">
        <ele>530</ele>
        <time>2022-08-05T08:22:48.000Z</time>
      </trkpt>
      <trkpt lat="42.96597" lon="1.8356">
        <ele>531</ele>
        <time>2022-08-05T08:22:52.000Z</time>
      </trkpt>
      <trkpt lat="42.966" lon="1.83553">
        <ele>531</ele>
        <time>2022-08-05T08:22:55.000Z</time>
      </trkpt>
      <trkpt lat="42.966" lon="1.83547">
        <ele>531</ele>
        <time>2022-08-05T08:22:59.000Z</time>
      </trkpt>
      <trkpt lat="42.966" lon="1.8354">
        <ele>532</ele>
        <time>2022-08-05T08:23:03.000Z</time>
      </trkpt>
      <trkpt lat="42.966" lon="1.83533">
        <ele>532</ele>
        <time>2022-08-05T08:23:08.000Z</time>
      </trkpt>
      <trkpt lat="42.966" lon="1.83525">
        <ele>533</ele>
        <time>2022-08-05T08:23:12.000Z</time>
      </trkpt>
      <trkpt lat="42.966" lon="1.83518">
        <ele>533</ele>
        <time>2022-08-05T08:23:15.000Z</time>
      </trkpt>
      <trkpt lat="42.96602" lon="1.83512">
        <ele>534</ele>
        <time>2022-08-05T08:23:19.000Z</time>
      </trkpt>
      <trkpt lat="42.96602" lon="1.83505">
        <ele>534</ele>
        <time>2022-08-05T08:23:22.000Z</time>
      </trkpt>
      <trkpt lat="42.96602" lon="1.83498">
        <ele>534</ele>
        <time>2022-08-05T08:23:25.000Z</time>
      </trkpt>
      <trkpt lat="42.96603" lon="1.8349">
        <ele>535</ele>
        <time>2022-08-05T08:23:28.000Z</time>
      </trkpt>
      <trkpt lat="42.96602" lon="1.83485">
        <ele>535</ele>
        <time>2022-08-05T08:23:30.000Z</time>
      </trkpt>
      <trkpt lat="42.96602" lon="1.83478">
        <ele>535</ele>
        <time>2022-08-05T08:23:32.000Z</time>
      </trkpt>
      <trkpt lat="42.96602" lon="1.83472">
        <ele>535</ele>
        <time>2022-08-05T08:23:34.000Z</time>
      </trkpt>
      <trkpt lat="42.96602" lon="1.83462">
        <ele>535</ele>
        <time>2022-08-05T08:23:37.000Z</time>
      </trkpt>
      <trkpt lat="42.96603" lon="1.83457">
        <ele>536</ele>
        <time>2022-08-05T08:23:40.000Z</time>
      </trkpt>
      <trkpt lat="42.96603" lon="1.8345">
        <ele>536</ele>
        <time>2022-08-05T08:23:43.000Z</time>
      </trkpt>
      <trkpt lat="42.96605" lon="1.83443">
        <ele>536</ele>
        <time>2022-08-05T08:23:46.000Z</time>
      </trkpt>
      <trkpt lat="42.96607" lon="1.83437">
        <ele>536</ele>
        <time>2022-08-05T08:23:50.000Z</time>
      </trkpt>
      <trkpt lat="42.96608" lon="1.8343">
        <ele>537</ele>
        <time>2022-08-05T08:23:54.000Z</time>
      </trkpt>
      <trkpt lat="42.96608" lon="1.83423">
        <ele>537</ele>
        <time>2022-08-05T08:23:57.000Z</time>
      </trkpt>
      <trkpt lat="42.9661" lon="1.83418">
        <ele>537</ele>
        <time>2022-08-05T08:24:01.000Z</time>
      </trkpt>
      <trkpt lat="42.96612" lon="1.83412">
        <ele>538</ele>
        <time>2022-08-05T08:24:04.000Z</time>
      </trkpt>
      <trkpt lat="42.96612" lon="1.83405">
        <ele>538</ele>
        <time>2022-08-05T08:24:07.000Z</time>
      </trkpt>
      <trkpt lat="42.96612" lon="1.83398">
        <ele>538</ele>
        <time>2022-08-05T08:24:10.000Z</time>
      </trkpt>
      <trkpt lat="42.96613" lon="1.83392">
        <ele>539</ele>
        <time>2022-08-05T08:24:14.000Z</time>
      </trkpt>
      <trkpt lat="42.96615" lon="1.83385">
        <ele>539</ele>
        <time>2022-08-05T08:24:17.000Z</time>
      </trkpt>
      <trkpt lat="42.96618" lon="1.83377">
        <ele>539</ele>
        <time>2022-08-05T08:24:20.000Z</time>
      </trkpt>
      <trkpt lat="42.96618" lon="1.8337">
        <ele>540</ele>
        <time>2022-08-05T08:24:23.000Z</time>
      </trkpt>
      <trkpt lat="42.9662" lon="1.83363">
        <ele>540</ele>
        <time>2022-08-05T08:24:26.000Z</time>
      </trkpt>
      <trkpt lat="42.9662" lon="1.83357">
        <ele>540</ele>
        <time>2022-08-05T08:24:28.000Z</time>
      </trkpt>
      <trkpt lat="42.9662" lon="1.8335">
        <ele>541</ele>
        <time>2022-08-05T08:24:31.000Z</time>
      </trkpt>
      <trkpt lat="42.9662" lon="1.83342">
        <ele>541</ele>
        <time>2022-08-05T08:24:34.000Z</time>
      </trkpt>
      <trkpt lat="42.96622" lon="1.83337">
        <ele>542</ele>
        <time>2022-08-05T08:24:38.000Z</time>
      </trkpt>
      <trkpt lat="42.96623" lon="1.8333">
        <ele>542</ele>
        <time>2022-08-05T08:24:42.000Z</time>
      </trkpt>
      <trkpt lat="42.96627" lon="1.83323">
        <ele>543</ele>
        <time>2022-08-05T08:24:45.000Z</time>
      </trkpt>
      <trkpt lat="42.96627" lon="1.83315">
        <ele>543</ele>
        <time>2022-08-05T08:24:48.000Z</time>
      </trkpt>
      <trkpt lat="42.96628" lon="1.83307">
        <ele>543</ele>
        <time>2022-08-05T08:24:51.000Z</time>
      </trkpt>
      <trkpt lat="42.96628" lon="1.833">
        <ele>544</ele>
        <time>2022-08-05T08:24:54.000Z</time>
      </trkpt>
      <trkpt lat="42.96628" lon="1.83292">
        <ele>544</ele>
        <time>2022-08-05T08:24:57.000Z</time>
      </trkpt>
      <trkpt lat="42.96628" lon="1.83285">
        <ele>544</ele>
        <time>2022-08-05T08:24:59.000Z</time>
      </trkpt>
      <trkpt lat="42.96632" lon="1.83277">
        <ele>544</ele>
        <time>2022-08-05T08:25:02.000Z</time>
      </trkpt>
      <trkpt lat="42.96632" lon="1.83272">
        <ele>544</ele>
        <time>2022-08-05T08:25:04.000Z</time>
      </trkpt>
      <trkpt lat="42.96635" lon="1.83262">
        <ele>545</ele>
        <time>2022-08-05T08:25:07.000Z</time>
      </trkpt>
      <trkpt lat="42.96637" lon="1.83257">
        <ele>545</ele>
        <time>2022-08-05T08:25:09.000Z</time>
      </trkpt>
      <trkpt lat="42.96638" lon="1.83248">
        <ele>545</ele>
        <time>2022-08-05T08:25:11.000Z</time>
      </trkpt>
      <trkpt lat="42.96638" lon="1.8324">
        <ele>545</ele>
        <time>2022-08-05T08:25:13.000Z</time>
      </trkpt>
      <trkpt lat="42.9664" lon="1.8323">
        <ele>545</ele>
        <time>2022-08-05T08:25:15.000Z</time>
      </trkpt>
      <trkpt lat="42.96642" lon="1.83218">
        <ele>545</ele>
        <time>2022-08-05T08:25:17.000Z</time>
      </trkpt>
      <trkpt lat="42.96643" lon="1.83208">
        <ele>545</ele>
        <time>2022-08-05T08:25:19.000Z</time>
      </trkpt>
      <trkpt lat="42.96645" lon="1.83197">
        <ele>545</ele>
        <time>2022-08-05T08:25:21.000Z</time>
      </trkpt>
      <trkpt lat="42.96648" lon="1.83187">
        <ele>545</ele>
        <time>2022-08-05T08:25:23.000Z</time>
      </trkpt>
      <trkpt lat="42.9665" lon="1.83177">
        <ele>545</ele>
        <time>2022-08-05T08:25:25.000Z</time>
      </trkpt>
      <trkpt lat="42.96653" lon="1.83167">
        <ele>545</ele>
        <time>2022-08-05T08:25:27.000Z</time>
      </trkpt>
      <trkpt lat="42.96655" lon="1.83155">
        <ele>545</ele>
        <time>2022-08-05T08:25:29.000Z</time>
      </trkpt>
      <trkpt lat="42.96657" lon="1.83142">
        <ele>545</ele>
        <time>2022-08-05T08:25:31.000Z</time>
      </trkpt>
      <trkpt lat="42.96658" lon="1.83133">
        <ele>545</ele>
        <time>2022-08-05T08:25:33.000Z</time>
      </trkpt>
      <trkpt lat="42.9666" lon="1.83123">
        <ele>545</ele>
        <time>2022-08-05T08:25:35.000Z</time>
      </trkpt>
      <trkpt lat="42.96662" lon="1.83113">
        <ele>545</ele>
        <time>2022-08-05T08:25:37.000Z</time>
      </trkpt>
      <trkpt lat="42.96663" lon="1.83102">
        <ele>545</ele>
        <time>2022-08-05T08:25:39.000Z</time>
      </trkpt>
      <trkpt lat="42.96665" lon="1.83092">
        <ele>545</ele>
        <time>2022-08-05T08:25:41.000Z</time>
      </trkpt>
      <trkpt lat="42.96668" lon="1.83082">
        <ele>545</ele>
        <time>2022-08-05T08:25:43.000Z</time>
      </trkpt>
      <trkpt lat="42.96672" lon="1.8307">
        <ele>545</ele>
        <time>2022-08-05T08:25:45.000Z</time>
      </trkpt>
      <trkpt lat="42.96673" lon="1.83063">
        <ele>545</ele>
        <time>2022-08-05T08:25:46.000Z</time>
      </trkpt>
      <trkpt lat="42.96675" lon="1.83058">
        <ele>545</ele>
        <time>2022-08-05T08:25:47.000Z</time>
      </trkpt>
      <trkpt lat="42.96677" lon="1.83047">
        <ele>545</ele>
        <time>2022-08-05T08:25:49.000Z</time>
      </trkpt>
      <trkpt lat="42.9668" lon="1.83035">
        <ele>545</ele>
        <time>2022-08-05T08:25:51.000Z</time>
      </trkpt>
      <trkpt lat="42.9668" lon="1.83025">
        <ele>545</ele>
        <time>2022-08-05T08:25:53.000Z</time>
      </trkpt>
      <trkpt lat="42.96682" lon="1.83015">
        <ele>545</ele>
        <time>2022-08-05T08:25:55.000Z</time>
      </trkpt>
      <trkpt lat="42.96683" lon="1.83007">
        <ele>545</ele>
        <time>2022-08-05T08:25:57.000Z</time>
      </trkpt>
      <trkpt lat="42.96685" lon="1.82995">
        <ele>546</ele>
        <time>2022-08-05T08:25:59.000Z</time>
      </trkpt>
      <trkpt lat="42.96685" lon="1.82988">
        <ele>546</ele>
        <time>2022-08-05T08:26:00.000Z</time>
      </trkpt>
      <trkpt lat="42.96687" lon="1.82977">
        <ele>546</ele>
        <time>2022-08-05T08:26:01.000Z</time>
      </trkpt>
      <trkpt lat="42.96688" lon="1.82972">
        <ele>546</ele>
        <time>2022-08-05T08:26:02.000Z</time>
      </trkpt>
      <trkpt lat="42.96688" lon="1.8296">
        <ele>546</ele>
        <time>2022-08-05T08:26:04.000Z</time>
      </trkpt>
      <trkpt lat="42.9669" lon="1.82952">
        <ele>546</ele>
        <time>2022-08-05T08:26:06.000Z</time>
      </trkpt>
      <trkpt lat="42.96692" lon="1.82943">
        <ele>546</ele>
        <time>2022-08-05T08:26:08.000Z</time>
      </trkpt>
      <trkpt lat="42.96693" lon="1.82935">
        <ele>547</ele>
        <time>2022-08-05T08:26:10.000Z</time>
      </trkpt>
      <trkpt lat="42.96695" lon="1.82927">
        <ele>547</ele>
        <time>2022-08-05T08:26:12.000Z</time>
      </trkpt>
      <trkpt lat="42.96695" lon="1.82918">
        <ele>547</ele>
        <time>2022-08-05T08:26:14.000Z</time>
      </trkpt>
      <trkpt lat="42.96697" lon="1.8291">
        <ele>547</ele>
        <time>2022-08-05T08:26:16.000Z</time>
      </trkpt>
      <trkpt lat="42.96697" lon="1.82903">
        <ele>548</ele>
        <time>2022-08-05T08:26:18.000Z</time>
      </trkpt>
      <trkpt lat="42.96698" lon="1.82895">
        <ele>548</ele>
        <time>2022-08-05T08:26:20.000Z</time>
      </trkpt>
      <trkpt lat="42.967" lon="1.82888">
        <ele>548</ele>
        <time>2022-08-05T08:26:22.000Z</time>
      </trkpt>
      <trkpt lat="42.967" lon="1.8288">
        <ele>549</ele>
        <time>2022-08-05T08:26:24.000Z</time>
      </trkpt>
      <trkpt lat="42.96702" lon="1.82872">
        <ele>549</ele>
        <time>2022-08-05T08:26:26.000Z</time>
      </trkpt>
      <trkpt lat="42.96702" lon="1.82865">
        <ele>549</ele>
        <time>2022-08-05T08:26:28.000Z</time>
      </trkpt>
      <trkpt lat="42.96703" lon="1.82858">
        <ele>550</ele>
        <time>2022-08-05T08:26:30.000Z</time>
      </trkpt>
      <trkpt lat="42.96705" lon="1.82852">
        <ele>550</ele>
        <time>2022-08-05T08:26:32.000Z</time>
      </trkpt>
      <trkpt lat="42.96705" lon="1.82843">
        <ele>550</ele>
        <time>2022-08-05T08:26:34.000Z</time>
      </trkpt>
      <trkpt lat="42.96707" lon="1.82837">
        <ele>551</ele>
        <time>2022-08-05T08:26:36.000Z</time>
      </trkpt>
      <trkpt lat="42.96707" lon="1.8283">
        <ele>551</ele>
        <time>2022-08-05T08:26:38.000Z</time>
      </trkpt>
      <trkpt lat="42.96708" lon="1.82822">
        <ele>551</ele>
        <time>2022-08-05T08:26:40.000Z</time>
      </trkpt>
      <trkpt lat="42.96708" lon="1.82815">
        <ele>551</ele>
        <time>2022-08-05T08:26:42.000Z</time>
      </trkpt>
      <trkpt lat="42.9671" lon="1.82808">
        <ele>552</ele>
        <time>2022-08-05T08:26:44.000Z</time>
      </trkpt>
      <trkpt lat="42.9671" lon="1.82802">
        <ele>552</ele>
        <time>2022-08-05T08:26:46.000Z</time>
      </trkpt>
      <trkpt lat="42.96712" lon="1.82793">
        <ele>552</ele>
        <time>2022-08-05T08:26:49.000Z</time>
      </trkpt>
      <trkpt lat="42.96712" lon="1.82785">
        <ele>553</ele>
        <time>2022-08-05T08:26:52.000Z</time>
      </trkpt>
      <trkpt lat="42.96713" lon="1.82778">
        <ele>553</ele>
        <time>2022-08-05T08:26:55.000Z</time>
      </trkpt>
      <trkpt lat="42.96715" lon="1.8277">
        <ele>553</ele>
        <time>2022-08-05T08:26:58.000Z</time>
      </trkpt>
      <trkpt lat="42.96715" lon="1.82762">
        <ele>553</ele>
        <time>2022-08-05T08:27:01.000Z</time>
      </trkpt>
      <trkpt lat="42.96713" lon="1.82753">
        <ele>554</ele>
        <time>2022-08-05T08:27:04.000Z</time>
      </trkpt>
      <trkpt lat="42.96713" lon="1.82747">
        <ele>554</ele>
        <time>2022-08-05T08:27:07.000Z</time>
      </trkpt>
      <trkpt lat="42.96715" lon="1.82738">
        <ele>554</ele>
        <time>2022-08-05T08:27:10.000Z</time>
      </trkpt>
      <trkpt lat="42.96715" lon="1.82733">
        <ele>555</ele>
        <time>2022-08-05T08:27:13.000Z</time>
      </trkpt>
      <trkpt lat="42.96715" lon="1.82725">
        <ele>555</ele>
        <time>2022-08-05T08:27:17.000Z</time>
      </trkpt>
      <trkpt lat="42.96715" lon="1.82717">
        <ele>555</ele>
        <time>2022-08-05T08:27:20.000Z</time>
      </trkpt>
      <trkpt lat="42.96715" lon="1.8271">
        <ele>556</ele>
        <time>2022-08-05T08:27:23.000Z</time>
      </trkpt>
      <trkpt lat="42.96717" lon="1.82703">
        <ele>556</ele>
        <time>2022-08-05T08:27:26.000Z</time>
      </trkpt>
      <trkpt lat="42.96717" lon="1.82697">
        <ele>556</ele>
        <time>2022-08-05T08:27:30.000Z</time>
      </trkpt>
      <trkpt lat="42.96715" lon="1.8269">
        <ele>557</ele>
        <time>2022-08-05T08:27:35.000Z</time>
      </trkpt>
      <trkpt lat="42.96713" lon="1.82683">
        <ele>557</ele>
        <time>2022-08-05T08:27:38.000Z</time>
      </trkpt>
      <trkpt lat="42.96712" lon="1.82677">
        <ele>558</ele>
        <time>2022-08-05T08:27:41.000Z</time>
      </trkpt>
      <trkpt lat="42.9671" lon="1.8267">
        <ele>558</ele>
        <time>2022-08-05T08:27:45.000Z</time>
      </trkpt>
      <trkpt lat="42.9671" lon="1.82663">
        <ele>559</ele>
        <time>2022-08-05T08:27:49.000Z</time>
      </trkpt>
      <trkpt lat="42.9671" lon="1.82657">
        <ele>559</ele>
        <time>2022-08-05T08:27:53.000Z</time>
      </trkpt>
      <trkpt lat="42.9671" lon="1.8265">
        <ele>560</ele>
        <time>2022-08-05T08:27:57.000Z</time>
      </trkpt>
      <trkpt lat="42.9671" lon="1.82643">
        <ele>560</ele>
        <time>2022-08-05T08:28:01.000Z</time>
      </trkpt>
      <trkpt lat="42.96708" lon="1.82637">
        <ele>560</ele>
        <time>2022-08-05T08:28:04.000Z</time>
      </trkpt>
      <trkpt lat="42.96708" lon="1.8263">
        <ele>561</ele>
        <time>2022-08-05T08:28:07.000Z</time>
      </trkpt>
      <trkpt lat="42.9671" lon="1.82622">
        <ele>561</ele>
        <time>2022-08-05T08:28:10.000Z</time>
      </trkpt>
      <trkpt lat="42.9671" lon="1.82613">
        <ele>561</ele>
        <time>2022-08-05T08:28:13.000Z</time>
      </trkpt>
      <trkpt lat="42.9671" lon="1.82607">
        <ele>561</ele>
        <time>2022-08-05T08:28:15.000Z</time>
      </trkpt>
      <trkpt lat="42.9671" lon="1.826">
        <ele>562</ele>
        <time>2022-08-05T08:28:17.000Z</time>
      </trkpt>
      <trkpt lat="42.9671" lon="1.82593">
        <ele>562</ele>
        <time>2022-08-05T08:28:19.000Z</time>
      </trkpt>
      <trkpt lat="42.9671" lon="1.82587">
        <ele>562</ele>
        <time>2022-08-05T08:28:21.000Z</time>
      </trkpt>
      <trkpt lat="42.9671" lon="1.82582">
        <ele>562</ele>
        <time>2022-08-05T08:28:23.000Z</time>
      </trkpt>
      <trkpt lat="42.96712" lon="1.82575">
        <ele>562</ele>
        <time>2022-08-05T08:28:25.000Z</time>
      </trkpt>
      <trkpt lat="42.96712" lon="1.82568">
        <ele>563</ele>
        <time>2022-08-05T08:28:27.000Z</time>
      </trkpt>
      <trkpt lat="42.96713" lon="1.8256">
        <ele>563</ele>
        <time>2022-08-05T08:28:29.000Z</time>
      </trkpt>
      <trkpt lat="42.96713" lon="1.82552">
        <ele>563</ele>
        <time>2022-08-05T08:28:31.000Z</time>
      </trkpt>
      <trkpt lat="42.96715" lon="1.82543">
        <ele>563</ele>
        <time>2022-08-05T08:28:33.000Z</time>
      </trkpt>
      <trkpt lat="42.96715" lon="1.82535">
        <ele>563</ele>
        <time>2022-08-05T08:28:35.000Z</time>
      </trkpt>
      <trkpt lat="42.96717" lon="1.82523">
        <ele>563</ele>
        <time>2022-08-05T08:28:37.000Z</time>
      </trkpt>
      <trkpt lat="42.96717" lon="1.82517">
        <ele>563</ele>
        <time>2022-08-05T08:28:38.000Z</time>
      </trkpt>
      <trkpt lat="42.96718" lon="1.8251">
        <ele>563</ele>
        <time>2022-08-05T08:28:39.000Z</time>
      </trkpt>
      <trkpt lat="42.9672" lon="1.82503">
        <ele>563</ele>
        <time>2022-08-05T08:28:40.000Z</time>
      </trkpt>
      <trkpt lat="42.9672" lon="1.82497">
        <ele>563</ele>
        <time>2022-08-05T08:28:41.000Z</time>
      </trkpt>
      <trkpt lat="42.96722" lon="1.82488">
        <ele>563</ele>
        <time>2022-08-05T08:28:42.000Z</time>
      </trkpt>
      <trkpt lat="42.96722" lon="1.82478">
        <ele>563</ele>
        <time>2022-08-05T08:28:43.000Z</time>
      </trkpt>
      <trkpt lat="42.96722" lon="1.8247">
        <ele>563</ele>
        <time>2022-08-05T08:28:44.000Z</time>
      </trkpt>
      <trkpt lat="42.9672" lon="1.8246">
        <ele>562</ele>
        <time>2022-08-05T08:28:45.000Z</time>
      </trkpt>
      <trkpt lat="42.96718" lon="1.8245">
        <ele>562</ele>
        <time>2022-08-05T08:28:46.000Z</time>
      </trkpt>
      <trkpt lat="42.96717" lon="1.8244">
        <ele>562</ele>
        <time>2022-08-05T08:28:47.000Z</time>
      </trkpt>
      <trkpt lat="42.96715" lon="1.8243">
        <ele>562</ele>
        <time>2022-08-05T08:28:48.000Z</time>
      </trkpt>
      <trkpt lat="42.96715" lon="1.8242">
        <ele>562</ele>
        <time>2022-08-05T08:28:49.000Z</time>
      </trkpt>
      <trkpt lat="42.96715" lon="1.8241">
        <ele>562</ele>
        <time>2022-08-05T08:28:50.000Z</time>
      </trkpt>
      <trkpt lat="42.96715" lon="1.82402">
        <ele>561</ele>
        <time>2022-08-05T08:28:51.000Z</time>
      </trkpt>
      <trkpt lat="42.96715" lon="1.82392">
        <ele>561</ele>
        <time>2022-08-05T08:28:52.000Z</time>
      </trkpt>
      <trkpt lat="42.96715" lon="1.82383">
        <ele>561</ele>
        <time>2022-08-05T08:28:53.000Z</time>
      </trkpt>
      <trkpt lat="42.96717" lon="1.82375">
        <ele>561</ele>
        <time>2022-08-05T08:28:54.000Z</time>
      </trkpt>
      <trkpt lat="42.96718" lon="1.82368">
        <ele>561</ele>
        <time>2022-08-05T08:28:55.000Z</time>
      </trkpt>
      <trkpt lat="42.96718" lon="1.8236">
        <ele>561</ele>
        <time>2022-08-05T08:28:56.000Z</time>
      </trkpt>
      <trkpt lat="42.9672" lon="1.82353">
        <ele>560</ele>
        <time>2022-08-05T08:28:57.000Z</time>
      </trkpt>
      <trkpt lat="42.96722" lon="1.82347">
        <ele>560</ele>
        <time>2022-08-05T08:28:58.000Z</time>
      </trkpt>
      <trkpt lat="42.96722" lon="1.8234">
        <ele>560</ele>
        <time>2022-08-05T08:28:59.000Z</time>
      </trkpt>
      <trkpt lat="42.96723" lon="1.82333">
        <ele>560</ele>
        <time>2022-08-05T08:29:00.000Z</time>
      </trkpt>
      <trkpt lat="42.96723" lon="1.82322">
        <ele>560</ele>
        <time>2022-08-05T08:29:02.000Z</time>
      </trkpt>
      <trkpt lat="42.96725" lon="1.82312">
        <ele>560</ele>
        <time>2022-08-05T08:29:04.000Z</time>
      </trkpt>
      <trkpt lat="42.96728" lon="1.82302">
        <ele>560</ele>
        <time>2022-08-05T08:29:06.000Z</time>
      </trkpt>
      <trkpt lat="42.96728" lon="1.82292">
        <ele>559</ele>
        <time>2022-08-05T08:29:08.000Z</time>
      </trkpt>
      <trkpt lat="42.9673" lon="1.82283">
        <ele>559</ele>
        <time>2022-08-05T08:29:10.000Z</time>
      </trkpt>
      <trkpt lat="42.96732" lon="1.82273">
        <ele>559</ele>
        <time>2022-08-05T08:29:12.000Z</time>
      </trkpt>
      <trkpt lat="42.96733" lon="1.82263">
        <ele>559</ele>
        <time>2022-08-05T08:29:14.000Z</time>
      </trkpt>
      <trkpt lat="42.96735" lon="1.82255">
        <ele>559</ele>
        <time>2022-08-05T08:29:16.000Z</time>
      </trkpt>
      <trkpt lat="42.96737" lon="1.82247">
        <ele>559</ele>
        <time>2022-08-05T08:29:18.000Z</time>
      </trkpt>
      <trkpt lat="42.96738" lon="1.82237">
        <ele>559</ele>
        <time>2022-08-05T08:29:20.000Z</time>
      </trkpt>
      <trkpt lat="42.96738" lon="1.82228">
        <ele>559</ele>
        <time>2022-08-05T08:29:22.000Z</time>
      </trkpt>
      <trkpt lat="42.9674" lon="1.82222">
        <ele>559</ele>
        <time>2022-08-05T08:29:24.000Z</time>
      </trkpt>
      <trkpt lat="42.96742" lon="1.82213">
        <ele>559</ele>
        <time>2022-08-05T08:29:26.000Z</time>
      </trkpt>
      <trkpt lat="42.96743" lon="1.82205">
        <ele>559</ele>
        <time>2022-08-05T08:29:28.000Z</time>
      </trkpt>
      <trkpt lat="42.96745" lon="1.82197">
        <ele>560</ele>
        <time>2022-08-05T08:29:30.000Z</time>
      </trkpt>
      <trkpt lat="42.96747" lon="1.8219">
        <ele>560</ele>
        <time>2022-08-05T08:29:32.000Z</time>
      </trkpt>
      <trkpt lat="42.96748" lon="1.82183">
        <ele>560</ele>
        <time>2022-08-05T08:29:34.000Z</time>
      </trkpt>
      <trkpt lat="42.9675" lon="1.82177">
        <ele>560</ele>
        <time>2022-08-05T08:29:36.000Z</time>
      </trkpt>
      <trkpt lat="42.9675" lon="1.82167">
        <ele>560</ele>
        <time>2022-08-05T08:29:38.000Z</time>
      </trkpt>
      <trkpt lat="42.9675" lon="1.82157">
        <ele>560</ele>
        <time>2022-08-05T08:29:40.000Z</time>
      </trkpt>
      <trkpt lat="42.9675" lon="1.82148">
        <ele>560</ele>
        <time>2022-08-05T08:29:42.000Z</time>
      </trkpt>
      <trkpt lat="42.96752" lon="1.8214">
        <ele>560</ele>
        <time>2022-08-05T08:29:44.000Z</time>
      </trkpt>
      <trkpt lat="42.96753" lon="1.82132">
        <ele>560</ele>
        <time>2022-08-05T08:29:46.000Z</time>
      </trkpt>
      <trkpt lat="42.96753" lon="1.82123">
        <ele>560</ele>
        <time>2022-08-05T08:29:48.000Z</time>
      </trkpt>
      <trkpt lat="42.96753" lon="1.82113">
        <ele>560</ele>
        <time>2022-08-05T08:29:50.000Z</time>
      </trkpt>
      <trkpt lat="42.96755" lon="1.82105">
        <ele>560</ele>
        <time>2022-08-05T08:29:52.000Z</time>
      </trkpt>
      <trkpt lat="42.96755" lon="1.82097">
        <ele>560</ele>
        <time>2022-08-05T08:29:54.000Z</time>
      </trkpt>
      <trkpt lat="42.96752" lon="1.82085">
        <ele>561</ele>
        <time>2022-08-05T08:30:52.000Z</time>
      </trkpt>
      <trkpt lat="42.96745" lon="1.82085">
        <ele>561</ele>
        <time>2022-08-05T08:30:56.000Z</time>
      </trkpt>
      <trkpt lat="42.96738" lon="1.82085">
        <ele>560</ele>
        <time>2022-08-05T08:30:59.000Z</time>
      </trkpt>
      <trkpt lat="42.96732" lon="1.8209">
        <ele>560</ele>
        <time>2022-08-05T08:31:01.000Z</time>
      </trkpt>
      <trkpt lat="42.96727" lon="1.82092">
        <ele>560</ele>
        <time>2022-08-05T08:31:02.000Z</time>
      </trkpt>
      <trkpt lat="42.96722" lon="1.82097">
        <ele>559</ele>
        <time>2022-08-05T08:31:03.000Z</time>
      </trkpt>
      <trkpt lat="42.96717" lon="1.82102">
        <ele>559</ele>
        <time>2022-08-05T08:31:04.000Z</time>
      </trkpt>
      <trkpt lat="42.96712" lon="1.82105">
        <ele>559</ele>
        <time>2022-08-05T08:31:05.000Z</time>
      </trkpt>
      <trkpt lat="42.96707" lon="1.8211">
        <ele>558</ele>
        <time>2022-08-05T08:31:06.000Z</time>
      </trkpt>
      <trkpt lat="42.96702" lon="1.82117">
        <ele>558</ele>
        <time>2022-08-05T08:31:07.000Z</time>
      </trkpt>
      <trkpt lat="42.96698" lon="1.82122">
        <ele>557</ele>
        <time>2022-08-05T08:31:08.000Z</time>
      </trkpt>
      <trkpt lat="42.96693" lon="1.82128">
        <ele>557</ele>
        <time>2022-08-05T08:31:09.000Z</time>
      </trkpt>
      <trkpt lat="42.9669" lon="1.82133">
        <ele>557</ele>
        <time>2022-08-05T08:31:10.000Z</time>
      </trkpt>
      <trkpt lat="42.96685" lon="1.8214">
        <ele>556</ele>
        <time>2022-08-05T08:31:11.000Z</time>
      </trkpt>
      <trkpt lat="42.96682" lon="1.82145">
        <ele>556</ele>
        <time>2022-08-05T08:31:12.000Z</time>
      </trkpt>
      <trkpt lat="42.96677" lon="1.82152">
        <ele>556</ele>
        <time>2022-08-05T08:31:13.000Z</time>
      </trkpt>
      <trkpt lat="42.96672" lon="1.82158">
        <ele>555</ele>
        <time>2022-08-05T08:31:14.000Z</time>
      </trkpt>
      <trkpt lat="42.96668" lon="1.82163">
        <ele>555</ele>
        <time>2022-08-05T08:31:15.000Z</time>
      </trkpt>
      <trkpt lat="42.96663" lon="1.82168">
        <ele>555</ele>
        <time>2022-08-05T08:31:16.000Z</time>
      </trkpt>
      <trkpt lat="42.9666" lon="1.82173">
        <ele>555</ele>
        <time>2022-08-05T08:31:17.000Z</time>
      </trkpt>
      <trkpt lat="42.96657" lon="1.82178">
        <ele>554</ele>
        <time>2022-08-05T08:31:18.000Z</time>
      </trkpt>
      <trkpt lat="42.96653" lon="1.82183">
        <ele>554</ele>
        <time>2022-08-05T08:31:19.000Z</time>
      </trkpt>
      <trkpt lat="42.9665" lon="1.82188">
        <ele>554</ele>
        <time>2022-08-05T08:31:20.000Z</time>
      </trkpt>
      <trkpt lat="42.96647" lon="1.82192">
        <ele>554</ele>
        <time>2022-08-05T08:31:21.000Z</time>
      </trkpt>
      <trkpt lat="42.9664" lon="1.82197">
        <ele>553</ele>
        <time>2022-08-05T08:31:23.000Z</time>
      </trkpt>
      <trkpt lat="42.96633" lon="1.822">
        <ele>553</ele>
        <time>2022-08-05T08:31:25.000Z</time>
      </trkpt>
      <trkpt lat="42.96627" lon="1.82203">
        <ele>553</ele>
        <time>2022-08-05T08:31:27.000Z</time>
      </trkpt>
      <trkpt lat="42.96618" lon="1.82205">
        <ele>552</ele>
        <time>2022-08-05T08:31:29.000Z</time>
      </trkpt>
      <trkpt lat="42.96613" lon="1.82207">
        <ele>552</ele>
        <time>2022-08-05T08:31:31.000Z</time>
      </trkpt>
      <trkpt lat="42.96608" lon="1.82208">
        <ele>552</ele>
        <time>2022-08-05T08:31:34.000Z</time>
      </trkpt>
      <trkpt lat="42.96603" lon="1.82212">
        <ele>550</ele>
        <time>2022-08-05T08:32:08.000Z</time>
      </trkpt>
      <trkpt lat="42.96598" lon="1.82208">
        <ele>550</ele>
        <time>2022-08-05T08:32:10.000Z</time>
      </trkpt>
      <trkpt lat="42.96593" lon="1.82208">
        <ele>550</ele>
        <time>2022-08-05T08:32:12.000Z</time>
      </trkpt>
      <trkpt lat="42.96588" lon="1.82207">
        <ele>550</ele>
        <time>2022-08-05T08:32:15.000Z</time>
      </trkpt>
      <trkpt lat="42.96583" lon="1.82207">
        <ele>550</ele>
        <time>2022-08-05T08:32:18.000Z</time>
      </trkpt>
      <trkpt lat="42.96578" lon="1.82208">
        <ele>550</ele>
        <time>2022-08-05T08:32:21.000Z</time>
      </trkpt>
      <trkpt lat="42.96572" lon="1.82208">
        <ele>550</ele>
        <time>2022-08-05T08:32:25.000Z</time>
      </trkpt>
      <trkpt lat="42.96567" lon="1.8221">
        <ele>551</ele>
        <time>2022-08-05T08:32:29.000Z</time>
      </trkpt>
      <trkpt lat="42.96562" lon="1.8221">
        <ele>551</ele>
        <time>2022-08-05T08:32:32.000Z</time>
      </trkpt>
      <trkpt lat="42.96557" lon="1.8221">
        <ele>551</ele>
        <time>2022-08-05T08:32:36.000Z</time>
      </trkpt>
      <trkpt lat="42.96552" lon="1.82208">
        <ele>552</ele>
        <time>2022-08-05T08:32:39.000Z</time>
      </trkpt>
      <trkpt lat="42.96547" lon="1.82208">
        <ele>552</ele>
        <time>2022-08-05T08:32:42.000Z</time>
      </trkpt>
      <trkpt lat="42.9654" lon="1.82208">
        <ele>553</ele>
        <time>2022-08-05T08:32:46.000Z</time>
      </trkpt>
      <trkpt lat="42.96535" lon="1.82207">
        <ele>553</ele>
        <time>2022-08-05T08:32:51.000Z</time>
      </trkpt>
      <trkpt lat="42.9653" lon="1.82205">
        <ele>554</ele>
        <time>2022-08-05T08:32:57.000Z</time>
      </trkpt>
      <trkpt lat="42.96527" lon="1.822">
        <ele>555</ele>
        <time>2022-08-05T08:33:05.000Z</time>
      </trkpt>
      <trkpt lat="42.96525" lon="1.82195">
        <ele>556</ele>
        <time>2022-08-05T08:33:14.000Z</time>
      </trkpt>
      <trkpt lat="42.96522" lon="1.8219">
        <ele>557</ele>
        <time>2022-08-05T08:33:24.000Z</time>
      </trkpt>
      <trkpt lat="42.96522" lon="1.82183">
        <ele>558</ele>
        <time>2022-08-05T08:33:34.000Z</time>
      </trkpt>
      <trkpt lat="42.9652" lon="1.82177">
        <ele>559</ele>
        <time>2022-08-05T08:33:43.000Z</time>
      </trkpt>
      <trkpt lat="42.96515" lon="1.82175">
        <ele>560</ele>
        <time>2022-08-05T08:33:50.000Z</time>
      </trkpt>
      <trkpt lat="42.96512" lon="1.8217">
        <ele>561</ele>
        <time>2022-08-05T08:33:57.000Z</time>
      </trkpt>
      <trkpt lat="42.96508" lon="1.82167">
        <ele>561</ele>
        <time>2022-08-05T08:34:05.000Z</time>
      </trkpt>
      <trkpt lat="42.96507" lon="1.8216">
        <ele>562</ele>
        <time>2022-08-05T08:34:11.000Z</time>
      </trkpt>
      <trkpt lat="42.96503" lon="1.82153">
        <ele>563</ele>
        <time>2022-08-05T08:34:20.000Z</time>
      </trkpt>
      <trkpt lat="42.965" lon="1.82148">
        <ele>564</ele>
        <time>2022-08-05T08:34:27.000Z</time>
      </trkpt>
      <trkpt lat="42.965" lon="1.82142">
        <ele>565</ele>
        <time>2022-08-05T08:34:35.000Z</time>
      </trkpt>
      <trkpt lat="42.96497" lon="1.82137">
        <ele>566</ele>
        <time>2022-08-05T08:34:41.000Z</time>
      </trkpt>
      <trkpt lat="42.96493" lon="1.82132">
        <ele>566</ele>
        <time>2022-08-05T08:34:47.000Z</time>
      </trkpt>
      <trkpt lat="42.96492" lon="1.82125">
        <ele>567</ele>
        <time>2022-08-05T08:34:53.000Z</time>
      </trkpt>
      <trkpt lat="42.9649" lon="1.82118">
        <ele>568</ele>
        <time>2022-08-05T08:35:00.000Z</time>
      </trkpt>
      <trkpt lat="42.96488" lon="1.82112">
        <ele>569</ele>
        <time>2022-08-05T08:35:08.000Z</time>
      </trkpt>
      <trkpt lat="42.9649" lon="1.82105">
        <ele>570</ele>
        <time>2022-08-05T08:35:14.000Z</time>
      </trkpt>
      <trkpt lat="42.96488" lon="1.82098">
        <ele>570</ele>
        <time>2022-08-05T08:35:20.000Z</time>
      </trkpt>
      <trkpt lat="42.96485" lon="1.82093">
        <ele>571</ele>
        <time>2022-08-05T08:35:27.000Z</time>
      </trkpt>
      <trkpt lat="42.96482" lon="1.82088">
        <ele>572</ele>
        <time>2022-08-05T08:35:33.000Z</time>
      </trkpt>
      <trkpt lat="42.9648" lon="1.82082">
        <ele>572</ele>
        <time>2022-08-05T08:35:39.000Z</time>
      </trkpt>
      <trkpt lat="42.9648" lon="1.82075">
        <ele>573</ele>
        <time>2022-08-05T08:35:46.000Z</time>
      </trkpt>
      <trkpt lat="42.96478" lon="1.8207">
        <ele>574</ele>
        <time>2022-08-05T08:35:53.000Z</time>
      </trkpt>
      <trkpt lat="42.96477" lon="1.82063">
        <ele>575</ele>
        <time>2022-08-05T08:36:02.000Z</time>
      </trkpt>
      <trkpt lat="42.96475" lon="1.82058">
        <ele>576</ele>
        <time>2022-08-05T08:36:10.000Z</time>
      </trkpt>
      <trkpt lat="42.9647" lon="1.82053">
        <ele>576</ele>
        <time>2022-08-05T08:36:15.000Z</time>
      </trkpt>
      <trkpt lat="42.96467" lon="1.8205">
        <ele>577</ele>
        <time>2022-08-05T08:36:21.000Z</time>
      </trkpt>
      <trkpt lat="42.96462" lon="1.82045">
        <ele>577</ele>
        <time>2022-08-05T08:36:26.000Z</time>
      </trkpt>
      <trkpt lat="42.9646" lon="1.82038">
        <ele>578</ele>
        <time>2022-08-05T08:36:31.000Z</time>
      </trkpt>
      <trkpt lat="42.96457" lon="1.82033">
        <ele>579</ele>
        <time>2022-08-05T08:36:38.000Z</time>
      </trkpt>
      <trkpt lat="42.96455" lon="1.82028">
        <ele>579</ele>
        <time>2022-08-05T08:36:44.000Z</time>
      </trkpt>
      <trkpt lat="42.96452" lon="1.82022">
        <ele>580</ele>
        <time>2022-08-05T08:36:50.000Z</time>
      </trkpt>
      <trkpt lat="42.9645" lon="1.82015">
        <ele>581</ele>
        <time>2022-08-05T08:36:55.000Z</time>
      </trkpt>
      <trkpt lat="42.96448" lon="1.82008">
        <ele>581</ele>
        <time>2022-08-05T08:37:01.000Z</time>
      </trkpt>
      <trkpt lat="42.96447" lon="1.82003">
        <ele>582</ele>
        <time>2022-08-05T08:37:07.000Z</time>
      </trkpt>
      <trkpt lat="42.96445" lon="1.81997">
        <ele>583</ele>
        <time>2022-08-05T08:37:15.000Z</time>
      </trkpt>
      <trkpt lat="42.96442" lon="1.81992">
        <ele>583</ele>
        <time>2022-08-05T08:37:21.000Z</time>
      </trkpt>
      <trkpt lat="42.96438" lon="1.81987">
        <ele>584</ele>
        <time>2022-08-05T08:37:27.000Z</time>
      </trkpt>
      <trkpt lat="42.96435" lon="1.81983">
        <ele>585</ele>
        <time>2022-08-05T08:37:34.000Z</time>
      </trkpt>
      <trkpt lat="42.9643" lon="1.8198">
        <ele>586</ele>
        <time>2022-08-05T08:37:40.000Z</time>
      </trkpt>
      <trkpt lat="42.96425" lon="1.81978">
        <ele>586</ele>
        <time>2022-08-05T08:37:45.000Z</time>
      </trkpt>
      <trkpt lat="42.96422" lon="1.8198">
        <ele>586</ele>
        <time>2022-08-05T08:37:50.000Z</time>
      </trkpt>
      <trkpt lat="42.96417" lon="1.81977">
        <ele>587</ele>
        <time>2022-08-05T08:37:56.000Z</time>
      </trkpt>
      <trkpt lat="42.96412" lon="1.81977">
        <ele>588</ele>
        <time>2022-08-05T08:38:02.000Z</time>
      </trkpt>
      <trkpt lat="42.96407" lon="1.81978">
        <ele>589</ele>
        <time>2022-08-05T08:38:10.000Z</time>
      </trkpt>
      <trkpt lat="42.96403" lon="1.81983">
        <ele>589</ele>
        <time>2022-08-05T08:38:16.000Z</time>
      </trkpt>
      <trkpt lat="42.964" lon="1.81988">
        <ele>591</ele>
        <time>2022-08-05T08:38:23.000Z</time>
      </trkpt>
      <trkpt lat="42.96397" lon="1.81993">
        <ele>592</ele>
        <time>2022-08-05T08:38:31.000Z</time>
      </trkpt>
      <trkpt lat="42.96393" lon="1.81998">
        <ele>592</ele>
        <time>2022-08-05T08:38:38.000Z</time>
      </trkpt>
      <trkpt lat="42.96392" lon="1.82003">
        <ele>593</ele>
        <time>2022-08-05T08:38:44.000Z</time>
      </trkpt>
      <trkpt lat="42.96387" lon="1.82007">
        <ele>594</ele>
        <time>2022-08-05T08:38:52.000Z</time>
      </trkpt>
      <trkpt lat="42.96383" lon="1.82012">
        <ele>595</ele>
        <time>2022-08-05T08:38:58.000Z</time>
      </trkpt>
      <trkpt lat="42.96378" lon="1.82008">
        <ele>597</ele>
        <time>2022-08-05T08:39:23.000Z</time>
      </trkpt>
      <trkpt lat="42.96378" lon="1.82002">
        <ele>597</ele>
        <time>2022-08-05T08:39:32.000Z</time>
      </trkpt>
      <trkpt lat="42.96377" lon="1.81995">
        <ele>598</ele>
        <time>2022-08-05T08:39:40.000Z</time>
      </trkpt>
      <trkpt lat="42.96377" lon="1.81988">
        <ele>599</ele>
        <time>2022-08-05T08:39:46.000Z</time>
      </trkpt>
      <trkpt lat="42.96375" lon="1.81982">
        <ele>600</ele>
        <time>2022-08-05T08:39:54.000Z</time>
      </trkpt>
      <trkpt lat="42.96373" lon="1.81975">
        <ele>601</ele>
        <time>2022-08-05T08:40:02.000Z</time>
      </trkpt>
      <trkpt lat="42.96373" lon="1.8197">
        <ele>602</ele>
        <time>2022-08-05T08:40:08.000Z</time>
      </trkpt>
      <trkpt lat="42.96373" lon="1.81963">
        <ele>602</ele>
        <time>2022-08-05T08:40:14.000Z</time>
      </trkpt>
      <trkpt lat="42.96368" lon="1.81958">
        <ele>603</ele>
        <time>2022-08-05T08:40:22.000Z</time>
      </trkpt>
      <trkpt lat="42.9637" lon="1.81948">
        <ele>604</ele>
        <time>2022-08-05T08:40:34.000Z</time>
      </trkpt>
      <trkpt lat="42.9637" lon="1.81942">
        <ele>605</ele>
        <time>2022-08-05T08:40:39.000Z</time>
      </trkpt>
      <trkpt lat="42.9637" lon="1.81933">
        <ele>605</ele>
        <time>2022-08-05T08:40:44.000Z</time>
      </trkpt>
      <trkpt lat="42.9637" lon="1.81928">
        <ele>605</ele>
        <time>2022-08-05T08:40:48.000Z</time>
      </trkpt>
      <trkpt lat="42.96367" lon="1.8192">
        <ele>606</ele>
        <time>2022-08-05T08:40:53.000Z</time>
      </trkpt>
      <trkpt lat="42.96365" lon="1.81915">
        <ele>606</ele>
        <time>2022-08-05T08:40:58.000Z</time>
      </trkpt>
      <trkpt lat="42.96363" lon="1.81907">
        <ele>607</ele>
        <time>2022-08-05T08:41:03.000Z</time>
      </trkpt>
      <trkpt lat="42.96365" lon="1.819">
        <ele>607</ele>
        <time>2022-08-05T08:41:09.000Z</time>
      </trkpt>
      <trkpt lat="42.96363" lon="1.81893">
        <ele>608</ele>
        <time>2022-08-05T08:41:14.000Z</time>
      </trkpt>
      <trkpt lat="42.9636" lon="1.81888">
        <ele>608</ele>
        <time>2022-08-05T08:41:18.000Z</time>
      </trkpt>
      <trkpt lat="42.96357" lon="1.81883">
        <ele>608</ele>
        <time>2022-08-05T08:41:20.000Z</time>
      </trkpt>
      <trkpt lat="42.96355" lon="1.81877">
        <ele>609</ele>
        <time>2022-08-05T08:41:23.000Z</time>
      </trkpt>
      <trkpt lat="42.96355" lon="1.81863">
        <ele>611</ele>
        <time>2022-08-05T08:43:06.000Z</time>
      </trkpt>
      <trkpt lat="42.96352" lon="1.81858">
        <ele>611</ele>
        <time>2022-08-05T08:43:11.000Z</time>
      </trkpt>
      <trkpt lat="42.96348" lon="1.81853">
        <ele>611</ele>
        <time>2022-08-05T08:43:16.000Z</time>
      </trkpt>
      <trkpt lat="42.96348" lon="1.81845">
        <ele>612</ele>
        <time>2022-08-05T08:43:22.000Z</time>
      </trkpt>
      <trkpt lat="42.96347" lon="1.81838">
        <ele>612</ele>
        <time>2022-08-05T08:43:26.000Z</time>
      </trkpt>
      <trkpt lat="42.96343" lon="1.81833">
        <ele>613</ele>
        <time>2022-08-05T08:43:30.000Z</time>
      </trkpt>
      <trkpt lat="42.9634" lon="1.81828">
        <ele>613</ele>
        <time>2022-08-05T08:43:33.000Z</time>
      </trkpt>
      <trkpt lat="42.96337" lon="1.81822">
        <ele>614</ele>
        <time>2022-08-05T08:43:36.000Z</time>
      </trkpt>
      <trkpt lat="42.96333" lon="1.81817">
        <ele>614</ele>
        <time>2022-08-05T08:43:40.000Z</time>
      </trkpt>
      <trkpt lat="42.9633" lon="1.8181">
        <ele>615</ele>
        <time>2022-08-05T08:43:45.000Z</time>
      </trkpt>
      <trkpt lat="42.9633" lon="1.81803">
        <ele>615</ele>
        <time>2022-08-05T08:43:50.000Z</time>
      </trkpt>
      <trkpt lat="42.9633" lon="1.81797">
        <ele>616</ele>
        <time>2022-08-05T08:43:55.000Z</time>
      </trkpt>
      <trkpt lat="42.9633" lon="1.8179">
        <ele>617</ele>
        <time>2022-08-05T08:44:01.000Z</time>
      </trkpt>
      <trkpt lat="42.96327" lon="1.81785">
        <ele>617</ele>
        <time>2022-08-05T08:44:05.000Z</time>
      </trkpt>
      <trkpt lat="42.96318" lon="1.8177">
        <ele>620</ele>
        <time>2022-08-05T08:45:59.000Z</time>
      </trkpt>
      <trkpt lat="42.96313" lon="1.81765">
        <ele>620</ele>
        <time>2022-08-05T08:46:09.000Z</time>
      </trkpt>
      <trkpt lat="42.96315" lon="1.8176">
        <ele>621</ele>
        <time>2022-08-05T08:46:16.000Z</time>
      </trkpt>
      <trkpt lat="42.96315" lon="1.81752">
        <ele>621</ele>
        <time>2022-08-05T08:46:22.000Z</time>
      </trkpt>
      <trkpt lat="42.96313" lon="1.81747">
        <ele>622</ele>
        <time>2022-08-05T08:46:28.000Z</time>
      </trkpt>
      <trkpt lat="42.9631" lon="1.81742">
        <ele>622</ele>
        <time>2022-08-05T08:46:33.000Z</time>
      </trkpt>
      <trkpt lat="42.96308" lon="1.81735">
        <ele>623</ele>
        <time>2022-08-05T08:46:38.000Z</time>
      </trkpt>
      <trkpt lat="42.96308" lon="1.8173">
        <ele>623</ele>
        <time>2022-08-05T08:46:42.000Z</time>
      </trkpt>
      <trkpt lat="42.96307" lon="1.81723">
        <ele>623</ele>
        <time>2022-08-05T08:46:46.000Z</time>
      </trkpt>
      <trkpt lat="42.96303" lon="1.81717">
        <ele>624</ele>
        <time>2022-08-05T08:46:48.000Z</time>
      </trkpt>
      <trkpt lat="42.96302" lon="1.81712">
        <ele>624</ele>
        <time>2022-08-05T08:46:51.000Z</time>
      </trkpt>
      <trkpt lat="42.96305" lon="1.81707">
        <ele>625</ele>
        <time>2022-08-05T08:47:00.000Z</time>
      </trkpt>
      <trkpt lat="42.96298" lon="1.81698">
        <ele>628</ele>
        <time>2022-08-05T08:47:23.000Z</time>
      </trkpt>
      <trkpt lat="42.96292" lon="1.81688">
        <ele>630</ele>
        <time>2022-08-05T08:47:39.000Z</time>
      </trkpt>
      <trkpt lat="42.96287" lon="1.81685">
        <ele>630</ele>
        <time>2022-08-05T08:47:45.000Z</time>
      </trkpt>
      <trkpt lat="42.96282" lon="1.81682">
        <ele>631</ele>
        <time>2022-08-05T08:47:54.000Z</time>
      </trkpt>
      <trkpt lat="42.96278" lon="1.8168">
        <ele>632</ele>
        <time>2022-08-05T08:48:03.000Z</time>
      </trkpt>
      <trkpt lat="42.96273" lon="1.81678">
        <ele>634</ele>
        <time>2022-08-05T08:48:12.000Z</time>
      </trkpt>
      <trkpt lat="42.96268" lon="1.81678">
        <ele>634</ele>
        <time>2022-08-05T08:48:17.000Z</time>
      </trkpt>
      <trkpt lat="42.96263" lon="1.81675">
        <ele>635</ele>
        <time>2022-08-05T08:48:27.000Z</time>
      </trkpt>
      <trkpt lat="42.96258" lon="1.81673">
        <ele>636</ele>
        <time>2022-08-05T08:48:33.000Z</time>
      </trkpt>
      <trkpt lat="42.96253" lon="1.81672">
        <ele>637</ele>
        <time>2022-08-05T08:48:42.000Z</time>
      </trkpt>
      <trkpt lat="42.9625" lon="1.81667">
        <ele>638</ele>
        <time>2022-08-05T08:48:48.000Z</time>
      </trkpt>
      <trkpt lat="42.96245" lon="1.81665">
        <ele>639</ele>
        <time>2022-08-05T08:48:53.000Z</time>
      </trkpt>
      <trkpt lat="42.96242" lon="1.81663">
        <ele>639</ele>
        <time>2022-08-05T08:48:58.000Z</time>
      </trkpt>
      <trkpt lat="42.96237" lon="1.81663">
        <ele>640</ele>
        <time>2022-08-05T08:49:05.000Z</time>
      </trkpt>
      <trkpt lat="42.96232" lon="1.81663">
        <ele>641</ele>
        <time>2022-08-05T08:49:13.000Z</time>
      </trkpt>
      <trkpt lat="42.96228" lon="1.81663">
        <ele>642</ele>
        <time>2022-08-05T08:49:21.000Z</time>
      </trkpt>
      <trkpt lat="42.96223" lon="1.81662">
        <ele>643</ele>
        <time>2022-08-05T08:49:29.000Z</time>
      </trkpt>
      <trkpt lat="42.96218" lon="1.81662">
        <ele>643</ele>
        <time>2022-08-05T08:49:35.000Z</time>
      </trkpt>
      <trkpt lat="42.96213" lon="1.8166">
        <ele>644</ele>
        <time>2022-08-05T08:49:41.000Z</time>
      </trkpt>
      <trkpt lat="42.96208" lon="1.8166">
        <ele>645</ele>
        <time>2022-08-05T08:49:49.000Z</time>
      </trkpt>
      <trkpt lat="42.96205" lon="1.8166">
        <ele>646</ele>
        <time>2022-08-05T08:49:54.000Z</time>
      </trkpt>
      <trkpt lat="42.962" lon="1.81662">
        <ele>646</ele>
        <time>2022-08-05T08:49:59.000Z</time>
      </trkpt>
      <trkpt lat="42.96195" lon="1.81662">
        <ele>647</ele>
        <time>2022-08-05T08:50:05.000Z</time>
      </trkpt>
      <trkpt lat="42.9619" lon="1.81663">
        <ele>648</ele>
        <time>2022-08-05T08:50:12.000Z</time>
      </trkpt>
      <trkpt lat="42.96183" lon="1.81663">
        <ele>649</ele>
        <time>2022-08-05T08:50:28.000Z</time>
      </trkpt>
      <trkpt lat="42.96178" lon="1.81663">
        <ele>649</ele>
        <time>2022-08-05T08:50:31.000Z</time>
      </trkpt>
      <trkpt lat="42.96172" lon="1.81663">
        <ele>650</ele>
        <time>2022-08-05T08:50:34.000Z</time>
      </trkpt>
      <trkpt lat="42.96168" lon="1.81662">
        <ele>650</ele>
        <time>2022-08-05T08:50:37.000Z</time>
      </trkpt>
      <trkpt lat="42.96163" lon="1.8166">
        <ele>650</ele>
        <time>2022-08-05T08:50:40.000Z</time>
      </trkpt>
      <trkpt lat="42.96158" lon="1.8166">
        <ele>650</ele>
        <time>2022-08-05T08:50:43.000Z</time>
      </trkpt>
      <trkpt lat="42.96152" lon="1.81662">
        <ele>650</ele>
        <time>2022-08-05T08:50:46.000Z</time>
      </trkpt>
      <trkpt lat="42.96147" lon="1.81662">
        <ele>651</ele>
        <time>2022-08-05T08:50:49.000Z</time>
      </trkpt>
      <trkpt lat="42.9614" lon="1.81662">
        <ele>651</ele>
        <time>2022-08-05T08:50:52.000Z</time>
      </trkpt>
      <trkpt lat="42.96135" lon="1.81662">
        <ele>651</ele>
        <time>2022-08-05T08:50:55.000Z</time>
      </trkpt>
      <trkpt lat="42.9613" lon="1.81662">
        <ele>651</ele>
        <time>2022-08-05T08:50:58.000Z</time>
      </trkpt>
      <trkpt lat="42.96123" lon="1.8166">
        <ele>651</ele>
        <time>2022-08-05T08:51:01.000Z</time>
      </trkpt>
      <trkpt lat="42.96118" lon="1.8166">
        <ele>652</ele>
        <time>2022-08-05T08:51:04.000Z</time>
      </trkpt>
      <trkpt lat="42.96113" lon="1.81662">
        <ele>652</ele>
        <time>2022-08-05T08:51:07.000Z</time>
      </trkpt>
      <trkpt lat="42.96107" lon="1.81662">
        <ele>652</ele>
        <time>2022-08-05T08:51:10.000Z</time>
      </trkpt>
      <trkpt lat="42.96102" lon="1.8166">
        <ele>652</ele>
        <time>2022-08-05T08:51:13.000Z</time>
      </trkpt>
      <trkpt lat="42.96097" lon="1.81658">
        <ele>652</ele>
        <time>2022-08-05T08:51:16.000Z</time>
      </trkpt>
      <trkpt lat="42.96092" lon="1.81655">
        <ele>653</ele>
        <time>2022-08-05T08:51:21.000Z</time>
      </trkpt>
      <trkpt lat="42.96087" lon="1.81652">
        <ele>653</ele>
        <time>2022-08-05T08:51:24.000Z</time>
      </trkpt>
      <trkpt lat="42.9608" lon="1.8165">
        <ele>653</ele>
        <time>2022-08-05T08:51:27.000Z</time>
      </trkpt>
      <trkpt lat="42.96075" lon="1.81647">
        <ele>654</ele>
        <time>2022-08-05T08:51:30.000Z</time>
      </trkpt>
      <trkpt lat="42.96072" lon="1.81643">
        <ele>654</ele>
        <time>2022-08-05T08:51:33.000Z</time>
      </trkpt>
      <trkpt lat="42.96067" lon="1.8164">
        <ele>654</ele>
        <time>2022-08-05T08:51:36.000Z</time>
      </trkpt>
      <trkpt lat="42.9606" lon="1.81635">
        <ele>655</ele>
        <time>2022-08-05T08:51:40.000Z</time>
      </trkpt>
      <trkpt lat="42.96057" lon="1.81633">
        <ele>655</ele>
        <time>2022-08-05T08:51:43.000Z</time>
      </trkpt>
      <trkpt lat="42.96052" lon="1.81632">
        <ele>655</ele>
        <time>2022-08-05T08:51:46.000Z</time>
      </trkpt>
      <trkpt lat="42.96047" lon="1.81632">
        <ele>656</ele>
        <time>2022-08-05T08:51:49.000Z</time>
      </trkpt>
      <trkpt lat="42.96042" lon="1.81633">
        <ele>656</ele>
        <time>2022-08-05T08:51:54.000Z</time>
      </trkpt>
      <trkpt lat="42.96033" lon="1.81637">
        <ele>659</ele>
        <time>2022-08-05T08:54:06.000Z</time>
      </trkpt>
      <trkpt lat="42.96028" lon="1.81637">
        <ele>659</ele>
        <time>2022-08-05T08:54:10.000Z</time>
      </trkpt>
      <trkpt lat="42.96023" lon="1.81637">
        <ele>660</ele>
        <time>2022-08-05T08:54:15.000Z</time>
      </trkpt>
      <trkpt lat="42.96018" lon="1.81637">
        <ele>660</ele>
        <time>2022-08-05T08:54:19.000Z</time>
      </trkpt>
      <trkpt lat="42.96013" lon="1.81637">
        <ele>660</ele>
        <time>2022-08-05T08:54:21.000Z</time>
      </trkpt>
      <trkpt lat="42.9601" lon="1.81637">
        <ele>660</ele>
        <time>2022-08-05T08:54:24.000Z</time>
      </trkpt>
      <trkpt lat="42.96005" lon="1.81638">
        <ele>661</ele>
        <time>2022-08-05T08:54:28.000Z</time>
      </trkpt>
      <trkpt lat="42.96" lon="1.8164">
        <ele>662</ele>
        <time>2022-08-05T08:54:35.000Z</time>
      </trkpt>
      <trkpt lat="42.95995" lon="1.81642">
        <ele>662</ele>
        <time>2022-08-05T08:54:40.000Z</time>
      </trkpt>
      <trkpt lat="42.9599" lon="1.81642">
        <ele>663</ele>
        <time>2022-08-05T08:54:46.000Z</time>
      </trkpt>
      <trkpt lat="42.95985" lon="1.81642">
        <ele>664</ele>
        <time>2022-08-05T08:54:51.000Z</time>
      </trkpt>
      <trkpt lat="42.9598" lon="1.81643">
        <ele>664</ele>
        <time>2022-08-05T08:54:56.000Z</time>
      </trkpt>
      <trkpt lat="42.95975" lon="1.81643">
        <ele>665</ele>
        <time>2022-08-05T08:55:00.000Z</time>
      </trkpt>
      <trkpt lat="42.9597" lon="1.81645">
        <ele>665</ele>
        <time>2022-08-05T08:55:05.000Z</time>
      </trkpt>
      <trkpt lat="42.95965" lon="1.81647">
        <ele>666</ele>
        <time>2022-08-05T08:55:11.000Z</time>
      </trkpt>
      <trkpt lat="42.95962" lon="1.81647">
        <ele>666</ele>
        <time>2022-08-05T08:55:17.000Z</time>
      </trkpt>
      <trkpt lat="42.95957" lon="1.81645">
        <ele>667</ele>
        <time>2022-08-05T08:55:23.000Z</time>
      </trkpt>
      <trkpt lat="42.95952" lon="1.81648">
        <ele>667</ele>
        <time>2022-08-05T08:55:30.000Z</time>
      </trkpt>
      <trkpt lat="42.95948" lon="1.81652">
        <ele>668</ele>
        <time>2022-08-05T08:55:37.000Z</time>
      </trkpt>
      <trkpt lat="42.95943" lon="1.81653">
        <ele>668</ele>
        <time>2022-08-05T08:55:42.000Z</time>
      </trkpt>
      <trkpt lat="42.9594" lon="1.81658">
        <ele>669</ele>
        <time>2022-08-05T08:55:49.000Z</time>
      </trkpt>
      <trkpt lat="42.95935" lon="1.81662">
        <ele>670</ele>
        <time>2022-08-05T08:55:59.000Z</time>
      </trkpt>
      <trkpt lat="42.95932" lon="1.81665">
        <ele>670</ele>
        <time>2022-08-05T08:56:04.000Z</time>
      </trkpt>
      <trkpt lat="42.95928" lon="1.81668">
        <ele>671</ele>
        <time>2022-08-05T08:56:09.000Z</time>
      </trkpt>
      <trkpt lat="42.95923" lon="1.8167">
        <ele>671</ele>
        <time>2022-08-05T08:56:13.000Z</time>
      </trkpt>
      <trkpt lat="42.95918" lon="1.81673">
        <ele>672</ele>
        <time>2022-08-05T08:56:17.000Z</time>
      </trkpt>
      <trkpt lat="42.95913" lon="1.81677">
        <ele>672</ele>
        <time>2022-08-05T08:56:22.000Z</time>
      </trkpt>
      <trkpt lat="42.9591" lon="1.81677">
        <ele>673</ele>
        <time>2022-08-05T08:56:27.000Z</time>
      </trkpt>
      <trkpt lat="42.95905" lon="1.81678">
        <ele>673</ele>
        <time>2022-08-05T08:56:32.000Z</time>
      </trkpt>
      <trkpt lat="42.959" lon="1.81678">
        <ele>674</ele>
        <time>2022-08-05T08:56:37.000Z</time>
      </trkpt>
      <trkpt lat="42.95895" lon="1.81678">
        <ele>674</ele>
        <time>2022-08-05T08:56:41.000Z</time>
      </trkpt>
      <trkpt lat="42.9589" lon="1.81682">
        <ele>674</ele>
        <time>2022-08-05T08:56:47.000Z</time>
      </trkpt>
      <trkpt lat="42.95888" lon="1.81687">
        <ele>675</ele>
        <time>2022-08-05T08:57:00.000Z</time>
      </trkpt>
      <trkpt lat="42.95887" lon="1.81693">
        <ele>676</ele>
        <time>2022-08-05T08:57:07.000Z</time>
      </trkpt>
      <trkpt lat="42.95885" lon="1.817">
        <ele>676</ele>
        <time>2022-08-05T08:57:13.000Z</time>
      </trkpt>
      <trkpt lat="42.95885" lon="1.81705">
        <ele>677</ele>
        <time>2022-08-05T08:57:20.000Z</time>
      </trkpt>
      <trkpt lat="42.95883" lon="1.81712">
        <ele>678</ele>
        <time>2022-08-05T08:57:27.000Z</time>
      </trkpt>
      <trkpt lat="42.95882" lon="1.81718">
        <ele>679</ele>
        <time>2022-08-05T08:57:33.000Z</time>
      </trkpt>
      <trkpt lat="42.95882" lon="1.81725">
        <ele>680</ele>
        <time>2022-08-05T08:57:40.000Z</time>
      </trkpt>
      <trkpt lat="42.95878" lon="1.8173">
        <ele>680</ele>
        <time>2022-08-05T08:57:47.000Z</time>
      </trkpt>
      <trkpt lat="42.95873" lon="1.81733">
        <ele>681</ele>
        <time>2022-08-05T08:57:53.000Z</time>
      </trkpt>
      <trkpt lat="42.95868" lon="1.81733">
        <ele>681</ele>
        <time>2022-08-05T08:57:56.000Z</time>
      </trkpt>
      <trkpt lat="42.95863" lon="1.81732">
        <ele>681</ele>
        <time>2022-08-05T08:58:00.000Z</time>
      </trkpt>
      <trkpt lat="42.9586" lon="1.81728">
        <ele>681</ele>
        <time>2022-08-05T08:58:03.000Z</time>
      </trkpt>
      <trkpt lat="42.95857" lon="1.81725">
        <ele>682</ele>
        <time>2022-08-05T08:58:07.000Z</time>
      </trkpt>
      <trkpt lat="42.95853" lon="1.8172">
        <ele>682</ele>
        <time>2022-08-05T08:58:11.000Z</time>
      </trkpt>
      <trkpt lat="42.9585" lon="1.81713">
        <ele>682</ele>
        <time>2022-08-05T08:58:15.000Z</time>
      </trkpt>
      <trkpt lat="42.95847" lon="1.81708">
        <ele>683</ele>
        <time>2022-08-05T08:58:18.000Z</time>
      </trkpt>
      <trkpt lat="42.95843" lon="1.81702">
        <ele>683</ele>
        <time>2022-08-05T08:58:21.000Z</time>
      </trkpt>
      <trkpt lat="42.95842" lon="1.81697">
        <ele>683</ele>
        <time>2022-08-05T08:58:24.000Z</time>
      </trkpt>
      <trkpt lat="42.95838" lon="1.81692">
        <ele>683</ele>
        <time>2022-08-05T08:58:27.000Z</time>
      </trkpt>
      <trkpt lat="42.95835" lon="1.81683">
        <ele>684</ele>
        <time>2022-08-05T08:58:30.000Z</time>
      </trkpt>
      <trkpt lat="42.95833" lon="1.81677">
        <ele>684</ele>
        <time>2022-08-05T08:58:33.000Z</time>
      </trkpt>
      <trkpt lat="42.9583" lon="1.81672">
        <ele>684</ele>
        <time>2022-08-05T08:58:38.000Z</time>
      </trkpt>
      <trkpt lat="42.95827" lon="1.81665">
        <ele>685</ele>
        <time>2022-08-05T08:58:45.000Z</time>
      </trkpt>
      <trkpt lat="42.95825" lon="1.8166">
        <ele>685</ele>
        <time>2022-08-05T08:58:52.000Z</time>
      </trkpt>
      <trkpt lat="42.9582" lon="1.81657">
        <ele>686</ele>
        <time>2022-08-05T08:58:58.000Z</time>
      </trkpt>
      <trkpt lat="42.95813" lon="1.81653">
        <ele>686</ele>
        <time>2022-08-05T08:59:02.000Z</time>
      </trkpt>
      <trkpt lat="42.95808" lon="1.8165">
        <ele>687</ele>
        <time>2022-08-05T08:59:05.000Z</time>
      </trkpt>
      <trkpt lat="42.95803" lon="1.81645">
        <ele>687</ele>
        <time>2022-08-05T08:59:08.000Z</time>
      </trkpt>
      <trkpt lat="42.95798" lon="1.81643">
        <ele>688</ele>
        <time>2022-08-05T08:59:13.000Z</time>
      </trkpt>
      <trkpt lat="42.95792" lon="1.81642">
        <ele>688</ele>
        <time>2022-08-05T08:59:18.000Z</time>
      </trkpt>
      <trkpt lat="42.95788" lon="1.81638">
        <ele>689</ele>
        <time>2022-08-05T08:59:22.000Z</time>
      </trkpt>
      <trkpt lat="42.95783" lon="1.81635">
        <ele>690</ele>
        <time>2022-08-05T08:59:28.000Z</time>
      </trkpt>
      <trkpt lat="42.9578" lon="1.81633">
        <ele>690</ele>
        <time>2022-08-05T08:59:32.000Z</time>
      </trkpt>
      <trkpt lat="42.95775" lon="1.8163">
        <ele>690</ele>
        <time>2022-08-05T08:59:36.000Z</time>
      </trkpt>
      <trkpt lat="42.9577" lon="1.81625">
        <ele>691</ele>
        <time>2022-08-05T08:59:39.000Z</time>
      </trkpt>
      <trkpt lat="42.95767" lon="1.81622">
        <ele>691</ele>
        <time>2022-08-05T08:59:42.000Z</time>
      </trkpt>
      <trkpt lat="42.95763" lon="1.81618">
        <ele>691</ele>
        <time>2022-08-05T08:59:45.000Z</time>
      </trkpt>
      <trkpt lat="42.95757" lon="1.81617">
        <ele>692</ele>
        <time>2022-08-05T08:59:49.000Z</time>
      </trkpt>
      <trkpt lat="42.95753" lon="1.81612">
        <ele>692</ele>
        <time>2022-08-05T08:59:53.000Z</time>
      </trkpt>
      <trkpt lat="42.95748" lon="1.81608">
        <ele>692</ele>
        <time>2022-08-05T08:59:57.000Z</time>
      </trkpt>
      <trkpt lat="42.95743" lon="1.81605">
        <ele>693</ele>
        <time>2022-08-05T09:00:01.000Z</time>
      </trkpt>
      <trkpt lat="42.9574" lon="1.81598">
        <ele>693</ele>
        <time>2022-08-05T09:00:05.000Z</time>
      </trkpt>
      <trkpt lat="42.95735" lon="1.81595">
        <ele>693</ele>
        <time>2022-08-05T09:00:08.000Z</time>
      </trkpt>
      <trkpt lat="42.95732" lon="1.81592">
        <ele>693</ele>
        <time>2022-08-05T09:00:11.000Z</time>
      </trkpt>
      <trkpt lat="42.95727" lon="1.81588">
        <ele>694</ele>
        <time>2022-08-05T09:00:14.000Z</time>
      </trkpt>
      <trkpt lat="42.95723" lon="1.81583">
        <ele>694</ele>
        <time>2022-08-05T09:00:18.000Z</time>
      </trkpt>
      <trkpt lat="42.9572" lon="1.81578">
        <ele>694</ele>
        <time>2022-08-05T09:00:22.000Z</time>
      </trkpt>
      <trkpt lat="42.95715" lon="1.81575">
        <ele>695</ele>
        <time>2022-08-05T09:00:26.000Z</time>
      </trkpt>
      <trkpt lat="42.95712" lon="1.8157">
        <ele>695</ele>
        <time>2022-08-05T09:00:31.000Z</time>
      </trkpt>
      <trkpt lat="42.95707" lon="1.81567">
        <ele>695</ele>
        <time>2022-08-05T09:00:35.000Z</time>
      </trkpt>
      <trkpt lat="42.957" lon="1.81565">
        <ele>696</ele>
        <time>2022-08-05T09:00:39.000Z</time>
      </trkpt>
      <trkpt lat="42.95697" lon="1.81565">
        <ele>696</ele>
        <time>2022-08-05T09:00:42.000Z</time>
      </trkpt>
      <trkpt lat="42.9569" lon="1.81565">
        <ele>696</ele>
        <time>2022-08-05T09:00:46.000Z</time>
      </trkpt>
      <trkpt lat="42.95685" lon="1.81563">
        <ele>697</ele>
        <time>2022-08-05T09:00:49.000Z</time>
      </trkpt>
      <trkpt lat="42.9568" lon="1.81565">
        <ele>697</ele>
        <time>2022-08-05T09:00:53.000Z</time>
      </trkpt>
      <trkpt lat="42.95675" lon="1.81562">
        <ele>698</ele>
        <time>2022-08-05T09:00:57.000Z</time>
      </trkpt>
      <trkpt lat="42.95673" lon="1.81553">
        <ele>698</ele>
        <time>2022-08-05T09:01:01.000Z</time>
      </trkpt>
      <trkpt lat="42.95672" lon="1.81547">
        <ele>698</ele>
        <time>2022-08-05T09:01:03.000Z</time>
      </trkpt>
      <trkpt lat="42.9567" lon="1.8154">
        <ele>699</ele>
        <time>2022-08-05T09:01:06.000Z</time>
      </trkpt>
      <trkpt lat="42.95667" lon="1.81533">
        <ele>699</ele>
        <time>2022-08-05T09:01:09.000Z</time>
      </trkpt>
      <trkpt lat="42.95665" lon="1.81525">
        <ele>699</ele>
        <time>2022-08-05T09:01:11.000Z</time>
      </trkpt>
      <trkpt lat="42.95663" lon="1.81517">
        <ele>699</ele>
        <time>2022-08-05T09:01:14.000Z</time>
      </trkpt>
      <trkpt lat="42.95662" lon="1.8151">
        <ele>699</ele>
        <time>2022-08-05T09:01:16.000Z</time>
      </trkpt>
      <trkpt lat="42.9566" lon="1.81503">
        <ele>699</ele>
        <time>2022-08-05T09:01:18.000Z</time>
      </trkpt>
      <trkpt lat="42.95658" lon="1.81497">
        <ele>699</ele>
        <time>2022-08-05T09:01:20.000Z</time>
      </trkpt>
      <trkpt lat="42.95658" lon="1.8149">
        <ele>699</ele>
        <time>2022-08-05T09:01:22.000Z</time>
      </trkpt>
      <trkpt lat="42.95658" lon="1.81482">
        <ele>699</ele>
        <time>2022-08-05T09:01:25.000Z</time>
      </trkpt>
      <trkpt lat="42.95658" lon="1.81475">
        <ele>699</ele>
        <time>2022-08-05T09:01:27.000Z</time>
      </trkpt>
      <trkpt lat="42.95658" lon="1.81467">
        <ele>699</ele>
        <time>2022-08-05T09:01:30.000Z</time>
      </trkpt>
      <trkpt lat="42.95658" lon="1.81458">
        <ele>700</ele>
        <time>2022-08-05T09:01:33.000Z</time>
      </trkpt>
      <trkpt lat="42.95658" lon="1.81452">
        <ele>700</ele>
        <time>2022-08-05T09:01:35.000Z</time>
      </trkpt>
      <trkpt lat="42.95658" lon="1.81445">
        <ele>700</ele>
        <time>2022-08-05T09:01:37.000Z</time>
      </trkpt>
      <trkpt lat="42.9566" lon="1.81438">
        <ele>700</ele>
        <time>2022-08-05T09:01:39.000Z</time>
      </trkpt>
      <trkpt lat="42.9566" lon="1.81428">
        <ele>700</ele>
        <time>2022-08-05T09:01:41.000Z</time>
      </trkpt>
      <trkpt lat="42.9566" lon="1.81422">
        <ele>700</ele>
        <time>2022-08-05T09:01:43.000Z</time>
      </trkpt>
      <trkpt lat="42.9566" lon="1.81413">
        <ele>700</ele>
        <time>2022-08-05T09:01:46.000Z</time>
      </trkpt>
      <trkpt lat="42.95662" lon="1.81408">
        <ele>700</ele>
        <time>2022-08-05T09:01:48.000Z</time>
      </trkpt>
      <trkpt lat="42.95663" lon="1.814">
        <ele>701</ele>
        <time>2022-08-05T09:01:51.000Z</time>
      </trkpt>
      <trkpt lat="42.95663" lon="1.81395">
        <ele>701</ele>
        <time>2022-08-05T09:01:54.000Z</time>
      </trkpt>
      <trkpt lat="42.9566" lon="1.81388">
        <ele>701</ele>
        <time>2022-08-05T09:01:57.000Z</time>
      </trkpt>
      <trkpt lat="42.9566" lon="1.81382">
        <ele>701</ele>
        <time>2022-08-05T09:02:00.000Z</time>
      </trkpt>
      <trkpt lat="42.95658" lon="1.81375">
        <ele>702</ele>
        <time>2022-08-05T09:02:03.000Z</time>
      </trkpt>
      <trkpt lat="42.95658" lon="1.81368">
        <ele>702</ele>
        <time>2022-08-05T09:02:07.000Z</time>
      </trkpt>
      <trkpt lat="42.95655" lon="1.81363">
        <ele>702</ele>
        <time>2022-08-05T09:02:10.000Z</time>
      </trkpt>
      <trkpt lat="42.95652" lon="1.81357">
        <ele>703</ele>
        <time>2022-08-05T09:02:13.000Z</time>
      </trkpt>
      <trkpt lat="42.95648" lon="1.81353">
        <ele>703</ele>
        <time>2022-08-05T09:02:25.000Z</time>
      </trkpt>
      <trkpt lat="42.95648" lon="1.81347">
        <ele>704</ele>
        <time>2022-08-05T09:02:28.000Z</time>
      </trkpt>
      <trkpt lat="42.9565" lon="1.81337">
        <ele>704</ele>
        <time>2022-08-05T09:02:31.000Z</time>
      </trkpt>
      <trkpt lat="42.9565" lon="1.8133">
        <ele>704</ele>
        <time>2022-08-05T09:02:34.000Z</time>
      </trkpt>
      <trkpt lat="42.95653" lon="1.81322">
        <ele>704</ele>
        <time>2022-08-05T09:02:37.000Z</time>
      </trkpt>
      <trkpt lat="42.95655" lon="1.81317">
        <ele>704</ele>
        <time>2022-08-05T09:02:39.000Z</time>
      </trkpt>
      <trkpt lat="42.95658" lon="1.81312">
        <ele>704</ele>
        <time>2022-08-05T09:02:41.000Z</time>
      </trkpt>
      <trkpt lat="42.95658" lon="1.81305">
        <ele>704</ele>
        <time>2022-08-05T09:02:43.000Z</time>
      </trkpt>
      <trkpt lat="42.95662" lon="1.81298">
        <ele>704</ele>
        <time>2022-08-05T09:02:46.000Z</time>
      </trkpt>
      <trkpt lat="42.95663" lon="1.81288">
        <ele>705</ele>
        <time>2022-08-05T09:02:49.000Z</time>
      </trkpt>
      <trkpt lat="42.95667" lon="1.81278">
        <ele>704</ele>
        <time>2022-08-05T09:02:51.000Z</time>
      </trkpt>
      <trkpt lat="42.95668" lon="1.81268">
        <ele>704</ele>
        <time>2022-08-05T09:02:53.000Z</time>
      </trkpt>
      <trkpt lat="42.9567" lon="1.81258">
        <ele>704</ele>
        <time>2022-08-05T09:02:55.000Z</time>
      </trkpt>
      <trkpt lat="42.9567" lon="1.8125">
        <ele>704</ele>
        <time>2022-08-05T09:02:57.000Z</time>
      </trkpt>
      <trkpt lat="42.95672" lon="1.81243">
        <ele>704</ele>
        <time>2022-08-05T09:02:59.000Z</time>
      </trkpt>
      <trkpt lat="42.95673" lon="1.81238">
        <ele>704</ele>
        <time>2022-08-05T09:03:01.000Z</time>
      </trkpt>
      <trkpt lat="42.95675" lon="1.81232">
        <ele>704</ele>
        <time>2022-08-05T09:03:03.000Z</time>
      </trkpt>
      <trkpt lat="42.95675" lon="1.81223">
        <ele>704</ele>
        <time>2022-08-05T09:03:06.000Z</time>
      </trkpt>
      <trkpt lat="42.95675" lon="1.81217">
        <ele>704</ele>
        <time>2022-08-05T09:03:09.000Z</time>
      </trkpt>
      <trkpt lat="42.95675" lon="1.8121">
        <ele>704</ele>
        <time>2022-08-05T09:03:12.000Z</time>
      </trkpt>
      <trkpt lat="42.95673" lon="1.81202">
        <ele>704</ele>
        <time>2022-08-05T09:03:14.000Z</time>
      </trkpt>
      <trkpt lat="42.95677" lon="1.81193">
        <ele>704</ele>
        <time>2022-08-05T09:03:17.000Z</time>
      </trkpt>
      <trkpt lat="42.95675" lon="1.81187">
        <ele>704</ele>
        <time>2022-08-05T09:03:20.000Z</time>
      </trkpt>
      <trkpt lat="42.95673" lon="1.81178">
        <ele>704</ele>
        <time>2022-08-05T09:03:24.000Z</time>
      </trkpt>
      <trkpt lat="42.95673" lon="1.81172">
        <ele>704</ele>
        <time>2022-08-05T09:03:27.000Z</time>
      </trkpt>
      <trkpt lat="42.95673" lon="1.81163">
        <ele>704</ele>
        <time>2022-08-05T09:03:31.000Z</time>
      </trkpt>
      <trkpt lat="42.95672" lon="1.81157">
        <ele>704</ele>
        <time>2022-08-05T09:03:34.000Z</time>
      </trkpt>
      <trkpt lat="42.95672" lon="1.8115">
        <ele>704</ele>
        <time>2022-08-05T09:03:36.000Z</time>
      </trkpt>
      <trkpt lat="42.9567" lon="1.81143">
        <ele>705</ele>
        <time>2022-08-05T09:03:38.000Z</time>
      </trkpt>
      <trkpt lat="42.95668" lon="1.81137">
        <ele>705</ele>
        <time>2022-08-05T09:03:41.000Z</time>
      </trkpt>
      <trkpt lat="42.95668" lon="1.81127">
        <ele>705</ele>
        <time>2022-08-05T09:03:44.000Z</time>
      </trkpt>
      <trkpt lat="42.95663" lon="1.81118">
        <ele>705</ele>
        <time>2022-08-05T09:03:47.000Z</time>
      </trkpt>
      <trkpt lat="42.9566" lon="1.81112">
        <ele>706</ele>
        <time>2022-08-05T09:03:49.000Z</time>
      </trkpt>
      <trkpt lat="42.9566" lon="1.81103">
        <ele>706</ele>
        <time>2022-08-05T09:03:51.000Z</time>
      </trkpt>
      <trkpt lat="42.9566" lon="1.81097">
        <ele>706</ele>
        <time>2022-08-05T09:03:54.000Z</time>
      </trkpt>
      <trkpt lat="42.95658" lon="1.81088">
        <ele>706</ele>
        <time>2022-08-05T09:03:57.000Z</time>
      </trkpt>
      <trkpt lat="42.95658" lon="1.81082">
        <ele>707</ele>
        <time>2022-08-05T09:03:59.000Z</time>
      </trkpt>
      <trkpt lat="42.95657" lon="1.81077">
        <ele>707</ele>
        <time>2022-08-05T09:04:01.000Z</time>
      </trkpt>
      <trkpt lat="42.95653" lon="1.81068">
        <ele>707</ele>
        <time>2022-08-05T09:04:04.000Z</time>
      </trkpt>
      <trkpt lat="42.9565" lon="1.81062">
        <ele>707</ele>
        <time>2022-08-05T09:04:07.000Z</time>
      </trkpt>
      <trkpt lat="42.95648" lon="1.81055">
        <ele>707</ele>
        <time>2022-08-05T09:04:09.000Z</time>
      </trkpt>
      <trkpt lat="42.95647" lon="1.81048">
        <ele>707</ele>
        <time>2022-08-05T09:04:11.000Z</time>
      </trkpt>
      <trkpt lat="42.95645" lon="1.81042">
        <ele>707</ele>
        <time>2022-08-05T09:04:13.000Z</time>
      </trkpt>
      <trkpt lat="42.95643" lon="1.81033">
        <ele>707</ele>
        <time>2022-08-05T09:04:15.000Z</time>
      </trkpt>
      <trkpt lat="42.95645" lon="1.81025">
        <ele>707</ele>
        <time>2022-08-05T09:04:17.000Z</time>
      </trkpt>
      <trkpt lat="42.95645" lon="1.81017">
        <ele>708</ele>
        <time>2022-08-05T09:04:20.000Z</time>
      </trkpt>
      <trkpt lat="42.95645" lon="1.81012">
        <ele>708</ele>
        <time>2022-08-05T09:04:23.000Z</time>
      </trkpt>
      <trkpt lat="42.95647" lon="1.81002">
        <ele>708</ele>
        <time>2022-08-05T09:04:26.000Z</time>
      </trkpt>
      <trkpt lat="42.95648" lon="1.80993">
        <ele>709</ele>
        <time>2022-08-05T09:04:29.000Z</time>
      </trkpt>
      <trkpt lat="42.95648" lon="1.80985">
        <ele>709</ele>
        <time>2022-08-05T09:04:33.000Z</time>
      </trkpt>
      <trkpt lat="42.95647" lon="1.80977">
        <ele>709</ele>
        <time>2022-08-05T09:04:36.000Z</time>
      </trkpt>
      <trkpt lat="42.95647" lon="1.8097">
        <ele>710</ele>
        <time>2022-08-05T09:04:39.000Z</time>
      </trkpt>
      <trkpt lat="42.95647" lon="1.80963">
        <ele>710</ele>
        <time>2022-08-05T09:04:43.000Z</time>
      </trkpt>
      <trkpt lat="42.95647" lon="1.80957">
        <ele>710</ele>
        <time>2022-08-05T09:04:46.000Z</time>
      </trkpt>
      <trkpt lat="42.95647" lon="1.8095">
        <ele>711</ele>
        <time>2022-08-05T09:04:49.000Z</time>
      </trkpt>
      <trkpt lat="42.95647" lon="1.80943">
        <ele>711</ele>
        <time>2022-08-05T09:04:53.000Z</time>
      </trkpt>
      <trkpt lat="42.95645" lon="1.80937">
        <ele>712</ele>
        <time>2022-08-05T09:04:57.000Z</time>
      </trkpt>
      <trkpt lat="42.95645" lon="1.8093">
        <ele>712</ele>
        <time>2022-08-05T09:05:00.000Z</time>
      </trkpt>
      <trkpt lat="42.95645" lon="1.80923">
        <ele>712</ele>
        <time>2022-08-05T09:05:04.000Z</time>
      </trkpt>
      <trkpt lat="42.95645" lon="1.80917">
        <ele>713</ele>
        <time>2022-08-05T09:05:08.000Z</time>
      </trkpt>
      <trkpt lat="42.95645" lon="1.8091">
        <ele>713</ele>
        <time>2022-08-05T09:05:12.000Z</time>
      </trkpt>
      <trkpt lat="42.95647" lon="1.80903">
        <ele>714</ele>
        <time>2022-08-05T09:05:16.000Z</time>
      </trkpt>
      <trkpt lat="42.95647" lon="1.80897">
        <ele>714</ele>
        <time>2022-08-05T09:05:19.000Z</time>
      </trkpt>
      <trkpt lat="42.95647" lon="1.80888">
        <ele>714</ele>
        <time>2022-08-05T09:05:22.000Z</time>
      </trkpt>
      <trkpt lat="42.95648" lon="1.80882">
        <ele>715</ele>
        <time>2022-08-05T09:05:26.000Z</time>
      </trkpt>
      <trkpt lat="42.9565" lon="1.80875">
        <ele>715</ele>
        <time>2022-08-05T09:05:30.000Z</time>
      </trkpt>
      <trkpt lat="42.95653" lon="1.80868">
        <ele>715</ele>
        <time>2022-08-05T09:05:34.000Z</time>
      </trkpt>
      <trkpt lat="42.95657" lon="1.80863">
        <ele>716</ele>
        <time>2022-08-05T09:05:38.000Z</time>
      </trkpt>
      <trkpt lat="42.9566" lon="1.80855">
        <ele>716</ele>
        <time>2022-08-05T09:05:42.000Z</time>
      </trkpt>
      <trkpt lat="42.95663" lon="1.8085">
        <ele>716</ele>
        <time>2022-08-05T09:05:45.000Z</time>
      </trkpt>
      <trkpt lat="42.95668" lon="1.80843">
        <ele>716</ele>
        <time>2022-08-05T09:05:48.000Z</time>
      </trkpt>
      <trkpt lat="42.95673" lon="1.8084">
        <ele>716</ele>
        <time>2022-08-05T09:05:50.000Z</time>
      </trkpt>
      <trkpt lat="42.95677" lon="1.80833">
        <ele>716</ele>
        <time>2022-08-05T09:05:52.000Z</time>
      </trkpt>
      <trkpt lat="42.95682" lon="1.80827">
        <ele>716</ele>
        <time>2022-08-05T09:05:54.000Z</time>
      </trkpt>
      <trkpt lat="42.95685" lon="1.80822">
        <ele>716</ele>
        <time>2022-08-05T09:05:56.000Z</time>
      </trkpt>
      <trkpt lat="42.95687" lon="1.80817">
        <ele>716</ele>
        <time>2022-08-05T09:05:58.000Z</time>
      </trkpt>
      <trkpt lat="42.9569" lon="1.8081">
        <ele>716</ele>
        <time>2022-08-05T09:06:01.000Z</time>
      </trkpt>
      <trkpt lat="42.95693" lon="1.80803">
        <ele>716</ele>
        <time>2022-08-05T09:06:03.000Z</time>
      </trkpt>
      <trkpt lat="42.95698" lon="1.80797">
        <ele>716</ele>
        <time>2022-08-05T09:06:05.000Z</time>
      </trkpt>
      <trkpt lat="42.95702" lon="1.80792">
        <ele>716</ele>
        <time>2022-08-05T09:06:07.000Z</time>
      </trkpt>
      <trkpt lat="42.95707" lon="1.80787">
        <ele>716</ele>
        <time>2022-08-05T09:06:09.000Z</time>
      </trkpt>
      <trkpt lat="42.95712" lon="1.80783">
        <ele>716</ele>
        <time>2022-08-05T09:06:11.000Z</time>
      </trkpt>
      <trkpt lat="42.95717" lon="1.80782">
        <ele>716</ele>
        <time>2022-08-05T09:06:13.000Z</time>
      </trkpt>
      <trkpt lat="42.9572" lon="1.8078">
        <ele>716</ele>
        <time>2022-08-05T09:06:14.000Z</time>
      </trkpt>
      <trkpt lat="42.95728" lon="1.80777">
        <ele>716</ele>
        <time>2022-08-05T09:06:16.000Z</time>
      </trkpt>
      <trkpt lat="42.95737" lon="1.80768">
        <ele>716</ele>
        <time>2022-08-05T09:06:18.000Z</time>
      </trkpt>
      <trkpt lat="42.95742" lon="1.8076">
        <ele>716</ele>
        <time>2022-08-05T09:06:19.000Z</time>
      </trkpt>
      <trkpt lat="42.95747" lon="1.80753">
        <ele>716</ele>
        <time>2022-08-05T09:06:20.000Z</time>
      </trkpt>
      <trkpt lat="42.95752" lon="1.80747">
        <ele>715</ele>
        <time>2022-08-05T09:06:21.000Z</time>
      </trkpt>
      <trkpt lat="42.95755" lon="1.80742">
        <ele>715</ele>
        <time>2022-08-05T09:06:22.000Z</time>
      </trkpt>
      <trkpt lat="42.9576" lon="1.80735">
        <ele>715</ele>
        <time>2022-08-05T09:06:23.000Z</time>
      </trkpt>
      <trkpt lat="42.95763" lon="1.80728">
        <ele>715</ele>
        <time>2022-08-05T09:06:24.000Z</time>
      </trkpt>
      <trkpt lat="42.95767" lon="1.80722">
        <ele>715</ele>
        <time>2022-08-05T09:06:25.000Z</time>
      </trkpt>
      <trkpt lat="42.95768" lon="1.80717">
        <ele>715</ele>
        <time>2022-08-05T09:06:26.000Z</time>
      </trkpt>
      <trkpt lat="42.9577" lon="1.80707">
        <ele>714</ele>
        <time>2022-08-05T09:06:28.000Z</time>
      </trkpt>
      <trkpt lat="42.95773" lon="1.80697">
        <ele>714</ele>
        <time>2022-08-05T09:06:30.000Z</time>
      </trkpt>
      <trkpt lat="42.95775" lon="1.80687">
        <ele>714</ele>
        <time>2022-08-05T09:06:32.000Z</time>
      </trkpt>
      <trkpt lat="42.95775" lon="1.80682">
        <ele>713</ele>
        <time>2022-08-05T09:06:33.000Z</time>
      </trkpt>
      <trkpt lat="42.95775" lon="1.8067">
        <ele>713</ele>
        <time>2022-08-05T09:06:35.000Z</time>
      </trkpt>
      <trkpt lat="42.95775" lon="1.80662">
        <ele>713</ele>
        <time>2022-08-05T09:06:37.000Z</time>
      </trkpt>
      <trkpt lat="42.95775" lon="1.80653">
        <ele>713</ele>
        <time>2022-08-05T09:06:39.000Z</time>
      </trkpt>
      <trkpt lat="42.95773" lon="1.80643">
        <ele>713</ele>
        <time>2022-08-05T09:06:41.000Z</time>
      </trkpt>
      <trkpt lat="42.95773" lon="1.80635">
        <ele>713</ele>
        <time>2022-08-05T09:06:43.000Z</time>
      </trkpt>
      <trkpt lat="42.95772" lon="1.80625">
        <ele>713</ele>
        <time>2022-08-05T09:06:45.000Z</time>
      </trkpt>
      <trkpt lat="42.9577" lon="1.80615">
        <ele>713</ele>
        <time>2022-08-05T09:06:47.000Z</time>
      </trkpt>
      <trkpt lat="42.9577" lon="1.80607">
        <ele>713</ele>
        <time>2022-08-05T09:06:49.000Z</time>
      </trkpt>
      <trkpt lat="42.9577" lon="1.80597">
        <ele>713</ele>
        <time>2022-08-05T09:06:51.000Z</time>
      </trkpt>
      <trkpt lat="42.95768" lon="1.80587">
        <ele>713</ele>
        <time>2022-08-05T09:06:53.000Z</time>
      </trkpt>
      <trkpt lat="42.95767" lon="1.80578">
        <ele>713</ele>
        <time>2022-08-05T09:06:55.000Z</time>
      </trkpt>
      <trkpt lat="42.95767" lon="1.80568">
        <ele>713</ele>
        <time>2022-08-05T09:06:57.000Z</time>
      </trkpt>
      <trkpt lat="42.95765" lon="1.8056">
        <ele>713</ele>
        <time>2022-08-05T09:06:59.000Z</time>
      </trkpt>
      <trkpt lat="42.95762" lon="1.80555">
        <ele>713</ele>
        <time>2022-08-05T09:07:01.000Z</time>
      </trkpt>
      <trkpt lat="42.9576" lon="1.80548">
        <ele>713</ele>
        <time>2022-08-05T09:07:03.000Z</time>
      </trkpt>
      <trkpt lat="42.9576" lon="1.80538">
        <ele>713</ele>
        <time>2022-08-05T09:07:05.000Z</time>
      </trkpt>
      <trkpt lat="42.9576" lon="1.80527">
        <ele>713</ele>
        <time>2022-08-05T09:07:07.000Z</time>
      </trkpt>
      <trkpt lat="42.95757" lon="1.80518">
        <ele>713</ele>
        <time>2022-08-05T09:07:09.000Z</time>
      </trkpt>
      <trkpt lat="42.95753" lon="1.80508">
        <ele>714</ele>
        <time>2022-08-05T09:07:11.000Z</time>
      </trkpt>
      <trkpt lat="42.95752" lon="1.80498">
        <ele>714</ele>
        <time>2022-08-05T09:07:13.000Z</time>
      </trkpt>
      <trkpt lat="42.95748" lon="1.8049">
        <ele>714</ele>
        <time>2022-08-05T09:07:15.000Z</time>
      </trkpt>
      <trkpt lat="42.95745" lon="1.80482">
        <ele>715</ele>
        <time>2022-08-05T09:07:17.000Z</time>
      </trkpt>
      <trkpt lat="42.95743" lon="1.80475">
        <ele>715</ele>
        <time>2022-08-05T09:07:19.000Z</time>
      </trkpt>
      <trkpt lat="42.95742" lon="1.80465">
        <ele>715</ele>
        <time>2022-08-05T09:07:21.000Z</time>
      </trkpt>
      <trkpt lat="42.95742" lon="1.8046">
        <ele>715</ele>
        <time>2022-08-05T09:07:23.000Z</time>
      </trkpt>
      <trkpt lat="42.95738" lon="1.80455">
        <ele>716</ele>
        <time>2022-08-05T09:07:25.000Z</time>
      </trkpt>
      <trkpt lat="42.95737" lon="1.80448">
        <ele>716</ele>
        <time>2022-08-05T09:07:27.000Z</time>
      </trkpt>
      <trkpt lat="42.95733" lon="1.80442">
        <ele>716</ele>
        <time>2022-08-05T09:07:29.000Z</time>
      </trkpt>
      <trkpt lat="42.95733" lon="1.80435">
        <ele>716</ele>
        <time>2022-08-05T09:07:31.000Z</time>
      </trkpt>
      <trkpt lat="42.95732" lon="1.80427">
        <ele>717</ele>
        <time>2022-08-05T09:07:34.000Z</time>
      </trkpt>
      <trkpt lat="42.95732" lon="1.8042">
        <ele>717</ele>
        <time>2022-08-05T09:07:36.000Z</time>
      </trkpt>
      <trkpt lat="42.9573" lon="1.80412">
        <ele>717</ele>
        <time>2022-08-05T09:07:39.000Z</time>
      </trkpt>
      <trkpt lat="42.9573" lon="1.80405">
        <ele>717</ele>
        <time>2022-08-05T09:07:41.000Z</time>
      </trkpt>
      <trkpt lat="42.95728" lon="1.80398">
        <ele>718</ele>
        <time>2022-08-05T09:07:43.000Z</time>
      </trkpt>
      <trkpt lat="42.95727" lon="1.80392">
        <ele>718</ele>
        <time>2022-08-05T09:07:45.000Z</time>
      </trkpt>
      <trkpt lat="42.95723" lon="1.80387">
        <ele>718</ele>
        <time>2022-08-05T09:07:47.000Z</time>
      </trkpt>
      <trkpt lat="42.95722" lon="1.8038">
        <ele>718</ele>
        <time>2022-08-05T09:07:49.000Z</time>
      </trkpt>
      <trkpt lat="42.95717" lon="1.80377">
        <ele>718</ele>
        <time>2022-08-05T09:07:51.000Z</time>
      </trkpt>
      <trkpt lat="42.95712" lon="1.80373">
        <ele>718</ele>
        <time>2022-08-05T09:07:53.000Z</time>
      </trkpt>
      <trkpt lat="42.95708" lon="1.80372">
        <ele>719</ele>
        <time>2022-08-05T09:07:55.000Z</time>
      </trkpt>
      <trkpt lat="42.95703" lon="1.80365">
        <ele>719</ele>
        <time>2022-08-05T09:07:57.000Z</time>
      </trkpt>
      <trkpt lat="42.95698" lon="1.80362">
        <ele>719</ele>
        <time>2022-08-05T09:07:58.000Z</time>
      </trkpt>
      <trkpt lat="42.95693" lon="1.80358">
        <ele>719</ele>
        <time>2022-08-05T09:08:00.000Z</time>
      </trkpt>
      <trkpt lat="42.95687" lon="1.80358">
        <ele>719</ele>
        <time>2022-08-05T09:08:02.000Z</time>
      </trkpt>
      <trkpt lat="42.9568" lon="1.80358">
        <ele>719</ele>
        <time>2022-08-05T09:08:04.000Z</time>
      </trkpt>
      <trkpt lat="42.95675" lon="1.80357">
        <ele>719</ele>
        <time>2022-08-05T09:08:06.000Z</time>
      </trkpt>
      <trkpt lat="42.95668" lon="1.80357">
        <ele>719</ele>
        <time>2022-08-05T09:08:08.000Z</time>
      </trkpt>
      <trkpt lat="42.9566" lon="1.80357">
        <ele>719</ele>
        <time>2022-08-05T09:08:10.000Z</time>
      </trkpt>
      <trkpt lat="42.95655" lon="1.80358">
        <ele>719</ele>
        <time>2022-08-05T09:08:13.000Z</time>
      </trkpt>
      <trkpt lat="42.9565" lon="1.80358">
        <ele>719</ele>
        <time>2022-08-05T09:08:15.000Z</time>
      </trkpt>
      <trkpt lat="42.95645" lon="1.80358">
        <ele>719</ele>
        <time>2022-08-05T09:08:18.000Z</time>
      </trkpt>
      <trkpt lat="42.9564" lon="1.80357">
        <ele>719</ele>
        <time>2022-08-05T09:08:23.000Z</time>
      </trkpt>
      <trkpt lat="42.95648" lon="1.80358">
        <ele>719</ele>
        <time>2022-08-05T09:08:36.000Z</time>
      </trkpt>
      <trkpt lat="42.95655" lon="1.80358">
        <ele>719</ele>
        <time>2022-08-05T09:08:38.000Z</time>
      </trkpt>
      <trkpt lat="42.9566" lon="1.8036">
        <ele>719</ele>
        <time>2022-08-05T09:08:41.000Z</time>
      </trkpt>
      <trkpt lat="42.95665" lon="1.80358">
        <ele>719</ele>
        <time>2022-08-05T09:08:43.000Z</time>
      </trkpt>
      <trkpt lat="42.9567" lon="1.80358">
        <ele>719</ele>
        <time>2022-08-05T09:08:45.000Z</time>
      </trkpt>
      <trkpt lat="42.95675" lon="1.80358">
        <ele>719</ele>
        <time>2022-08-05T09:08:47.000Z</time>
      </trkpt>
      <trkpt lat="42.9568" lon="1.80357">
        <ele>719</ele>
        <time>2022-08-05T09:08:49.000Z</time>
      </trkpt>
      <trkpt lat="42.95687" lon="1.80357">
        <ele>719</ele>
        <time>2022-08-05T09:08:52.000Z</time>
      </trkpt>
      <trkpt lat="42.95693" lon="1.80358">
        <ele>719</ele>
        <time>2022-08-05T09:08:55.000Z</time>
      </trkpt>
      <trkpt lat="42.957" lon="1.80362">
        <ele>719</ele>
        <time>2022-08-05T09:08:58.000Z</time>
      </trkpt>
      <trkpt lat="42.95703" lon="1.80365">
        <ele>719</ele>
        <time>2022-08-05T09:09:00.000Z</time>
      </trkpt>
      <trkpt lat="42.9571" lon="1.80367">
        <ele>719</ele>
        <time>2022-08-05T09:09:06.000Z</time>
      </trkpt>
      <trkpt lat="42.95708" lon="1.8036">
        <ele>719</ele>
        <time>2022-08-05T09:09:35.000Z</time>
      </trkpt>
      <trkpt lat="42.95708" lon="1.80352">
        <ele>718</ele>
        <time>2022-08-05T09:10:11.000Z</time>
      </trkpt>
      <trkpt lat="42.95712" lon="1.80348">
        <ele>718</ele>
        <time>2022-08-05T09:10:27.000Z</time>
      </trkpt>
      <trkpt lat="42.95718" lon="1.80343">
        <ele>718</ele>
        <time>2022-08-05T09:10:52.000Z</time>
      </trkpt>
      <trkpt lat="42.9572" lon="1.80337">
        <ele>718</ele>
        <time>2022-08-05T09:10:54.000Z</time>
      </trkpt>
      <trkpt lat="42.95722" lon="1.8033">
        <ele>718</ele>
        <time>2022-08-05T09:10:56.000Z</time>
      </trkpt>
      <trkpt lat="42.95723" lon="1.80323">
        <ele>718</ele>
        <time>2022-08-05T09:10:58.000Z</time>
      </trkpt>
      <trkpt lat="42.95725" lon="1.80317">
        <ele>718</ele>
        <time>2022-08-05T09:11:01.000Z</time>
      </trkpt>
      <trkpt lat="42.95728" lon="1.80312">
        <ele>717</ele>
        <time>2022-08-05T09:11:03.000Z</time>
      </trkpt>
      <trkpt lat="42.9573" lon="1.80307">
        <ele>717</ele>
        <time>2022-08-05T09:11:05.000Z</time>
      </trkpt>
      <trkpt lat="42.95733" lon="1.803">
        <ele>718</ele>
        <time>2022-08-05T09:11:07.000Z</time>
      </trkpt>
      <trkpt lat="42.95735" lon="1.80292">
        <ele>718</ele>
        <time>2022-08-05T09:11:10.000Z</time>
      </trkpt>
      <trkpt lat="42.95735" lon="1.80287">
        <ele>718</ele>
        <time>2022-08-05T09:11:12.000Z</time>
      </trkpt>
      <trkpt lat="42.95733" lon="1.80278">
        <ele>718</ele>
        <time>2022-08-05T09:11:15.000Z</time>
      </trkpt>
      <trkpt lat="42.95733" lon="1.80272">
        <ele>719</ele>
        <time>2022-08-05T09:11:18.000Z</time>
      </trkpt>
      <trkpt lat="42.95728" lon="1.80265">
        <ele>719</ele>
        <time>2022-08-05T09:11:22.000Z</time>
      </trkpt>
      <trkpt lat="42.95725" lon="1.8026">
        <ele>719</ele>
        <time>2022-08-05T09:11:25.000Z</time>
      </trkpt>
      <trkpt lat="42.95722" lon="1.80255">
        <ele>719</ele>
        <time>2022-08-05T09:11:27.000Z</time>
      </trkpt>
      <trkpt lat="42.95717" lon="1.80252">
        <ele>720</ele>
        <time>2022-08-05T09:11:30.000Z</time>
      </trkpt>
      <trkpt lat="42.9571" lon="1.80248">
        <ele>720</ele>
        <time>2022-08-05T09:11:33.000Z</time>
      </trkpt>
      <trkpt lat="42.95707" lon="1.80247">
        <ele>720</ele>
        <time>2022-08-05T09:11:36.000Z</time>
      </trkpt>
      <trkpt lat="42.957" lon="1.80247">
        <ele>721</ele>
        <time>2022-08-05T09:11:40.000Z</time>
      </trkpt>
      <trkpt lat="42.95695" lon="1.80245">
        <ele>721</ele>
        <time>2022-08-05T09:11:44.000Z</time>
      </trkpt>
      <trkpt lat="42.9569" lon="1.8024">
        <ele>721</ele>
        <time>2022-08-05T09:11:47.000Z</time>
      </trkpt>
      <trkpt lat="42.95685" lon="1.80233">
        <ele>721</ele>
        <time>2022-08-05T09:11:50.000Z</time>
      </trkpt>
      <trkpt lat="42.9568" lon="1.80228">
        <ele>721</ele>
        <time>2022-08-05T09:11:52.000Z</time>
      </trkpt>
      <trkpt lat="42.95675" lon="1.80222">
        <ele>721</ele>
        <time>2022-08-05T09:11:54.000Z</time>
      </trkpt>
      <trkpt lat="42.95668" lon="1.80218">
        <ele>721</ele>
        <time>2022-08-05T09:11:56.000Z</time>
      </trkpt>
      <trkpt lat="42.95662" lon="1.80217">
        <ele>721</ele>
        <time>2022-08-05T09:11:58.000Z</time>
      </trkpt>
      <trkpt lat="42.95657" lon="1.80215">
        <ele>721</ele>
        <time>2022-08-05T09:12:00.000Z</time>
      </trkpt>
      <trkpt lat="42.95652" lon="1.80213">
        <ele>721</ele>
        <time>2022-08-05T09:12:02.000Z</time>
      </trkpt>
      <trkpt lat="42.95647" lon="1.8021">
        <ele>720</ele>
        <time>2022-08-05T09:12:04.000Z</time>
      </trkpt>
      <trkpt lat="42.95642" lon="1.80208">
        <ele>720</ele>
        <time>2022-08-05T09:12:06.000Z</time>
      </trkpt>
      <trkpt lat="42.95638" lon="1.80205">
        <ele>720</ele>
        <time>2022-08-05T09:12:09.000Z</time>
      </trkpt>
      <trkpt lat="42.95635" lon="1.80198">
        <ele>719</ele>
        <time>2022-08-05T09:12:12.000Z</time>
      </trkpt>
      <trkpt lat="42.9563" lon="1.80193">
        <ele>718</ele>
        <time>2022-08-05T09:12:15.000Z</time>
      </trkpt>
      <trkpt lat="42.95627" lon="1.80188">
        <ele>718</ele>
        <time>2022-08-05T09:12:17.000Z</time>
      </trkpt>
      <trkpt lat="42.95627" lon="1.80182">
        <ele>717</ele>
        <time>2022-08-05T09:12:19.000Z</time>
      </trkpt>
      <trkpt lat="42.95625" lon="1.80175">
        <ele>717</ele>
        <time>2022-08-05T09:12:21.000Z</time>
      </trkpt>
      <trkpt lat="42.95622" lon="1.80167">
        <ele>716</ele>
        <time>2022-08-05T09:12:23.000Z</time>
      </trkpt>
      <trkpt lat="42.9562" lon="1.8016">
        <ele>715</ele>
        <time>2022-08-05T09:12:25.000Z</time>
      </trkpt>
      <trkpt lat="42.95615" lon="1.80148">
        <ele>715</ele>
        <time>2022-08-05T09:12:27.000Z</time>
      </trkpt>
      <trkpt lat="42.9561" lon="1.80142">
        <ele>714</ele>
        <time>2022-08-05T09:12:29.000Z</time>
      </trkpt>
      <trkpt lat="42.95605" lon="1.80137">
        <ele>713</ele>
        <time>2022-08-05T09:12:31.000Z</time>
      </trkpt>
      <trkpt lat="42.956" lon="1.80133">
        <ele>712</ele>
        <time>2022-08-05T09:12:33.000Z</time>
      </trkpt>
      <trkpt lat="42.95595" lon="1.80132">
        <ele>711</ele>
        <time>2022-08-05T09:12:35.000Z</time>
      </trkpt>
      <trkpt lat="42.95588" lon="1.80132">
        <ele>710</ele>
        <time>2022-08-05T09:12:38.000Z</time>
      </trkpt>
      <trkpt lat="42.95583" lon="1.80133">
        <ele>708</ele>
        <time>2022-08-05T09:12:43.000Z</time>
      </trkpt>
      <trkpt lat="42.95578" lon="1.8013">
        <ele>706</ele>
        <time>2022-08-05T09:12:47.000Z</time>
      </trkpt>
      <trkpt lat="42.95575" lon="1.8012">
        <ele>705</ele>
        <time>2022-08-05T09:12:50.000Z</time>
      </trkpt>
      <trkpt lat="42.95573" lon="1.80113">
        <ele>704</ele>
        <time>2022-08-05T09:12:53.000Z</time>
      </trkpt>
      <trkpt lat="42.95573" lon="1.80107">
        <ele>703</ele>
        <time>2022-08-05T09:12:56.000Z</time>
      </trkpt>
      <trkpt lat="42.95568" lon="1.80103">
        <ele>701</ele>
        <time>2022-08-05T09:13:00.000Z</time>
      </trkpt>
      <trkpt lat="42.95567" lon="1.80095">
        <ele>697</ele>
        <time>2022-08-05T09:13:43.000Z</time>
      </trkpt>
      <trkpt lat="42.95563" lon="1.8009">
        <ele>697</ele>
        <time>2022-08-05T09:13:46.000Z</time>
      </trkpt>
      <trkpt lat="42.95562" lon="1.80083">
        <ele>696</ele>
        <time>2022-08-05T09:13:50.000Z</time>
      </trkpt>
      <trkpt lat="42.95558" lon="1.80078">
        <ele>696</ele>
        <time>2022-08-05T09:13:54.000Z</time>
      </trkpt>
      <trkpt lat="42.95555" lon="1.80073">
        <ele>695</ele>
        <time>2022-08-05T09:13:57.000Z</time>
      </trkpt>
      <trkpt lat="42.95552" lon="1.8007">
        <ele>695</ele>
        <time>2022-08-05T09:14:00.000Z</time>
      </trkpt>
      <trkpt lat="42.95547" lon="1.80067">
        <ele>694</ele>
        <time>2022-08-05T09:14:03.000Z</time>
      </trkpt>
      <trkpt lat="42.95542" lon="1.80062">
        <ele>693</ele>
        <time>2022-08-05T09:14:06.000Z</time>
      </trkpt>
      <trkpt lat="42.95537" lon="1.80055">
        <ele>693</ele>
        <time>2022-08-05T09:14:09.000Z</time>
      </trkpt>
      <trkpt lat="42.95535" lon="1.80048">
        <ele>692</ele>
        <time>2022-08-05T09:14:11.000Z</time>
      </trkpt>
      <trkpt lat="42.95533" lon="1.8004">
        <ele>692</ele>
        <time>2022-08-05T09:14:15.000Z</time>
      </trkpt>
      <trkpt lat="42.95532" lon="1.80033">
        <ele>691</ele>
        <time>2022-08-05T09:14:18.000Z</time>
      </trkpt>
      <trkpt lat="42.95528" lon="1.80025">
        <ele>691</ele>
        <time>2022-08-05T09:14:20.000Z</time>
      </trkpt>
      <trkpt lat="42.95525" lon="1.80018">
        <ele>691</ele>
        <time>2022-08-05T09:14:23.000Z</time>
      </trkpt>
      <trkpt lat="42.9552" lon="1.80015">
        <ele>691</ele>
        <time>2022-08-05T09:14:26.000Z</time>
      </trkpt>
      <trkpt lat="42.95517" lon="1.8001">
        <ele>691</ele>
        <time>2022-08-05T09:14:29.000Z</time>
      </trkpt>
      <trkpt lat="42.95513" lon="1.80003">
        <ele>691</ele>
        <time>2022-08-05T09:14:34.000Z</time>
      </trkpt>
      <trkpt lat="42.9551" lon="1.79997">
        <ele>691</ele>
        <time>2022-08-05T09:14:37.000Z</time>
      </trkpt>
      <trkpt lat="42.95507" lon="1.79992">
        <ele>691</ele>
        <time>2022-08-05T09:14:40.000Z</time>
      </trkpt>
      <trkpt lat="42.95503" lon="1.79985">
        <ele>691</ele>
        <time>2022-08-05T09:14:43.000Z</time>
      </trkpt>
      <trkpt lat="42.955" lon="1.7998">
        <ele>692</ele>
        <time>2022-08-05T09:14:45.000Z</time>
      </trkpt>
      <trkpt lat="42.95497" lon="1.79973">
        <ele>692</ele>
        <time>2022-08-05T09:14:48.000Z</time>
      </trkpt>
      <trkpt lat="42.95492" lon="1.79967">
        <ele>692</ele>
        <time>2022-08-05T09:14:50.000Z</time>
      </trkpt>
      <trkpt lat="42.95488" lon="1.79958">
        <ele>692</ele>
        <time>2022-08-05T09:14:52.000Z</time>
      </trkpt>
      <trkpt lat="42.95487" lon="1.79952">
        <ele>692</ele>
        <time>2022-08-05T09:14:54.000Z</time>
      </trkpt>
      <trkpt lat="42.95483" lon="1.79943">
        <ele>692</ele>
        <time>2022-08-05T09:14:56.000Z</time>
      </trkpt>
      <trkpt lat="42.95482" lon="1.79937">
        <ele>692</ele>
        <time>2022-08-05T09:14:58.000Z</time>
      </trkpt>
      <trkpt lat="42.95482" lon="1.79928">
        <ele>692</ele>
        <time>2022-08-05T09:15:00.000Z</time>
      </trkpt>
      <trkpt lat="42.95482" lon="1.7992">
        <ele>692</ele>
        <time>2022-08-05T09:15:02.000Z</time>
      </trkpt>
      <trkpt lat="42.95483" lon="1.79912">
        <ele>692</ele>
        <time>2022-08-05T09:15:04.000Z</time>
      </trkpt>
      <trkpt lat="42.95483" lon="1.79905">
        <ele>692</ele>
        <time>2022-08-05T09:15:06.000Z</time>
      </trkpt>
      <trkpt lat="42.95483" lon="1.79897">
        <ele>692</ele>
        <time>2022-08-05T09:15:08.000Z</time>
      </trkpt>
      <trkpt lat="42.95483" lon="1.7989">
        <ele>692</ele>
        <time>2022-08-05T09:15:10.000Z</time>
      </trkpt>
      <trkpt lat="42.95485" lon="1.79882">
        <ele>692</ele>
        <time>2022-08-05T09:15:12.000Z</time>
      </trkpt>
      <trkpt lat="42.95485" lon="1.79875">
        <ele>692</ele>
        <time>2022-08-05T09:15:14.000Z</time>
      </trkpt>
      <trkpt lat="42.95482" lon="1.7987">
        <ele>692</ele>
        <time>2022-08-05T09:15:17.000Z</time>
      </trkpt>
      <trkpt lat="42.9548" lon="1.79858">
        <ele>692</ele>
        <time>2022-08-05T09:15:21.000Z</time>
      </trkpt>
      <trkpt lat="42.9548" lon="1.7985">
        <ele>692</ele>
        <time>2022-08-05T09:15:22.000Z</time>
      </trkpt>
      <trkpt lat="42.95478" lon="1.7984">
        <ele>691</ele>
        <time>2022-08-05T09:15:24.000Z</time>
      </trkpt>
      <trkpt lat="42.95477" lon="1.79832">
        <ele>691</ele>
        <time>2022-08-05T09:15:26.000Z</time>
      </trkpt>
      <trkpt lat="42.95478" lon="1.79825">
        <ele>691</ele>
        <time>2022-08-05T09:15:27.000Z</time>
      </trkpt>
      <trkpt lat="42.95478" lon="1.79818">
        <ele>691</ele>
        <time>2022-08-05T09:15:28.000Z</time>
      </trkpt>
      <trkpt lat="42.9548" lon="1.79808">
        <ele>691</ele>
        <time>2022-08-05T09:15:30.000Z</time>
      </trkpt>
      <trkpt lat="42.9548" lon="1.79797">
        <ele>690</ele>
        <time>2022-08-05T09:15:32.000Z</time>
      </trkpt>
      <trkpt lat="42.9548" lon="1.7979">
        <ele>690</ele>
        <time>2022-08-05T09:15:33.000Z</time>
      </trkpt>
      <trkpt lat="42.95477" lon="1.7978">
        <ele>690</ele>
        <time>2022-08-05T09:15:35.000Z</time>
      </trkpt>
      <trkpt lat="42.95475" lon="1.79772">
        <ele>690</ele>
        <time>2022-08-05T09:15:37.000Z</time>
      </trkpt>
      <trkpt lat="42.95473" lon="1.79767">
        <ele>689</ele>
        <time>2022-08-05T09:15:39.000Z</time>
      </trkpt>
      <trkpt lat="42.9547" lon="1.79758">
        <ele>689</ele>
        <time>2022-08-05T09:15:41.000Z</time>
      </trkpt>
      <trkpt lat="42.9547" lon="1.79752">
        <ele>688</ele>
        <time>2022-08-05T09:15:43.000Z</time>
      </trkpt>
      <trkpt lat="42.95468" lon="1.79743">
        <ele>688</ele>
        <time>2022-08-05T09:15:46.000Z</time>
      </trkpt>
      <trkpt lat="42.95465" lon="1.79738">
        <ele>687</ele>
        <time>2022-08-05T09:15:48.000Z</time>
      </trkpt>
      <trkpt lat="42.95465" lon="1.79732">
        <ele>687</ele>
        <time>2022-08-05T09:15:50.000Z</time>
      </trkpt>
      <trkpt lat="42.9546" lon="1.79718">
        <ele>686</ele>
        <time>2022-08-05T09:15:52.000Z</time>
      </trkpt>
      <trkpt lat="42.95455" lon="1.79712">
        <ele>685</ele>
        <time>2022-08-05T09:15:54.000Z</time>
      </trkpt>
      <trkpt lat="42.95452" lon="1.79707">
        <ele>685</ele>
        <time>2022-08-05T09:15:56.000Z</time>
      </trkpt>
      <trkpt lat="42.95452" lon="1.797">
        <ele>684</ele>
        <time>2022-08-05T09:15:58.000Z</time>
      </trkpt>
      <trkpt lat="42.9545" lon="1.79693">
        <ele>683</ele>
        <time>2022-08-05T09:16:01.000Z</time>
      </trkpt>
      <trkpt lat="42.95447" lon="1.79687">
        <ele>682</ele>
        <time>2022-08-05T09:16:04.000Z</time>
      </trkpt>
      <trkpt lat="42.95443" lon="1.79682">
        <ele>681</ele>
        <time>2022-08-05T09:16:07.000Z</time>
      </trkpt>
      <trkpt lat="42.95438" lon="1.79675">
        <ele>680</ele>
        <time>2022-08-05T09:16:10.000Z</time>
      </trkpt>
      <trkpt lat="42.95435" lon="1.79668">
        <ele>679</ele>
        <time>2022-08-05T09:16:12.000Z</time>
      </trkpt>
      <trkpt lat="42.95433" lon="1.79662">
        <ele>679</ele>
        <time>2022-08-05T09:16:14.000Z</time>
      </trkpt>
      <trkpt lat="42.95432" lon="1.79655">
        <ele>678</ele>
        <time>2022-08-05T09:16:16.000Z</time>
      </trkpt>
      <trkpt lat="42.95428" lon="1.79648">
        <ele>677</ele>
        <time>2022-08-05T09:16:19.000Z</time>
      </trkpt>
      <trkpt lat="42.95425" lon="1.79642">
        <ele>675</ele>
        <time>2022-08-05T09:16:22.000Z</time>
      </trkpt>
      <trkpt lat="42.95422" lon="1.79635">
        <ele>675</ele>
        <time>2022-08-05T09:16:24.000Z</time>
      </trkpt>
      <trkpt lat="42.95418" lon="1.7963">
        <ele>674</ele>
        <time>2022-08-05T09:16:26.000Z</time>
      </trkpt>
      <trkpt lat="42.95415" lon="1.79623">
        <ele>673</ele>
        <time>2022-08-05T09:16:29.000Z</time>
      </trkpt>
      <trkpt lat="42.95415" lon="1.79615">
        <ele>670</ele>
        <time>2022-08-05T09:16:37.000Z</time>
      </trkpt>
      <trkpt lat="42.95415" lon="1.79608">
        <ele>669</ele>
        <time>2022-08-05T09:16:42.000Z</time>
      </trkpt>
      <trkpt lat="42.95417" lon="1.79602">
        <ele>667</ele>
        <time>2022-08-05T09:16:47.000Z</time>
      </trkpt>
      <trkpt lat="42.95417" lon="1.79593">
        <ele>665</ele>
        <time>2022-08-05T09:16:58.000Z</time>
      </trkpt>
      <trkpt lat="42.95415" lon="1.79587">
        <ele>665</ele>
        <time>2022-08-05T09:17:01.000Z</time>
      </trkpt>
      <trkpt lat="42.95417" lon="1.7958">
        <ele>664</ele>
        <time>2022-08-05T09:17:04.000Z</time>
      </trkpt>
      <trkpt lat="42.9542" lon="1.79575">
        <ele>663</ele>
        <time>2022-08-05T09:17:07.000Z</time>
      </trkpt>
      <trkpt lat="42.95423" lon="1.79568">
        <ele>662</ele>
        <time>2022-08-05T09:17:10.000Z</time>
      </trkpt>
      <trkpt lat="42.95425" lon="1.79562">
        <ele>660</ele>
        <time>2022-08-05T09:17:13.000Z</time>
      </trkpt>
      <trkpt lat="42.95425" lon="1.79552">
        <ele>659</ele>
        <time>2022-08-05T09:17:16.000Z</time>
      </trkpt>
      <trkpt lat="42.95428" lon="1.79545">
        <ele>658</ele>
        <time>2022-08-05T09:17:18.000Z</time>
      </trkpt>
      <trkpt lat="42.95432" lon="1.79538">
        <ele>658</ele>
        <time>2022-08-05T09:17:20.000Z</time>
      </trkpt>
      <trkpt lat="42.95435" lon="1.79532">
        <ele>657</ele>
        <time>2022-08-05T09:17:23.000Z</time>
      </trkpt>
      <trkpt lat="42.95435" lon="1.79525">
        <ele>656</ele>
        <time>2022-08-05T09:17:26.000Z</time>
      </trkpt>
      <trkpt lat="42.95438" lon="1.79518">
        <ele>652</ele>
        <time>2022-08-05T09:17:59.000Z</time>
      </trkpt>
      <trkpt lat="42.95438" lon="1.79512">
        <ele>651</ele>
        <time>2022-08-05T09:18:02.000Z</time>
      </trkpt>
      <trkpt lat="42.95442" lon="1.79503">
        <ele>651</ele>
        <time>2022-08-05T09:18:07.000Z</time>
      </trkpt>
      <trkpt lat="42.95445" lon="1.79498">
        <ele>650</ele>
        <time>2022-08-05T09:18:10.000Z</time>
      </trkpt>
      <trkpt lat="42.9545" lon="1.79495">
        <ele>650</ele>
        <time>2022-08-05T09:18:13.000Z</time>
      </trkpt>
      <trkpt lat="42.95452" lon="1.7949">
        <ele>649</ele>
        <time>2022-08-05T09:18:15.000Z</time>
      </trkpt>
      <trkpt lat="42.95455" lon="1.79483">
        <ele>649</ele>
        <time>2022-08-05T09:18:18.000Z</time>
      </trkpt>
      <trkpt lat="42.95455" lon="1.79473">
        <ele>648</ele>
        <time>2022-08-05T09:18:21.000Z</time>
      </trkpt>
      <trkpt lat="42.95457" lon="1.79467">
        <ele>647</ele>
        <time>2022-08-05T09:18:24.000Z</time>
      </trkpt>
      <trkpt lat="42.95455" lon="1.79458">
        <ele>645</ele>
        <time>2022-08-05T09:18:28.000Z</time>
      </trkpt>
      <trkpt lat="42.95453" lon="1.79448">
        <ele>644</ele>
        <time>2022-08-05T09:18:31.000Z</time>
      </trkpt>
      <trkpt lat="42.95453" lon="1.7944">
        <ele>643</ele>
        <time>2022-08-05T09:18:33.000Z</time>
      </trkpt>
      <trkpt lat="42.95453" lon="1.79433">
        <ele>642</ele>
        <time>2022-08-05T09:18:35.000Z</time>
      </trkpt>
      <trkpt lat="42.95453" lon="1.79425">
        <ele>641</ele>
        <time>2022-08-05T09:18:38.000Z</time>
      </trkpt>
      <trkpt lat="42.95453" lon="1.79418">
        <ele>640</ele>
        <time>2022-08-05T09:18:41.000Z</time>
      </trkpt>
      <trkpt lat="42.95455" lon="1.79412">
        <ele>639</ele>
        <time>2022-08-05T09:18:44.000Z</time>
      </trkpt>
      <trkpt lat="42.95458" lon="1.79403">
        <ele>637</ele>
        <time>2022-08-05T09:18:48.000Z</time>
      </trkpt>
      <trkpt lat="42.95465" lon="1.79395">
        <ele>636</ele>
        <time>2022-08-05T09:18:50.000Z</time>
      </trkpt>
      <trkpt lat="42.95467" lon="1.79388">
        <ele>636</ele>
        <time>2022-08-05T09:18:51.000Z</time>
      </trkpt>
      <trkpt lat="42.95468" lon="1.7938">
        <ele>635</ele>
        <time>2022-08-05T09:18:52.000Z</time>
      </trkpt>
      <trkpt lat="42.9547" lon="1.79373">
        <ele>635</ele>
        <time>2022-08-05T09:18:53.000Z</time>
      </trkpt>
      <trkpt lat="42.95472" lon="1.79365">
        <ele>634</ele>
        <time>2022-08-05T09:18:55.000Z</time>
      </trkpt>
      <trkpt lat="42.95472" lon="1.79357">
        <ele>633</ele>
        <time>2022-08-05T09:18:58.000Z</time>
      </trkpt>
      <trkpt lat="42.95472" lon="1.7935">
        <ele>633</ele>
        <time>2022-08-05T09:19:00.000Z</time>
      </trkpt>
      <trkpt lat="42.95473" lon="1.79342">
        <ele>631</ele>
        <time>2022-08-05T09:19:03.000Z</time>
      </trkpt>
      <trkpt lat="42.95478" lon="1.79335">
        <ele>630</ele>
        <time>2022-08-05T09:19:07.000Z</time>
      </trkpt>
      <trkpt lat="42.95483" lon="1.79328">
        <ele>629</ele>
        <time>2022-08-05T09:19:09.000Z</time>
      </trkpt>
      <trkpt lat="42.95492" lon="1.79325">
        <ele>628</ele>
        <time>2022-08-05T09:19:11.000Z</time>
      </trkpt>
      <trkpt lat="42.95498" lon="1.79318">
        <ele>627</ele>
        <time>2022-08-05T09:19:13.000Z</time>
      </trkpt>
      <trkpt lat="42.95505" lon="1.79315">
        <ele>627</ele>
        <time>2022-08-05T09:19:15.000Z</time>
      </trkpt>
      <trkpt lat="42.95508" lon="1.79312">
        <ele>626</ele>
        <time>2022-08-05T09:19:17.000Z</time>
      </trkpt>
      <trkpt lat="42.95513" lon="1.79308">
        <ele>625</ele>
        <time>2022-08-05T09:19:20.000Z</time>
      </trkpt>
      <trkpt lat="42.95517" lon="1.79303">
        <ele>624</ele>
        <time>2022-08-05T09:19:23.000Z</time>
      </trkpt>
      <trkpt lat="42.9552" lon="1.79297">
        <ele>623</ele>
        <time>2022-08-05T09:19:26.000Z</time>
      </trkpt>
      <trkpt lat="42.95523" lon="1.79288">
        <ele>622</ele>
        <time>2022-08-05T09:19:29.000Z</time>
      </trkpt>
      <trkpt lat="42.95527" lon="1.79283">
        <ele>621</ele>
        <time>2022-08-05T09:19:32.000Z</time>
      </trkpt>
      <trkpt lat="42.9553" lon="1.79275">
        <ele>620</ele>
        <time>2022-08-05T09:19:35.000Z</time>
      </trkpt>
      <trkpt lat="42.95533" lon="1.79267">
        <ele>619</ele>
        <time>2022-08-05T09:19:38.000Z</time>
      </trkpt>
      <trkpt lat="42.95535" lon="1.7926">
        <ele>619</ele>
        <time>2022-08-05T09:19:41.000Z</time>
      </trkpt>
      <trkpt lat="42.95538" lon="1.7925">
        <ele>618</ele>
        <time>2022-08-05T09:19:44.000Z</time>
      </trkpt>
      <trkpt lat="42.95542" lon="1.79245">
        <ele>617</ele>
        <time>2022-08-05T09:19:46.000Z</time>
      </trkpt>
      <trkpt lat="42.95545" lon="1.79238">
        <ele>616</ele>
        <time>2022-08-05T09:19:51.000Z</time>
      </trkpt>
      <trkpt lat="42.95547" lon="1.79232">
        <ele>615</ele>
        <time>2022-08-05T09:19:54.000Z</time>
      </trkpt>
      <trkpt lat="42.95548" lon="1.79223">
        <ele>613</ele>
        <time>2022-08-05T09:19:58.000Z</time>
      </trkpt>
      <trkpt lat="42.95552" lon="1.79213">
        <ele>612</ele>
        <time>2022-08-05T09:20:01.000Z</time>
      </trkpt>
      <trkpt lat="42.95553" lon="1.79203">
        <ele>612</ele>
        <time>2022-08-05T09:20:03.000Z</time>
      </trkpt>
      <trkpt lat="42.95557" lon="1.79195">
        <ele>611</ele>
        <time>2022-08-05T09:20:05.000Z</time>
      </trkpt>
      <trkpt lat="42.9556" lon="1.79188">
        <ele>610</ele>
        <time>2022-08-05T09:20:07.000Z</time>
      </trkpt>
      <trkpt lat="42.95562" lon="1.79182">
        <ele>609</ele>
        <time>2022-08-05T09:20:08.000Z</time>
      </trkpt>
      <trkpt lat="42.95562" lon="1.79175">
        <ele>609</ele>
        <time>2022-08-05T09:20:09.000Z</time>
      </trkpt>
      <trkpt lat="42.95563" lon="1.79168">
        <ele>609</ele>
        <time>2022-08-05T09:20:10.000Z</time>
      </trkpt>
      <trkpt lat="42.95565" lon="1.79163">
        <ele>608</ele>
        <time>2022-08-05T09:20:11.000Z</time>
      </trkpt>
      <trkpt lat="42.95568" lon="1.79153">
        <ele>607</ele>
        <time>2022-08-05T09:20:13.000Z</time>
      </trkpt>
      <trkpt lat="42.95572" lon="1.79147">
        <ele>606</ele>
        <time>2022-08-05T09:20:15.000Z</time>
      </trkpt>
      <trkpt lat="42.95575" lon="1.79135">
        <ele>605</ele>
        <time>2022-08-05T09:20:17.000Z</time>
      </trkpt>
      <trkpt lat="42.95575" lon="1.79128">
        <ele>605</ele>
        <time>2022-08-05T09:20:18.000Z</time>
      </trkpt>
      <trkpt lat="42.95577" lon="1.79122">
        <ele>604</ele>
        <time>2022-08-05T09:20:19.000Z</time>
      </trkpt>
      <trkpt lat="42.95578" lon="1.79113">
        <ele>604</ele>
        <time>2022-08-05T09:20:20.000Z</time>
      </trkpt>
      <trkpt lat="42.9558" lon="1.79107">
        <ele>604</ele>
        <time>2022-08-05T09:20:21.000Z</time>
      </trkpt>
      <trkpt lat="42.95585" lon="1.79097">
        <ele>603</ele>
        <time>2022-08-05T09:20:23.000Z</time>
      </trkpt>
      <trkpt lat="42.9559" lon="1.7909">
        <ele>602</ele>
        <time>2022-08-05T09:20:25.000Z</time>
      </trkpt>
      <trkpt lat="42.95592" lon="1.79083">
        <ele>601</ele>
        <time>2022-08-05T09:20:29.000Z</time>
      </trkpt>
      <trkpt lat="42.95593" lon="1.79077">
        <ele>597</ele>
        <time>2022-08-05T09:21:06.000Z</time>
      </trkpt>
      <trkpt lat="42.95597" lon="1.79072">
        <ele>597</ele>
        <time>2022-08-05T09:21:08.000Z</time>
      </trkpt>
      <trkpt lat="42.95602" lon="1.79067">
        <ele>596</ele>
        <time>2022-08-05T09:21:10.000Z</time>
      </trkpt>
      <trkpt lat="42.95603" lon="1.7906">
        <ele>596</ele>
        <time>2022-08-05T09:21:11.000Z</time>
      </trkpt>
      <trkpt lat="42.95605" lon="1.79052">
        <ele>596</ele>
        <time>2022-08-05T09:21:13.000Z</time>
      </trkpt>
      <trkpt lat="42.95607" lon="1.79045">
        <ele>595</ele>
        <time>2022-08-05T09:21:14.000Z</time>
      </trkpt>
      <trkpt lat="42.95608" lon="1.79038">
        <ele>595</ele>
        <time>2022-08-05T09:21:15.000Z</time>
      </trkpt>
      <trkpt lat="42.95608" lon="1.79032">
        <ele>595</ele>
        <time>2022-08-05T09:21:16.000Z</time>
      </trkpt>
      <trkpt lat="42.95608" lon="1.7902">
        <ele>594</ele>
        <time>2022-08-05T09:21:18.000Z</time>
      </trkpt>
      <trkpt lat="42.9561" lon="1.79008">
        <ele>593</ele>
        <time>2022-08-05T09:21:20.000Z</time>
      </trkpt>
      <trkpt lat="42.95612" lon="1.79002">
        <ele>593</ele>
        <time>2022-08-05T09:21:21.000Z</time>
      </trkpt>
      <trkpt lat="42.95613" lon="1.78995">
        <ele>593</ele>
        <time>2022-08-05T09:21:22.000Z</time>
      </trkpt>
      <trkpt lat="42.95615" lon="1.78988">
        <ele>592</ele>
        <time>2022-08-05T09:21:23.000Z</time>
      </trkpt>
      <trkpt lat="42.95617" lon="1.78982">
        <ele>592</ele>
        <time>2022-08-05T09:21:24.000Z</time>
      </trkpt>
      <trkpt lat="42.95618" lon="1.78975">
        <ele>591</ele>
        <time>2022-08-05T09:21:26.000Z</time>
      </trkpt>
      <trkpt lat="42.95618" lon="1.78968">
        <ele>589</ele>
        <time>2022-08-05T09:21:31.000Z</time>
      </trkpt>
      <trkpt lat="42.9562" lon="1.78962">
        <ele>589</ele>
        <time>2022-08-05T09:21:33.000Z</time>
      </trkpt>
      <trkpt lat="42.95623" lon="1.78953">
        <ele>588</ele>
        <time>2022-08-05T09:21:35.000Z</time>
      </trkpt>
      <trkpt lat="42.95627" lon="1.78947">
        <ele>587</ele>
        <time>2022-08-05T09:21:37.000Z</time>
      </trkpt>
      <trkpt lat="42.95632" lon="1.78943">
        <ele>586</ele>
        <time>2022-08-05T09:21:39.000Z</time>
      </trkpt>
      <trkpt lat="42.95638" lon="1.78938">
        <ele>585</ele>
        <time>2022-08-05T09:21:41.000Z</time>
      </trkpt>
      <trkpt lat="42.95645" lon="1.78932">
        <ele>584</ele>
        <time>2022-08-05T09:21:43.000Z</time>
      </trkpt>
      <trkpt lat="42.9565" lon="1.78922">
        <ele>583</ele>
        <time>2022-08-05T09:21:45.000Z</time>
      </trkpt>
      <trkpt lat="42.95653" lon="1.78917">
        <ele>583</ele>
        <time>2022-08-05T09:21:46.000Z</time>
      </trkpt>
      <trkpt lat="42.95657" lon="1.78913">
        <ele>582</ele>
        <time>2022-08-05T09:21:47.000Z</time>
      </trkpt>
      <trkpt lat="42.9566" lon="1.7891">
        <ele>582</ele>
        <time>2022-08-05T09:21:48.000Z</time>
      </trkpt>
      <trkpt lat="42.95665" lon="1.78905">
        <ele>581</ele>
        <time>2022-08-05T09:21:49.000Z</time>
      </trkpt>
      <trkpt lat="42.9567" lon="1.78902">
        <ele>580</ele>
        <time>2022-08-05T09:21:50.000Z</time>
      </trkpt>
      <trkpt lat="42.95675" lon="1.78897">
        <ele>580</ele>
        <time>2022-08-05T09:21:51.000Z</time>
      </trkpt>
      <trkpt lat="42.9568" lon="1.78893">
        <ele>579</ele>
        <time>2022-08-05T09:21:52.000Z</time>
      </trkpt>
      <trkpt lat="42.95683" lon="1.78888">
        <ele>579</ele>
        <time>2022-08-05T09:21:53.000Z</time>
      </trkpt>
      <trkpt lat="42.95687" lon="1.78885">
        <ele>578</ele>
        <time>2022-08-05T09:21:54.000Z</time>
      </trkpt>
      <trkpt lat="42.9569" lon="1.7888">
        <ele>577</ele>
        <time>2022-08-05T09:21:55.000Z</time>
      </trkpt>
      <trkpt lat="42.95693" lon="1.78875">
        <ele>577</ele>
        <time>2022-08-05T09:21:56.000Z</time>
      </trkpt>
      <trkpt lat="42.95698" lon="1.78872">
        <ele>576</ele>
        <time>2022-08-05T09:21:57.000Z</time>
      </trkpt>
      <trkpt lat="42.95703" lon="1.78868">
        <ele>575</ele>
        <time>2022-08-05T09:21:58.000Z</time>
      </trkpt>
      <trkpt lat="42.95708" lon="1.78865">
        <ele>575</ele>
        <time>2022-08-05T09:21:59.000Z</time>
      </trkpt>
      <trkpt lat="42.95713" lon="1.78862">
        <ele>574</ele>
        <time>2022-08-05T09:22:00.000Z</time>
      </trkpt>
      <trkpt lat="42.95718" lon="1.78858">
        <ele>574</ele>
        <time>2022-08-05T09:22:01.000Z</time>
      </trkpt>
      <trkpt lat="42.95722" lon="1.78853">
        <ele>573</ele>
        <time>2022-08-05T09:22:02.000Z</time>
      </trkpt>
      <trkpt lat="42.95725" lon="1.78845">
        <ele>572</ele>
        <time>2022-08-05T09:22:04.000Z</time>
      </trkpt>
      <trkpt lat="42.95728" lon="1.78837">
        <ele>571</ele>
        <time>2022-08-05T09:22:06.000Z</time>
      </trkpt>
      <trkpt lat="42.9573" lon="1.78827">
        <ele>569</ele>
        <time>2022-08-05T09:22:08.000Z</time>
      </trkpt>
      <trkpt lat="42.95732" lon="1.7882">
        <ele>569</ele>
        <time>2022-08-05T09:22:09.000Z</time>
      </trkpt>
      <trkpt lat="42.95732" lon="1.78813">
        <ele>568</ele>
        <time>2022-08-05T09:22:10.000Z</time>
      </trkpt>
      <trkpt lat="42.95735" lon="1.78803">
        <ele>567</ele>
        <time>2022-08-05T09:22:12.000Z</time>
      </trkpt>
      <trkpt lat="42.95738" lon="1.78793">
        <ele>566</ele>
        <time>2022-08-05T09:22:14.000Z</time>
      </trkpt>
      <trkpt lat="42.95745" lon="1.78783">
        <ele>565</ele>
        <time>2022-08-05T09:22:16.000Z</time>
      </trkpt>
      <trkpt lat="42.9575" lon="1.78775">
        <ele>565</ele>
        <time>2022-08-05T09:22:18.000Z</time>
      </trkpt>
      <trkpt lat="42.95753" lon="1.78768">
        <ele>564</ele>
        <time>2022-08-05T09:22:20.000Z</time>
      </trkpt>
      <trkpt lat="42.95757" lon="1.78762">
        <ele>563</ele>
        <time>2022-08-05T09:22:22.000Z</time>
      </trkpt>
      <trkpt lat="42.95758" lon="1.78757">
        <ele>562</ele>
        <time>2022-08-05T09:22:24.000Z</time>
      </trkpt>
      <trkpt lat="42.95762" lon="1.78752">
        <ele>561</ele>
        <time>2022-08-05T09:22:27.000Z</time>
      </trkpt>
      <trkpt lat="42.95767" lon="1.78747">
        <ele>558</ele>
        <time>2022-08-05T09:23:02.000Z</time>
      </trkpt>
      <trkpt lat="42.95768" lon="1.7874">
        <ele>557</ele>
        <time>2022-08-05T09:23:04.000Z</time>
      </trkpt>
      <trkpt lat="42.95773" lon="1.78733">
        <ele>557</ele>
        <time>2022-08-05T09:23:06.000Z</time>
      </trkpt>
      <trkpt lat="42.95778" lon="1.78725">
        <ele>557</ele>
        <time>2022-08-05T09:23:08.000Z</time>
      </trkpt>
      <trkpt lat="42.95783" lon="1.78722">
        <ele>557</ele>
        <time>2022-08-05T09:23:09.000Z</time>
      </trkpt>
      <trkpt lat="42.95788" lon="1.78717">
        <ele>557</ele>
        <time>2022-08-05T09:23:10.000Z</time>
      </trkpt>
      <trkpt lat="42.95792" lon="1.78713">
        <ele>556</ele>
        <time>2022-08-05T09:23:11.000Z</time>
      </trkpt>
      <trkpt lat="42.95797" lon="1.78705">
        <ele>556</ele>
        <time>2022-08-05T09:23:13.000Z</time>
      </trkpt>
      <trkpt lat="42.95798" lon="1.787">
        <ele>556</ele>
        <time>2022-08-05T09:23:15.000Z</time>
      </trkpt>
      <trkpt lat="42.95803" lon="1.78692">
        <ele>555</ele>
        <time>2022-08-05T09:23:27.000Z</time>
      </trkpt>
      <trkpt lat="42.95807" lon="1.78683">
        <ele>554</ele>
        <time>2022-08-05T09:23:29.000Z</time>
      </trkpt>
      <trkpt lat="42.9581" lon="1.78677">
        <ele>554</ele>
        <time>2022-08-05T09:23:31.000Z</time>
      </trkpt>
      <trkpt lat="42.9581" lon="1.7867">
        <ele>554</ele>
        <time>2022-08-05T09:23:34.000Z</time>
      </trkpt>
      <trkpt lat="42.95812" lon="1.78663">
        <ele>553</ele>
        <time>2022-08-05T09:23:51.000Z</time>
      </trkpt>
      <trkpt lat="42.95815" lon="1.78658">
        <ele>552</ele>
        <time>2022-08-05T09:23:53.000Z</time>
      </trkpt>
      <trkpt lat="42.9582" lon="1.78648">
        <ele>552</ele>
        <time>2022-08-05T09:23:55.000Z</time>
      </trkpt>
      <trkpt lat="42.95823" lon="1.7864">
        <ele>552</ele>
        <time>2022-08-05T09:23:57.000Z</time>
      </trkpt>
      <trkpt lat="42.95828" lon="1.78632">
        <ele>551</ele>
        <time>2022-08-05T09:23:59.000Z</time>
      </trkpt>
      <trkpt lat="42.9583" lon="1.78625">
        <ele>550</ele>
        <time>2022-08-05T09:24:01.000Z</time>
      </trkpt>
      <trkpt lat="42.95832" lon="1.78617">
        <ele>550</ele>
        <time>2022-08-05T09:24:03.000Z</time>
      </trkpt>
      <trkpt lat="42.95833" lon="1.78608">
        <ele>549</ele>
        <time>2022-08-05T09:24:05.000Z</time>
      </trkpt>
      <trkpt lat="42.95833" lon="1.78602">
        <ele>548</ele>
        <time>2022-08-05T09:24:06.000Z</time>
      </trkpt>
      <trkpt lat="42.95833" lon="1.78592">
        <ele>548</ele>
        <time>2022-08-05T09:24:08.000Z</time>
      </trkpt>
      <trkpt lat="42.95833" lon="1.78583">
        <ele>547</ele>
        <time>2022-08-05T09:24:10.000Z</time>
      </trkpt>
      <trkpt lat="42.95835" lon="1.78577">
        <ele>546</ele>
        <time>2022-08-05T09:24:12.000Z</time>
      </trkpt>
      <trkpt lat="42.95837" lon="1.78572">
        <ele>545</ele>
        <time>2022-08-05T09:24:14.000Z</time>
      </trkpt>
      <trkpt lat="42.95838" lon="1.78565">
        <ele>544</ele>
        <time>2022-08-05T09:24:17.000Z</time>
      </trkpt>
      <trkpt lat="42.95842" lon="1.78557">
        <ele>542</ele>
        <time>2022-08-05T09:24:20.000Z</time>
      </trkpt>
      <trkpt lat="42.9584" lon="1.78552">
        <ele>541</ele>
        <time>2022-08-05T09:24:24.000Z</time>
      </trkpt>
      <trkpt lat="42.95835" lon="1.78547">
        <ele>539</ele>
        <time>2022-08-05T09:24:27.000Z</time>
      </trkpt>
      <trkpt lat="42.9583" lon="1.78545">
        <ele>538</ele>
        <time>2022-08-05T09:24:29.000Z</time>
      </trkpt>
      <trkpt lat="42.95822" lon="1.78545">
        <ele>537</ele>
        <time>2022-08-05T09:24:31.000Z</time>
      </trkpt>
      <trkpt lat="42.95815" lon="1.78543">
        <ele>536</ele>
        <time>2022-08-05T09:24:33.000Z</time>
      </trkpt>
      <trkpt lat="42.95808" lon="1.7854">
        <ele>535</ele>
        <time>2022-08-05T09:24:35.000Z</time>
      </trkpt>
      <trkpt lat="42.95803" lon="1.78538">
        <ele>534</ele>
        <time>2022-08-05T09:24:37.000Z</time>
      </trkpt>
      <trkpt lat="42.95798" lon="1.78537">
        <ele>533</ele>
        <time>2022-08-05T09:24:39.000Z</time>
      </trkpt>
      <trkpt lat="42.95793" lon="1.7854">
        <ele>531</ele>
        <time>2022-08-05T09:24:42.000Z</time>
      </trkpt>
      <trkpt lat="42.95788" lon="1.7854">
        <ele>530</ele>
        <time>2022-08-05T09:24:45.000Z</time>
      </trkpt>
      <trkpt lat="42.95783" lon="1.7854">
        <ele>528</ele>
        <time>2022-08-05T09:24:48.000Z</time>
      </trkpt>
      <trkpt lat="42.9578" lon="1.78543">
        <ele>527</ele>
        <time>2022-08-05T09:24:50.000Z</time>
      </trkpt>
      <trkpt lat="42.95773" lon="1.78543">
        <ele>525</ele>
        <time>2022-08-05T09:24:53.000Z</time>
      </trkpt>
      <trkpt lat="42.95768" lon="1.7854">
        <ele>524</ele>
        <time>2022-08-05T09:24:56.000Z</time>
      </trkpt>
      <trkpt lat="42.95763" lon="1.78535">
        <ele>522</ele>
        <time>2022-08-05T09:24:59.000Z</time>
      </trkpt>
      <trkpt lat="42.95758" lon="1.78532">
        <ele>520</ele>
        <time>2022-08-05T09:25:02.000Z</time>
      </trkpt>
      <trkpt lat="42.95755" lon="1.7853">
        <ele>519</ele>
        <time>2022-08-05T09:25:04.000Z</time>
      </trkpt>
      <trkpt lat="42.95748" lon="1.78527">
        <ele>518</ele>
        <time>2022-08-05T09:25:06.000Z</time>
      </trkpt>
      <trkpt lat="42.95743" lon="1.78523">
        <ele>517</ele>
        <time>2022-08-05T09:25:08.000Z</time>
      </trkpt>
      <trkpt lat="42.95742" lon="1.78517">
        <ele>508</ele>
        <time>2022-08-05T09:26:05.000Z</time>
      </trkpt>
      <trkpt lat="42.95737" lon="1.78512">
        <ele>508</ele>
        <time>2022-08-05T09:26:06.000Z</time>
      </trkpt>
      <trkpt lat="42.95732" lon="1.78508">
        <ele>508</ele>
        <time>2022-08-05T09:26:08.000Z</time>
      </trkpt>
      <trkpt lat="42.95723" lon="1.78507">
        <ele>507</ele>
        <time>2022-08-05T09:26:10.000Z</time>
      </trkpt>
      <trkpt lat="42.95717" lon="1.78503">
        <ele>507</ele>
        <time>2022-08-05T09:26:12.000Z</time>
      </trkpt>
      <trkpt lat="42.95712" lon="1.785">
        <ele>507</ele>
        <time>2022-08-05T09:26:14.000Z</time>
      </trkpt>
      <trkpt lat="42.95707" lon="1.78495">
        <ele>506</ele>
        <time>2022-08-05T09:26:16.000Z</time>
      </trkpt>
      <trkpt lat="42.95703" lon="1.7849">
        <ele>506</ele>
        <time>2022-08-05T09:26:18.000Z</time>
      </trkpt>
      <trkpt lat="42.95698" lon="1.78482">
        <ele>506</ele>
        <time>2022-08-05T09:26:20.000Z</time>
      </trkpt>
      <trkpt lat="42.95695" lon="1.78472">
        <ele>506</ele>
        <time>2022-08-05T09:26:22.000Z</time>
      </trkpt>
      <trkpt lat="42.95692" lon="1.78465">
        <ele>506</ele>
        <time>2022-08-05T09:26:24.000Z</time>
      </trkpt>
      <trkpt lat="42.9569" lon="1.78458">
        <ele>505</ele>
        <time>2022-08-05T09:26:26.000Z</time>
      </trkpt>
      <trkpt lat="42.95693" lon="1.7845">
        <ele>505</ele>
        <time>2022-08-05T09:26:28.000Z</time>
      </trkpt>
      <trkpt lat="42.95693" lon="1.78443">
        <ele>505</ele>
        <time>2022-08-05T09:26:30.000Z</time>
      </trkpt>
      <trkpt lat="42.9569" lon="1.78438">
        <ele>505</ele>
        <time>2022-08-05T09:26:33.000Z</time>
      </trkpt>
      <trkpt lat="42.95685" lon="1.7844">
        <ele>505</ele>
        <time>2022-08-05T09:26:36.000Z</time>
      </trkpt>
      <trkpt lat="42.9568" lon="1.78442">
        <ele>505</ele>
        <time>2022-08-05T09:26:39.000Z</time>
      </trkpt>
      <trkpt lat="42.95673" lon="1.78447">
        <ele>505</ele>
        <time>2022-08-05T09:26:43.000Z</time>
      </trkpt>
      <trkpt lat="42.9567" lon="1.78452">
        <ele>505</ele>
        <time>2022-08-05T09:26:46.000Z</time>
      </trkpt>
      <trkpt lat="42.95667" lon="1.78457">
        <ele>505</ele>
        <time>2022-08-05T09:26:49.000Z</time>
      </trkpt>
      <trkpt lat="42.95663" lon="1.78463">
        <ele>505</ele>
        <time>2022-08-05T09:26:52.000Z</time>
      </trkpt>
      <trkpt lat="42.95662" lon="1.78468">
        <ele>505</ele>
        <time>2022-08-05T09:26:54.000Z</time>
      </trkpt>
      <trkpt lat="42.95658" lon="1.78475">
        <ele>505</ele>
        <time>2022-08-05T09:26:56.000Z</time>
      </trkpt>
      <trkpt lat="42.95657" lon="1.7848">
        <ele>506</ele>
        <time>2022-08-05T09:26:58.000Z</time>
      </trkpt>
      <trkpt lat="42.95653" lon="1.78487">
        <ele>506</ele>
        <time>2022-08-05T09:27:00.000Z</time>
      </trkpt>
      <trkpt lat="42.95652" lon="1.78492">
        <ele>506</ele>
        <time>2022-08-05T09:27:02.000Z</time>
      </trkpt>
      <trkpt lat="42.95648" lon="1.78497">
        <ele>506</ele>
        <time>2022-08-05T09:27:04.000Z</time>
      </trkpt>
      <trkpt lat="42.95647" lon="1.78503">
        <ele>506</ele>
        <time>2022-08-05T09:27:06.000Z</time>
      </trkpt>
      <trkpt lat="42.95645" lon="1.78512">
        <ele>506</ele>
        <time>2022-08-05T09:27:08.000Z</time>
      </trkpt>
      <trkpt lat="42.95642" lon="1.78518">
        <ele>506</ele>
        <time>2022-08-05T09:27:11.000Z</time>
      </trkpt>
      <trkpt lat="42.95638" lon="1.78525">
        <ele>507</ele>
        <time>2022-08-05T09:27:14.000Z</time>
      </trkpt>
      <trkpt lat="42.95635" lon="1.78532">
        <ele>507</ele>
        <time>2022-08-05T09:27:17.000Z</time>
      </trkpt>
      <trkpt lat="42.95635" lon="1.78538">
        <ele>508</ele>
        <time>2022-08-05T09:27:20.000Z</time>
      </trkpt>
      <trkpt lat="42.95633" lon="1.78545">
        <ele>508</ele>
        <time>2022-08-05T09:27:23.000Z</time>
      </trkpt>
      <trkpt lat="42.95633" lon="1.78552">
        <ele>508</ele>
        <time>2022-08-05T09:27:25.000Z</time>
      </trkpt>
      <trkpt lat="42.95632" lon="1.78563">
        <ele>509</ele>
        <time>2022-08-05T09:27:27.000Z</time>
      </trkpt>
      <trkpt lat="42.95632" lon="1.7857">
        <ele>509</ele>
        <time>2022-08-05T09:27:29.000Z</time>
      </trkpt>
      <trkpt lat="42.9563" lon="1.78575">
        <ele>509</ele>
        <time>2022-08-05T09:27:31.000Z</time>
      </trkpt>
      <trkpt lat="42.95627" lon="1.78582">
        <ele>510</ele>
        <time>2022-08-05T09:27:34.000Z</time>
      </trkpt>
      <trkpt lat="42.95622" lon="1.78588">
        <ele>510</ele>
        <time>2022-08-05T09:27:37.000Z</time>
      </trkpt>
      <trkpt lat="42.95618" lon="1.78593">
        <ele>511</ele>
        <time>2022-08-05T09:27:40.000Z</time>
      </trkpt>
      <trkpt lat="42.95613" lon="1.78598">
        <ele>512</ele>
        <time>2022-08-05T09:27:43.000Z</time>
      </trkpt>
      <trkpt lat="42.9561" lon="1.78602">
        <ele>512</ele>
        <time>2022-08-05T09:27:45.000Z</time>
      </trkpt>
      <trkpt lat="42.95607" lon="1.78605">
        <ele>512</ele>
        <time>2022-08-05T09:27:47.000Z</time>
      </trkpt>
      <trkpt lat="42.95602" lon="1.78607">
        <ele>513</ele>
        <time>2022-08-05T09:27:49.000Z</time>
      </trkpt>
      <trkpt lat="42.95597" lon="1.78612">
        <ele>513</ele>
        <time>2022-08-05T09:27:52.000Z</time>
      </trkpt>
      <trkpt lat="42.95592" lon="1.78615">
        <ele>513</ele>
        <time>2022-08-05T09:27:55.000Z</time>
      </trkpt>
      <trkpt lat="42.95587" lon="1.78617">
        <ele>514</ele>
        <time>2022-08-05T09:27:57.000Z</time>
      </trkpt>
      <trkpt lat="42.95583" lon="1.7862">
        <ele>514</ele>
        <time>2022-08-05T09:27:59.000Z</time>
      </trkpt>
      <trkpt lat="42.95578" lon="1.78625">
        <ele>514</ele>
        <time>2022-08-05T09:28:02.000Z</time>
      </trkpt>
      <trkpt lat="42.95577" lon="1.78632">
        <ele>515</ele>
        <time>2022-08-05T09:28:05.000Z</time>
      </trkpt>
      <trkpt lat="42.95572" lon="1.78637">
        <ele>515</ele>
        <time>2022-08-05T09:28:07.000Z</time>
      </trkpt>
      <trkpt lat="42.95568" lon="1.78642">
        <ele>515</ele>
        <time>2022-08-05T09:28:09.000Z</time>
      </trkpt>
      <trkpt lat="42.95563" lon="1.78648">
        <ele>515</ele>
        <time>2022-08-05T09:28:11.000Z</time>
      </trkpt>
      <trkpt lat="42.9556" lon="1.78652">
        <ele>515</ele>
        <time>2022-08-05T09:28:13.000Z</time>
      </trkpt>
      <trkpt lat="42.95555" lon="1.78657">
        <ele>516</ele>
        <time>2022-08-05T09:28:16.000Z</time>
      </trkpt>
      <trkpt lat="42.95552" lon="1.78662">
        <ele>516</ele>
        <time>2022-08-05T09:28:59.000Z</time>
      </trkpt>
      <trkpt lat="42.95543" lon="1.78665">
        <ele>516</ele>
        <time>2022-08-05T09:29:01.000Z</time>
      </trkpt>
      <trkpt lat="42.9554" lon="1.78668">
        <ele>516</ele>
        <time>2022-08-05T09:29:03.000Z</time>
      </trkpt>
      <trkpt lat="42.95533" lon="1.78672">
        <ele>516</ele>
        <time>2022-08-05T09:29:06.000Z</time>
      </trkpt>
      <trkpt lat="42.95528" lon="1.78673">
        <ele>516</ele>
        <time>2022-08-05T09:29:09.000Z</time>
      </trkpt>
      <trkpt lat="42.95525" lon="1.78677">
        <ele>516</ele>
        <time>2022-08-05T09:29:11.000Z</time>
      </trkpt>
      <trkpt lat="42.9552" lon="1.78678">
        <ele>516</ele>
        <time>2022-08-05T09:29:13.000Z</time>
      </trkpt>
      <trkpt lat="42.95515" lon="1.78677">
        <ele>516</ele>
        <time>2022-08-05T09:29:16.000Z</time>
      </trkpt>
      <trkpt lat="42.95508" lon="1.78677">
        <ele>516</ele>
        <time>2022-08-05T09:29:19.000Z</time>
      </trkpt>
      <trkpt lat="42.95502" lon="1.78677">
        <ele>515</ele>
        <time>2022-08-05T09:29:21.000Z</time>
      </trkpt>
      <trkpt lat="42.95497" lon="1.78678">
        <ele>515</ele>
        <time>2022-08-05T09:29:24.000Z</time>
      </trkpt>
      <trkpt lat="42.9549" lon="1.7868">
        <ele>514</ele>
        <time>2022-08-05T09:29:41.000Z</time>
      </trkpt>
      <trkpt lat="42.95483" lon="1.7869">
        <ele>513</ele>
        <time>2022-08-05T09:30:13.000Z</time>
      </trkpt>
      <trkpt lat="42.95478" lon="1.78693">
        <ele>514</ele>
        <time>2022-08-05T09:30:18.000Z</time>
      </trkpt>
      <trkpt lat="42.95477" lon="1.787">
        <ele>514</ele>
        <time>2022-08-05T09:30:24.000Z</time>
      </trkpt>
      <trkpt lat="42.95472" lon="1.78703">
        <ele>514</ele>
        <time>2022-08-05T09:30:30.000Z</time>
      </trkpt>
      <trkpt lat="42.95472" lon="1.78712">
        <ele>516</ele>
        <time>2022-08-05T09:31:19.000Z</time>
      </trkpt>
      <trkpt lat="42.9547" lon="1.78718">
        <ele>517</ele>
        <time>2022-08-05T09:31:26.000Z</time>
      </trkpt>
      <trkpt lat="42.95468" lon="1.78725">
        <ele>517</ele>
        <time>2022-08-05T09:31:31.000Z</time>
      </trkpt>
      <trkpt lat="42.95465" lon="1.7873">
        <ele>518</ele>
        <time>2022-08-05T09:31:42.000Z</time>
      </trkpt>
      <trkpt lat="42.95463" lon="1.78737">
        <ele>519</ele>
        <time>2022-08-05T09:31:49.000Z</time>
      </trkpt>
      <trkpt lat="42.95463" lon="1.78742">
        <ele>520</ele>
        <time>2022-08-05T09:31:55.000Z</time>
      </trkpt>
      <trkpt lat="42.95462" lon="1.78748">
        <ele>521</ele>
        <time>2022-08-05T09:32:03.000Z</time>
      </trkpt>
      <trkpt lat="42.95462" lon="1.78755">
        <ele>522</ele>
        <time>2022-08-05T09:32:11.000Z</time>
      </trkpt>
      <trkpt lat="42.95458" lon="1.7876">
        <ele>523</ele>
        <time>2022-08-05T09:32:18.000Z</time>
      </trkpt>
      <trkpt lat="42.95455" lon="1.78765">
        <ele>524</ele>
        <time>2022-08-05T09:32:25.000Z</time>
      </trkpt>
      <trkpt lat="42.95457" lon="1.78772">
        <ele>526</ele>
        <time>2022-08-05T09:32:45.000Z</time>
      </trkpt>
      <trkpt lat="42.95452" lon="1.78775">
        <ele>527</ele>
        <time>2022-08-05T09:32:53.000Z</time>
      </trkpt>
      <trkpt lat="42.95448" lon="1.7878">
        <ele>528</ele>
        <time>2022-08-05T09:32:59.000Z</time>
      </trkpt>
      <trkpt lat="42.95443" lon="1.78783">
        <ele>528</ele>
        <time>2022-08-05T09:33:07.000Z</time>
      </trkpt>
      <trkpt lat="42.95438" lon="1.78788">
        <ele>529</ele>
        <time>2022-08-05T09:33:10.000Z</time>
      </trkpt>
      <trkpt lat="42.95437" lon="1.78795">
        <ele>529</ele>
        <time>2022-08-05T09:33:12.000Z</time>
      </trkpt>
      <trkpt lat="42.95432" lon="1.788">
        <ele>529</ele>
        <time>2022-08-05T09:33:15.000Z</time>
      </trkpt>
      <trkpt lat="42.95423" lon="1.78805">
        <ele>529</ele>
        <time>2022-08-05T09:33:17.000Z</time>
      </trkpt>
      <trkpt lat="42.95417" lon="1.78807">
        <ele>529</ele>
        <time>2022-08-05T09:33:19.000Z</time>
      </trkpt>
      <trkpt lat="42.95412" lon="1.78808">
        <ele>529</ele>
        <time>2022-08-05T09:33:21.000Z</time>
      </trkpt>
      <trkpt lat="42.95407" lon="1.7881">
        <ele>530</ele>
        <time>2022-08-05T09:33:24.000Z</time>
      </trkpt>
      <trkpt lat="42.95402" lon="1.78813">
        <ele>530</ele>
        <time>2022-08-05T09:33:26.000Z</time>
      </trkpt>
      <trkpt lat="42.95397" lon="1.78815">
        <ele>530</ele>
        <time>2022-08-05T09:33:28.000Z</time>
      </trkpt>
      <trkpt lat="42.95392" lon="1.78817">
        <ele>530</ele>
        <time>2022-08-05T09:33:30.000Z</time>
      </trkpt>
      <trkpt lat="42.95387" lon="1.78817">
        <ele>530</ele>
        <time>2022-08-05T09:33:32.000Z</time>
      </trkpt>
      <trkpt lat="42.95382" lon="1.78817">
        <ele>530</ele>
        <time>2022-08-05T09:33:34.000Z</time>
      </trkpt>
      <trkpt lat="42.95377" lon="1.78815">
        <ele>530</ele>
        <time>2022-08-05T09:33:36.000Z</time>
      </trkpt>
      <trkpt lat="42.9537" lon="1.78815">
        <ele>530</ele>
        <time>2022-08-05T09:33:39.000Z</time>
      </trkpt>
      <trkpt lat="42.95363" lon="1.78815">
        <ele>530</ele>
        <time>2022-08-05T09:33:41.000Z</time>
      </trkpt>
      <trkpt lat="42.95358" lon="1.78812">
        <ele>530</ele>
        <time>2022-08-05T09:33:43.000Z</time>
      </trkpt>
      <trkpt lat="42.95357" lon="1.78805">
        <ele>530</ele>
        <time>2022-08-05T09:33:47.000Z</time>
      </trkpt>
      <trkpt lat="42.95352" lon="1.788">
        <ele>530</ele>
        <time>2022-08-05T09:34:22.000Z</time>
      </trkpt>
      <trkpt lat="42.95343" lon="1.78797">
        <ele>530</ele>
        <time>2022-08-05T09:34:23.000Z</time>
      </trkpt>
      <trkpt lat="42.95335" lon="1.78795">
        <ele>530</ele>
        <time>2022-08-05T09:34:24.000Z</time>
      </trkpt>
      <trkpt lat="42.9533" lon="1.78795">
        <ele>530</ele>
        <time>2022-08-05T09:34:25.000Z</time>
      </trkpt>
      <trkpt lat="42.95325" lon="1.78793">
        <ele>530</ele>
        <time>2022-08-05T09:34:27.000Z</time>
      </trkpt>
      <trkpt lat="42.9532" lon="1.7879">
        <ele>530</ele>
        <time>2022-08-05T09:34:30.000Z</time>
      </trkpt>
      <trkpt lat="42.95312" lon="1.78788">
        <ele>530</ele>
        <time>2022-08-05T09:34:33.000Z</time>
      </trkpt>
      <trkpt lat="42.95307" lon="1.78788">
        <ele>530</ele>
        <time>2022-08-05T09:34:34.000Z</time>
      </trkpt>
      <trkpt lat="42.953" lon="1.7879">
        <ele>530</ele>
        <time>2022-08-05T09:34:36.000Z</time>
      </trkpt>
      <trkpt lat="42.95295" lon="1.7879">
        <ele>530</ele>
        <time>2022-08-05T09:34:39.000Z</time>
      </trkpt>
      <trkpt lat="42.9529" lon="1.78793">
        <ele>530</ele>
        <time>2022-08-05T09:34:42.000Z</time>
      </trkpt>
      <trkpt lat="42.95285" lon="1.78797">
        <ele>530</ele>
        <time>2022-08-05T09:34:46.000Z</time>
      </trkpt>
      <trkpt lat="42.9528" lon="1.78802">
        <ele>530</ele>
        <time>2022-08-05T09:34:50.000Z</time>
      </trkpt>
      <trkpt lat="42.95275" lon="1.78803">
        <ele>530</ele>
        <time>2022-08-05T09:34:53.000Z</time>
      </trkpt>
      <trkpt lat="42.95268" lon="1.78807">
        <ele>530</ele>
        <time>2022-08-05T09:34:56.000Z</time>
      </trkpt>
      <trkpt lat="42.95263" lon="1.78812">
        <ele>530</ele>
        <time>2022-08-05T09:35:05.000Z</time>
      </trkpt>
      <trkpt lat="42.9526" lon="1.78813">
        <ele>531</ele>
        <time>2022-08-05T09:35:08.000Z</time>
      </trkpt>
      <trkpt lat="42.95253" lon="1.78817">
        <ele>531</ele>
        <time>2022-08-05T09:35:11.000Z</time>
      </trkpt>
      <trkpt lat="42.9525" lon="1.78822">
        <ele>531</ele>
        <time>2022-08-05T09:35:14.000Z</time>
      </trkpt>
      <trkpt lat="42.95245" lon="1.78825">
        <ele>531</ele>
        <time>2022-08-05T09:35:17.000Z</time>
      </trkpt>
      <trkpt lat="42.95242" lon="1.78827">
        <ele>532</ele>
        <time>2022-08-05T09:35:20.000Z</time>
      </trkpt>
      <trkpt lat="42.95237" lon="1.7883">
        <ele>532</ele>
        <time>2022-08-05T09:35:22.000Z</time>
      </trkpt>
      <trkpt lat="42.95232" lon="1.78832">
        <ele>532</ele>
        <time>2022-08-05T09:35:24.000Z</time>
      </trkpt>
      <trkpt lat="42.95227" lon="1.78832">
        <ele>532</ele>
        <time>2022-08-05T09:35:26.000Z</time>
      </trkpt>
      <trkpt lat="42.95222" lon="1.78832">
        <ele>532</ele>
        <time>2022-08-05T09:35:29.000Z</time>
      </trkpt>
      <trkpt lat="42.95217" lon="1.78835">
        <ele>532</ele>
        <time>2022-08-05T09:35:39.000Z</time>
      </trkpt>
      <trkpt lat="42.95212" lon="1.78837">
        <ele>533</ele>
        <time>2022-08-05T09:35:43.000Z</time>
      </trkpt>
      <trkpt lat="42.95207" lon="1.78842">
        <ele>533</ele>
        <time>2022-08-05T09:35:49.000Z</time>
      </trkpt>
      <trkpt lat="42.95202" lon="1.78843">
        <ele>533</ele>
        <time>2022-08-05T09:35:52.000Z</time>
      </trkpt>
      <trkpt lat="42.95197" lon="1.78848">
        <ele>533</ele>
        <time>2022-08-05T09:35:56.000Z</time>
      </trkpt>
      <trkpt lat="42.95192" lon="1.78852">
        <ele>533</ele>
        <time>2022-08-05T09:36:00.000Z</time>
      </trkpt>
      <trkpt lat="42.95187" lon="1.78853">
        <ele>533</ele>
        <time>2022-08-05T09:36:04.000Z</time>
      </trkpt>
      <trkpt lat="42.95182" lon="1.78855">
        <ele>532</ele>
        <time>2022-08-05T09:36:09.000Z</time>
      </trkpt>
      <trkpt lat="42.95177" lon="1.78857">
        <ele>532</ele>
        <time>2022-08-05T09:36:12.000Z</time>
      </trkpt>
      <trkpt lat="42.9517" lon="1.78857">
        <ele>531</ele>
        <time>2022-08-05T09:36:36.000Z</time>
      </trkpt>
      <trkpt lat="42.95167" lon="1.78853">
        <ele>531</ele>
        <time>2022-08-05T09:36:42.000Z</time>
      </trkpt>
      <trkpt lat="42.9516" lon="1.78852">
        <ele>530</ele>
        <time>2022-08-05T09:36:47.000Z</time>
      </trkpt>
      <trkpt lat="42.95153" lon="1.78852">
        <ele>529</ele>
        <time>2022-08-05T09:36:50.000Z</time>
      </trkpt>
      <trkpt lat="42.95148" lon="1.78852">
        <ele>529</ele>
        <time>2022-08-05T09:36:51.000Z</time>
      </trkpt>
      <trkpt lat="42.95142" lon="1.78852">
        <ele>528</ele>
        <time>2022-08-05T09:36:53.000Z</time>
      </trkpt>
      <trkpt lat="42.95137" lon="1.78852">
        <ele>527</ele>
        <time>2022-08-05T09:36:56.000Z</time>
      </trkpt>
      <trkpt lat="42.9513" lon="1.78852">
        <ele>527</ele>
        <time>2022-08-05T09:36:58.000Z</time>
      </trkpt>
      <trkpt lat="42.95123" lon="1.7885">
        <ele>526</ele>
        <time>2022-08-05T09:37:01.000Z</time>
      </trkpt>
      <trkpt lat="42.95118" lon="1.7885">
        <ele>526</ele>
        <time>2022-08-05T09:37:04.000Z</time>
      </trkpt>
      <trkpt lat="42.95113" lon="1.78848">
        <ele>525</ele>
        <time>2022-08-05T09:37:07.000Z</time>
      </trkpt>
      <trkpt lat="42.95108" lon="1.78843">
        <ele>524</ele>
        <time>2022-08-05T09:37:10.000Z</time>
      </trkpt>
      <trkpt lat="42.95103" lon="1.7884">
        <ele>523</ele>
        <time>2022-08-05T09:37:13.000Z</time>
      </trkpt>
      <trkpt lat="42.95098" lon="1.78833">
        <ele>521</ele>
        <time>2022-08-05T09:37:16.000Z</time>
      </trkpt>
      <trkpt lat="42.9509" lon="1.78828">
        <ele>520</ele>
        <time>2022-08-05T09:37:18.000Z</time>
      </trkpt>
      <trkpt lat="42.95077" lon="1.78825">
        <ele>519</ele>
        <time>2022-08-05T09:37:20.000Z</time>
      </trkpt>
      <trkpt lat="42.95067" lon="1.78822">
        <ele>519</ele>
        <time>2022-08-05T09:37:21.000Z</time>
      </trkpt>
      <trkpt lat="42.9506" lon="1.78818">
        <ele>519</ele>
        <time>2022-08-05T09:37:22.000Z</time>
      </trkpt>
      <trkpt lat="42.95052" lon="1.78815">
        <ele>518</ele>
        <time>2022-08-05T09:37:23.000Z</time>
      </trkpt>
      <trkpt lat="42.95045" lon="1.78813">
        <ele>518</ele>
        <time>2022-08-05T09:37:25.000Z</time>
      </trkpt>
      <trkpt lat="42.9504" lon="1.78808">
        <ele>517</ele>
        <time>2022-08-05T09:37:28.000Z</time>
      </trkpt>
      <trkpt lat="42.95035" lon="1.78807">
        <ele>517</ele>
        <time>2022-08-05T09:37:30.000Z</time>
      </trkpt>
      <trkpt lat="42.95028" lon="1.78803">
        <ele>516</ele>
        <time>2022-08-05T09:37:32.000Z</time>
      </trkpt>
      <trkpt lat="42.9502" lon="1.788">
        <ele>516</ele>
        <time>2022-08-05T09:37:34.000Z</time>
      </trkpt>
      <trkpt lat="42.95012" lon="1.78798">
        <ele>516</ele>
        <time>2022-08-05T09:37:36.000Z</time>
      </trkpt>
      <trkpt lat="42.95005" lon="1.78797">
        <ele>515</ele>
        <time>2022-08-05T09:37:38.000Z</time>
      </trkpt>
      <trkpt lat="42.95" lon="1.78793">
        <ele>515</ele>
        <time>2022-08-05T09:37:40.000Z</time>
      </trkpt>
      <trkpt lat="42.94997" lon="1.78793">
        <ele>515</ele>
        <time>2022-08-05T09:37:41.000Z</time>
      </trkpt>
      <trkpt lat="42.9499" lon="1.78792">
        <ele>515</ele>
        <time>2022-08-05T09:37:44.000Z</time>
      </trkpt>
      <trkpt lat="42.94985" lon="1.7879">
        <ele>515</ele>
        <time>2022-08-05T09:37:46.000Z</time>
      </trkpt>
      <trkpt lat="42.9498" lon="1.78787">
        <ele>515</ele>
        <time>2022-08-05T09:37:48.000Z</time>
      </trkpt>
      <trkpt lat="42.94975" lon="1.78785">
        <ele>515</ele>
        <time>2022-08-05T09:37:50.000Z</time>
      </trkpt>
      <trkpt lat="42.94968" lon="1.78785">
        <ele>515</ele>
        <time>2022-08-05T09:37:52.000Z</time>
      </trkpt>
      <trkpt lat="42.94963" lon="1.78783">
        <ele>515</ele>
        <time>2022-08-05T09:37:54.000Z</time>
      </trkpt>
      <trkpt lat="42.94958" lon="1.78783">
        <ele>515</ele>
        <time>2022-08-05T09:37:55.000Z</time>
      </trkpt>
      <trkpt lat="42.94952" lon="1.78785">
        <ele>515</ele>
        <time>2022-08-05T09:37:57.000Z</time>
      </trkpt>
      <trkpt lat="42.94947" lon="1.78787">
        <ele>514</ele>
        <time>2022-08-05T09:38:01.000Z</time>
      </trkpt>
      <trkpt lat="42.9494" lon="1.78788">
        <ele>514</ele>
        <time>2022-08-05T09:40:23.000Z</time>
      </trkpt>
      <trkpt lat="42.94933" lon="1.7879">
        <ele>514</ele>
        <time>2022-08-05T09:40:25.000Z</time>
      </trkpt>
      <trkpt lat="42.94925" lon="1.78793">
        <ele>514</ele>
        <time>2022-08-05T09:40:27.000Z</time>
      </trkpt>
      <trkpt lat="42.94917" lon="1.78793">
        <ele>513</ele>
        <time>2022-08-05T09:40:28.000Z</time>
      </trkpt>
      <trkpt lat="42.9491" lon="1.78795">
        <ele>513</ele>
        <time>2022-08-05T09:40:29.000Z</time>
      </trkpt>
      <trkpt lat="42.94902" lon="1.78797">
        <ele>513</ele>
        <time>2022-08-05T09:40:30.000Z</time>
      </trkpt>
      <trkpt lat="42.94895" lon="1.78797">
        <ele>512</ele>
        <time>2022-08-05T09:40:31.000Z</time>
      </trkpt>
      <trkpt lat="42.94888" lon="1.78797">
        <ele>512</ele>
        <time>2022-08-05T09:40:32.000Z</time>
      </trkpt>
      <trkpt lat="42.9488" lon="1.78797">
        <ele>511</ele>
        <time>2022-08-05T09:40:33.000Z</time>
      </trkpt>
      <trkpt lat="42.94873" lon="1.78797">
        <ele>510</ele>
        <time>2022-08-05T09:40:34.000Z</time>
      </trkpt>
      <trkpt lat="42.94867" lon="1.78797">
        <ele>510</ele>
        <time>2022-08-05T09:40:35.000Z</time>
      </trkpt>
      <trkpt lat="42.94862" lon="1.78798">
        <ele>509</ele>
        <time>2022-08-05T09:40:36.000Z</time>
      </trkpt>
      <trkpt lat="42.94853" lon="1.788">
        <ele>508</ele>
        <time>2022-08-05T09:40:38.000Z</time>
      </trkpt>
      <trkpt lat="42.94847" lon="1.78802">
        <ele>507</ele>
        <time>2022-08-05T09:40:40.000Z</time>
      </trkpt>
      <trkpt lat="42.9484" lon="1.78803">
        <ele>506</ele>
        <time>2022-08-05T09:40:42.000Z</time>
      </trkpt>
      <trkpt lat="42.94835" lon="1.78805">
        <ele>505</ele>
        <time>2022-08-05T09:40:44.000Z</time>
      </trkpt>
      <trkpt lat="42.94832" lon="1.78808">
        <ele>504</ele>
        <time>2022-08-05T09:40:46.000Z</time>
      </trkpt>
      <trkpt lat="42.94828" lon="1.78813">
        <ele>504</ele>
        <time>2022-08-05T09:40:48.000Z</time>
      </trkpt>
      <trkpt lat="42.94827" lon="1.7882">
        <ele>503</ele>
        <time>2022-08-05T09:40:50.000Z</time>
      </trkpt>
      <trkpt lat="42.94825" lon="1.78827">
        <ele>502</ele>
        <time>2022-08-05T09:40:52.000Z</time>
      </trkpt>
      <trkpt lat="42.94823" lon="1.78833">
        <ele>502</ele>
        <time>2022-08-05T09:40:54.000Z</time>
      </trkpt>
      <trkpt lat="42.9482" lon="1.7884">
        <ele>501</ele>
        <time>2022-08-05T09:40:56.000Z</time>
      </trkpt>
      <trkpt lat="42.94817" lon="1.78848">
        <ele>501</ele>
        <time>2022-08-05T09:40:58.000Z</time>
      </trkpt>
      <trkpt lat="42.94813" lon="1.78855">
        <ele>500</ele>
        <time>2022-08-05T09:41:00.000Z</time>
      </trkpt>
      <trkpt lat="42.9481" lon="1.78863">
        <ele>500</ele>
        <time>2022-08-05T09:41:02.000Z</time>
      </trkpt>
      <trkpt lat="42.94805" lon="1.78868">
        <ele>500</ele>
        <time>2022-08-05T09:41:04.000Z</time>
      </trkpt>
      <trkpt lat="42.948" lon="1.78873">
        <ele>499</ele>
        <time>2022-08-05T09:41:06.000Z</time>
      </trkpt>
      <trkpt lat="42.94797" lon="1.78877">
        <ele>499</ele>
        <time>2022-08-05T09:41:08.000Z</time>
      </trkpt>
      <trkpt lat="42.94792" lon="1.78882">
        <ele>499</ele>
        <time>2022-08-05T09:41:11.000Z</time>
      </trkpt>
      <trkpt lat="42.94788" lon="1.78885">
        <ele>499</ele>
        <time>2022-08-05T09:41:14.000Z</time>
      </trkpt>
      <trkpt lat="42.94783" lon="1.78888">
        <ele>499</ele>
        <time>2022-08-05T09:41:17.000Z</time>
      </trkpt>
      <trkpt lat="42.94777" lon="1.78892">
        <ele>499</ele>
        <time>2022-08-05T09:41:20.000Z</time>
      </trkpt>
      <trkpt lat="42.9477" lon="1.78897">
        <ele>499</ele>
        <time>2022-08-05T09:41:23.000Z</time>
      </trkpt>
      <trkpt lat="42.94767" lon="1.78898">
        <ele>499</ele>
        <time>2022-08-05T09:41:25.000Z</time>
      </trkpt>
      <trkpt lat="42.9476" lon="1.78903">
        <ele>499</ele>
        <time>2022-08-05T09:41:28.000Z</time>
      </trkpt>
      <trkpt lat="42.94755" lon="1.78905">
        <ele>499</ele>
        <time>2022-08-05T09:41:30.000Z</time>
      </trkpt>
      <trkpt lat="42.94748" lon="1.7891">
        <ele>499</ele>
        <time>2022-08-05T09:41:32.000Z</time>
      </trkpt>
      <trkpt lat="42.94742" lon="1.78913">
        <ele>499</ele>
        <time>2022-08-05T09:41:34.000Z</time>
      </trkpt>
      <trkpt lat="42.94737" lon="1.78918">
        <ele>499</ele>
        <time>2022-08-05T09:41:36.000Z</time>
      </trkpt>
      <trkpt lat="42.94732" lon="1.78922">
        <ele>500</ele>
        <time>2022-08-05T09:41:38.000Z</time>
      </trkpt>
      <trkpt lat="42.94725" lon="1.78927">
        <ele>500</ele>
        <time>2022-08-05T09:41:40.000Z</time>
      </trkpt>
      <trkpt lat="42.9472" lon="1.78932">
        <ele>500</ele>
        <time>2022-08-05T09:41:42.000Z</time>
      </trkpt>
      <trkpt lat="42.94717" lon="1.78937">
        <ele>500</ele>
        <time>2022-08-05T09:41:44.000Z</time>
      </trkpt>
      <trkpt lat="42.94713" lon="1.78942">
        <ele>501</ele>
        <time>2022-08-05T09:41:46.000Z</time>
      </trkpt>
      <trkpt lat="42.94708" lon="1.78947">
        <ele>501</ele>
        <time>2022-08-05T09:41:48.000Z</time>
      </trkpt>
      <trkpt lat="42.94705" lon="1.78953">
        <ele>501</ele>
        <time>2022-08-05T09:41:50.000Z</time>
      </trkpt>
      <trkpt lat="42.947" lon="1.78958">
        <ele>501</ele>
        <time>2022-08-05T09:41:52.000Z</time>
      </trkpt>
      <trkpt lat="42.94697" lon="1.78962">
        <ele>501</ele>
        <time>2022-08-05T09:41:54.000Z</time>
      </trkpt>
      <trkpt lat="42.94688" lon="1.7897">
        <ele>502</ele>
        <time>2022-08-05T09:41:56.000Z</time>
      </trkpt>
      <trkpt lat="42.94682" lon="1.78975">
        <ele>502</ele>
        <time>2022-08-05T09:41:58.000Z</time>
      </trkpt>
      <trkpt lat="42.94677" lon="1.7898">
        <ele>502</ele>
        <time>2022-08-05T09:42:00.000Z</time>
      </trkpt>
      <trkpt lat="42.9467" lon="1.78985">
        <ele>503</ele>
        <time>2022-08-05T09:42:02.000Z</time>
      </trkpt>
      <trkpt lat="42.94665" lon="1.78988">
        <ele>503</ele>
        <time>2022-08-05T09:42:04.000Z</time>
      </trkpt>
      <trkpt lat="42.9466" lon="1.78993">
        <ele>503</ele>
        <time>2022-08-05T09:42:06.000Z</time>
      </trkpt>
      <trkpt lat="42.94655" lon="1.79">
        <ele>503</ele>
        <time>2022-08-05T09:42:08.000Z</time>
      </trkpt>
      <trkpt lat="42.94652" lon="1.79007">
        <ele>504</ele>
        <time>2022-08-05T09:42:10.000Z</time>
      </trkpt>
      <trkpt lat="42.94648" lon="1.79015">
        <ele>504</ele>
        <time>2022-08-05T09:42:12.000Z</time>
      </trkpt>
      <trkpt lat="42.94647" lon="1.79023">
        <ele>504</ele>
        <time>2022-08-05T09:42:14.000Z</time>
      </trkpt>
      <trkpt lat="42.94643" lon="1.7903">
        <ele>505</ele>
        <time>2022-08-05T09:42:16.000Z</time>
      </trkpt>
      <trkpt lat="42.9464" lon="1.79038">
        <ele>505</ele>
        <time>2022-08-05T09:42:18.000Z</time>
      </trkpt>
      <trkpt lat="42.94638" lon="1.79047">
        <ele>505</ele>
        <time>2022-08-05T09:42:20.000Z</time>
      </trkpt>
      <trkpt lat="42.94635" lon="1.79055">
        <ele>506</ele>
        <time>2022-08-05T09:42:22.000Z</time>
      </trkpt>
      <trkpt lat="42.94633" lon="1.79062">
        <ele>506</ele>
        <time>2022-08-05T09:42:24.000Z</time>
      </trkpt>
      <trkpt lat="42.9463" lon="1.7907">
        <ele>506</ele>
        <time>2022-08-05T09:42:26.000Z</time>
      </trkpt>
      <trkpt lat="42.94627" lon="1.79077">
        <ele>506</ele>
        <time>2022-08-05T09:42:28.000Z</time>
      </trkpt>
      <trkpt lat="42.94623" lon="1.79083">
        <ele>506</ele>
        <time>2022-08-05T09:42:30.000Z</time>
      </trkpt>
      <trkpt lat="42.9462" lon="1.79088">
        <ele>507</ele>
        <time>2022-08-05T09:42:32.000Z</time>
      </trkpt>
      <trkpt lat="42.94617" lon="1.79093">
        <ele>507</ele>
        <time>2022-08-05T09:42:34.000Z</time>
      </trkpt>
      <trkpt lat="42.94612" lon="1.79097">
        <ele>507</ele>
        <time>2022-08-05T09:42:36.000Z</time>
      </trkpt>
      <trkpt lat="42.94607" lon="1.79102">
        <ele>507</ele>
        <time>2022-08-05T09:42:38.000Z</time>
      </trkpt>
      <trkpt lat="42.94602" lon="1.79107">
        <ele>507</ele>
        <time>2022-08-05T09:42:40.000Z</time>
      </trkpt>
      <trkpt lat="42.94598" lon="1.79112">
        <ele>508</ele>
        <time>2022-08-05T09:42:42.000Z</time>
      </trkpt>
      <trkpt lat="42.94593" lon="1.79117">
        <ele>508</ele>
        <time>2022-08-05T09:42:44.000Z</time>
      </trkpt>
      <trkpt lat="42.94588" lon="1.79123">
        <ele>508</ele>
        <time>2022-08-05T09:42:46.000Z</time>
      </trkpt>
      <trkpt lat="42.94585" lon="1.79128">
        <ele>509</ele>
        <time>2022-08-05T09:42:48.000Z</time>
      </trkpt>
      <trkpt lat="42.9458" lon="1.79135">
        <ele>509</ele>
        <time>2022-08-05T09:42:50.000Z</time>
      </trkpt>
      <trkpt lat="42.94577" lon="1.7914">
        <ele>509</ele>
        <time>2022-08-05T09:42:52.000Z</time>
      </trkpt>
      <trkpt lat="42.94573" lon="1.79145">
        <ele>509</ele>
        <time>2022-08-05T09:42:54.000Z</time>
      </trkpt>
      <trkpt lat="42.94568" lon="1.79152">
        <ele>509</ele>
        <time>2022-08-05T09:42:56.000Z</time>
      </trkpt>
      <trkpt lat="42.94563" lon="1.79157">
        <ele>510</ele>
        <time>2022-08-05T09:42:58.000Z</time>
      </trkpt>
      <trkpt lat="42.94558" lon="1.79162">
        <ele>510</ele>
        <time>2022-08-05T09:43:00.000Z</time>
      </trkpt>
      <trkpt lat="42.94553" lon="1.79167">
        <ele>510</ele>
        <time>2022-08-05T09:43:02.000Z</time>
      </trkpt>
      <trkpt lat="42.94548" lon="1.79172">
        <ele>510</ele>
        <time>2022-08-05T09:43:04.000Z</time>
      </trkpt>
      <trkpt lat="42.94543" lon="1.79177">
        <ele>510</ele>
        <time>2022-08-05T09:43:06.000Z</time>
      </trkpt>
      <trkpt lat="42.94538" lon="1.79182">
        <ele>511</ele>
        <time>2022-08-05T09:43:08.000Z</time>
      </trkpt>
      <trkpt lat="42.94535" lon="1.79188">
        <ele>511</ele>
        <time>2022-08-05T09:43:10.000Z</time>
      </trkpt>
      <trkpt lat="42.9453" lon="1.79193">
        <ele>511</ele>
        <time>2022-08-05T09:43:12.000Z</time>
      </trkpt>
      <trkpt lat="42.94525" lon="1.792">
        <ele>511</ele>
        <time>2022-08-05T09:43:14.000Z</time>
      </trkpt>
      <trkpt lat="42.94522" lon="1.79205">
        <ele>512</ele>
        <time>2022-08-05T09:43:16.000Z</time>
      </trkpt>
      <trkpt lat="42.94517" lon="1.7921">
        <ele>512</ele>
        <time>2022-08-05T09:43:18.000Z</time>
      </trkpt>
      <trkpt lat="42.94513" lon="1.79217">
        <ele>512</ele>
        <time>2022-08-05T09:43:20.000Z</time>
      </trkpt>
      <trkpt lat="42.94508" lon="1.79222">
        <ele>512</ele>
        <time>2022-08-05T09:43:22.000Z</time>
      </trkpt>
      <trkpt lat="42.94503" lon="1.79227">
        <ele>512</ele>
        <time>2022-08-05T09:43:24.000Z</time>
      </trkpt>
      <trkpt lat="42.94498" lon="1.79232">
        <ele>513</ele>
        <time>2022-08-05T09:43:26.000Z</time>
      </trkpt>
      <trkpt lat="42.94493" lon="1.79238">
        <ele>513</ele>
        <time>2022-08-05T09:43:28.000Z</time>
      </trkpt>
      <trkpt lat="42.9449" lon="1.79242">
        <ele>513</ele>
        <time>2022-08-05T09:43:29.000Z</time>
      </trkpt>
      <trkpt lat="42.94485" lon="1.79248">
        <ele>513</ele>
        <time>2022-08-05T09:43:31.000Z</time>
      </trkpt>
      <trkpt lat="42.9448" lon="1.79257">
        <ele>513</ele>
        <time>2022-08-05T09:43:33.000Z</time>
      </trkpt>
      <trkpt lat="42.94478" lon="1.79265">
        <ele>514</ele>
        <time>2022-08-05T09:43:35.000Z</time>
      </trkpt>
      <trkpt lat="42.94477" lon="1.79273">
        <ele>514</ele>
        <time>2022-08-05T09:43:37.000Z</time>
      </trkpt>
      <trkpt lat="42.94473" lon="1.79282">
        <ele>514</ele>
        <time>2022-08-05T09:43:39.000Z</time>
      </trkpt>
      <trkpt lat="42.94472" lon="1.79288">
        <ele>514</ele>
        <time>2022-08-05T09:43:41.000Z</time>
      </trkpt>
      <trkpt lat="42.94468" lon="1.793">
        <ele>515</ele>
        <time>2022-08-05T09:43:43.000Z</time>
      </trkpt>
      <trkpt lat="42.94465" lon="1.79307">
        <ele>515</ele>
        <time>2022-08-05T09:43:45.000Z</time>
      </trkpt>
      <trkpt lat="42.94463" lon="1.79317">
        <ele>515</ele>
        <time>2022-08-05T09:43:47.000Z</time>
      </trkpt>
      <trkpt lat="42.9446" lon="1.79323">
        <ele>515</ele>
        <time>2022-08-05T09:43:49.000Z</time>
      </trkpt>
      <trkpt lat="42.94458" lon="1.79332">
        <ele>516</ele>
        <time>2022-08-05T09:43:51.000Z</time>
      </trkpt>
      <trkpt lat="42.94457" lon="1.7934">
        <ele>516</ele>
        <time>2022-08-05T09:43:53.000Z</time>
      </trkpt>
      <trkpt lat="42.94455" lon="1.79347">
        <ele>516</ele>
        <time>2022-08-05T09:43:55.000Z</time>
      </trkpt>
      <trkpt lat="42.94453" lon="1.79355">
        <ele>516</ele>
        <time>2022-08-05T09:43:57.000Z</time>
      </trkpt>
      <trkpt lat="42.9445" lon="1.79363">
        <ele>517</ele>
        <time>2022-08-05T09:43:59.000Z</time>
      </trkpt>
      <trkpt lat="42.94448" lon="1.7937">
        <ele>517</ele>
        <time>2022-08-05T09:44:01.000Z</time>
      </trkpt>
      <trkpt lat="42.94448" lon="1.79378">
        <ele>517</ele>
        <time>2022-08-05T09:44:03.000Z</time>
      </trkpt>
      <trkpt lat="42.94447" lon="1.79388">
        <ele>517</ele>
        <time>2022-08-05T09:44:05.000Z</time>
      </trkpt>
      <trkpt lat="42.94445" lon="1.79397">
        <ele>517</ele>
        <time>2022-08-05T09:44:07.000Z</time>
      </trkpt>
      <trkpt lat="42.94443" lon="1.79405">
        <ele>518</ele>
        <time>2022-08-05T09:44:09.000Z</time>
      </trkpt>
      <trkpt lat="42.94443" lon="1.79413">
        <ele>518</ele>
        <time>2022-08-05T09:44:11.000Z</time>
      </trkpt>
      <trkpt lat="42.94442" lon="1.7942">
        <ele>518</ele>
        <time>2022-08-05T09:44:13.000Z</time>
      </trkpt>
      <trkpt lat="42.9444" lon="1.79428">
        <ele>518</ele>
        <time>2022-08-05T09:44:15.000Z</time>
      </trkpt>
      <trkpt lat="42.94438" lon="1.79437">
        <ele>519</ele>
        <time>2022-08-05T09:44:17.000Z</time>
      </trkpt>
      <trkpt lat="42.94437" lon="1.79445">
        <ele>519</ele>
        <time>2022-08-05T09:44:19.000Z</time>
      </trkpt>
      <trkpt lat="42.94437" lon="1.79453">
        <ele>519</ele>
        <time>2022-08-05T09:44:21.000Z</time>
      </trkpt>
      <trkpt lat="42.94435" lon="1.79462">
        <ele>519</ele>
        <time>2022-08-05T09:44:23.000Z</time>
      </trkpt>
      <trkpt lat="42.94435" lon="1.79468">
        <ele>520</ele>
        <time>2022-08-05T09:44:25.000Z</time>
      </trkpt>
      <trkpt lat="42.94432" lon="1.79477">
        <ele>520</ele>
        <time>2022-08-05T09:44:27.000Z</time>
      </trkpt>
      <trkpt lat="42.9443" lon="1.79485">
        <ele>520</ele>
        <time>2022-08-05T09:44:29.000Z</time>
      </trkpt>
      <trkpt lat="42.94427" lon="1.79492">
        <ele>520</ele>
        <time>2022-08-05T09:44:32.000Z</time>
      </trkpt>
      <trkpt lat="42.94422" lon="1.79497">
        <ele>521</ele>
        <time>2022-08-05T09:44:34.000Z</time>
      </trkpt>
      <trkpt lat="42.94417" lon="1.795">
        <ele>521</ele>
        <time>2022-08-05T09:44:36.000Z</time>
      </trkpt>
      <trkpt lat="42.94412" lon="1.79503">
        <ele>521</ele>
        <time>2022-08-05T09:44:38.000Z</time>
      </trkpt>
      <trkpt lat="42.94407" lon="1.79507">
        <ele>521</ele>
        <time>2022-08-05T09:44:40.000Z</time>
      </trkpt>
      <trkpt lat="42.94403" lon="1.79512">
        <ele>521</ele>
        <time>2022-08-05T09:44:42.000Z</time>
      </trkpt>
      <trkpt lat="42.944" lon="1.79517">
        <ele>522</ele>
        <time>2022-08-05T09:44:44.000Z</time>
      </trkpt>
      <trkpt lat="42.94397" lon="1.79523">
        <ele>522</ele>
        <time>2022-08-05T09:44:46.000Z</time>
      </trkpt>
      <trkpt lat="42.9439" lon="1.79528">
        <ele>522</ele>
        <time>2022-08-05T09:44:48.000Z</time>
      </trkpt>
      <trkpt lat="42.94385" lon="1.79533">
        <ele>522</ele>
        <time>2022-08-05T09:44:50.000Z</time>
      </trkpt>
      <trkpt lat="42.9438" lon="1.79538">
        <ele>523</ele>
        <time>2022-08-05T09:44:52.000Z</time>
      </trkpt>
      <trkpt lat="42.94375" lon="1.79543">
        <ele>523</ele>
        <time>2022-08-05T09:44:54.000Z</time>
      </trkpt>
      <trkpt lat="42.94372" lon="1.79552">
        <ele>523</ele>
        <time>2022-08-05T09:44:56.000Z</time>
      </trkpt>
      <trkpt lat="42.94367" lon="1.7956">
        <ele>523</ele>
        <time>2022-08-05T09:44:58.000Z</time>
      </trkpt>
      <trkpt lat="42.94363" lon="1.79568">
        <ele>523</ele>
        <time>2022-08-05T09:45:00.000Z</time>
      </trkpt>
      <trkpt lat="42.94362" lon="1.79577">
        <ele>524</ele>
        <time>2022-08-05T09:45:02.000Z</time>
      </trkpt>
      <trkpt lat="42.94358" lon="1.79587">
        <ele>524</ele>
        <time>2022-08-05T09:45:04.000Z</time>
      </trkpt>
      <trkpt lat="42.94358" lon="1.79597">
        <ele>524</ele>
        <time>2022-08-05T09:45:06.000Z</time>
      </trkpt>
      <trkpt lat="42.94358" lon="1.79607">
        <ele>524</ele>
        <time>2022-08-05T09:45:08.000Z</time>
      </trkpt>
      <trkpt lat="42.94357" lon="1.79617">
        <ele>524</ele>
        <time>2022-08-05T09:45:10.000Z</time>
      </trkpt>
      <trkpt lat="42.94358" lon="1.79627">
        <ele>525</ele>
        <time>2022-08-05T09:45:12.000Z</time>
      </trkpt>
      <trkpt lat="42.9436" lon="1.79637">
        <ele>525</ele>
        <time>2022-08-05T09:45:14.000Z</time>
      </trkpt>
      <trkpt lat="42.94362" lon="1.79647">
        <ele>525</ele>
        <time>2022-08-05T09:45:16.000Z</time>
      </trkpt>
      <trkpt lat="42.94363" lon="1.79657">
        <ele>525</ele>
        <time>2022-08-05T09:45:18.000Z</time>
      </trkpt>
      <trkpt lat="42.94365" lon="1.79665">
        <ele>526</ele>
        <time>2022-08-05T09:45:20.000Z</time>
      </trkpt>
      <trkpt lat="42.94365" lon="1.79677">
        <ele>526</ele>
        <time>2022-08-05T09:45:22.000Z</time>
      </trkpt>
      <trkpt lat="42.94365" lon="1.79687">
        <ele>526</ele>
        <time>2022-08-05T09:45:24.000Z</time>
      </trkpt>
      <trkpt lat="42.94365" lon="1.79697">
        <ele>526</ele>
        <time>2022-08-05T09:45:26.000Z</time>
      </trkpt>
      <trkpt lat="42.94363" lon="1.79707">
        <ele>527</ele>
        <time>2022-08-05T09:45:28.000Z</time>
      </trkpt>
      <trkpt lat="42.94363" lon="1.79717">
        <ele>527</ele>
        <time>2022-08-05T09:45:30.000Z</time>
      </trkpt>
      <trkpt lat="42.94363" lon="1.79727">
        <ele>527</ele>
        <time>2022-08-05T09:45:32.000Z</time>
      </trkpt>
      <trkpt lat="42.94363" lon="1.79737">
        <ele>527</ele>
        <time>2022-08-05T09:45:34.000Z</time>
      </trkpt>
      <trkpt lat="42.94363" lon="1.79745">
        <ele>528</ele>
        <time>2022-08-05T09:45:36.000Z</time>
      </trkpt>
      <trkpt lat="42.9436" lon="1.79753">
        <ele>528</ele>
        <time>2022-08-05T09:45:38.000Z</time>
      </trkpt>
      <trkpt lat="42.94358" lon="1.79762">
        <ele>528</ele>
        <time>2022-08-05T09:45:40.000Z</time>
      </trkpt>
      <trkpt lat="42.94357" lon="1.79772">
        <ele>528</ele>
        <time>2022-08-05T09:45:42.000Z</time>
      </trkpt>
      <trkpt lat="42.94357" lon="1.79782">
        <ele>529</ele>
        <time>2022-08-05T09:45:44.000Z</time>
      </trkpt>
      <trkpt lat="42.94355" lon="1.7979">
        <ele>529</ele>
        <time>2022-08-05T09:45:46.000Z</time>
      </trkpt>
      <trkpt lat="42.94352" lon="1.798">
        <ele>529</ele>
        <time>2022-08-05T09:45:48.000Z</time>
      </trkpt>
      <trkpt lat="42.9435" lon="1.7981">
        <ele>529</ele>
        <time>2022-08-05T09:45:50.000Z</time>
      </trkpt>
      <trkpt lat="42.94348" lon="1.7982">
        <ele>530</ele>
        <time>2022-08-05T09:45:52.000Z</time>
      </trkpt>
      <trkpt lat="42.94347" lon="1.79828">
        <ele>530</ele>
        <time>2022-08-05T09:45:54.000Z</time>
      </trkpt>
      <trkpt lat="42.94345" lon="1.79838">
        <ele>530</ele>
        <time>2022-08-05T09:45:56.000Z</time>
      </trkpt>
      <trkpt lat="42.94342" lon="1.79848">
        <ele>530</ele>
        <time>2022-08-05T09:45:58.000Z</time>
      </trkpt>
      <trkpt lat="42.9434" lon="1.79858">
        <ele>530</ele>
        <time>2022-08-05T09:46:00.000Z</time>
      </trkpt>
      <trkpt lat="42.94337" lon="1.79867">
        <ele>531</ele>
        <time>2022-08-05T09:46:02.000Z</time>
      </trkpt>
      <trkpt lat="42.94337" lon="1.79878">
        <ele>531</ele>
        <time>2022-08-05T09:46:04.000Z</time>
      </trkpt>
      <trkpt lat="42.94333" lon="1.7989">
        <ele>531</ele>
        <time>2022-08-05T09:46:06.000Z</time>
      </trkpt>
      <trkpt lat="42.94332" lon="1.799">
        <ele>531</ele>
        <time>2022-08-05T09:46:08.000Z</time>
      </trkpt>
      <trkpt lat="42.9433" lon="1.79908">
        <ele>532</ele>
        <time>2022-08-05T09:46:10.000Z</time>
      </trkpt>
      <trkpt lat="42.94327" lon="1.79917">
        <ele>532</ele>
        <time>2022-08-05T09:46:12.000Z</time>
      </trkpt>
      <trkpt lat="42.94323" lon="1.79923">
        <ele>532</ele>
        <time>2022-08-05T09:46:14.000Z</time>
      </trkpt>
      <trkpt lat="42.94322" lon="1.79932">
        <ele>533</ele>
        <time>2022-08-05T09:46:16.000Z</time>
      </trkpt>
      <trkpt lat="42.9432" lon="1.7994">
        <ele>533</ele>
        <time>2022-08-05T09:46:18.000Z</time>
      </trkpt>
      <trkpt lat="42.94318" lon="1.79948">
        <ele>533</ele>
        <time>2022-08-05T09:46:20.000Z</time>
      </trkpt>
      <trkpt lat="42.94317" lon="1.79957">
        <ele>533</ele>
        <time>2022-08-05T09:46:22.000Z</time>
      </trkpt>
      <trkpt lat="42.94315" lon="1.79963">
        <ele>534</ele>
        <time>2022-08-05T09:46:24.000Z</time>
      </trkpt>
      <trkpt lat="42.94313" lon="1.79972">
        <ele>534</ele>
        <time>2022-08-05T09:46:26.000Z</time>
      </trkpt>
      <trkpt lat="42.94313" lon="1.79982">
        <ele>534</ele>
        <time>2022-08-05T09:46:28.000Z</time>
      </trkpt>
      <trkpt lat="42.94313" lon="1.7999">
        <ele>534</ele>
        <time>2022-08-05T09:46:30.000Z</time>
      </trkpt>
      <trkpt lat="42.94312" lon="1.8">
        <ele>535</ele>
        <time>2022-08-05T09:46:32.000Z</time>
      </trkpt>
      <trkpt lat="42.94312" lon="1.80008">
        <ele>535</ele>
        <time>2022-08-05T09:46:34.000Z</time>
      </trkpt>
      <trkpt lat="42.9431" lon="1.80013">
        <ele>535</ele>
        <time>2022-08-05T09:46:35.000Z</time>
      </trkpt>
      <trkpt lat="42.94307" lon="1.80025">
        <ele>535</ele>
        <time>2022-08-05T09:46:37.000Z</time>
      </trkpt>
      <trkpt lat="42.94307" lon="1.80037">
        <ele>535</ele>
        <time>2022-08-05T09:46:39.000Z</time>
      </trkpt>
      <trkpt lat="42.94305" lon="1.80047">
        <ele>536</ele>
        <time>2022-08-05T09:46:41.000Z</time>
      </trkpt>
      <trkpt lat="42.94303" lon="1.80057">
        <ele>536</ele>
        <time>2022-08-05T09:46:43.000Z</time>
      </trkpt>
      <trkpt lat="42.94302" lon="1.80067">
        <ele>536</ele>
        <time>2022-08-05T09:46:45.000Z</time>
      </trkpt>
      <trkpt lat="42.943" lon="1.80077">
        <ele>536</ele>
        <time>2022-08-05T09:46:47.000Z</time>
      </trkpt>
      <trkpt lat="42.94298" lon="1.80087">
        <ele>537</ele>
        <time>2022-08-05T09:46:49.000Z</time>
      </trkpt>
      <trkpt lat="42.94298" lon="1.80097">
        <ele>537</ele>
        <time>2022-08-05T09:46:51.000Z</time>
      </trkpt>
      <trkpt lat="42.943" lon="1.80107">
        <ele>537</ele>
        <time>2022-08-05T09:46:53.000Z</time>
      </trkpt>
      <trkpt lat="42.943" lon="1.80115">
        <ele>537</ele>
        <time>2022-08-05T09:46:55.000Z</time>
      </trkpt>
      <trkpt lat="42.943" lon="1.80125">
        <ele>538</ele>
        <time>2022-08-05T09:46:57.000Z</time>
      </trkpt>
      <trkpt lat="42.94302" lon="1.80135">
        <ele>538</ele>
        <time>2022-08-05T09:46:59.000Z</time>
      </trkpt>
      <trkpt lat="42.94303" lon="1.80147">
        <ele>538</ele>
        <time>2022-08-05T09:47:01.000Z</time>
      </trkpt>
      <trkpt lat="42.94303" lon="1.80157">
        <ele>538</ele>
        <time>2022-08-05T09:47:03.000Z</time>
      </trkpt>
      <trkpt lat="42.94302" lon="1.80165">
        <ele>539</ele>
        <time>2022-08-05T09:47:05.000Z</time>
      </trkpt>
      <trkpt lat="42.94303" lon="1.80175">
        <ele>539</ele>
        <time>2022-08-05T09:47:07.000Z</time>
      </trkpt>
      <trkpt lat="42.94302" lon="1.80185">
        <ele>539</ele>
        <time>2022-08-05T09:47:09.000Z</time>
      </trkpt>
      <trkpt lat="42.94302" lon="1.80197">
        <ele>539</ele>
        <time>2022-08-05T09:47:11.000Z</time>
      </trkpt>
      <trkpt lat="42.943" lon="1.80207">
        <ele>540</ele>
        <time>2022-08-05T09:47:13.000Z</time>
      </trkpt>
      <trkpt lat="42.94298" lon="1.80215">
        <ele>540</ele>
        <time>2022-08-05T09:47:15.000Z</time>
      </trkpt>
      <trkpt lat="42.94297" lon="1.80225">
        <ele>540</ele>
        <time>2022-08-05T09:47:17.000Z</time>
      </trkpt>
      <trkpt lat="42.94295" lon="1.80235">
        <ele>540</ele>
        <time>2022-08-05T09:47:19.000Z</time>
      </trkpt>
      <trkpt lat="42.94293" lon="1.80245">
        <ele>541</ele>
        <time>2022-08-05T09:47:21.000Z</time>
      </trkpt>
      <trkpt lat="42.94292" lon="1.80255">
        <ele>541</ele>
        <time>2022-08-05T09:47:23.000Z</time>
      </trkpt>
      <trkpt lat="42.94288" lon="1.80263">
        <ele>541</ele>
        <time>2022-08-05T09:47:25.000Z</time>
      </trkpt>
      <trkpt lat="42.94287" lon="1.80273">
        <ele>541</ele>
        <time>2022-08-05T09:47:27.000Z</time>
      </trkpt>
      <trkpt lat="42.94285" lon="1.80283">
        <ele>542</ele>
        <time>2022-08-05T09:47:29.000Z</time>
      </trkpt>
      <trkpt lat="42.94282" lon="1.80292">
        <ele>542</ele>
        <time>2022-08-05T09:47:31.000Z</time>
      </trkpt>
      <trkpt lat="42.9428" lon="1.803">
        <ele>542</ele>
        <time>2022-08-05T09:47:33.000Z</time>
      </trkpt>
      <trkpt lat="42.94278" lon="1.8031">
        <ele>542</ele>
        <time>2022-08-05T09:47:35.000Z</time>
      </trkpt>
      <trkpt lat="42.94273" lon="1.80318">
        <ele>542</ele>
        <time>2022-08-05T09:47:37.000Z</time>
      </trkpt>
      <trkpt lat="42.9427" lon="1.80327">
        <ele>543</ele>
        <time>2022-08-05T09:47:39.000Z</time>
      </trkpt>
      <trkpt lat="42.94267" lon="1.80335">
        <ele>543</ele>
        <time>2022-08-05T09:47:41.000Z</time>
      </trkpt>
      <trkpt lat="42.94265" lon="1.80343">
        <ele>543</ele>
        <time>2022-08-05T09:47:43.000Z</time>
      </trkpt>
      <trkpt lat="42.94263" lon="1.80352">
        <ele>543</ele>
        <time>2022-08-05T09:47:45.000Z</time>
      </trkpt>
      <trkpt lat="42.94263" lon="1.8036">
        <ele>544</ele>
        <time>2022-08-05T09:47:47.000Z</time>
      </trkpt>
      <trkpt lat="42.94262" lon="1.80365">
        <ele>547</ele>
        <time>2022-08-05T09:49:29.000Z</time>
      </trkpt>
      <trkpt lat="42.94262" lon="1.80363">
        <ele>548</ele>
        <time>2022-08-05T09:49:54.000Z</time>
      </trkpt>
      <trkpt lat="42.9426" lon="1.80385">
        <ele>549</ele>
        <time>2022-08-05T09:50:02.000Z</time>
      </trkpt>
      <trkpt lat="42.9426" lon="1.8039">
        <ele>549</ele>
        <time>2022-08-05T09:50:05.000Z</time>
      </trkpt>
      <trkpt lat="42.94257" lon="1.804">
        <ele>549</ele>
        <time>2022-08-05T09:50:08.000Z</time>
      </trkpt>
      <trkpt lat="42.94255" lon="1.80405">
        <ele>549</ele>
        <time>2022-08-05T09:50:10.000Z</time>
      </trkpt>
      <trkpt lat="42.94253" lon="1.80412">
        <ele>548</ele>
        <time>2022-08-05T09:50:12.000Z</time>
      </trkpt>
      <trkpt lat="42.94252" lon="1.80418">
        <ele>548</ele>
        <time>2022-08-05T09:50:14.000Z</time>
      </trkpt>
      <trkpt lat="42.9425" lon="1.80425">
        <ele>548</ele>
        <time>2022-08-05T09:50:16.000Z</time>
      </trkpt>
      <trkpt lat="42.94248" lon="1.80433">
        <ele>548</ele>
        <time>2022-08-05T09:50:18.000Z</time>
      </trkpt>
      <trkpt lat="42.94247" lon="1.80443">
        <ele>548</ele>
        <time>2022-08-05T09:50:20.000Z</time>
      </trkpt>
      <trkpt lat="42.94245" lon="1.80453">
        <ele>548</ele>
        <time>2022-08-05T09:50:22.000Z</time>
      </trkpt>
      <trkpt lat="42.94243" lon="1.80463">
        <ele>548</ele>
        <time>2022-08-05T09:50:24.000Z</time>
      </trkpt>
      <trkpt lat="42.94242" lon="1.80473">
        <ele>549</ele>
        <time>2022-08-05T09:50:26.000Z</time>
      </trkpt>
      <trkpt lat="42.94238" lon="1.80482">
        <ele>549</ele>
        <time>2022-08-05T09:50:28.000Z</time>
      </trkpt>
      <trkpt lat="42.94237" lon="1.80492">
        <ele>549</ele>
        <time>2022-08-05T09:50:30.000Z</time>
      </trkpt>
      <trkpt lat="42.94235" lon="1.80502">
        <ele>549</ele>
        <time>2022-08-05T09:50:32.000Z</time>
      </trkpt>
      <trkpt lat="42.94233" lon="1.80513">
        <ele>549</ele>
        <time>2022-08-05T09:50:34.000Z</time>
      </trkpt>
      <trkpt lat="42.94232" lon="1.80523">
        <ele>549</ele>
        <time>2022-08-05T09:50:36.000Z</time>
      </trkpt>
      <trkpt lat="42.9423" lon="1.80533">
        <ele>550</ele>
        <time>2022-08-05T09:50:38.000Z</time>
      </trkpt>
      <trkpt lat="42.9423" lon="1.80542">
        <ele>550</ele>
        <time>2022-08-05T09:50:40.000Z</time>
      </trkpt>
      <trkpt lat="42.9423" lon="1.80552">
        <ele>550</ele>
        <time>2022-08-05T09:50:42.000Z</time>
      </trkpt>
      <trkpt lat="42.9423" lon="1.80562">
        <ele>550</ele>
        <time>2022-08-05T09:50:44.000Z</time>
      </trkpt>
      <trkpt lat="42.9423" lon="1.80572">
        <ele>550</ele>
        <time>2022-08-05T09:50:46.000Z</time>
      </trkpt>
      <trkpt lat="42.9423" lon="1.80582">
        <ele>550</ele>
        <time>2022-08-05T09:50:48.000Z</time>
      </trkpt>
      <trkpt lat="42.9423" lon="1.80592">
        <ele>551</ele>
        <time>2022-08-05T09:50:50.000Z</time>
      </trkpt>
      <trkpt lat="42.9423" lon="1.80602">
        <ele>551</ele>
        <time>2022-08-05T09:50:52.000Z</time>
      </trkpt>
      <trkpt lat="42.94232" lon="1.80613">
        <ele>551</ele>
        <time>2022-08-05T09:50:54.000Z</time>
      </trkpt>
      <trkpt lat="42.94232" lon="1.80623">
        <ele>551</ele>
        <time>2022-08-05T09:50:56.000Z</time>
      </trkpt>
      <trkpt lat="42.9423" lon="1.80633">
        <ele>551</ele>
        <time>2022-08-05T09:50:58.000Z</time>
      </trkpt>
      <trkpt lat="42.9423" lon="1.80642">
        <ele>552</ele>
        <time>2022-08-05T09:51:00.000Z</time>
      </trkpt>
      <trkpt lat="42.9423" lon="1.80652">
        <ele>552</ele>
        <time>2022-08-05T09:51:02.000Z</time>
      </trkpt>
      <trkpt lat="42.94228" lon="1.8066">
        <ele>552</ele>
        <time>2022-08-05T09:51:04.000Z</time>
      </trkpt>
      <trkpt lat="42.9423" lon="1.8067">
        <ele>552</ele>
        <time>2022-08-05T09:51:06.000Z</time>
      </trkpt>
      <trkpt lat="42.94228" lon="1.8068">
        <ele>552</ele>
        <time>2022-08-05T09:51:08.000Z</time>
      </trkpt>
      <trkpt lat="42.94227" lon="1.80688">
        <ele>553</ele>
        <time>2022-08-05T09:51:10.000Z</time>
      </trkpt>
      <trkpt lat="42.94225" lon="1.80697">
        <ele>553</ele>
        <time>2022-08-05T09:51:12.000Z</time>
      </trkpt>
      <trkpt lat="42.94223" lon="1.80705">
        <ele>553</ele>
        <time>2022-08-05T09:51:14.000Z</time>
      </trkpt>
      <trkpt lat="42.94222" lon="1.80713">
        <ele>553</ele>
        <time>2022-08-05T09:51:16.000Z</time>
      </trkpt>
      <trkpt lat="42.9422" lon="1.8072">
        <ele>553</ele>
        <time>2022-08-05T09:51:18.000Z</time>
      </trkpt>
      <trkpt lat="42.94217" lon="1.80728">
        <ele>554</ele>
        <time>2022-08-05T09:51:20.000Z</time>
      </trkpt>
      <trkpt lat="42.94215" lon="1.80737">
        <ele>554</ele>
        <time>2022-08-05T09:51:22.000Z</time>
      </trkpt>
      <trkpt lat="42.94213" lon="1.80745">
        <ele>554</ele>
        <time>2022-08-05T09:51:24.000Z</time>
      </trkpt>
      <trkpt lat="42.94213" lon="1.80753">
        <ele>554</ele>
        <time>2022-08-05T09:51:26.000Z</time>
      </trkpt>
      <trkpt lat="42.94212" lon="1.80763">
        <ele>554</ele>
        <time>2022-08-05T09:51:28.000Z</time>
      </trkpt>
      <trkpt lat="42.94208" lon="1.80772">
        <ele>555</ele>
        <time>2022-08-05T09:51:30.000Z</time>
      </trkpt>
      <trkpt lat="42.94207" lon="1.8078">
        <ele>555</ele>
        <time>2022-08-05T09:51:32.000Z</time>
      </trkpt>
      <trkpt lat="42.94205" lon="1.8079">
        <ele>555</ele>
        <time>2022-08-05T09:51:34.000Z</time>
      </trkpt>
      <trkpt lat="42.94205" lon="1.80798">
        <ele>555</ele>
        <time>2022-08-05T09:51:36.000Z</time>
      </trkpt>
      <trkpt lat="42.94203" lon="1.80807">
        <ele>555</ele>
        <time>2022-08-05T09:51:38.000Z</time>
      </trkpt>
      <trkpt lat="42.94203" lon="1.80817">
        <ele>556</ele>
        <time>2022-08-05T09:51:40.000Z</time>
      </trkpt>
      <trkpt lat="42.94202" lon="1.80825">
        <ele>556</ele>
        <time>2022-08-05T09:51:42.000Z</time>
      </trkpt>
      <trkpt lat="42.94198" lon="1.80835">
        <ele>556</ele>
        <time>2022-08-05T09:51:44.000Z</time>
      </trkpt>
      <trkpt lat="42.94197" lon="1.80843">
        <ele>556</ele>
        <time>2022-08-05T09:51:46.000Z</time>
      </trkpt>
      <trkpt lat="42.94195" lon="1.80852">
        <ele>556</ele>
        <time>2022-08-05T09:51:48.000Z</time>
      </trkpt>
      <trkpt lat="42.94193" lon="1.80862">
        <ele>557</ele>
        <time>2022-08-05T09:51:50.000Z</time>
      </trkpt>
      <trkpt lat="42.94192" lon="1.80872">
        <ele>557</ele>
        <time>2022-08-05T09:51:52.000Z</time>
      </trkpt>
      <trkpt lat="42.9419" lon="1.8088">
        <ele>557</ele>
        <time>2022-08-05T09:51:54.000Z</time>
      </trkpt>
      <trkpt lat="42.94188" lon="1.8089">
        <ele>557</ele>
        <time>2022-08-05T09:51:56.000Z</time>
      </trkpt>
      <trkpt lat="42.94185" lon="1.809">
        <ele>557</ele>
        <time>2022-08-05T09:51:58.000Z</time>
      </trkpt>
      <trkpt lat="42.94183" lon="1.80908">
        <ele>558</ele>
        <time>2022-08-05T09:52:00.000Z</time>
      </trkpt>
      <trkpt lat="42.94182" lon="1.80918">
        <ele>558</ele>
        <time>2022-08-05T09:52:02.000Z</time>
      </trkpt>
      <trkpt lat="42.9418" lon="1.80928">
        <ele>558</ele>
        <time>2022-08-05T09:52:04.000Z</time>
      </trkpt>
      <trkpt lat="42.94178" lon="1.80938">
        <ele>558</ele>
        <time>2022-08-05T09:52:06.000Z</time>
      </trkpt>
      <trkpt lat="42.94177" lon="1.80948">
        <ele>559</ele>
        <time>2022-08-05T09:52:08.000Z</time>
      </trkpt>
      <trkpt lat="42.94175" lon="1.80958">
        <ele>559</ele>
        <time>2022-08-05T09:52:10.000Z</time>
      </trkpt>
      <trkpt lat="42.94173" lon="1.80968">
        <ele>559</ele>
        <time>2022-08-05T09:52:12.000Z</time>
      </trkpt>
      <trkpt lat="42.94173" lon="1.80977">
        <ele>559</ele>
        <time>2022-08-05T09:52:14.000Z</time>
      </trkpt>
      <trkpt lat="42.94172" lon="1.80985">
        <ele>560</ele>
        <time>2022-08-05T09:52:16.000Z</time>
      </trkpt>
      <trkpt lat="42.9417" lon="1.80995">
        <ele>560</ele>
        <time>2022-08-05T09:52:18.000Z</time>
      </trkpt>
      <trkpt lat="42.94168" lon="1.81003">
        <ele>560</ele>
        <time>2022-08-05T09:52:20.000Z</time>
      </trkpt>
      <trkpt lat="42.94167" lon="1.81012">
        <ele>560</ele>
        <time>2022-08-05T09:52:22.000Z</time>
      </trkpt>
      <trkpt lat="42.94165" lon="1.81022">
        <ele>560</ele>
        <time>2022-08-05T09:52:24.000Z</time>
      </trkpt>
      <trkpt lat="42.94163" lon="1.8103">
        <ele>561</ele>
        <time>2022-08-05T09:52:26.000Z</time>
      </trkpt>
      <trkpt lat="42.94162" lon="1.8104">
        <ele>561</ele>
        <time>2022-08-05T09:52:28.000Z</time>
      </trkpt>
      <trkpt lat="42.9416" lon="1.8105">
        <ele>561</ele>
        <time>2022-08-05T09:52:30.000Z</time>
      </trkpt>
      <trkpt lat="42.94157" lon="1.81058">
        <ele>561</ele>
        <time>2022-08-05T09:52:32.000Z</time>
      </trkpt>
      <trkpt lat="42.94155" lon="1.8107">
        <ele>561</ele>
        <time>2022-08-05T09:52:34.000Z</time>
      </trkpt>
      <trkpt lat="42.94153" lon="1.81078">
        <ele>562</ele>
        <time>2022-08-05T09:52:36.000Z</time>
      </trkpt>
      <trkpt lat="42.94153" lon="1.81088">
        <ele>562</ele>
        <time>2022-08-05T09:52:38.000Z</time>
      </trkpt>
      <trkpt lat="42.94153" lon="1.81097">
        <ele>562</ele>
        <time>2022-08-05T09:52:40.000Z</time>
      </trkpt>
      <trkpt lat="42.94152" lon="1.81107">
        <ele>562</ele>
        <time>2022-08-05T09:52:42.000Z</time>
      </trkpt>
      <trkpt lat="42.94152" lon="1.81117">
        <ele>562</ele>
        <time>2022-08-05T09:52:44.000Z</time>
      </trkpt>
      <trkpt lat="42.9415" lon="1.81125">
        <ele>563</ele>
        <time>2022-08-05T09:52:46.000Z</time>
      </trkpt>
      <trkpt lat="42.9415" lon="1.81133">
        <ele>563</ele>
        <time>2022-08-05T09:52:48.000Z</time>
      </trkpt>
      <trkpt lat="42.9415" lon="1.81143">
        <ele>563</ele>
        <time>2022-08-05T09:52:50.000Z</time>
      </trkpt>
      <trkpt lat="42.94148" lon="1.81153">
        <ele>563</ele>
        <time>2022-08-05T09:52:52.000Z</time>
      </trkpt>
      <trkpt lat="42.94147" lon="1.81163">
        <ele>564</ele>
        <time>2022-08-05T09:52:54.000Z</time>
      </trkpt>
      <trkpt lat="42.94145" lon="1.81172">
        <ele>564</ele>
        <time>2022-08-05T09:52:56.000Z</time>
      </trkpt>
      <trkpt lat="42.94143" lon="1.81182">
        <ele>564</ele>
        <time>2022-08-05T09:52:58.000Z</time>
      </trkpt>
      <trkpt lat="42.94142" lon="1.81192">
        <ele>564</ele>
        <time>2022-08-05T09:53:00.000Z</time>
      </trkpt>
      <trkpt lat="42.9414" lon="1.81203">
        <ele>565</ele>
        <time>2022-08-05T09:53:02.000Z</time>
      </trkpt>
      <trkpt lat="42.94138" lon="1.81215">
        <ele>565</ele>
        <time>2022-08-05T09:53:04.000Z</time>
      </trkpt>
      <trkpt lat="42.94135" lon="1.81225">
        <ele>565</ele>
        <time>2022-08-05T09:53:06.000Z</time>
      </trkpt>
      <trkpt lat="42.94133" lon="1.81235">
        <ele>565</ele>
        <time>2022-08-05T09:53:08.000Z</time>
      </trkpt>
      <trkpt lat="42.94133" lon="1.81245">
        <ele>565</ele>
        <time>2022-08-05T09:53:10.000Z</time>
      </trkpt>
      <trkpt lat="42.94132" lon="1.81252">
        <ele>566</ele>
        <time>2022-08-05T09:53:12.000Z</time>
      </trkpt>
      <trkpt lat="42.94128" lon="1.81258">
        <ele>566</ele>
        <time>2022-08-05T09:53:14.000Z</time>
      </trkpt>
      <trkpt lat="42.94125" lon="1.81265">
        <ele>566</ele>
        <time>2022-08-05T09:53:16.000Z</time>
      </trkpt>
      <trkpt lat="42.94122" lon="1.81273">
        <ele>566</ele>
        <time>2022-08-05T09:53:18.000Z</time>
      </trkpt>
      <trkpt lat="42.94118" lon="1.81283">
        <ele>566</ele>
        <time>2022-08-05T09:53:20.000Z</time>
      </trkpt>
      <trkpt lat="42.94117" lon="1.81292">
        <ele>567</ele>
        <time>2022-08-05T09:53:22.000Z</time>
      </trkpt>
      <trkpt lat="42.94113" lon="1.81302">
        <ele>567</ele>
        <time>2022-08-05T09:53:24.000Z</time>
      </trkpt>
      <trkpt lat="42.94112" lon="1.8131">
        <ele>567</ele>
        <time>2022-08-05T09:53:26.000Z</time>
      </trkpt>
      <trkpt lat="42.9411" lon="1.81322">
        <ele>567</ele>
        <time>2022-08-05T09:53:28.000Z</time>
      </trkpt>
      <trkpt lat="42.94107" lon="1.81333">
        <ele>567</ele>
        <time>2022-08-05T09:53:30.000Z</time>
      </trkpt>
      <trkpt lat="42.94105" lon="1.81343">
        <ele>567</ele>
        <time>2022-08-05T09:53:32.000Z</time>
      </trkpt>
      <trkpt lat="42.94103" lon="1.8135">
        <ele>567</ele>
        <time>2022-08-05T09:53:33.000Z</time>
      </trkpt>
      <trkpt lat="42.94102" lon="1.81362">
        <ele>567</ele>
        <time>2022-08-05T09:53:35.000Z</time>
      </trkpt>
      <trkpt lat="42.94098" lon="1.81372">
        <ele>568</ele>
        <time>2022-08-05T09:53:37.000Z</time>
      </trkpt>
      <trkpt lat="42.94097" lon="1.81382">
        <ele>568</ele>
        <time>2022-08-05T09:53:39.000Z</time>
      </trkpt>
      <trkpt lat="42.94093" lon="1.81393">
        <ele>568</ele>
        <time>2022-08-05T09:53:41.000Z</time>
      </trkpt>
      <trkpt lat="42.9409" lon="1.81403">
        <ele>568</ele>
        <time>2022-08-05T09:53:43.000Z</time>
      </trkpt>
      <trkpt lat="42.94088" lon="1.81415">
        <ele>568</ele>
        <time>2022-08-05T09:53:45.000Z</time>
      </trkpt>
      <trkpt lat="42.94087" lon="1.8142">
        <ele>568</ele>
        <time>2022-08-05T09:53:46.000Z</time>
      </trkpt>
      <trkpt lat="42.94083" lon="1.81427">
        <ele>569</ele>
        <time>2022-08-05T09:53:47.000Z</time>
      </trkpt>
      <trkpt lat="42.94082" lon="1.81432">
        <ele>569</ele>
        <time>2022-08-05T09:53:48.000Z</time>
      </trkpt>
      <trkpt lat="42.9408" lon="1.81438">
        <ele>569</ele>
        <time>2022-08-05T09:53:49.000Z</time>
      </trkpt>
      <trkpt lat="42.94078" lon="1.81443">
        <ele>569</ele>
        <time>2022-08-05T09:53:50.000Z</time>
      </trkpt>
      <trkpt lat="42.94075" lon="1.81455">
        <ele>569</ele>
        <time>2022-08-05T09:53:52.000Z</time>
      </trkpt>
      <trkpt lat="42.94072" lon="1.81467">
        <ele>569</ele>
        <time>2022-08-05T09:53:54.000Z</time>
      </trkpt>
      <trkpt lat="42.9407" lon="1.81478">
        <ele>569</ele>
        <time>2022-08-05T09:53:56.000Z</time>
      </trkpt>
      <trkpt lat="42.94067" lon="1.8149">
        <ele>569</ele>
        <time>2022-08-05T09:53:58.000Z</time>
      </trkpt>
      <trkpt lat="42.94063" lon="1.81502">
        <ele>569</ele>
        <time>2022-08-05T09:54:00.000Z</time>
      </trkpt>
      <trkpt lat="42.94062" lon="1.81507">
        <ele>570</ele>
        <time>2022-08-05T09:54:01.000Z</time>
      </trkpt>
      <trkpt lat="42.94062" lon="1.81513">
        <ele>570</ele>
        <time>2022-08-05T09:54:02.000Z</time>
      </trkpt>
      <trkpt lat="42.94058" lon="1.8152">
        <ele>570</ele>
        <time>2022-08-05T09:54:03.000Z</time>
      </trkpt>
      <trkpt lat="42.94057" lon="1.81528">
        <ele>570</ele>
        <time>2022-08-05T09:54:04.000Z</time>
      </trkpt>
      <trkpt lat="42.94055" lon="1.81535">
        <ele>570</ele>
        <time>2022-08-05T09:54:05.000Z</time>
      </trkpt>
      <trkpt lat="42.94052" lon="1.81543">
        <ele>570</ele>
        <time>2022-08-05T09:54:06.000Z</time>
      </trkpt>
      <trkpt lat="42.94052" lon="1.81552">
        <ele>570</ele>
        <time>2022-08-05T09:54:07.000Z</time>
      </trkpt>
      <trkpt lat="42.94048" lon="1.8156">
        <ele>570</ele>
        <time>2022-08-05T09:54:08.000Z</time>
      </trkpt>
      <trkpt lat="42.94048" lon="1.81568">
        <ele>570</ele>
        <time>2022-08-05T09:54:09.000Z</time>
      </trkpt>
      <trkpt lat="42.94045" lon="1.81577">
        <ele>570</ele>
        <time>2022-08-05T09:54:10.000Z</time>
      </trkpt>
      <trkpt lat="42.94043" lon="1.81587">
        <ele>570</ele>
        <time>2022-08-05T09:54:11.000Z</time>
      </trkpt>
      <trkpt lat="42.94042" lon="1.81597">
        <ele>570</ele>
        <time>2022-08-05T09:54:12.000Z</time>
      </trkpt>
      <trkpt lat="42.94038" lon="1.81605">
        <ele>570</ele>
        <time>2022-08-05T09:54:13.000Z</time>
      </trkpt>
      <trkpt lat="42.94035" lon="1.81615">
        <ele>570</ele>
        <time>2022-08-05T09:54:14.000Z</time>
      </trkpt>
      <trkpt lat="42.94032" lon="1.81627">
        <ele>570</ele>
        <time>2022-08-05T09:54:15.000Z</time>
      </trkpt>
      <trkpt lat="42.94028" lon="1.81637">
        <ele>570</ele>
        <time>2022-08-05T09:54:16.000Z</time>
      </trkpt>
      <trkpt lat="42.94027" lon="1.81648">
        <ele>570</ele>
        <time>2022-08-05T09:54:17.000Z</time>
      </trkpt>
      <trkpt lat="42.94023" lon="1.8166">
        <ele>570</ele>
        <time>2022-08-05T09:54:18.000Z</time>
      </trkpt>
      <trkpt lat="42.9402" lon="1.81672">
        <ele>570</ele>
        <time>2022-08-05T09:54:19.000Z</time>
      </trkpt>
      <trkpt lat="42.94017" lon="1.81683">
        <ele>570</ele>
        <time>2022-08-05T09:54:20.000Z</time>
      </trkpt>
      <trkpt lat="42.94013" lon="1.81697">
        <ele>570</ele>
        <time>2022-08-05T09:54:21.000Z</time>
      </trkpt>
      <trkpt lat="42.94012" lon="1.81708">
        <ele>569</ele>
        <time>2022-08-05T09:54:22.000Z</time>
      </trkpt>
      <trkpt lat="42.94008" lon="1.81722">
        <ele>569</ele>
        <time>2022-08-05T09:54:23.000Z</time>
      </trkpt>
      <trkpt lat="42.94005" lon="1.81735">
        <ele>569</ele>
        <time>2022-08-05T09:54:24.000Z</time>
      </trkpt>
      <trkpt lat="42.94002" lon="1.81748">
        <ele>569</ele>
        <time>2022-08-05T09:54:25.000Z</time>
      </trkpt>
      <trkpt lat="42.93998" lon="1.81762">
        <ele>569</ele>
        <time>2022-08-05T09:54:26.000Z</time>
      </trkpt>
      <trkpt lat="42.93995" lon="1.81775">
        <ele>568</ele>
        <time>2022-08-05T09:54:27.000Z</time>
      </trkpt>
      <trkpt lat="42.93992" lon="1.81788">
        <ele>568</ele>
        <time>2022-08-05T09:54:28.000Z</time>
      </trkpt>
      <trkpt lat="42.93988" lon="1.81803">
        <ele>568</ele>
        <time>2022-08-05T09:54:29.000Z</time>
      </trkpt>
      <trkpt lat="42.93985" lon="1.81817">
        <ele>568</ele>
        <time>2022-08-05T09:54:30.000Z</time>
      </trkpt>
      <trkpt lat="42.93983" lon="1.8183">
        <ele>568</ele>
        <time>2022-08-05T09:54:31.000Z</time>
      </trkpt>
      <trkpt lat="42.9398" lon="1.81845">
        <ele>568</ele>
        <time>2022-08-05T09:54:32.000Z</time>
      </trkpt>
      <trkpt lat="42.93978" lon="1.8186">
        <ele>567</ele>
        <time>2022-08-05T09:54:33.000Z</time>
      </trkpt>
      <trkpt lat="42.93975" lon="1.81875">
        <ele>567</ele>
        <time>2022-08-05T09:54:34.000Z</time>
      </trkpt>
      <trkpt lat="42.93972" lon="1.81888">
        <ele>567</ele>
        <time>2022-08-05T09:54:35.000Z</time>
      </trkpt>
      <trkpt lat="42.9397" lon="1.81903">
        <ele>567</ele>
        <time>2022-08-05T09:54:36.000Z</time>
      </trkpt>
      <trkpt lat="42.93967" lon="1.81918">
        <ele>566</ele>
        <time>2022-08-05T09:54:37.000Z</time>
      </trkpt>
      <trkpt lat="42.93963" lon="1.81932">
        <ele>566</ele>
        <time>2022-08-05T09:54:38.000Z</time>
      </trkpt>
      <trkpt lat="42.9396" lon="1.81945">
        <ele>566</ele>
        <time>2022-08-05T09:54:39.000Z</time>
      </trkpt>
      <trkpt lat="42.93958" lon="1.8196">
        <ele>566</ele>
        <time>2022-08-05T09:54:40.000Z</time>
      </trkpt>
      <trkpt lat="42.93955" lon="1.81973">
        <ele>566</ele>
        <time>2022-08-05T09:54:41.000Z</time>
      </trkpt>
      <trkpt lat="42.93953" lon="1.81988">
        <ele>565</ele>
        <time>2022-08-05T09:54:42.000Z</time>
      </trkpt>
      <trkpt lat="42.9395" lon="1.82003">
        <ele>565</ele>
        <time>2022-08-05T09:54:43.000Z</time>
      </trkpt>
      <trkpt lat="42.93947" lon="1.82017">
        <ele>565</ele>
        <time>2022-08-05T09:54:44.000Z</time>
      </trkpt>
      <trkpt lat="42.93945" lon="1.82032">
        <ele>565</ele>
        <time>2022-08-05T09:54:45.000Z</time>
      </trkpt>
      <trkpt lat="42.93942" lon="1.82045">
        <ele>564</ele>
        <time>2022-08-05T09:54:46.000Z</time>
      </trkpt>
      <trkpt lat="42.9394" lon="1.82058">
        <ele>564</ele>
        <time>2022-08-05T09:54:47.000Z</time>
      </trkpt>
      <trkpt lat="42.93937" lon="1.82072">
        <ele>564</ele>
        <time>2022-08-05T09:54:48.000Z</time>
      </trkpt>
      <trkpt lat="42.93935" lon="1.82087">
        <ele>564</ele>
        <time>2022-08-05T09:54:49.000Z</time>
      </trkpt>
      <trkpt lat="42.93933" lon="1.821">
        <ele>564</ele>
        <time>2022-08-05T09:54:50.000Z</time>
      </trkpt>
      <trkpt lat="42.93932" lon="1.82113">
        <ele>563</ele>
        <time>2022-08-05T09:54:51.000Z</time>
      </trkpt>
      <trkpt lat="42.9393" lon="1.82127">
        <ele>563</ele>
        <time>2022-08-05T09:54:52.000Z</time>
      </trkpt>
      <trkpt lat="42.9393" lon="1.8214">
        <ele>563</ele>
        <time>2022-08-05T09:54:53.000Z</time>
      </trkpt>
      <trkpt lat="42.9393" lon="1.82153">
        <ele>563</ele>
        <time>2022-08-05T09:54:54.000Z</time>
      </trkpt>
      <trkpt lat="42.93932" lon="1.82167">
        <ele>563</ele>
        <time>2022-08-05T09:54:55.000Z</time>
      </trkpt>
      <trkpt lat="42.93935" lon="1.82178">
        <ele>563</ele>
        <time>2022-08-05T09:54:56.000Z</time>
      </trkpt>
      <trkpt lat="42.93935" lon="1.82192">
        <ele>562</ele>
        <time>2022-08-05T09:54:57.000Z</time>
      </trkpt>
      <trkpt lat="42.93935" lon="1.82205">
        <ele>562</ele>
        <time>2022-08-05T09:54:58.000Z</time>
      </trkpt>
      <trkpt lat="42.93933" lon="1.82218">
        <ele>562</ele>
        <time>2022-08-05T09:54:59.000Z</time>
      </trkpt>
      <trkpt lat="42.9393" lon="1.8223">
        <ele>562</ele>
        <time>2022-08-05T09:55:00.000Z</time>
      </trkpt>
      <trkpt lat="42.93928" lon="1.82243">
        <ele>562</ele>
        <time>2022-08-05T09:55:01.000Z</time>
      </trkpt>
      <trkpt lat="42.93925" lon="1.82255">
        <ele>562</ele>
        <time>2022-08-05T09:55:02.000Z</time>
      </trkpt>
      <trkpt lat="42.93922" lon="1.82267">
        <ele>562</ele>
        <time>2022-08-05T09:55:03.000Z</time>
      </trkpt>
      <trkpt lat="42.93918" lon="1.82278">
        <ele>561</ele>
        <time>2022-08-05T09:55:04.000Z</time>
      </trkpt>
      <trkpt lat="42.93915" lon="1.8229">
        <ele>561</ele>
        <time>2022-08-05T09:55:05.000Z</time>
      </trkpt>
      <trkpt lat="42.93912" lon="1.82303">
        <ele>561</ele>
        <time>2022-08-05T09:55:06.000Z</time>
      </trkpt>
      <trkpt lat="42.93908" lon="1.82315">
        <ele>561</ele>
        <time>2022-08-05T09:55:07.000Z</time>
      </trkpt>
      <trkpt lat="42.93905" lon="1.82327">
        <ele>561</ele>
        <time>2022-08-05T09:55:08.000Z</time>
      </trkpt>
      <trkpt lat="42.93903" lon="1.82338">
        <ele>561</ele>
        <time>2022-08-05T09:55:09.000Z</time>
      </trkpt>
      <trkpt lat="42.939" lon="1.8235">
        <ele>561</ele>
        <time>2022-08-05T09:55:10.000Z</time>
      </trkpt>
      <trkpt lat="42.93897" lon="1.82362">
        <ele>561</ele>
        <time>2022-08-05T09:55:11.000Z</time>
      </trkpt>
      <trkpt lat="42.93893" lon="1.82373">
        <ele>560</ele>
        <time>2022-08-05T09:55:12.000Z</time>
      </trkpt>
      <trkpt lat="42.9389" lon="1.82385">
        <ele>560</ele>
        <time>2022-08-05T09:55:13.000Z</time>
      </trkpt>
      <trkpt lat="42.93888" lon="1.82398">
        <ele>560</ele>
        <time>2022-08-05T09:55:14.000Z</time>
      </trkpt>
      <trkpt lat="42.93887" lon="1.8241">
        <ele>560</ele>
        <time>2022-08-05T09:55:15.000Z</time>
      </trkpt>
      <trkpt lat="42.93885" lon="1.82422">
        <ele>560</ele>
        <time>2022-08-05T09:55:16.000Z</time>
      </trkpt>
      <trkpt lat="42.93883" lon="1.82433">
        <ele>560</ele>
        <time>2022-08-05T09:55:17.000Z</time>
      </trkpt>
      <trkpt lat="42.9388" lon="1.82445">
        <ele>560</ele>
        <time>2022-08-05T09:55:18.000Z</time>
      </trkpt>
      <trkpt lat="42.9388" lon="1.82458">
        <ele>560</ele>
        <time>2022-08-05T09:55:19.000Z</time>
      </trkpt>
      <trkpt lat="42.93877" lon="1.8247">
        <ele>560</ele>
        <time>2022-08-05T09:55:20.000Z</time>
      </trkpt>
      <trkpt lat="42.93875" lon="1.82482">
        <ele>560</ele>
        <time>2022-08-05T09:55:21.000Z</time>
      </trkpt>
      <trkpt lat="42.93872" lon="1.82493">
        <ele>559</ele>
        <time>2022-08-05T09:55:22.000Z</time>
      </trkpt>
      <trkpt lat="42.9387" lon="1.82505">
        <ele>559</ele>
        <time>2022-08-05T09:55:23.000Z</time>
      </trkpt>
      <trkpt lat="42.93867" lon="1.82517">
        <ele>559</ele>
        <time>2022-08-05T09:55:24.000Z</time>
      </trkpt>
      <trkpt lat="42.93865" lon="1.82527">
        <ele>559</ele>
        <time>2022-08-05T09:55:25.000Z</time>
      </trkpt>
      <trkpt lat="42.93865" lon="1.8254">
        <ele>559</ele>
        <time>2022-08-05T09:55:26.000Z</time>
      </trkpt>
      <trkpt lat="42.93863" lon="1.82552">
        <ele>559</ele>
        <time>2022-08-05T09:55:27.000Z</time>
      </trkpt>
      <trkpt lat="42.93862" lon="1.82563">
        <ele>559</ele>
        <time>2022-08-05T09:55:28.000Z</time>
      </trkpt>
      <trkpt lat="42.9386" lon="1.82575">
        <ele>559</ele>
        <time>2022-08-05T09:55:29.000Z</time>
      </trkpt>
      <trkpt lat="42.93857" lon="1.82587">
        <ele>559</ele>
        <time>2022-08-05T09:55:30.000Z</time>
      </trkpt>
      <trkpt lat="42.93852" lon="1.82597">
        <ele>558</ele>
        <time>2022-08-05T09:55:31.000Z</time>
      </trkpt>
      <trkpt lat="42.93847" lon="1.82607">
        <ele>558</ele>
        <time>2022-08-05T09:55:32.000Z</time>
      </trkpt>
      <trkpt lat="42.93842" lon="1.82617">
        <ele>558</ele>
        <time>2022-08-05T09:55:33.000Z</time>
      </trkpt>
      <trkpt lat="42.93837" lon="1.82627">
        <ele>558</ele>
        <time>2022-08-05T09:55:34.000Z</time>
      </trkpt>
      <trkpt lat="42.93833" lon="1.82637">
        <ele>558</ele>
        <time>2022-08-05T09:55:35.000Z</time>
      </trkpt>
      <trkpt lat="42.93828" lon="1.82648">
        <ele>558</ele>
        <time>2022-08-05T09:55:36.000Z</time>
      </trkpt>
      <trkpt lat="42.93823" lon="1.82658">
        <ele>558</ele>
        <time>2022-08-05T09:55:37.000Z</time>
      </trkpt>
      <trkpt lat="42.93818" lon="1.82668">
        <ele>558</ele>
        <time>2022-08-05T09:55:38.000Z</time>
      </trkpt>
      <trkpt lat="42.93813" lon="1.82678">
        <ele>557</ele>
        <time>2022-08-05T09:55:39.000Z</time>
      </trkpt>
      <trkpt lat="42.93807" lon="1.8269">
        <ele>557</ele>
        <time>2022-08-05T09:55:40.000Z</time>
      </trkpt>
      <trkpt lat="42.93803" lon="1.82702">
        <ele>557</ele>
        <time>2022-08-05T09:55:41.000Z</time>
      </trkpt>
      <trkpt lat="42.93798" lon="1.82713">
        <ele>557</ele>
        <time>2022-08-05T09:55:42.000Z</time>
      </trkpt>
      <trkpt lat="42.93793" lon="1.82727">
        <ele>557</ele>
        <time>2022-08-05T09:55:43.000Z</time>
      </trkpt>
      <trkpt lat="42.9379" lon="1.82738">
        <ele>557</ele>
        <time>2022-08-05T09:55:44.000Z</time>
      </trkpt>
      <trkpt lat="42.93788" lon="1.82752">
        <ele>557</ele>
        <time>2022-08-05T09:55:45.000Z</time>
      </trkpt>
      <trkpt lat="42.93785" lon="1.82765">
        <ele>557</ele>
        <time>2022-08-05T09:55:46.000Z</time>
      </trkpt>
      <trkpt lat="42.93782" lon="1.82778">
        <ele>556</ele>
        <time>2022-08-05T09:55:47.000Z</time>
      </trkpt>
      <trkpt lat="42.93778" lon="1.8279">
        <ele>556</ele>
        <time>2022-08-05T09:55:48.000Z</time>
      </trkpt>
      <trkpt lat="42.93777" lon="1.82803">
        <ele>556</ele>
        <time>2022-08-05T09:55:49.000Z</time>
      </trkpt>
      <trkpt lat="42.93775" lon="1.82815">
        <ele>556</ele>
        <time>2022-08-05T09:55:50.000Z</time>
      </trkpt>
      <trkpt lat="42.93772" lon="1.82828">
        <ele>556</ele>
        <time>2022-08-05T09:55:51.000Z</time>
      </trkpt>
      <trkpt lat="42.9377" lon="1.82842">
        <ele>556</ele>
        <time>2022-08-05T09:55:52.000Z</time>
      </trkpt>
      <trkpt lat="42.93767" lon="1.82853">
        <ele>555</ele>
        <time>2022-08-05T09:55:53.000Z</time>
      </trkpt>
      <trkpt lat="42.93765" lon="1.82867">
        <ele>555</ele>
        <time>2022-08-05T09:55:54.000Z</time>
      </trkpt>
      <trkpt lat="42.93763" lon="1.8288">
        <ele>555</ele>
        <time>2022-08-05T09:55:55.000Z</time>
      </trkpt>
      <trkpt lat="42.9376" lon="1.82893">
        <ele>555</ele>
        <time>2022-08-05T09:55:56.000Z</time>
      </trkpt>
      <trkpt lat="42.93758" lon="1.82905">
        <ele>555</ele>
        <time>2022-08-05T09:55:57.000Z</time>
      </trkpt>
      <trkpt lat="42.93755" lon="1.8292">
        <ele>554</ele>
        <time>2022-08-05T09:55:58.000Z</time>
      </trkpt>
      <trkpt lat="42.93753" lon="1.82933">
        <ele>554</ele>
        <time>2022-08-05T09:55:59.000Z</time>
      </trkpt>
      <trkpt lat="42.9375" lon="1.82948">
        <ele>554</ele>
        <time>2022-08-05T09:56:00.000Z</time>
      </trkpt>
      <trkpt lat="42.93748" lon="1.82962">
        <ele>553</ele>
        <time>2022-08-05T09:56:01.000Z</time>
      </trkpt>
      <trkpt lat="42.93747" lon="1.82977">
        <ele>553</ele>
        <time>2022-08-05T09:56:02.000Z</time>
      </trkpt>
      <trkpt lat="42.93745" lon="1.82992">
        <ele>553</ele>
        <time>2022-08-05T09:56:03.000Z</time>
      </trkpt>
      <trkpt lat="42.93743" lon="1.83007">
        <ele>552</ele>
        <time>2022-08-05T09:56:04.000Z</time>
      </trkpt>
      <trkpt lat="42.9374" lon="1.83022">
        <ele>552</ele>
        <time>2022-08-05T09:56:05.000Z</time>
      </trkpt>
      <trkpt lat="42.93735" lon="1.83037">
        <ele>551</ele>
        <time>2022-08-05T09:56:06.000Z</time>
      </trkpt>
      <trkpt lat="42.9373" lon="1.83052">
        <ele>551</ele>
        <time>2022-08-05T09:56:07.000Z</time>
      </trkpt>
      <trkpt lat="42.93723" lon="1.83065">
        <ele>551</ele>
        <time>2022-08-05T09:56:08.000Z</time>
      </trkpt>
      <trkpt lat="42.93717" lon="1.83078">
        <ele>550</ele>
        <time>2022-08-05T09:56:09.000Z</time>
      </trkpt>
      <trkpt lat="42.9371" lon="1.83092">
        <ele>550</ele>
        <time>2022-08-05T09:56:10.000Z</time>
      </trkpt>
      <trkpt lat="42.93703" lon="1.83103">
        <ele>550</ele>
        <time>2022-08-05T09:56:11.000Z</time>
      </trkpt>
      <trkpt lat="42.93697" lon="1.83117">
        <ele>549</ele>
        <time>2022-08-05T09:56:12.000Z</time>
      </trkpt>
      <trkpt lat="42.9369" lon="1.8313">
        <ele>549</ele>
        <time>2022-08-05T09:56:13.000Z</time>
      </trkpt>
      <trkpt lat="42.93683" lon="1.83143">
        <ele>548</ele>
        <time>2022-08-05T09:56:14.000Z</time>
      </trkpt>
      <trkpt lat="42.93677" lon="1.83157">
        <ele>548</ele>
        <time>2022-08-05T09:56:15.000Z</time>
      </trkpt>
      <trkpt lat="42.9367" lon="1.8317">
        <ele>548</ele>
        <time>2022-08-05T09:56:16.000Z</time>
      </trkpt>
      <trkpt lat="42.93665" lon="1.83183">
        <ele>547</ele>
        <time>2022-08-05T09:56:17.000Z</time>
      </trkpt>
      <trkpt lat="42.9366" lon="1.83198">
        <ele>547</ele>
        <time>2022-08-05T09:56:18.000Z</time>
      </trkpt>
      <trkpt lat="42.93653" lon="1.8321">
        <ele>546</ele>
        <time>2022-08-05T09:56:19.000Z</time>
      </trkpt>
      <trkpt lat="42.93647" lon="1.83223">
        <ele>546</ele>
        <time>2022-08-05T09:56:20.000Z</time>
      </trkpt>
      <trkpt lat="42.9364" lon="1.83237">
        <ele>545</ele>
        <time>2022-08-05T09:56:21.000Z</time>
      </trkpt>
      <trkpt lat="42.93633" lon="1.8325">
        <ele>545</ele>
        <time>2022-08-05T09:56:22.000Z</time>
      </trkpt>
      <trkpt lat="42.93627" lon="1.83263">
        <ele>545</ele>
        <time>2022-08-05T09:56:23.000Z</time>
      </trkpt>
      <trkpt lat="42.9362" lon="1.83275">
        <ele>544</ele>
        <time>2022-08-05T09:56:24.000Z</time>
      </trkpt>
      <trkpt lat="42.93615" lon="1.83288">
        <ele>544</ele>
        <time>2022-08-05T09:56:25.000Z</time>
      </trkpt>
      <trkpt lat="42.93608" lon="1.83302">
        <ele>543</ele>
        <time>2022-08-05T09:56:26.000Z</time>
      </trkpt>
      <trkpt lat="42.93603" lon="1.83315">
        <ele>543</ele>
        <time>2022-08-05T09:56:27.000Z</time>
      </trkpt>
      <trkpt lat="42.93597" lon="1.83328">
        <ele>542</ele>
        <time>2022-08-05T09:56:28.000Z</time>
      </trkpt>
      <trkpt lat="42.93588" lon="1.8334">
        <ele>542</ele>
        <time>2022-08-05T09:56:29.000Z</time>
      </trkpt>
      <trkpt lat="42.93583" lon="1.83353">
        <ele>542</ele>
        <time>2022-08-05T09:56:30.000Z</time>
      </trkpt>
      <trkpt lat="42.93577" lon="1.83367">
        <ele>541</ele>
        <time>2022-08-05T09:56:31.000Z</time>
      </trkpt>
      <trkpt lat="42.9357" lon="1.8338">
        <ele>541</ele>
        <time>2022-08-05T09:56:32.000Z</time>
      </trkpt>
      <trkpt lat="42.93565" lon="1.83393">
        <ele>540</ele>
        <time>2022-08-05T09:56:33.000Z</time>
      </trkpt>
      <trkpt lat="42.9356" lon="1.83408">
        <ele>540</ele>
        <time>2022-08-05T09:56:34.000Z</time>
      </trkpt>
      <trkpt lat="42.93553" lon="1.83423">
        <ele>539</ele>
        <time>2022-08-05T09:56:35.000Z</time>
      </trkpt>
      <trkpt lat="42.93548" lon="1.83437">
        <ele>539</ele>
        <time>2022-08-05T09:56:36.000Z</time>
      </trkpt>
      <trkpt lat="42.93543" lon="1.83452">
        <ele>538</ele>
        <time>2022-08-05T09:56:37.000Z</time>
      </trkpt>
      <trkpt lat="42.93538" lon="1.83467">
        <ele>538</ele>
        <time>2022-08-05T09:56:38.000Z</time>
      </trkpt>
      <trkpt lat="42.93532" lon="1.8348">
        <ele>538</ele>
        <time>2022-08-05T09:56:39.000Z</time>
      </trkpt>
      <trkpt lat="42.93527" lon="1.83495">
        <ele>537</ele>
        <time>2022-08-05T09:56:40.000Z</time>
      </trkpt>
      <trkpt lat="42.9352" lon="1.83508">
        <ele>537</ele>
        <time>2022-08-05T09:56:41.000Z</time>
      </trkpt>
      <trkpt lat="42.93513" lon="1.83522">
        <ele>536</ele>
        <time>2022-08-05T09:56:42.000Z</time>
      </trkpt>
      <trkpt lat="42.93507" lon="1.83535">
        <ele>536</ele>
        <time>2022-08-05T09:56:43.000Z</time>
      </trkpt>
      <trkpt lat="42.935" lon="1.83548">
        <ele>536</ele>
        <time>2022-08-05T09:56:44.000Z</time>
      </trkpt>
      <trkpt lat="42.93493" lon="1.8356">
        <ele>535</ele>
        <time>2022-08-05T09:56:45.000Z</time>
      </trkpt>
      <trkpt lat="42.93488" lon="1.83572">
        <ele>535</ele>
        <time>2022-08-05T09:56:46.000Z</time>
      </trkpt>
      <trkpt lat="42.93482" lon="1.83585">
        <ele>534</ele>
        <time>2022-08-05T09:56:47.000Z</time>
      </trkpt>
      <trkpt lat="42.93475" lon="1.83597">
        <ele>534</ele>
        <time>2022-08-05T09:56:48.000Z</time>
      </trkpt>
      <trkpt lat="42.9347" lon="1.8361">
        <ele>534</ele>
        <time>2022-08-05T09:56:49.000Z</time>
      </trkpt>
      <trkpt lat="42.93463" lon="1.83622">
        <ele>533</ele>
        <time>2022-08-05T09:56:50.000Z</time>
      </trkpt>
      <trkpt lat="42.93458" lon="1.83633">
        <ele>533</ele>
        <time>2022-08-05T09:56:51.000Z</time>
      </trkpt>
      <trkpt lat="42.93453" lon="1.83645">
        <ele>533</ele>
        <time>2022-08-05T09:56:52.000Z</time>
      </trkpt>
      <trkpt lat="42.93447" lon="1.83657">
        <ele>533</ele>
        <time>2022-08-05T09:56:53.000Z</time>
      </trkpt>
      <trkpt lat="42.93442" lon="1.83667">
        <ele>532</ele>
        <time>2022-08-05T09:56:54.000Z</time>
      </trkpt>
      <trkpt lat="42.93437" lon="1.83678">
        <ele>532</ele>
        <time>2022-08-05T09:56:55.000Z</time>
      </trkpt>
      <trkpt lat="42.9343" lon="1.83688">
        <ele>532</ele>
        <time>2022-08-05T09:56:56.000Z</time>
      </trkpt>
      <trkpt lat="42.93425" lon="1.83698">
        <ele>532</ele>
        <time>2022-08-05T09:56:57.000Z</time>
      </trkpt>
      <trkpt lat="42.9342" lon="1.8371">
        <ele>531</ele>
        <time>2022-08-05T09:56:58.000Z</time>
      </trkpt>
      <trkpt lat="42.93417" lon="1.83722">
        <ele>531</ele>
        <time>2022-08-05T09:56:59.000Z</time>
      </trkpt>
      <trkpt lat="42.93413" lon="1.83733">
        <ele>531</ele>
        <time>2022-08-05T09:57:00.000Z</time>
      </trkpt>
      <trkpt lat="42.9341" lon="1.83743">
        <ele>531</ele>
        <time>2022-08-05T09:57:01.000Z</time>
      </trkpt>
      <trkpt lat="42.93407" lon="1.83755">
        <ele>531</ele>
        <time>2022-08-05T09:57:02.000Z</time>
      </trkpt>
      <trkpt lat="42.93402" lon="1.83767">
        <ele>530</ele>
        <time>2022-08-05T09:57:03.000Z</time>
      </trkpt>
      <trkpt lat="42.93398" lon="1.83777">
        <ele>530</ele>
        <time>2022-08-05T09:57:04.000Z</time>
      </trkpt>
      <trkpt lat="42.93395" lon="1.83787">
        <ele>530</ele>
        <time>2022-08-05T09:57:05.000Z</time>
      </trkpt>
      <trkpt lat="42.93392" lon="1.83798">
        <ele>530</ele>
        <time>2022-08-05T09:57:06.000Z</time>
      </trkpt>
      <trkpt lat="42.93388" lon="1.83808">
        <ele>530</ele>
        <time>2022-08-05T09:57:07.000Z</time>
      </trkpt>
      <trkpt lat="42.93383" lon="1.8382">
        <ele>530</ele>
        <time>2022-08-05T09:57:08.000Z</time>
      </trkpt>
      <trkpt lat="42.9338" lon="1.83832">
        <ele>529</ele>
        <time>2022-08-05T09:57:09.000Z</time>
      </trkpt>
      <trkpt lat="42.93377" lon="1.83842">
        <ele>529</ele>
        <time>2022-08-05T09:57:10.000Z</time>
      </trkpt>
      <trkpt lat="42.93372" lon="1.83853">
        <ele>529</ele>
        <time>2022-08-05T09:57:11.000Z</time>
      </trkpt>
      <trkpt lat="42.93368" lon="1.83865">
        <ele>529</ele>
        <time>2022-08-05T09:57:12.000Z</time>
      </trkpt>
      <trkpt lat="42.93362" lon="1.83873">
        <ele>529</ele>
        <time>2022-08-05T09:57:13.000Z</time>
      </trkpt>
      <trkpt lat="42.93355" lon="1.8388">
        <ele>528</ele>
        <time>2022-08-05T09:57:14.000Z</time>
      </trkpt>
      <trkpt lat="42.93345" lon="1.83885">
        <ele>528</ele>
        <time>2022-08-05T09:57:15.000Z</time>
      </trkpt>
      <trkpt lat="42.93335" lon="1.83888">
        <ele>528</ele>
        <time>2022-08-05T09:57:16.000Z</time>
      </trkpt>
      <trkpt lat="42.93323" lon="1.8389">
        <ele>527</ele>
        <time>2022-08-05T09:57:17.000Z</time>
      </trkpt>
      <trkpt lat="42.93313" lon="1.83893">
        <ele>527</ele>
        <time>2022-08-05T09:57:18.000Z</time>
      </trkpt>
      <trkpt lat="42.93303" lon="1.83895">
        <ele>527</ele>
        <time>2022-08-05T09:57:19.000Z</time>
      </trkpt>
      <trkpt lat="42.93293" lon="1.83898">
        <ele>526</ele>
        <time>2022-08-05T09:57:20.000Z</time>
      </trkpt>
      <trkpt lat="42.93282" lon="1.83903">
        <ele>526</ele>
        <time>2022-08-05T09:57:21.000Z</time>
      </trkpt>
      <trkpt lat="42.9327" lon="1.83907">
        <ele>526</ele>
        <time>2022-08-05T09:57:22.000Z</time>
      </trkpt>
      <trkpt lat="42.9326" lon="1.8391">
        <ele>525</ele>
        <time>2022-08-05T09:57:23.000Z</time>
      </trkpt>
      <trkpt lat="42.93248" lon="1.83913">
        <ele>525</ele>
        <time>2022-08-05T09:57:24.000Z</time>
      </trkpt>
      <trkpt lat="42.93238" lon="1.83917">
        <ele>524</ele>
        <time>2022-08-05T09:57:25.000Z</time>
      </trkpt>
      <trkpt lat="42.93227" lon="1.83922">
        <ele>524</ele>
        <time>2022-08-05T09:57:26.000Z</time>
      </trkpt>
      <trkpt lat="42.93215" lon="1.83923">
        <ele>524</ele>
        <time>2022-08-05T09:57:27.000Z</time>
      </trkpt>
      <trkpt lat="42.93205" lon="1.83927">
        <ele>523</ele>
        <time>2022-08-05T09:57:28.000Z</time>
      </trkpt>
      <trkpt lat="42.93193" lon="1.8393">
        <ele>523</ele>
        <time>2022-08-05T09:57:29.000Z</time>
      </trkpt>
      <trkpt lat="42.93183" lon="1.83933">
        <ele>523</ele>
        <time>2022-08-05T09:57:30.000Z</time>
      </trkpt>
      <trkpt lat="42.93173" lon="1.83935">
        <ele>523</ele>
        <time>2022-08-05T09:57:31.000Z</time>
      </trkpt>
      <trkpt lat="42.93165" lon="1.83938">
        <ele>522</ele>
        <time>2022-08-05T09:57:32.000Z</time>
      </trkpt>
      <trkpt lat="42.93155" lon="1.83942">
        <ele>522</ele>
        <time>2022-08-05T09:57:33.000Z</time>
      </trkpt>
      <trkpt lat="42.93147" lon="1.83943">
        <ele>522</ele>
        <time>2022-08-05T09:57:34.000Z</time>
      </trkpt>
      <trkpt lat="42.93138" lon="1.83947">
        <ele>522</ele>
        <time>2022-08-05T09:57:35.000Z</time>
      </trkpt>
      <trkpt lat="42.93132" lon="1.83948">
        <ele>522</ele>
        <time>2022-08-05T09:57:36.000Z</time>
      </trkpt>
      <trkpt lat="42.93125" lon="1.8395">
        <ele>522</ele>
        <time>2022-08-05T09:57:37.000Z</time>
      </trkpt>
      <trkpt lat="42.93118" lon="1.83952">
        <ele>522</ele>
        <time>2022-08-05T09:57:38.000Z</time>
      </trkpt>
      <trkpt lat="42.93112" lon="1.83953">
        <ele>522</ele>
        <time>2022-08-05T09:57:39.000Z</time>
      </trkpt>
      <trkpt lat="42.93105" lon="1.83955">
        <ele>523</ele>
        <time>2022-08-05T09:57:40.000Z</time>
      </trkpt>
      <trkpt lat="42.931" lon="1.83957">
        <ele>523</ele>
        <time>2022-08-05T09:57:41.000Z</time>
      </trkpt>
      <trkpt lat="42.93092" lon="1.8396">
        <ele>523</ele>
        <time>2022-08-05T09:57:43.000Z</time>
      </trkpt>
      <trkpt lat="42.93085" lon="1.8396">
        <ele>524</ele>
        <time>2022-08-05T09:57:45.000Z</time>
      </trkpt>
      <trkpt lat="42.93078" lon="1.83963">
        <ele>524</ele>
        <time>2022-08-05T09:57:47.000Z</time>
      </trkpt>
      <trkpt lat="42.93073" lon="1.83965">
        <ele>525</ele>
        <time>2022-08-05T09:57:49.000Z</time>
      </trkpt>
      <trkpt lat="42.93067" lon="1.83967">
        <ele>525</ele>
        <time>2022-08-05T09:57:51.000Z</time>
      </trkpt>
      <trkpt lat="42.9306" lon="1.83967">
        <ele>525</ele>
        <time>2022-08-05T09:57:53.000Z</time>
      </trkpt>
      <trkpt lat="42.93053" lon="1.83968">
        <ele>525</ele>
        <time>2022-08-05T09:57:55.000Z</time>
      </trkpt>
      <trkpt lat="42.93047" lon="1.83968">
        <ele>526</ele>
        <time>2022-08-05T09:57:57.000Z</time>
      </trkpt>
      <trkpt lat="42.9304" lon="1.83967">
        <ele>526</ele>
        <time>2022-08-05T09:57:59.000Z</time>
      </trkpt>
      <trkpt lat="42.93035" lon="1.83965">
        <ele>526</ele>
        <time>2022-08-05T09:58:01.000Z</time>
      </trkpt>
      <trkpt lat="42.93027" lon="1.83965">
        <ele>527</ele>
        <time>2022-08-05T09:58:03.000Z</time>
      </trkpt>
      <trkpt lat="42.93022" lon="1.83963">
        <ele>527</ele>
        <time>2022-08-05T09:58:05.000Z</time>
      </trkpt>
      <trkpt lat="42.93015" lon="1.83962">
        <ele>527</ele>
        <time>2022-08-05T09:58:07.000Z</time>
      </trkpt>
      <trkpt lat="42.93008" lon="1.8396">
        <ele>527</ele>
        <time>2022-08-05T09:58:09.000Z</time>
      </trkpt>
      <trkpt lat="42.93002" lon="1.83958">
        <ele>528</ele>
        <time>2022-08-05T09:58:11.000Z</time>
      </trkpt>
      <trkpt lat="42.92997" lon="1.83955">
        <ele>528</ele>
        <time>2022-08-05T09:58:13.000Z</time>
      </trkpt>
      <trkpt lat="42.9299" lon="1.83953">
        <ele>528</ele>
        <time>2022-08-05T09:58:15.000Z</time>
      </trkpt>
      <trkpt lat="42.92985" lon="1.83952">
        <ele>528</ele>
        <time>2022-08-05T09:58:17.000Z</time>
      </trkpt>
      <trkpt lat="42.9298" lon="1.83948">
        <ele>529</ele>
        <time>2022-08-05T09:58:19.000Z</time>
      </trkpt>
      <trkpt lat="42.92975" lon="1.83948">
        <ele>529</ele>
        <time>2022-08-05T09:58:21.000Z</time>
      </trkpt>
      <trkpt lat="42.92968" lon="1.83947">
        <ele>529</ele>
        <time>2022-08-05T09:58:23.000Z</time>
      </trkpt>
      <trkpt lat="42.92963" lon="1.83945">
        <ele>529</ele>
        <time>2022-08-05T09:58:25.000Z</time>
      </trkpt>
      <trkpt lat="42.92958" lon="1.83943">
        <ele>529</ele>
        <time>2022-08-05T09:58:27.000Z</time>
      </trkpt>
      <trkpt lat="42.92953" lon="1.83942">
        <ele>529</ele>
        <time>2022-08-05T09:58:29.000Z</time>
      </trkpt>
      <trkpt lat="42.92947" lon="1.8394">
        <ele>530</ele>
        <time>2022-08-05T09:58:31.000Z</time>
      </trkpt>
      <trkpt lat="42.9294" lon="1.83938">
        <ele>530</ele>
        <time>2022-08-05T09:58:33.000Z</time>
      </trkpt>
      <trkpt lat="42.92933" lon="1.83935">
        <ele>530</ele>
        <time>2022-08-05T09:58:35.000Z</time>
      </trkpt>
      <trkpt lat="42.92925" lon="1.83933">
        <ele>530</ele>
        <time>2022-08-05T09:58:37.000Z</time>
      </trkpt>
      <trkpt lat="42.92918" lon="1.8393">
        <ele>530</ele>
        <time>2022-08-05T09:58:39.000Z</time>
      </trkpt>
      <trkpt lat="42.92912" lon="1.83928">
        <ele>531</ele>
        <time>2022-08-05T09:58:41.000Z</time>
      </trkpt>
      <trkpt lat="42.92905" lon="1.83925">
        <ele>531</ele>
        <time>2022-08-05T09:58:43.000Z</time>
      </trkpt>
      <trkpt lat="42.92898" lon="1.83923">
        <ele>531</ele>
        <time>2022-08-05T09:58:45.000Z</time>
      </trkpt>
      <trkpt lat="42.92892" lon="1.83922">
        <ele>531</ele>
        <time>2022-08-05T09:58:47.000Z</time>
      </trkpt>
      <trkpt lat="42.92887" lon="1.8392">
        <ele>531</ele>
        <time>2022-08-05T09:58:49.000Z</time>
      </trkpt>
      <trkpt lat="42.92882" lon="1.83918">
        <ele>531</ele>
        <time>2022-08-05T09:58:51.000Z</time>
      </trkpt>
      <trkpt lat="42.92877" lon="1.83917">
        <ele>532</ele>
        <time>2022-08-05T09:58:53.000Z</time>
      </trkpt>
      <trkpt lat="42.92872" lon="1.83915">
        <ele>532</ele>
        <time>2022-08-05T09:58:55.000Z</time>
      </trkpt>
      <trkpt lat="42.92865" lon="1.83912">
        <ele>532</ele>
        <time>2022-08-05T09:58:57.000Z</time>
      </trkpt>
      <trkpt lat="42.92858" lon="1.8391">
        <ele>532</ele>
        <time>2022-08-05T09:58:59.000Z</time>
      </trkpt>
      <trkpt lat="42.92852" lon="1.83908">
        <ele>532</ele>
        <time>2022-08-05T09:59:01.000Z</time>
      </trkpt>
      <trkpt lat="42.92843" lon="1.83905">
        <ele>532</ele>
        <time>2022-08-05T09:59:03.000Z</time>
      </trkpt>
      <trkpt lat="42.92837" lon="1.83902">
        <ele>532</ele>
        <time>2022-08-05T09:59:05.000Z</time>
      </trkpt>
      <trkpt lat="42.9283" lon="1.839">
        <ele>533</ele>
        <time>2022-08-05T09:59:07.000Z</time>
      </trkpt>
      <trkpt lat="42.92825" lon="1.83898">
        <ele>533</ele>
        <time>2022-08-05T09:59:09.000Z</time>
      </trkpt>
      <trkpt lat="42.9282" lon="1.83897">
        <ele>533</ele>
        <time>2022-08-05T09:59:11.000Z</time>
      </trkpt>
      <trkpt lat="42.92813" lon="1.83895">
        <ele>533</ele>
        <time>2022-08-05T09:59:13.000Z</time>
      </trkpt>
      <trkpt lat="42.9281" lon="1.83893">
        <ele>533</ele>
        <time>2022-08-05T09:59:14.000Z</time>
      </trkpt>
      <trkpt lat="42.92803" lon="1.83892">
        <ele>533</ele>
        <time>2022-08-05T09:59:16.000Z</time>
      </trkpt>
      <trkpt lat="42.92798" lon="1.8389">
        <ele>534</ele>
        <time>2022-08-05T09:59:18.000Z</time>
      </trkpt>
      <trkpt lat="42.92792" lon="1.83888">
        <ele>534</ele>
        <time>2022-08-05T09:59:20.000Z</time>
      </trkpt>
      <trkpt lat="42.92785" lon="1.83887">
        <ele>534</ele>
        <time>2022-08-05T09:59:22.000Z</time>
      </trkpt>
      <trkpt lat="42.92782" lon="1.83885">
        <ele>534</ele>
        <time>2022-08-05T09:59:23.000Z</time>
      </trkpt>
      <trkpt lat="42.92775" lon="1.83883">
        <ele>534</ele>
        <time>2022-08-05T09:59:25.000Z</time>
      </trkpt>
      <trkpt lat="42.92768" lon="1.83882">
        <ele>534</ele>
        <time>2022-08-05T09:59:27.000Z</time>
      </trkpt>
      <trkpt lat="42.92763" lon="1.83882">
        <ele>535</ele>
        <time>2022-08-05T09:59:29.000Z</time>
      </trkpt>
      <trkpt lat="42.92757" lon="1.83878">
        <ele>535</ele>
        <time>2022-08-05T09:59:31.000Z</time>
      </trkpt>
      <trkpt lat="42.9275" lon="1.83877">
        <ele>535</ele>
        <time>2022-08-05T09:59:33.000Z</time>
      </trkpt>
      <trkpt lat="42.92743" lon="1.83875">
        <ele>535</ele>
        <time>2022-08-05T09:59:35.000Z</time>
      </trkpt>
      <trkpt lat="42.92737" lon="1.83873">
        <ele>535</ele>
        <time>2022-08-05T09:59:37.000Z</time>
      </trkpt>
      <trkpt lat="42.92728" lon="1.8387">
        <ele>535</ele>
        <time>2022-08-05T09:59:39.000Z</time>
      </trkpt>
      <trkpt lat="42.92722" lon="1.83868">
        <ele>536</ele>
        <time>2022-08-05T09:59:41.000Z</time>
      </trkpt>
      <trkpt lat="42.92717" lon="1.83865">
        <ele>536</ele>
        <time>2022-08-05T09:59:43.000Z</time>
      </trkpt>
      <trkpt lat="42.9271" lon="1.83863">
        <ele>536</ele>
        <time>2022-08-05T09:59:45.000Z</time>
      </trkpt>
      <trkpt lat="42.92705" lon="1.83862">
        <ele>536</ele>
        <time>2022-08-05T09:59:47.000Z</time>
      </trkpt>
      <trkpt lat="42.927" lon="1.8386">
        <ele>536</ele>
        <time>2022-08-05T09:59:49.000Z</time>
      </trkpt>
      <trkpt lat="42.92693" lon="1.83858">
        <ele>537</ele>
        <time>2022-08-05T09:59:51.000Z</time>
      </trkpt>
      <trkpt lat="42.92687" lon="1.83855">
        <ele>537</ele>
        <time>2022-08-05T09:59:53.000Z</time>
      </trkpt>
      <trkpt lat="42.9268" lon="1.83853">
        <ele>537</ele>
        <time>2022-08-05T09:59:55.000Z</time>
      </trkpt>
      <trkpt lat="42.92673" lon="1.8385">
        <ele>537</ele>
        <time>2022-08-05T09:59:57.000Z</time>
      </trkpt>
      <trkpt lat="42.92667" lon="1.83848">
        <ele>537</ele>
        <time>2022-08-05T09:59:59.000Z</time>
      </trkpt>
      <trkpt lat="42.92658" lon="1.83845">
        <ele>537</ele>
        <time>2022-08-05T10:00:01.000Z</time>
      </trkpt>
      <trkpt lat="42.92653" lon="1.83843">
        <ele>538</ele>
        <time>2022-08-05T10:00:03.000Z</time>
      </trkpt>
      <trkpt lat="42.92647" lon="1.83843">
        <ele>538</ele>
        <time>2022-08-05T10:00:05.000Z</time>
      </trkpt>
      <trkpt lat="42.9264" lon="1.8384">
        <ele>538</ele>
        <time>2022-08-05T10:00:07.000Z</time>
      </trkpt>
      <trkpt lat="42.92635" lon="1.83838">
        <ele>538</ele>
        <time>2022-08-05T10:00:09.000Z</time>
      </trkpt>
      <trkpt lat="42.92628" lon="1.83837">
        <ele>538</ele>
        <time>2022-08-05T10:00:11.000Z</time>
      </trkpt>
      <trkpt lat="42.9262" lon="1.83833">
        <ele>538</ele>
        <time>2022-08-05T10:00:13.000Z</time>
      </trkpt>
      <trkpt lat="42.92613" lon="1.83832">
        <ele>539</ele>
        <time>2022-08-05T10:00:15.000Z</time>
      </trkpt>
      <trkpt lat="42.92607" lon="1.8383">
        <ele>539</ele>
        <time>2022-08-05T10:00:17.000Z</time>
      </trkpt>
      <trkpt lat="42.926" lon="1.83828">
        <ele>539</ele>
        <time>2022-08-05T10:00:19.000Z</time>
      </trkpt>
      <trkpt lat="42.92595" lon="1.83825">
        <ele>539</ele>
        <time>2022-08-05T10:00:21.000Z</time>
      </trkpt>
      <trkpt lat="42.92588" lon="1.83823">
        <ele>539</ele>
        <time>2022-08-05T10:00:23.000Z</time>
      </trkpt>
      <trkpt lat="42.9258" lon="1.83822">
        <ele>540</ele>
        <time>2022-08-05T10:00:25.000Z</time>
      </trkpt>
      <trkpt lat="42.92573" lon="1.83818">
        <ele>540</ele>
        <time>2022-08-05T10:00:27.000Z</time>
      </trkpt>
      <trkpt lat="42.92567" lon="1.83817">
        <ele>540</ele>
        <time>2022-08-05T10:00:29.000Z</time>
      </trkpt>
      <trkpt lat="42.92558" lon="1.83813">
        <ele>540</ele>
        <time>2022-08-05T10:00:31.000Z</time>
      </trkpt>
      <trkpt lat="42.92552" lon="1.8381">
        <ele>540</ele>
        <time>2022-08-05T10:00:33.000Z</time>
      </trkpt>
      <trkpt lat="42.92545" lon="1.83808">
        <ele>541</ele>
        <time>2022-08-05T10:00:35.000Z</time>
      </trkpt>
      <trkpt lat="42.92538" lon="1.83807">
        <ele>541</ele>
        <time>2022-08-05T10:00:37.000Z</time>
      </trkpt>
      <trkpt lat="42.92532" lon="1.83805">
        <ele>541</ele>
        <time>2022-08-05T10:00:39.000Z</time>
      </trkpt>
      <trkpt lat="42.92525" lon="1.83802">
        <ele>541</ele>
        <time>2022-08-05T10:00:41.000Z</time>
      </trkpt>
      <trkpt lat="42.9252" lon="1.83798">
        <ele>541</ele>
        <time>2022-08-05T10:00:43.000Z</time>
      </trkpt>
      <trkpt lat="42.92515" lon="1.83793">
        <ele>541</ele>
        <time>2022-08-05T10:00:45.000Z</time>
      </trkpt>
      <trkpt lat="42.9251" lon="1.83788">
        <ele>541</ele>
        <time>2022-08-05T10:00:47.000Z</time>
      </trkpt>
      <trkpt lat="42.92505" lon="1.83782">
        <ele>542</ele>
        <time>2022-08-05T10:00:49.000Z</time>
      </trkpt>
      <trkpt lat="42.92498" lon="1.83777">
        <ele>542</ele>
        <time>2022-08-05T10:00:51.000Z</time>
      </trkpt>
      <trkpt lat="42.92493" lon="1.8377">
        <ele>542</ele>
        <time>2022-08-05T10:00:53.000Z</time>
      </trkpt>
      <trkpt lat="42.92488" lon="1.83763">
        <ele>542</ele>
        <time>2022-08-05T10:00:55.000Z</time>
      </trkpt>
      <trkpt lat="42.92482" lon="1.83757">
        <ele>543</ele>
        <time>2022-08-05T10:00:57.000Z</time>
      </trkpt>
      <trkpt lat="42.92477" lon="1.8375">
        <ele>543</ele>
        <time>2022-08-05T10:00:59.000Z</time>
      </trkpt>
      <trkpt lat="42.9247" lon="1.83743">
        <ele>543</ele>
        <time>2022-08-05T10:01:01.000Z</time>
      </trkpt>
      <trkpt lat="42.92465" lon="1.83735">
        <ele>543</ele>
        <time>2022-08-05T10:01:03.000Z</time>
      </trkpt>
      <trkpt lat="42.9246" lon="1.83728">
        <ele>543</ele>
        <time>2022-08-05T10:01:05.000Z</time>
      </trkpt>
      <trkpt lat="42.92455" lon="1.8372">
        <ele>544</ele>
        <time>2022-08-05T10:01:07.000Z</time>
      </trkpt>
      <trkpt lat="42.92452" lon="1.83708">
        <ele>544</ele>
        <time>2022-08-05T10:01:09.000Z</time>
      </trkpt>
      <trkpt lat="42.92447" lon="1.837">
        <ele>544</ele>
        <time>2022-08-05T10:01:11.000Z</time>
      </trkpt>
      <trkpt lat="42.9244" lon="1.83695">
        <ele>544</ele>
        <time>2022-08-05T10:01:13.000Z</time>
      </trkpt>
      <trkpt lat="42.92435" lon="1.83695">
        <ele>545</ele>
        <time>2022-08-05T10:01:14.000Z</time>
      </trkpt>
      <trkpt lat="42.92427" lon="1.83703">
        <ele>545</ele>
        <time>2022-08-05T10:01:16.000Z</time>
      </trkpt>
      <trkpt lat="42.92423" lon="1.83708">
        <ele>545</ele>
        <time>2022-08-05T10:01:17.000Z</time>
      </trkpt>
      <trkpt lat="42.92422" lon="1.83715">
        <ele>545</ele>
        <time>2022-08-05T10:01:18.000Z</time>
      </trkpt>
      <trkpt lat="42.92422" lon="1.83722">
        <ele>545</ele>
        <time>2022-08-05T10:01:19.000Z</time>
      </trkpt>
      <trkpt lat="42.92423" lon="1.83728">
        <ele>545</ele>
        <time>2022-08-05T10:01:20.000Z</time>
      </trkpt>
      <trkpt lat="42.92423" lon="1.83737">
        <ele>545</ele>
        <time>2022-08-05T10:01:21.000Z</time>
      </trkpt>
      <trkpt lat="42.92423" lon="1.83743">
        <ele>546</ele>
        <time>2022-08-05T10:01:22.000Z</time>
      </trkpt>
      <trkpt lat="42.92425" lon="1.83752">
        <ele>546</ele>
        <time>2022-08-05T10:01:23.000Z</time>
      </trkpt>
      <trkpt lat="42.92428" lon="1.8376">
        <ele>546</ele>
        <time>2022-08-05T10:01:24.000Z</time>
      </trkpt>
      <trkpt lat="42.9243" lon="1.83767">
        <ele>546</ele>
        <time>2022-08-05T10:01:25.000Z</time>
      </trkpt>
      <trkpt lat="42.92433" lon="1.83775">
        <ele>546</ele>
        <time>2022-08-05T10:01:26.000Z</time>
      </trkpt>
      <trkpt lat="42.92435" lon="1.83783">
        <ele>546</ele>
        <time>2022-08-05T10:01:27.000Z</time>
      </trkpt>
      <trkpt lat="42.92435" lon="1.83792">
        <ele>546</ele>
        <time>2022-08-05T10:01:28.000Z</time>
      </trkpt>
      <trkpt lat="42.92433" lon="1.838">
        <ele>546</ele>
        <time>2022-08-05T10:01:29.000Z</time>
      </trkpt>
      <trkpt lat="42.92433" lon="1.83808">
        <ele>546</ele>
        <time>2022-08-05T10:01:30.000Z</time>
      </trkpt>
      <trkpt lat="42.92432" lon="1.83817">
        <ele>546</ele>
        <time>2022-08-05T10:01:31.000Z</time>
      </trkpt>
      <trkpt lat="42.92432" lon="1.83825">
        <ele>546</ele>
        <time>2022-08-05T10:01:32.000Z</time>
      </trkpt>
      <trkpt lat="42.9243" lon="1.83833">
        <ele>546</ele>
        <time>2022-08-05T10:01:33.000Z</time>
      </trkpt>
      <trkpt lat="42.9243" lon="1.8384">
        <ele>546</ele>
        <time>2022-08-05T10:01:34.000Z</time>
      </trkpt>
      <trkpt lat="42.92428" lon="1.83847">
        <ele>546</ele>
        <time>2022-08-05T10:01:35.000Z</time>
      </trkpt>
      <trkpt lat="42.92427" lon="1.83853">
        <ele>546</ele>
        <time>2022-08-05T10:01:36.000Z</time>
      </trkpt>
      <trkpt lat="42.92425" lon="1.83858">
        <ele>546</ele>
        <time>2022-08-05T10:01:37.000Z</time>
      </trkpt>
      <trkpt lat="42.92423" lon="1.83865">
        <ele>546</ele>
        <time>2022-08-05T10:01:38.000Z</time>
      </trkpt>
      <trkpt lat="42.9242" lon="1.83872">
        <ele>546</ele>
        <time>2022-08-05T10:01:39.000Z</time>
      </trkpt>
      <trkpt lat="42.92418" lon="1.83877">
        <ele>546</ele>
        <time>2022-08-05T10:01:40.000Z</time>
      </trkpt>
      <trkpt lat="42.92418" lon="1.83883">
        <ele>546</ele>
        <time>2022-08-05T10:01:41.000Z</time>
      </trkpt>
      <trkpt lat="42.92415" lon="1.8389">
        <ele>546</ele>
        <time>2022-08-05T10:01:42.000Z</time>
      </trkpt>
      <trkpt lat="42.92413" lon="1.83897">
        <ele>546</ele>
        <time>2022-08-05T10:01:43.000Z</time>
      </trkpt>
      <trkpt lat="42.92412" lon="1.83903">
        <ele>546</ele>
        <time>2022-08-05T10:01:44.000Z</time>
      </trkpt>
      <trkpt lat="42.92408" lon="1.8391">
        <ele>546</ele>
        <time>2022-08-05T10:01:45.000Z</time>
      </trkpt>
      <trkpt lat="42.92407" lon="1.83915">
        <ele>546</ele>
        <time>2022-08-05T10:01:46.000Z</time>
      </trkpt>
      <trkpt lat="42.924" lon="1.8392">
        <ele>546</ele>
        <time>2022-08-05T10:01:48.000Z</time>
      </trkpt>
      <trkpt lat="42.92392" lon="1.83915">
        <ele>546</ele>
        <time>2022-08-05T10:01:50.000Z</time>
      </trkpt>
      <trkpt lat="42.92388" lon="1.83912">
        <ele>546</ele>
        <time>2022-08-05T10:01:51.000Z</time>
      </trkpt>
      <trkpt lat="42.92383" lon="1.8391">
        <ele>546</ele>
        <time>2022-08-05T10:01:52.000Z</time>
      </trkpt>
      <trkpt lat="42.9238" lon="1.83907">
        <ele>546</ele>
        <time>2022-08-05T10:01:53.000Z</time>
      </trkpt>
      <trkpt lat="42.92375" lon="1.83903">
        <ele>546</ele>
        <time>2022-08-05T10:01:54.000Z</time>
      </trkpt>
      <trkpt lat="42.9237" lon="1.839">
        <ele>546</ele>
        <time>2022-08-05T10:01:55.000Z</time>
      </trkpt>
      <trkpt lat="42.92367" lon="1.83897">
        <ele>546</ele>
        <time>2022-08-05T10:01:56.000Z</time>
      </trkpt>
      <trkpt lat="42.92362" lon="1.83893">
        <ele>546</ele>
        <time>2022-08-05T10:01:57.000Z</time>
      </trkpt>
      <trkpt lat="42.92355" lon="1.83885">
        <ele>547</ele>
        <time>2022-08-05T10:01:59.000Z</time>
      </trkpt>
      <trkpt lat="42.9235" lon="1.83882">
        <ele>547</ele>
        <time>2022-08-05T10:02:00.000Z</time>
      </trkpt>
      <trkpt lat="42.92343" lon="1.83877">
        <ele>547</ele>
        <time>2022-08-05T10:02:02.000Z</time>
      </trkpt>
      <trkpt lat="42.92335" lon="1.83872">
        <ele>547</ele>
        <time>2022-08-05T10:02:04.000Z</time>
      </trkpt>
      <trkpt lat="42.92328" lon="1.83867">
        <ele>547</ele>
        <time>2022-08-05T10:02:06.000Z</time>
      </trkpt>
      <trkpt lat="42.92322" lon="1.83862">
        <ele>547</ele>
        <time>2022-08-05T10:02:08.000Z</time>
      </trkpt>
      <trkpt lat="42.92313" lon="1.8386">
        <ele>547</ele>
        <time>2022-08-05T10:02:10.000Z</time>
      </trkpt>
      <trkpt lat="42.92305" lon="1.83857">
        <ele>547</ele>
        <time>2022-08-05T10:02:12.000Z</time>
      </trkpt>
      <trkpt lat="42.92298" lon="1.83852">
        <ele>548</ele>
        <time>2022-08-05T10:02:14.000Z</time>
      </trkpt>
      <trkpt lat="42.92293" lon="1.8385">
        <ele>548</ele>
        <time>2022-08-05T10:02:15.000Z</time>
      </trkpt>
      <trkpt lat="42.92287" lon="1.83848">
        <ele>548</ele>
        <time>2022-08-05T10:02:16.000Z</time>
      </trkpt>
      <trkpt lat="42.9228" lon="1.83845">
        <ele>548</ele>
        <time>2022-08-05T10:02:17.000Z</time>
      </trkpt>
      <trkpt lat="42.92275" lon="1.83842">
        <ele>548</ele>
        <time>2022-08-05T10:02:18.000Z</time>
      </trkpt>
      <trkpt lat="42.92268" lon="1.83838">
        <ele>548</ele>
        <time>2022-08-05T10:02:19.000Z</time>
      </trkpt>
      <trkpt lat="42.92262" lon="1.83835">
        <ele>548</ele>
        <time>2022-08-05T10:02:20.000Z</time>
      </trkpt>
      <trkpt lat="42.92257" lon="1.83833">
        <ele>548</ele>
        <time>2022-08-05T10:02:21.000Z</time>
      </trkpt>
      <trkpt lat="42.9225" lon="1.83832">
        <ele>548</ele>
        <time>2022-08-05T10:02:22.000Z</time>
      </trkpt>
      <trkpt lat="42.92245" lon="1.8383">
        <ele>548</ele>
        <time>2022-08-05T10:02:23.000Z</time>
      </trkpt>
      <trkpt lat="42.92238" lon="1.83828">
        <ele>548</ele>
        <time>2022-08-05T10:02:24.000Z</time>
      </trkpt>
      <trkpt lat="42.92233" lon="1.83825">
        <ele>549</ele>
        <time>2022-08-05T10:02:25.000Z</time>
      </trkpt>
      <trkpt lat="42.92227" lon="1.83823">
        <ele>549</ele>
        <time>2022-08-05T10:02:26.000Z</time>
      </trkpt>
      <trkpt lat="42.92222" lon="1.8382">
        <ele>549</ele>
        <time>2022-08-05T10:02:27.000Z</time>
      </trkpt>
      <trkpt lat="42.92217" lon="1.83818">
        <ele>549</ele>
        <time>2022-08-05T10:02:28.000Z</time>
      </trkpt>
      <trkpt lat="42.92212" lon="1.83815">
        <ele>549</ele>
        <time>2022-08-05T10:02:29.000Z</time>
      </trkpt>
      <trkpt lat="42.92207" lon="1.83813">
        <ele>549</ele>
        <time>2022-08-05T10:02:30.000Z</time>
      </trkpt>
      <trkpt lat="42.92203" lon="1.83812">
        <ele>549</ele>
        <time>2022-08-05T10:02:31.000Z</time>
      </trkpt>
      <trkpt lat="42.92198" lon="1.83808">
        <ele>549</ele>
        <time>2022-08-05T10:02:32.000Z</time>
      </trkpt>
      <trkpt lat="42.92193" lon="1.83807">
        <ele>549</ele>
        <time>2022-08-05T10:02:33.000Z</time>
      </trkpt>
      <trkpt lat="42.9219" lon="1.83803">
        <ele>550</ele>
        <time>2022-08-05T10:02:34.000Z</time>
      </trkpt>
      <trkpt lat="42.92185" lon="1.838">
        <ele>550</ele>
        <time>2022-08-05T10:02:35.000Z</time>
      </trkpt>
      <trkpt lat="42.9218" lon="1.83797">
        <ele>550</ele>
        <time>2022-08-05T10:02:36.000Z</time>
      </trkpt>
      <trkpt lat="42.92175" lon="1.83793">
        <ele>550</ele>
        <time>2022-08-05T10:02:37.000Z</time>
      </trkpt>
      <trkpt lat="42.9217" lon="1.8379">
        <ele>550</ele>
        <time>2022-08-05T10:02:38.000Z</time>
      </trkpt>
      <trkpt lat="42.92165" lon="1.83787">
        <ele>550</ele>
        <time>2022-08-05T10:02:39.000Z</time>
      </trkpt>
      <trkpt lat="42.9216" lon="1.83785">
        <ele>550</ele>
        <time>2022-08-05T10:02:40.000Z</time>
      </trkpt>
      <trkpt lat="42.92155" lon="1.83782">
        <ele>550</ele>
        <time>2022-08-05T10:02:41.000Z</time>
      </trkpt>
      <trkpt lat="42.92152" lon="1.83778">
        <ele>551</ele>
        <time>2022-08-05T10:02:42.000Z</time>
      </trkpt>
      <trkpt lat="42.92147" lon="1.83775">
        <ele>551</ele>
        <time>2022-08-05T10:02:43.000Z</time>
      </trkpt>
      <trkpt lat="42.92142" lon="1.83773">
        <ele>551</ele>
        <time>2022-08-05T10:02:44.000Z</time>
      </trkpt>
      <trkpt lat="42.92137" lon="1.8377">
        <ele>551</ele>
        <time>2022-08-05T10:02:45.000Z</time>
      </trkpt>
      <trkpt lat="42.92132" lon="1.83767">
        <ele>551</ele>
        <time>2022-08-05T10:02:46.000Z</time>
      </trkpt>
      <trkpt lat="42.92125" lon="1.83763">
        <ele>551</ele>
        <time>2022-08-05T10:02:47.000Z</time>
      </trkpt>
      <trkpt lat="42.9212" lon="1.8376">
        <ele>551</ele>
        <time>2022-08-05T10:02:48.000Z</time>
      </trkpt>
      <trkpt lat="42.92113" lon="1.83757">
        <ele>552</ele>
        <time>2022-08-05T10:02:49.000Z</time>
      </trkpt>
      <trkpt lat="42.92108" lon="1.83753">
        <ele>552</ele>
        <time>2022-08-05T10:02:50.000Z</time>
      </trkpt>
      <trkpt lat="42.92103" lon="1.8375">
        <ele>552</ele>
        <time>2022-08-05T10:02:51.000Z</time>
      </trkpt>
      <trkpt lat="42.92098" lon="1.83747">
        <ele>552</ele>
        <time>2022-08-05T10:02:52.000Z</time>
      </trkpt>
      <trkpt lat="42.92095" lon="1.83743">
        <ele>552</ele>
        <time>2022-08-05T10:02:53.000Z</time>
      </trkpt>
      <trkpt lat="42.9209" lon="1.8374">
        <ele>552</ele>
        <time>2022-08-05T10:02:54.000Z</time>
      </trkpt>
      <trkpt lat="42.92085" lon="1.83737">
        <ele>552</ele>
        <time>2022-08-05T10:02:55.000Z</time>
      </trkpt>
      <trkpt lat="42.9208" lon="1.83733">
        <ele>552</ele>
        <time>2022-08-05T10:02:56.000Z</time>
      </trkpt>
      <trkpt lat="42.92075" lon="1.83728">
        <ele>553</ele>
        <time>2022-08-05T10:02:57.000Z</time>
      </trkpt>
      <trkpt lat="42.9207" lon="1.83723">
        <ele>553</ele>
        <time>2022-08-05T10:02:58.000Z</time>
      </trkpt>
      <trkpt lat="42.92067" lon="1.83718">
        <ele>553</ele>
        <time>2022-08-05T10:02:59.000Z</time>
      </trkpt>
      <trkpt lat="42.92062" lon="1.83713">
        <ele>553</ele>
        <time>2022-08-05T10:03:00.000Z</time>
      </trkpt>
      <trkpt lat="42.92058" lon="1.83708">
        <ele>553</ele>
        <time>2022-08-05T10:03:01.000Z</time>
      </trkpt>
      <trkpt lat="42.92053" lon="1.83703">
        <ele>553</ele>
        <time>2022-08-05T10:03:02.000Z</time>
      </trkpt>
      <trkpt lat="42.92048" lon="1.83698">
        <ele>553</ele>
        <time>2022-08-05T10:03:03.000Z</time>
      </trkpt>
      <trkpt lat="42.92045" lon="1.83693">
        <ele>553</ele>
        <time>2022-08-05T10:03:04.000Z</time>
      </trkpt>
      <trkpt lat="42.9204" lon="1.83688">
        <ele>554</ele>
        <time>2022-08-05T10:03:05.000Z</time>
      </trkpt>
      <trkpt lat="42.92037" lon="1.83683">
        <ele>554</ele>
        <time>2022-08-05T10:03:06.000Z</time>
      </trkpt>
      <trkpt lat="42.92032" lon="1.83678">
        <ele>554</ele>
        <time>2022-08-05T10:03:07.000Z</time>
      </trkpt>
      <trkpt lat="42.92027" lon="1.83673">
        <ele>554</ele>
        <time>2022-08-05T10:03:08.000Z</time>
      </trkpt>
      <trkpt lat="42.92022" lon="1.83668">
        <ele>554</ele>
        <time>2022-08-05T10:03:09.000Z</time>
      </trkpt>
      <trkpt lat="42.92017" lon="1.83663">
        <ele>554</ele>
        <time>2022-08-05T10:03:10.000Z</time>
      </trkpt>
      <trkpt lat="42.92012" lon="1.83658">
        <ele>554</ele>
        <time>2022-08-05T10:03:11.000Z</time>
      </trkpt>
      <trkpt lat="42.92007" lon="1.83653">
        <ele>555</ele>
        <time>2022-08-05T10:03:12.000Z</time>
      </trkpt>
      <trkpt lat="42.92" lon="1.83648">
        <ele>555</ele>
        <time>2022-08-05T10:03:13.000Z</time>
      </trkpt>
      <trkpt lat="42.91995" lon="1.83643">
        <ele>555</ele>
        <time>2022-08-05T10:03:14.000Z</time>
      </trkpt>
      <trkpt lat="42.9199" lon="1.83638">
        <ele>555</ele>
        <time>2022-08-05T10:03:15.000Z</time>
      </trkpt>
      <trkpt lat="42.91985" lon="1.83633">
        <ele>555</ele>
        <time>2022-08-05T10:03:16.000Z</time>
      </trkpt>
      <trkpt lat="42.9198" lon="1.83628">
        <ele>555</ele>
        <time>2022-08-05T10:03:17.000Z</time>
      </trkpt>
      <trkpt lat="42.91975" lon="1.83623">
        <ele>555</ele>
        <time>2022-08-05T10:03:18.000Z</time>
      </trkpt>
      <trkpt lat="42.9197" lon="1.83618">
        <ele>556</ele>
        <time>2022-08-05T10:03:19.000Z</time>
      </trkpt>
      <trkpt lat="42.91965" lon="1.83615">
        <ele>556</ele>
        <time>2022-08-05T10:03:20.000Z</time>
      </trkpt>
      <trkpt lat="42.9196" lon="1.8361">
        <ele>556</ele>
        <time>2022-08-05T10:03:21.000Z</time>
      </trkpt>
      <trkpt lat="42.91957" lon="1.83605">
        <ele>556</ele>
        <time>2022-08-05T10:03:22.000Z</time>
      </trkpt>
      <trkpt lat="42.91953" lon="1.83602">
        <ele>556</ele>
        <time>2022-08-05T10:03:23.000Z</time>
      </trkpt>
      <trkpt lat="42.91947" lon="1.83593">
        <ele>557</ele>
        <time>2022-08-05T10:03:25.000Z</time>
      </trkpt>
      <trkpt lat="42.91942" lon="1.83587">
        <ele>557</ele>
        <time>2022-08-05T10:03:27.000Z</time>
      </trkpt>
      <trkpt lat="42.91935" lon="1.8358">
        <ele>557</ele>
        <time>2022-08-05T10:03:29.000Z</time>
      </trkpt>
      <trkpt lat="42.91927" lon="1.83578">
        <ele>557</ele>
        <time>2022-08-05T10:03:31.000Z</time>
      </trkpt>
      <trkpt lat="42.91922" lon="1.83583">
        <ele>557</ele>
        <time>2022-08-05T10:03:33.000Z</time>
      </trkpt>
      <trkpt lat="42.91918" lon="1.83588">
        <ele>558</ele>
        <time>2022-08-05T10:03:35.000Z</time>
      </trkpt>
      <trkpt lat="42.91917" lon="1.83595">
        <ele>558</ele>
        <time>2022-08-05T10:03:37.000Z</time>
      </trkpt>
      <trkpt lat="42.91913" lon="1.836">
        <ele>558</ele>
        <time>2022-08-05T10:03:39.000Z</time>
      </trkpt>
      <trkpt lat="42.91912" lon="1.83605">
        <ele>558</ele>
        <time>2022-08-05T10:03:41.000Z</time>
      </trkpt>
      <trkpt lat="42.91905" lon="1.83608">
        <ele>558</ele>
        <time>2022-08-05T10:03:44.000Z</time>
      </trkpt>
      <trkpt lat="42.91902" lon="1.83608">
        <ele>558</ele>
        <time>2022-08-05T10:03:46.000Z</time>
      </trkpt>
      <trkpt lat="42.91897" lon="1.8361">
        <ele>559</ele>
        <time>2022-08-05T10:03:49.000Z</time>
      </trkpt>
      <trkpt lat="42.91892" lon="1.83615">
        <ele>559</ele>
        <time>2022-08-05T10:03:52.000Z</time>
      </trkpt>
      <trkpt lat="42.91888" lon="1.8362">
        <ele>559</ele>
        <time>2022-08-05T10:03:54.000Z</time>
      </trkpt>
      <trkpt lat="42.91885" lon="1.83628">
        <ele>559</ele>
        <time>2022-08-05T10:03:57.000Z</time>
      </trkpt>
      <trkpt lat="42.91883" lon="1.83635">
        <ele>559</ele>
        <time>2022-08-05T10:04:00.000Z</time>
      </trkpt>
      <trkpt lat="42.91878" lon="1.83642">
        <ele>559</ele>
        <time>2022-08-05T10:04:03.000Z</time>
      </trkpt>
      <trkpt lat="42.91875" lon="1.83648">
        <ele>559</ele>
        <time>2022-08-05T10:04:06.000Z</time>
      </trkpt>
      <trkpt lat="42.91872" lon="1.83653">
        <ele>559</ele>
        <time>2022-08-05T10:04:09.000Z</time>
      </trkpt>
      <trkpt lat="42.91868" lon="1.83658">
        <ele>560</ele>
        <time>2022-08-05T10:04:12.000Z</time>
      </trkpt>
      <trkpt lat="42.91867" lon="1.8366">
        <ele>560</ele>
        <time>2022-08-05T10:04:13.000Z</time>
      </trkpt>
    </trkseg>
  </trk>
</gpx>